<?xml version='1.0' encoding='UTF-8'?><gpx version="1.1" creator="JPX - https://github.com/jenetics/jpx" xmlns="http://www.topografix.com/GPX/1/1"><trk><trkseg><trkpt lat="37.3115484" lon="13.5612304"><ele>68.25</ele><time>2026-05-03T13:26:59.519Z</time></trkpt><trkpt lat="37.3116159" lon="13.5611867"><ele>67.5</ele><time>2026-05-03T13:27:00.519Z</time></trkpt><trkpt lat="37.3117147" lon="13.5611247"><ele>66.75</ele><time>2026-05-03T13:27:01.52Z</time></trkpt><trkpt lat="37.311836" lon="13.5610386"><ele>66.0</ele><time>2026-05-03T13:27:02.52Z</time></trkpt><trkpt lat="37.3119789" lon="13.5609278"><ele>66.0</ele><time>2026-05-03T13:27:03.52Z</time></trkpt><trkpt lat="37.3121349" lon="13.5607879"><ele>66.0</ele><time>2026-05-03T13:27:04.52Z</time></trkpt><trkpt lat="37.312291" lon="13.5606465"><ele>66.0</ele><time>2026-05-03T13:27:05.52Z</time></trkpt><trkpt lat="37.3124389" lon="13.560507"><ele>65.33333333333333</ele><time>2026-05-03T13:27:06.52Z</time></trkpt><trkpt lat="37.3125834" lon="13.5603683"><ele>64.66666666666666</ele><time>2026-05-03T13:27:07.52Z</time></trkpt><trkpt lat="37.3127215" lon="13.5602372"><ele>64.0</ele><time>2026-05-03T13:27:08.519Z</time></trkpt><trkpt lat="37.312852" lon="13.5601191"><ele>64.0</ele><time>2026-05-03T13:27:09.519Z</time></trkpt><trkpt lat="37.3129743" lon="13.5600198"><ele>64.0</ele><time>2026-05-03T13:27:10.519Z</time></trkpt><trkpt lat="37.3130898" lon="13.5599365"><ele>64.0</ele><time>2026-05-03T13:27:11.52Z</time></trkpt><trkpt lat="37.3131936" lon="13.5598861"><ele>64.0</ele><time>2026-05-03T13:27:12.519Z</time></trkpt><trkpt lat="37.3132966" lon="13.5598515"><ele>65.5</ele><time>2026-05-03T13:27:13.519Z</time></trkpt><trkpt lat="37.3134089" lon="13.5598376"><ele>67.0</ele><time>2026-05-03T13:27:14.52Z</time></trkpt><trkpt lat="37.3135306" lon="13.5598259"><ele>68.5</ele><time>2026-05-03T13:27:15.519Z</time></trkpt><trkpt lat="37.3136629" lon="13.5598276"><ele>70.0</ele><time>2026-05-03T13:27:16.52Z</time></trkpt><trkpt lat="37.3138029" lon="13.5598174"><ele>71.0</ele><time>2026-05-03T13:27:17.52Z</time></trkpt><trkpt lat="37.313955" lon="13.5598041"><ele>72.0</ele><time>2026-05-03T13:27:18.519Z</time></trkpt><trkpt lat="37.3141069" lon="13.5597762"><ele>73.0</ele><time>2026-05-03T13:27:19.52Z</time></trkpt><trkpt lat="37.3142488" lon="13.559729"><ele>73.0</ele><time>2026-05-03T13:27:20.519Z</time></trkpt><trkpt lat="37.3143837" lon="13.5596549"><ele>73.0</ele><time>2026-05-03T13:27:21.52Z</time></trkpt><trkpt lat="37.314507" lon="13.5595716"><ele>73.0</ele><time>2026-05-03T13:27:22.519Z</time></trkpt><trkpt lat="37.3146294" lon="13.5594769"><ele>73.0</ele><time>2026-05-03T13:27:23.519Z</time></trkpt><trkpt lat="37.3147628" lon="13.5593737"><ele>70.66666666666666</ele><time>2026-05-03T13:27:24.52Z</time></trkpt><trkpt lat="37.3148957" lon="13.5592484"><ele>68.33333333333333</ele><time>2026-05-03T13:27:25.519Z</time></trkpt><trkpt lat="37.3150152" lon="13.559113"><ele>66.0</ele><time>2026-05-03T13:27:26.519Z</time></trkpt><trkpt lat="37.3151315" lon="13.5590014"><ele>66.0</ele><time>2026-05-03T13:27:27.519Z</time></trkpt><trkpt lat="37.3152581" lon="13.5588684"><ele>66.0</ele><time>2026-05-03T13:27:28.519Z</time></trkpt><trkpt lat="37.3153997" lon="13.5587298"><ele>66.0</ele><time>2026-05-03T13:27:29.519Z</time></trkpt><trkpt lat="37.3155327" lon="13.5585988"><ele>64.33333333333333</ele><time>2026-05-03T13:27:30.52Z</time></trkpt><trkpt lat="37.3156627" lon="13.5584715"><ele>62.666666666666664</ele><time>2026-05-03T13:27:31.519Z</time></trkpt><trkpt lat="37.3157876" lon="13.558357"><ele>61.0</ele><time>2026-05-03T13:27:32.519Z</time></trkpt><trkpt lat="37.315915" lon="13.5582466"><ele>61.0</ele><time>2026-05-03T13:27:33.52Z</time></trkpt><trkpt lat="37.3160395" lon="13.5581284"><ele>61.0</ele><time>2026-05-03T13:27:34.519Z</time></trkpt><trkpt lat="37.316161" lon="13.5580314"><ele>61.0</ele><time>2026-05-03T13:27:35.519Z</time></trkpt><trkpt lat="37.3162744" lon="13.55793"><ele>61.0</ele><time>2026-05-03T13:27:36.52Z</time></trkpt><trkpt lat="37.3163794" lon="13.5578295"><ele>61.4</ele><time>2026-05-03T13:27:37.52Z</time></trkpt><trkpt lat="37.3164683" lon="13.5577322"><ele>61.8</ele><time>2026-05-03T13:27:38.52Z</time></trkpt><trkpt lat="37.3165446" lon="13.5576397"><ele>62.199999999999996</ele><time>2026-05-03T13:27:39.52Z</time></trkpt><trkpt lat="37.3165946" lon="13.557534"><ele>62.599999999999994</ele><time>2026-05-03T13:27:40.519Z</time></trkpt><trkpt lat="37.3166075" lon="13.5574207"><ele>63.0</ele><time>2026-05-03T13:27:41.52Z</time></trkpt><trkpt lat="37.3166284" lon="13.5572851"><ele>63.0</ele><time>2026-05-03T13:27:42.52Z</time></trkpt><trkpt lat="37.3166377" lon="13.5571333"><ele>63.0</ele><time>2026-05-03T13:27:43.519Z</time></trkpt><trkpt lat="37.3166423" lon="13.5569672"><ele>63.0</ele><time>2026-05-03T13:27:44.52Z</time></trkpt><trkpt lat="37.3166447" lon="13.5567926"><ele>63.0</ele><time>2026-05-03T13:27:45.519Z</time></trkpt><trkpt lat="37.3166446" lon="13.5566171"><ele>63.5</ele><time>2026-05-03T13:27:46.52Z</time></trkpt><trkpt lat="37.3166462" lon="13.5564506"><ele>64.0</ele><time>2026-05-03T13:27:47.519Z</time></trkpt><trkpt lat="37.31665" lon="13.5563035"><ele>64.5</ele><time>2026-05-03T13:27:48.52Z</time></trkpt><trkpt lat="37.3166568" lon="13.5561696"><ele>65.0</ele><time>2026-05-03T13:27:49.52Z</time></trkpt><trkpt lat="37.316666" lon="13.5560502"><ele>65.4</ele><time>2026-05-03T13:27:50.52Z</time></trkpt><trkpt lat="37.3166803" lon="13.5559609"><ele>65.8</ele><time>2026-05-03T13:27:51.519Z</time></trkpt><trkpt lat="37.3167015" lon="13.5558274"><ele>66.2</ele><time>2026-05-03T13:27:53.519Z</time></trkpt><trkpt lat="37.3166491" lon="13.5557228"><ele>66.6</ele><time>2026-05-03T13:27:55.52Z</time></trkpt><trkpt lat="37.3165848" lon="13.5556915"><ele>67.0</ele><time>2026-05-03T13:27:56.519Z</time></trkpt><trkpt lat="37.3164436" lon="13.5557275"><ele>67.0</ele><time>2026-05-03T13:27:57.519Z</time></trkpt><trkpt lat="37.316369" lon="13.555685"><ele>67.0</ele><time>2026-05-03T13:27:58.52Z</time></trkpt><trkpt lat="37.3163047" lon="13.5556237"><ele>67.0</ele><time>2026-05-03T13:27:59.52Z</time></trkpt><trkpt lat="37.3162555" lon="13.5555385"><ele>67.0</ele><time>2026-05-03T13:28:00.52Z</time></trkpt><trkpt lat="37.3162272" lon="13.5554282"><ele>67.0</ele><time>2026-05-03T13:28:01.519Z</time></trkpt><trkpt lat="37.3162211" lon="13.5553048"><ele>67.0</ele><time>2026-05-03T13:28:02.519Z</time></trkpt><trkpt lat="37.3162334" lon="13.5551646"><ele>67.0</ele><time>2026-05-03T13:28:03.519Z</time></trkpt><trkpt lat="37.3162616" lon="13.5550198"><ele>67.0</ele><time>2026-05-03T13:28:04.52Z</time></trkpt><trkpt lat="37.316302" lon="13.5548614"><ele>67.0</ele><time>2026-05-03T13:28:05.52Z</time></trkpt><trkpt lat="37.3163481" lon="13.5546989"><ele>67.0</ele><time>2026-05-03T13:28:06.52Z</time></trkpt><trkpt lat="37.3164054" lon="13.5545309"><ele>68.33333333333333</ele><time>2026-05-03T13:28:07.52Z</time></trkpt><trkpt lat="37.3164695" lon="13.5543586"><ele>69.66666666666667</ele><time>2026-05-03T13:28:08.52Z</time></trkpt><trkpt lat="37.3165368" lon="13.5541854"><ele>71.0</ele><time>2026-05-03T13:28:09.519Z</time></trkpt><trkpt lat="37.3166003" lon="13.5540015"><ele>71.0</ele><time>2026-05-03T13:28:10.519Z</time></trkpt><trkpt lat="37.3166666" lon="13.5538167"><ele>71.0</ele><time>2026-05-03T13:28:11.519Z</time></trkpt><trkpt lat="37.3167335" lon="13.5536228"><ele>71.0</ele><time>2026-05-03T13:28:12.52Z</time></trkpt><trkpt lat="37.3168014" lon="13.5534249"><ele>71.66666666666667</ele><time>2026-05-03T13:28:13.519Z</time></trkpt><trkpt lat="37.3168673" lon="13.553223"><ele>72.33333333333333</ele><time>2026-05-03T13:28:14.519Z</time></trkpt><trkpt lat="37.3169285" lon="13.5530165"><ele>73.0</ele><time>2026-05-03T13:28:15.519Z</time></trkpt><trkpt lat="37.3169818" lon="13.5528048"><ele>74.33333333333333</ele><time>2026-05-03T13:28:16.52Z</time></trkpt><trkpt lat="37.3170328" lon="13.552596"><ele>75.66666666666667</ele><time>2026-05-03T13:28:17.52Z</time></trkpt><trkpt lat="37.3170801" lon="13.5523827"><ele>77.0</ele><time>2026-05-03T13:28:18.52Z</time></trkpt><trkpt lat="37.3171307" lon="13.5521756"><ele>76.66666666666667</ele><time>2026-05-03T13:28:19.519Z</time></trkpt><trkpt lat="37.3171825" lon="13.5519674"><ele>76.33333333333333</ele><time>2026-05-03T13:28:20.519Z</time></trkpt><trkpt lat="37.3172447" lon="13.5517678"><ele>76.0</ele><time>2026-05-03T13:28:21.52Z</time></trkpt><trkpt lat="37.3173136" lon="13.5515731"><ele>76.0</ele><time>2026-05-03T13:28:22.52Z</time></trkpt><trkpt lat="37.3173894" lon="13.5513839"><ele>76.0</ele><time>2026-05-03T13:28:23.52Z</time></trkpt><trkpt lat="37.317459" lon="13.5512075"><ele>76.0</ele><time>2026-05-03T13:28:24.52Z</time></trkpt><trkpt lat="37.3175213" lon="13.5510426"><ele>76.5</ele><time>2026-05-03T13:28:25.52Z</time></trkpt><trkpt lat="37.3175809" lon="13.550889"><ele>77.0</ele><time>2026-05-03T13:28:26.52Z</time></trkpt><trkpt lat="37.3176395" lon="13.5507447"><ele>77.5</ele><time>2026-05-03T13:28:27.52Z</time></trkpt><trkpt lat="37.3176895" lon="13.5506069"><ele>78.0</ele><time>2026-05-03T13:28:28.52Z</time></trkpt><trkpt lat="37.3177396" lon="13.5504676"><ele>78.0</ele><time>2026-05-03T13:28:29.52Z</time></trkpt><trkpt lat="37.3177834" lon="13.550312"><ele>78.0</ele><time>2026-05-03T13:28:30.519Z</time></trkpt><trkpt lat="37.3178163" lon="13.5501355"><ele>78.0</ele><time>2026-05-03T13:28:31.519Z</time></trkpt><trkpt lat="37.3178477" lon="13.5499508"><ele>78.0</ele><time>2026-05-03T13:28:32.519Z</time></trkpt><trkpt lat="37.3178824" lon="13.5497543"><ele>78.0</ele><time>2026-05-03T13:28:33.519Z</time></trkpt><trkpt lat="37.3179168" lon="13.5495498"><ele>78.0</ele><time>2026-05-03T13:28:34.52Z</time></trkpt><trkpt lat="37.3179589" lon="13.5493409"><ele>78.0</ele><time>2026-05-03T13:28:35.52Z</time></trkpt><trkpt lat="37.3179945" lon="13.5491264"><ele>78.33333333333333</ele><time>2026-05-03T13:28:36.52Z</time></trkpt><trkpt lat="37.3180323" lon="13.5489073"><ele>78.66666666666666</ele><time>2026-05-03T13:28:37.519Z</time></trkpt><trkpt lat="37.3180745" lon="13.5486855"><ele>79.0</ele><time>2026-05-03T13:28:38.52Z</time></trkpt><trkpt lat="37.318114" lon="13.5484647"><ele>81.33333333333333</ele><time>2026-05-03T13:28:39.52Z</time></trkpt><trkpt lat="37.3181544" lon="13.5482479"><ele>83.66666666666667</ele><time>2026-05-03T13:28:40.52Z</time></trkpt><trkpt lat="37.3181932" lon="13.5480314"><ele>86.0</ele><time>2026-05-03T13:28:41.519Z</time></trkpt><trkpt lat="37.3182326" lon="13.5478194"><ele>86.66666666666667</ele><time>2026-05-03T13:28:42.52Z</time></trkpt><trkpt lat="37.3182678" lon="13.5476159"><ele>87.33333333333333</ele><time>2026-05-03T13:28:43.519Z</time></trkpt><trkpt lat="37.3183046" lon="13.5474202"><ele>88.0</ele><time>2026-05-03T13:28:44.52Z</time></trkpt><trkpt lat="37.3183409" lon="13.54723"><ele>88.33333333333333</ele><time>2026-05-03T13:28:45.52Z</time></trkpt><trkpt lat="37.3183809" lon="13.5470424"><ele>88.66666666666667</ele><time>2026-05-03T13:28:46.519Z</time></trkpt><trkpt lat="37.3184248" lon="13.546863"><ele>89.0</ele><time>2026-05-03T13:28:47.52Z</time></trkpt><trkpt lat="37.3184741" lon="13.5466866"><ele>89.0</ele><time>2026-05-03T13:28:48.519Z</time></trkpt><trkpt lat="37.3185319" lon="13.5465111"><ele>89.0</ele><time>2026-05-03T13:28:49.52Z</time></trkpt><trkpt lat="37.318595" lon="13.5463437"><ele>89.0</ele><time>2026-05-03T13:28:50.52Z</time></trkpt><trkpt lat="37.3186684" lon="13.5461786"><ele>89.0</ele><time>2026-05-03T13:28:51.52Z</time></trkpt><trkpt lat="37.3187491" lon="13.5460132"><ele>88.0</ele><time>2026-05-03T13:28:52.52Z</time></trkpt><trkpt lat="37.3188338" lon="13.545848"><ele>87.0</ele><time>2026-05-03T13:28:53.52Z</time></trkpt><trkpt lat="37.3189204" lon="13.5456745"><ele>86.0</ele><time>2026-05-03T13:28:54.519Z</time></trkpt><trkpt lat="37.3190076" lon="13.5454981"><ele>88.0</ele><time>2026-05-03T13:28:55.519Z</time></trkpt><trkpt lat="37.3190917" lon="13.5453161"><ele>90.0</ele><time>2026-05-03T13:28:56.519Z</time></trkpt><trkpt lat="37.3191703" lon="13.5451304"><ele>92.0</ele><time>2026-05-03T13:28:57.519Z</time></trkpt><trkpt lat="37.31924" lon="13.5449394"><ele>92.0</ele><time>2026-05-03T13:28:58.519Z</time></trkpt><trkpt lat="37.3193029" lon="13.5447418"><ele>92.0</ele><time>2026-05-03T13:28:59.519Z</time></trkpt><trkpt lat="37.3193628" lon="13.5445394"><ele>92.0</ele><time>2026-05-03T13:29:00.52Z</time></trkpt><trkpt lat="37.3194155" lon="13.5443307"><ele>91.33333333333334</ele><time>2026-05-03T13:29:01.519Z</time></trkpt><trkpt lat="37.3194591" lon="13.5441165"><ele>90.66666666666667</ele><time>2026-05-03T13:29:02.519Z</time></trkpt><trkpt lat="37.3195049" lon="13.5439029"><ele>90.0</ele><time>2026-05-03T13:29:03.52Z</time></trkpt><trkpt lat="37.3195524" lon="13.5436888"><ele>90.0</ele><time>2026-05-03T13:29:04.52Z</time></trkpt><trkpt lat="37.3196005" lon="13.5434708"><ele>90.0</ele><time>2026-05-03T13:29:05.519Z</time></trkpt><trkpt lat="37.3196501" lon="13.5432491"><ele>90.0</ele><time>2026-05-03T13:29:06.519Z</time></trkpt><trkpt lat="37.3197025" lon="13.5430281"><ele>91.33333333333333</ele><time>2026-05-03T13:29:07.52Z</time></trkpt><trkpt lat="37.3197537" lon="13.5428108"><ele>92.66666666666666</ele><time>2026-05-03T13:29:08.519Z</time></trkpt><trkpt lat="37.3198027" lon="13.5425902"><ele>94.0</ele><time>2026-05-03T13:29:09.52Z</time></trkpt><trkpt lat="37.3198532" lon="13.5423726"><ele>94.0</ele><time>2026-05-03T13:29:10.52Z</time></trkpt><trkpt lat="37.3199064" lon="13.5421584"><ele>94.0</ele><time>2026-05-03T13:29:11.519Z</time></trkpt><trkpt lat="37.3199569" lon="13.5419497"><ele>94.0</ele><time>2026-05-03T13:29:12.52Z</time></trkpt><trkpt lat="37.3200056" lon="13.5417415"><ele>94.66666666666666</ele><time>2026-05-03T13:29:13.52Z</time></trkpt><trkpt lat="37.3200543" lon="13.5415367"><ele>95.33333333333333</ele><time>2026-05-03T13:29:14.519Z</time></trkpt><trkpt lat="37.3201004" lon="13.5413347"><ele>96.0</ele><time>2026-05-03T13:29:15.52Z</time></trkpt><trkpt lat="37.3201462" lon="13.541133"><ele>96.33333333333334</ele><time>2026-05-03T13:29:16.52Z</time></trkpt><trkpt lat="37.3201963" lon="13.540939"><ele>96.66666666666667</ele><time>2026-05-03T13:29:17.519Z</time></trkpt><trkpt lat="37.3202535" lon="13.5407477"><ele>97.0</ele><time>2026-05-03T13:29:18.52Z</time></trkpt><trkpt lat="37.3203176" lon="13.5405573"><ele>97.0</ele><time>2026-05-03T13:29:19.519Z</time></trkpt><trkpt lat="37.3203857" lon="13.5403807"><ele>97.0</ele><time>2026-05-03T13:29:20.519Z</time></trkpt><trkpt lat="37.320461" lon="13.5402064"><ele>97.0</ele><time>2026-05-03T13:29:21.519Z</time></trkpt><trkpt lat="37.3205412" lon="13.5400369"><ele>98.0</ele><time>2026-05-03T13:29:22.519Z</time></trkpt><trkpt lat="37.3206231" lon="13.5398651"><ele>99.0</ele><time>2026-05-03T13:29:23.52Z</time></trkpt><trkpt lat="37.3207095" lon="13.539693"><ele>100.0</ele><time>2026-05-03T13:29:24.519Z</time></trkpt><trkpt lat="37.3207968" lon="13.5395216"><ele>100.0</ele><time>2026-05-03T13:29:25.519Z</time></trkpt><trkpt lat="37.3208863" lon="13.5393578"><ele>100.0</ele><time>2026-05-03T13:29:26.52Z</time></trkpt><trkpt lat="37.3209836" lon="13.5391919"><ele>100.0</ele><time>2026-05-03T13:29:27.519Z</time></trkpt><trkpt lat="37.3210887" lon="13.5390319"><ele>100.0</ele><time>2026-05-03T13:29:28.52Z</time></trkpt><trkpt lat="37.3211926" lon="13.5388729"><ele>100.0</ele><time>2026-05-03T13:29:29.519Z</time></trkpt><trkpt lat="37.3212927" lon="13.5387121"><ele>100.0</ele><time>2026-05-03T13:29:30.52Z</time></trkpt><trkpt lat="37.3213927" lon="13.5385519"><ele>101.0</ele><time>2026-05-03T13:29:31.52Z</time></trkpt><trkpt lat="37.3214903" lon="13.5383967"><ele>102.0</ele><time>2026-05-03T13:29:32.519Z</time></trkpt><trkpt lat="37.3215804" lon="13.5382486"><ele>103.0</ele><time>2026-05-03T13:29:33.52Z</time></trkpt><trkpt lat="37.3216621" lon="13.5381177"><ele>104.0</ele><time>2026-05-03T13:29:34.519Z</time></trkpt><trkpt lat="37.321732" lon="13.537983"><ele>104.25</ele><time>2026-05-03T13:29:35.519Z</time></trkpt><trkpt lat="37.3217903" lon="13.5378439"><ele>104.5</ele><time>2026-05-03T13:29:36.519Z</time></trkpt><trkpt lat="37.321841" lon="13.5376883"><ele>104.75</ele><time>2026-05-03T13:29:37.519Z</time></trkpt><trkpt lat="37.3218809" lon="13.5375234"><ele>105.0</ele><time>2026-05-03T13:29:38.519Z</time></trkpt><trkpt lat="37.3219195" lon="13.5373533"><ele>105.0</ele><time>2026-05-03T13:29:39.52Z</time></trkpt><trkpt lat="37.3219663" lon="13.5371747"><ele>105.0</ele><time>2026-05-03T13:29:40.52Z</time></trkpt><trkpt lat="37.3220157" lon="13.5369847"><ele>105.0</ele><time>2026-05-03T13:29:41.52Z</time></trkpt><trkpt lat="37.3220604" lon="13.5367955"><ele>105.33333333333334</ele><time>2026-05-03T13:29:42.519Z</time></trkpt><trkpt lat="37.3221091" lon="13.5366018"><ele>105.66666666666667</ele><time>2026-05-03T13:29:43.52Z</time></trkpt><trkpt lat="37.322155" lon="13.5364059"><ele>106.0</ele><time>2026-05-03T13:29:44.52Z</time></trkpt><trkpt lat="37.322206" lon="13.5362064"><ele>107.66666666666667</ele><time>2026-05-03T13:29:45.52Z</time></trkpt><trkpt lat="37.3222598" lon="13.5359964"><ele>109.33333333333334</ele><time>2026-05-03T13:29:46.52Z</time></trkpt><trkpt lat="37.3223138" lon="13.5357916"><ele>111.0</ele><time>2026-05-03T13:29:47.519Z</time></trkpt><trkpt lat="37.3223656" lon="13.5355789"><ele>111.66666666666666</ele><time>2026-05-03T13:29:48.52Z</time></trkpt><trkpt lat="37.32242" lon="13.5353646"><ele>112.33333333333333</ele><time>2026-05-03T13:29:49.519Z</time></trkpt><trkpt lat="37.322475" lon="13.5351481"><ele>113.0</ele><time>2026-05-03T13:29:50.519Z</time></trkpt><trkpt lat="37.3225297" lon="13.5349341"><ele>113.0</ele><time>2026-05-03T13:29:51.52Z</time></trkpt><trkpt lat="37.3225856" lon="13.5347219"><ele>113.0</ele><time>2026-05-03T13:29:52.52Z</time></trkpt><trkpt lat="37.3226409" lon="13.5345129"><ele>113.0</ele><time>2026-05-03T13:29:53.52Z</time></trkpt><trkpt lat="37.3226979" lon="13.5343087"><ele>113.66666666666666</ele><time>2026-05-03T13:29:54.519Z</time></trkpt><trkpt lat="37.3227522" lon="13.5341053"><ele>114.33333333333334</ele><time>2026-05-03T13:29:55.519Z</time></trkpt><trkpt lat="37.3228063" lon="13.5339038"><ele>115.0</ele><time>2026-05-03T13:29:56.52Z</time></trkpt><trkpt lat="37.3228635" lon="13.5337048"><ele>115.66666666666667</ele><time>2026-05-03T13:29:57.52Z</time></trkpt><trkpt lat="37.3229249" lon="13.5335072"><ele>116.33333333333334</ele><time>2026-05-03T13:29:58.52Z</time></trkpt><trkpt lat="37.3229921" lon="13.533311"><ele>117.0</ele><time>2026-05-03T13:29:59.519Z</time></trkpt><trkpt lat="37.3230589" lon="13.5331122"><ele>118.33333333333334</ele><time>2026-05-03T13:30:00.519Z</time></trkpt><trkpt lat="37.3231275" lon="13.5329105"><ele>119.66666666666667</ele><time>2026-05-03T13:30:01.519Z</time></trkpt><trkpt lat="37.3231969" lon="13.5327102"><ele>121.0</ele><time>2026-05-03T13:30:02.52Z</time></trkpt><trkpt lat="37.3232673" lon="13.5325094"><ele>121.33333333333334</ele><time>2026-05-03T13:30:03.52Z</time></trkpt><trkpt lat="37.3233391" lon="13.5323116"><ele>121.66666666666666</ele><time>2026-05-03T13:30:04.52Z</time></trkpt><trkpt lat="37.3234117" lon="13.5321068"><ele>122.0</ele><time>2026-05-03T13:30:05.52Z</time></trkpt><trkpt lat="37.3234814" lon="13.5319056"><ele>123.33333333333333</ele><time>2026-05-03T13:30:06.52Z</time></trkpt><trkpt lat="37.3235523" lon="13.5317034"><ele>124.66666666666666</ele><time>2026-05-03T13:30:07.519Z</time></trkpt><trkpt lat="37.3236097" lon="13.5316061"><ele>126.0</ele><time>2026-05-03T13:30:08.52Z</time></trkpt><trkpt lat="37.3236854" lon="13.5313942"><ele>127.0</ele><time>2026-05-03T13:30:09.519Z</time></trkpt><trkpt lat="37.3237581" lon="13.5311807"><ele>128.0</ele><time>2026-05-03T13:30:10.519Z</time></trkpt><trkpt lat="37.3238326" lon="13.5309718"><ele>129.0</ele><time>2026-05-03T13:30:11.52Z</time></trkpt><trkpt lat="37.3239078" lon="13.530762"><ele>129.33333333333334</ele><time>2026-05-03T13:30:12.52Z</time></trkpt><trkpt lat="37.3239825" lon="13.5305538"><ele>129.66666666666669</ele><time>2026-05-03T13:30:13.52Z</time></trkpt><trkpt lat="37.3240532" lon="13.5303497"><ele>130.0</ele><time>2026-05-03T13:30:14.52Z</time></trkpt><trkpt lat="37.3241275" lon="13.5301443"><ele>131.33333333333334</ele><time>2026-05-03T13:30:15.52Z</time></trkpt><trkpt lat="37.3241901" lon="13.5299319"><ele>132.66666666666666</ele><time>2026-05-03T13:30:16.52Z</time></trkpt><trkpt lat="37.3242477" lon="13.5297247"><ele>134.0</ele><time>2026-05-03T13:30:17.519Z</time></trkpt><trkpt lat="37.3243035" lon="13.5295111"><ele>135.0</ele><time>2026-05-03T13:30:18.519Z</time></trkpt><trkpt lat="37.3243518" lon="13.5292971"><ele>136.0</ele><time>2026-05-03T13:30:19.52Z</time></trkpt><trkpt lat="37.3243974" lon="13.529085"><ele>137.0</ele><time>2026-05-03T13:30:20.52Z</time></trkpt><trkpt lat="37.3244426" lon="13.528873"><ele>136.33333333333331</ele><time>2026-05-03T13:30:21.519Z</time></trkpt><trkpt lat="37.3244915" lon="13.528672"><ele>135.66666666666666</ele><time>2026-05-03T13:30:22.52Z</time></trkpt><trkpt lat="37.3245359" lon="13.5284708"><ele>135.0</ele><time>2026-05-03T13:30:23.519Z</time></trkpt><trkpt lat="37.3245825" lon="13.5282836"><ele>135.0</ele><time>2026-05-03T13:30:24.52Z</time></trkpt><trkpt lat="37.3246273" lon="13.5281149"><ele>135.0</ele><time>2026-05-03T13:30:25.52Z</time></trkpt><trkpt lat="37.324672" lon="13.5279557"><ele>135.0</ele><time>2026-05-03T13:30:26.52Z</time></trkpt><trkpt lat="37.3247135" lon="13.5278041"><ele>135.0</ele><time>2026-05-03T13:30:27.52Z</time></trkpt><trkpt lat="37.3247521" lon="13.5276575"><ele>135.75</ele><time>2026-05-03T13:30:28.52Z</time></trkpt><trkpt lat="37.3247889" lon="13.5274966"><ele>136.5</ele><time>2026-05-03T13:30:29.519Z</time></trkpt><trkpt lat="37.3248174" lon="13.5273353"><ele>137.25</ele><time>2026-05-03T13:30:30.519Z</time></trkpt><trkpt lat="37.3248519" lon="13.5271969"><ele>138.0</ele><time>2026-05-03T13:30:31.52Z</time></trkpt><trkpt lat="37.324884" lon="13.5270687"><ele>136.4</ele><time>2026-05-03T13:30:32.519Z</time></trkpt><trkpt lat="37.3249219" lon="13.5269649"><ele>134.8</ele><time>2026-05-03T13:30:33.52Z</time></trkpt><trkpt lat="37.3249753" lon="13.5268976"><ele>133.2</ele><time>2026-05-03T13:30:34.52Z</time></trkpt><trkpt lat="37.32504" lon="13.5268332"><ele>131.6</ele><time>2026-05-03T13:30:36.52Z</time></trkpt><trkpt lat="37.3251806" lon="13.5268841"><ele>130.0</ele><time>2026-05-03T13:30:38.519Z</time></trkpt><trkpt lat="37.3252225" lon="13.5269499"><ele>127.0</ele><time>2026-05-03T13:30:39.52Z</time></trkpt><trkpt lat="37.3258795" lon="13.5261363"><ele>127.0</ele><time>2026-05-03T13:30:41.52Z</time></trkpt><trkpt lat="37.3259033" lon="13.525937"><ele>127.0</ele><time>2026-05-03T13:30:42.519Z</time></trkpt><trkpt lat="37.3259261" lon="13.5257385"><ele>127.0</ele><time>2026-05-03T13:30:43.519Z</time></trkpt><trkpt lat="37.3259486" lon="13.5255425"><ele>127.0</ele><time>2026-05-03T13:30:44.52Z</time></trkpt><trkpt lat="37.3259675" lon="13.5253567"><ele>127.0</ele><time>2026-05-03T13:30:45.52Z</time></trkpt><trkpt lat="37.3259872" lon="13.5251939"><ele>127.0</ele><time>2026-05-03T13:30:46.519Z</time></trkpt><trkpt lat="37.3260123" lon="13.5250527"><ele>127.0</ele><time>2026-05-03T13:30:47.52Z</time></trkpt><trkpt lat="37.3260479" lon="13.5249235"><ele>127.0</ele><time>2026-05-03T13:30:48.519Z</time></trkpt><trkpt lat="37.3261019" lon="13.5248077"><ele>127.0</ele><time>2026-05-03T13:30:49.52Z</time></trkpt><trkpt lat="37.3261762" lon="13.5246979"><ele>127.0</ele><time>2026-05-03T13:30:50.52Z</time></trkpt><trkpt lat="37.3262741" lon="13.5245909"><ele>127.0</ele><time>2026-05-03T13:30:51.519Z</time></trkpt><trkpt lat="37.3263819" lon="13.5244884"><ele>127.0</ele><time>2026-05-03T13:30:52.519Z</time></trkpt><trkpt lat="37.3265008" lon="13.5243744"><ele>127.0</ele><time>2026-05-03T13:30:53.519Z</time></trkpt><trkpt lat="37.3266241" lon="13.5242493"><ele>127.0</ele><time>2026-05-03T13:30:54.52Z</time></trkpt><trkpt lat="37.3267513" lon="13.5241157"><ele>127.0</ele><time>2026-05-03T13:30:55.519Z</time></trkpt><trkpt lat="37.3268799" lon="13.5239696"><ele>127.0</ele><time>2026-05-03T13:30:56.52Z</time></trkpt><trkpt lat="37.3269916" lon="13.523801"><ele>127.0</ele><time>2026-05-03T13:30:57.519Z</time></trkpt><trkpt lat="37.3271107" lon="13.5236362"><ele>127.0</ele><time>2026-05-03T13:30:58.52Z</time></trkpt><trkpt lat="37.327233" lon="13.5234706"><ele>127.0</ele><time>2026-05-03T13:30:59.519Z</time></trkpt><trkpt lat="37.3273496" lon="13.5232999"><ele>127.0</ele><time>2026-05-03T13:31:00.52Z</time></trkpt><trkpt lat="37.3274715" lon="13.5231323"><ele>127.0</ele><time>2026-05-03T13:31:01.519Z</time></trkpt><trkpt lat="37.3275899" lon="13.5229623"><ele>127.0</ele><time>2026-05-03T13:31:02.519Z</time></trkpt><trkpt lat="37.3277073" lon="13.5227998"><ele>127.0</ele><time>2026-05-03T13:31:03.52Z</time></trkpt><trkpt lat="37.3278251" lon="13.52264"><ele>126.33333333333334</ele><time>2026-05-03T13:31:04.519Z</time></trkpt><trkpt lat="37.3279312" lon="13.5224733"><ele>125.66666666666666</ele><time>2026-05-03T13:31:05.52Z</time></trkpt><trkpt lat="37.3280395" lon="13.5223265"><ele>125.0</ele><time>2026-05-03T13:31:06.52Z</time></trkpt><trkpt lat="37.3281387" lon="13.5221842"><ele>125.5</ele><time>2026-05-03T13:31:07.52Z</time></trkpt><trkpt lat="37.328228" lon="13.5220516"><ele>126.0</ele><time>2026-05-03T13:31:08.519Z</time></trkpt><trkpt lat="37.3283211" lon="13.5219211"><ele>126.5</ele><time>2026-05-03T13:31:09.519Z</time></trkpt><trkpt lat="37.3284148" lon="13.5218003"><ele>127.0</ele><time>2026-05-03T13:31:10.52Z</time></trkpt><trkpt lat="37.3285174" lon="13.5216869"><ele>127.0</ele><time>2026-05-03T13:31:11.52Z</time></trkpt><trkpt lat="37.3286321" lon="13.5215739"><ele>127.0</ele><time>2026-05-03T13:31:12.52Z</time></trkpt><trkpt lat="37.3287483" lon="13.5214522"><ele>127.0</ele><time>2026-05-03T13:31:13.52Z</time></trkpt><trkpt lat="37.3288666" lon="13.5213273"><ele>126.0</ele><time>2026-05-03T13:31:14.52Z</time></trkpt><trkpt lat="37.3289866" lon="13.5211997"><ele>125.0</ele><time>2026-05-03T13:31:15.52Z</time></trkpt><trkpt lat="37.3291002" lon="13.5210691"><ele>124.0</ele><time>2026-05-03T13:31:16.52Z</time></trkpt><trkpt lat="37.3292103" lon="13.5209195"><ele>124.0</ele><time>2026-05-03T13:31:17.519Z</time></trkpt><trkpt lat="37.3293121" lon="13.5207475"><ele>124.0</ele><time>2026-05-03T13:31:18.519Z</time></trkpt><trkpt lat="37.329405" lon="13.5205644"><ele>124.0</ele><time>2026-05-03T13:31:19.519Z</time></trkpt><trkpt lat="37.3294995" lon="13.520375"><ele>124.0</ele><time>2026-05-03T13:31:20.52Z</time></trkpt><trkpt lat="37.3295917" lon="13.5201801"><ele>124.0</ele><time>2026-05-03T13:31:21.519Z</time></trkpt><trkpt lat="37.3296781" lon="13.5199818"><ele>124.0</ele><time>2026-05-03T13:31:22.52Z</time></trkpt><trkpt lat="37.3297593" lon="13.5197833"><ele>124.33333333333334</ele><time>2026-05-03T13:31:23.52Z</time></trkpt><trkpt lat="37.3298454" lon="13.5195892"><ele>124.66666666666666</ele><time>2026-05-03T13:31:24.519Z</time></trkpt><trkpt lat="37.3299415" lon="13.5194017"><ele>125.0</ele><time>2026-05-03T13:31:25.519Z</time></trkpt><trkpt lat="37.3300313" lon="13.519215"><ele>125.33333333333333</ele><time>2026-05-03T13:31:26.519Z</time></trkpt><trkpt lat="37.330109" lon="13.5190139"><ele>125.66666666666666</ele><time>2026-05-03T13:31:27.52Z</time></trkpt><trkpt lat="37.3301801" lon="13.5187995"><ele>126.0</ele><time>2026-05-03T13:31:28.519Z</time></trkpt><trkpt lat="37.3302446" lon="13.5185825"><ele>126.33333333333334</ele><time>2026-05-03T13:31:29.519Z</time></trkpt><trkpt lat="37.3303022" lon="13.5183675"><ele>126.66666666666667</ele><time>2026-05-03T13:31:30.52Z</time></trkpt><trkpt lat="37.3303659" lon="13.5181645"><ele>127.0</ele><time>2026-05-03T13:31:31.519Z</time></trkpt><trkpt lat="37.330427" lon="13.5179621"><ele>127.0</ele><time>2026-05-03T13:31:32.52Z</time></trkpt><trkpt lat="37.3305041" lon="13.5177775"><ele>127.0</ele><time>2026-05-03T13:31:33.519Z</time></trkpt><trkpt lat="37.3305922" lon="13.5175971"><ele>127.0</ele><time>2026-05-03T13:31:34.518Z</time></trkpt><trkpt lat="37.330679" lon="13.5174154"><ele>127.0</ele><time>2026-05-03T13:31:35.519Z</time></trkpt><trkpt lat="37.3307604" lon="13.5172357"><ele>127.0</ele><time>2026-05-03T13:31:36.518Z</time></trkpt><trkpt lat="37.3308362" lon="13.5170607"><ele>127.0</ele><time>2026-05-03T13:31:37.519Z</time></trkpt><trkpt lat="37.3309031" lon="13.5168856"><ele>125.66666666666667</ele><time>2026-05-03T13:31:38.518Z</time></trkpt><trkpt lat="37.3309637" lon="13.5167044"><ele>124.33333333333334</ele><time>2026-05-03T13:31:39.518Z</time></trkpt><trkpt lat="37.3310209" lon="13.5165219"><ele>123.0</ele><time>2026-05-03T13:31:40.519Z</time></trkpt><trkpt lat="37.3310698" lon="13.5163303"><ele>121.0</ele><time>2026-05-03T13:31:41.518Z</time></trkpt><trkpt lat="37.3311126" lon="13.5161363"><ele>119.0</ele><time>2026-05-03T13:31:42.518Z</time></trkpt><trkpt lat="37.3311507" lon="13.5159427"><ele>117.0</ele><time>2026-05-03T13:31:43.519Z</time></trkpt><trkpt lat="37.3311881" lon="13.515748"><ele>117.0</ele><time>2026-05-03T13:31:44.518Z</time></trkpt><trkpt lat="37.3312198" lon="13.5155486"><ele>117.0</ele><time>2026-05-03T13:31:45.519Z</time></trkpt><trkpt lat="37.3312666" lon="13.51534"><ele>117.0</ele><time>2026-05-03T13:31:46.518Z</time></trkpt><trkpt lat="37.3313009" lon="13.5151308"><ele>117.0</ele><time>2026-05-03T13:31:47.519Z</time></trkpt><trkpt lat="37.3313387" lon="13.5149392"><ele>117.0</ele><time>2026-05-03T13:31:48.518Z</time></trkpt><trkpt lat="37.3313717" lon="13.5147628"><ele>117.0</ele><time>2026-05-03T13:31:49.518Z</time></trkpt><trkpt lat="37.3314093" lon="13.5146161"><ele>117.0</ele><time>2026-05-03T13:31:50.518Z</time></trkpt><trkpt lat="37.3314537" lon="13.5145045"><ele>119.6</ele><time>2026-05-03T13:31:51.518Z</time></trkpt><trkpt lat="37.3315144" lon="13.5144179"><ele>122.19999999999999</ele><time>2026-05-03T13:31:52.519Z</time></trkpt><trkpt lat="37.3315882" lon="13.5143607"><ele>124.8</ele><time>2026-05-03T13:31:53.519Z</time></trkpt><trkpt lat="37.3316763" lon="13.5143266"><ele>127.4</ele><time>2026-05-03T13:31:54.519Z</time></trkpt><trkpt lat="37.3317765" lon="13.5143074"><ele>130.0</ele><time>2026-05-03T13:31:55.518Z</time></trkpt><trkpt lat="37.3318821" lon="13.5142899"><ele>130.0</ele><time>2026-05-03T13:31:56.518Z</time></trkpt><trkpt lat="37.3319952" lon="13.5142641"><ele>130.0</ele><time>2026-05-03T13:31:57.519Z</time></trkpt><trkpt lat="37.3321097" lon="13.514225"><ele>130.0</ele><time>2026-05-03T13:31:58.519Z</time></trkpt><trkpt lat="37.3322211" lon="13.514166"><ele>130.0</ele><time>2026-05-03T13:31:59.518Z</time></trkpt><trkpt lat="37.3323249" lon="13.5140837"><ele>130.25</ele><time>2026-05-03T13:32:00.519Z</time></trkpt><trkpt lat="37.3324212" lon="13.5139872"><ele>130.5</ele><time>2026-05-03T13:32:01.519Z</time></trkpt><trkpt lat="37.3325191" lon="13.5138687"><ele>130.75</ele><time>2026-05-03T13:32:02.519Z</time></trkpt><trkpt lat="37.3326104" lon="13.5137482"><ele>131.0</ele><time>2026-05-03T13:32:03.519Z</time></trkpt><trkpt lat="37.3326984" lon="13.5136191"><ele>132.5</ele><time>2026-05-03T13:32:04.518Z</time></trkpt><trkpt lat="37.332791" lon="13.5134843"><ele>134.0</ele><time>2026-05-03T13:32:05.519Z</time></trkpt><trkpt lat="37.3328819" lon="13.5133501"><ele>135.5</ele><time>2026-05-03T13:32:06.518Z</time></trkpt><trkpt lat="37.3329752" lon="13.5132151"><ele>137.0</ele><time>2026-05-03T13:32:07.518Z</time></trkpt><trkpt lat="37.3330728" lon="13.5130714"><ele>137.0</ele><time>2026-05-03T13:32:08.518Z</time></trkpt><trkpt lat="37.3331666" lon="13.5129324"><ele>137.0</ele><time>2026-05-03T13:32:09.518Z</time></trkpt><trkpt lat="37.3332591" lon="13.512806"><ele>137.0</ele><time>2026-05-03T13:32:10.519Z</time></trkpt><trkpt lat="37.3333433" lon="13.5127023"><ele>137.0</ele><time>2026-05-03T13:32:11.519Z</time></trkpt><trkpt lat="37.3334124" lon="13.5126201"><ele>138.0</ele><time>2026-05-03T13:32:12.518Z</time></trkpt><trkpt lat="37.3334752" lon="13.5125524"><ele>139.0</ele><time>2026-05-03T13:32:13.519Z</time></trkpt><trkpt lat="37.3335373" lon="13.5124981"><ele>140.0</ele><time>2026-05-03T13:32:14.519Z</time></trkpt><trkpt lat="37.3336035" lon="13.5124506"><ele>141.0</ele><time>2026-05-03T13:32:15.519Z</time></trkpt><trkpt lat="37.3336816" lon="13.5124009"><ele>142.0</ele><time>2026-05-03T13:32:16.518Z</time></trkpt><trkpt lat="37.333767" lon="13.5123478"><ele>143.0</ele><time>2026-05-03T13:32:17.519Z</time></trkpt><trkpt lat="37.3338433" lon="13.5122921"><ele>143.5</ele><time>2026-05-03T13:32:18.519Z</time></trkpt><trkpt lat="37.3339192" lon="13.5122261"><ele>144.0</ele><time>2026-05-03T13:32:19.518Z</time></trkpt><trkpt lat="37.3339921" lon="13.512148"><ele>144.5</ele><time>2026-05-03T13:32:20.518Z</time></trkpt><trkpt lat="37.3341088" lon="13.5120603"><ele>145.0</ele><time>2026-05-03T13:32:21.518Z</time></trkpt><trkpt lat="37.3342246" lon="13.5119717"><ele>145.0</ele><time>2026-05-03T13:32:22.519Z</time></trkpt><trkpt lat="37.3343466" lon="13.5118763"><ele>145.0</ele><time>2026-05-03T13:32:23.518Z</time></trkpt><trkpt lat="37.3344678" lon="13.5117883"><ele>145.0</ele><time>2026-05-03T13:32:24.518Z</time></trkpt><trkpt lat="37.3345956" lon="13.5117065"><ele>145.0</ele><time>2026-05-03T13:32:25.519Z</time></trkpt><trkpt lat="37.3347288" lon="13.5116351"><ele>144.0</ele><time>2026-05-03T13:32:26.518Z</time></trkpt><trkpt lat="37.3348676" lon="13.5115667"><ele>143.0</ele><time>2026-05-03T13:32:27.518Z</time></trkpt><trkpt lat="37.3350039" lon="13.5114903"><ele>142.0</ele><time>2026-05-03T13:32:28.519Z</time></trkpt><trkpt lat="37.3351415" lon="13.5114111"><ele>142.0</ele><time>2026-05-03T13:32:29.519Z</time></trkpt><trkpt lat="37.3352805" lon="13.5113271"><ele>142.0</ele><time>2026-05-03T13:32:30.518Z</time></trkpt><trkpt lat="37.3354262" lon="13.5112377"><ele>142.0</ele><time>2026-05-03T13:32:31.518Z</time></trkpt><trkpt lat="37.3355726" lon="13.5111455"><ele>143.33333333333334</ele><time>2026-05-03T13:32:32.519Z</time></trkpt><trkpt lat="37.3357176" lon="13.5110516"><ele>144.66666666666666</ele><time>2026-05-03T13:32:33.518Z</time></trkpt><trkpt lat="37.3358646" lon="13.5109613"><ele>146.0</ele><time>2026-05-03T13:32:34.518Z</time></trkpt><trkpt lat="37.3360043" lon="13.5108617"><ele>146.0</ele><time>2026-05-03T13:32:35.519Z</time></trkpt><trkpt lat="37.3361405" lon="13.5107494"><ele>146.0</ele><time>2026-05-03T13:32:36.519Z</time></trkpt><trkpt lat="37.3362761" lon="13.5106257"><ele>146.0</ele><time>2026-05-03T13:32:37.518Z</time></trkpt><trkpt lat="37.3364083" lon="13.5104953"><ele>147.66666666666666</ele><time>2026-05-03T13:32:38.519Z</time></trkpt><trkpt lat="37.3365298" lon="13.5103671"><ele>149.33333333333334</ele><time>2026-05-03T13:32:39.519Z</time></trkpt><trkpt lat="37.3366436" lon="13.5102212"><ele>151.0</ele><time>2026-05-03T13:32:40.518Z</time></trkpt><trkpt lat="37.3367475" lon="13.5100608"><ele>151.0</ele><time>2026-05-03T13:32:41.519Z</time></trkpt><trkpt lat="37.3368391" lon="13.5099104"><ele>151.0</ele><time>2026-05-03T13:32:42.519Z</time></trkpt><trkpt lat="37.3369286" lon="13.5097657"><ele>151.0</ele><time>2026-05-03T13:32:43.519Z</time></trkpt><trkpt lat="37.3370327" lon="13.5096391"><ele>151.0</ele><time>2026-05-03T13:32:44.519Z</time></trkpt><trkpt lat="37.3371442" lon="13.5095344"><ele>151.5</ele><time>2026-05-03T13:32:45.519Z</time></trkpt><trkpt lat="37.3372536" lon="13.5094472"><ele>152.0</ele><time>2026-05-03T13:32:46.519Z</time></trkpt><trkpt lat="37.3373665" lon="13.5093744"><ele>152.5</ele><time>2026-05-03T13:32:47.518Z</time></trkpt><trkpt lat="37.337494" lon="13.5092978"><ele>153.0</ele><time>2026-05-03T13:32:48.519Z</time></trkpt><trkpt lat="37.3376292" lon="13.5092112"><ele>153.0</ele><time>2026-05-03T13:32:49.519Z</time></trkpt><trkpt lat="37.3377647" lon="13.5091204"><ele>153.0</ele><time>2026-05-03T13:32:50.519Z</time></trkpt><trkpt lat="37.3378982" lon="13.5090137"><ele>153.0</ele><time>2026-05-03T13:32:51.519Z</time></trkpt><trkpt lat="37.3380273" lon="13.5088957"><ele>154.0</ele><time>2026-05-03T13:32:52.518Z</time></trkpt><trkpt lat="37.3381525" lon="13.5087696"><ele>155.0</ele><time>2026-05-03T13:32:53.518Z</time></trkpt><trkpt lat="37.3382705" lon="13.5086377"><ele>156.0</ele><time>2026-05-03T13:32:54.519Z</time></trkpt><trkpt lat="37.3383897" lon="13.5084918"><ele>156.0</ele><time>2026-05-03T13:32:55.519Z</time></trkpt><trkpt lat="37.3384994" lon="13.5083416"><ele>156.0</ele><time>2026-05-03T13:32:56.518Z</time></trkpt><trkpt lat="37.3386142" lon="13.508178"><ele>156.0</ele><time>2026-05-03T13:32:57.518Z</time></trkpt><trkpt lat="37.338717" lon="13.5080343"><ele>155.66666666666666</ele><time>2026-05-03T13:32:58.518Z</time></trkpt><trkpt lat="37.3388238" lon="13.5078817"><ele>155.33333333333331</ele><time>2026-05-03T13:32:59.519Z</time></trkpt><trkpt lat="37.3389288" lon="13.5077237"><ele>155.0</ele><time>2026-05-03T13:33:00.518Z</time></trkpt><trkpt lat="37.339031" lon="13.5075632"><ele>155.0</ele><time>2026-05-03T13:33:01.519Z</time></trkpt><trkpt lat="37.3391242" lon="13.5074004"><ele>155.0</ele><time>2026-05-03T13:33:02.519Z</time></trkpt><trkpt lat="37.3392165" lon="13.5072451"><ele>155.0</ele><time>2026-05-03T13:33:03.519Z</time></trkpt><trkpt lat="37.3393124" lon="13.5071063"><ele>156.0</ele><time>2026-05-03T13:33:04.519Z</time></trkpt><trkpt lat="37.3393943" lon="13.5069766"><ele>157.0</ele><time>2026-05-03T13:33:05.518Z</time></trkpt><trkpt lat="37.3394668" lon="13.5068511"><ele>158.0</ele><time>2026-05-03T13:33:06.518Z</time></trkpt><trkpt lat="37.3395316" lon="13.5067293"><ele>159.0</ele><time>2026-05-03T13:33:07.519Z</time></trkpt><trkpt lat="37.3395896" lon="13.5066094"><ele>159.0</ele><time>2026-05-03T13:33:08.519Z</time></trkpt><trkpt lat="37.3396496" lon="13.5064866"><ele>159.0</ele><time>2026-05-03T13:33:09.518Z</time></trkpt><trkpt lat="37.3397172" lon="13.5063795"><ele>159.0</ele><time>2026-05-03T13:33:10.518Z</time></trkpt><trkpt lat="37.3397828" lon="13.5063062"><ele>159.0</ele><time>2026-05-03T13:33:11.519Z</time></trkpt><trkpt lat="37.3398415" lon="13.5062088"><ele>159.0</ele><time>2026-05-03T13:33:12.518Z</time></trkpt><trkpt lat="37.3399114" lon="13.5061045"><ele>159.5</ele><time>2026-05-03T13:33:13.518Z</time></trkpt><trkpt lat="37.3399978" lon="13.5059998"><ele>160.0</ele><time>2026-05-03T13:33:14.518Z</time></trkpt><trkpt lat="37.3400998" lon="13.5058801"><ele>160.5</ele><time>2026-05-03T13:33:15.518Z</time></trkpt><trkpt lat="37.3402139" lon="13.5057535"><ele>161.0</ele><time>2026-05-03T13:33:16.518Z</time></trkpt><trkpt lat="37.3403237" lon="13.5056426"><ele>161.0</ele><time>2026-05-03T13:33:17.518Z</time></trkpt><trkpt lat="37.3404259" lon="13.5055216"><ele>161.0</ele><time>2026-05-03T13:33:18.518Z</time></trkpt><trkpt lat="37.3405228" lon="13.5054116"><ele>161.0</ele><time>2026-05-03T13:33:19.518Z</time></trkpt><trkpt lat="37.3406163" lon="13.5052826"><ele>161.0</ele><time>2026-05-03T13:33:20.519Z</time></trkpt><trkpt lat="37.3407085" lon="13.5051567"><ele>161.0</ele><time>2026-05-03T13:33:21.518Z</time></trkpt><trkpt lat="37.3407695" lon="13.5050537"><ele>161.0</ele><time>2026-05-03T13:33:22.519Z</time></trkpt><trkpt lat="37.3408285" lon="13.504964"><ele>161.0</ele><time>2026-05-03T13:33:23.518Z</time></trkpt><trkpt lat="37.3409009" lon="13.5048662"><ele>161.0</ele><time>2026-05-03T13:33:24.519Z</time></trkpt><trkpt lat="37.340986" lon="13.5047724"><ele>161.0</ele><time>2026-05-03T13:33:25.518Z</time></trkpt><trkpt lat="37.3410734" lon="13.5046912"><ele>161.0</ele><time>2026-05-03T13:33:26.519Z</time></trkpt><trkpt lat="37.3411642" lon="13.5046292"><ele>161.0</ele><time>2026-05-03T13:33:27.518Z</time></trkpt><trkpt lat="37.3412604" lon="13.5045756"><ele>161.0</ele><time>2026-05-03T13:33:28.519Z</time></trkpt><trkpt lat="37.341363" lon="13.504528"><ele>161.0</ele><time>2026-05-03T13:33:29.518Z</time></trkpt><trkpt lat="37.3414572" lon="13.5044933"><ele>161.0</ele><time>2026-05-03T13:33:30.518Z</time></trkpt><trkpt lat="37.3415427" lon="13.504473"><ele>161.0</ele><time>2026-05-03T13:33:31.518Z</time></trkpt><trkpt lat="37.3416205" lon="13.50446"><ele>161.0</ele><time>2026-05-03T13:33:32.519Z</time></trkpt><trkpt lat="37.3416914" lon="13.5044538"><ele>161.0</ele><time>2026-05-03T13:33:33.518Z</time></trkpt><trkpt lat="37.3417558" lon="13.5044627"><ele>161.0</ele><time>2026-05-03T13:33:34.518Z</time></trkpt><trkpt lat="37.3418627" lon="13.5045211"><ele>161.0</ele><time>2026-05-03T13:33:36.519Z</time></trkpt><trkpt lat="37.3419511" lon="13.504647"><ele>160.60000000000002</ele><time>2026-05-03T13:33:38.519Z</time></trkpt><trkpt lat="37.3419989" lon="13.5047299"><ele>160.20000000000002</ele><time>2026-05-03T13:33:39.518Z</time></trkpt><trkpt lat="37.3420506" lon="13.504826"><ele>159.8</ele><time>2026-05-03T13:33:40.519Z</time></trkpt><trkpt lat="37.342104" lon="13.5049226"><ele>159.4</ele><time>2026-05-03T13:33:41.519Z</time></trkpt><trkpt lat="37.3421587" lon="13.505026"><ele>159.0</ele><time>2026-05-03T13:33:42.518Z</time></trkpt><trkpt lat="37.3422159" lon="13.505122"><ele>159.0</ele><time>2026-05-03T13:33:43.519Z</time></trkpt><trkpt lat="37.342278" lon="13.5052142"><ele>159.0</ele><time>2026-05-03T13:33:44.519Z</time></trkpt><trkpt lat="37.3423418" lon="13.5052979"><ele>159.0</ele><time>2026-05-03T13:33:45.519Z</time></trkpt><trkpt lat="37.3423843" lon="13.5053568"><ele>159.0</ele><time>2026-05-03T13:33:46.519Z</time></trkpt><trkpt lat="37.3424357" lon="13.5054245"><ele>159.0</ele><time>2026-05-03T13:33:48.519Z</time></trkpt><trkpt lat="37.3419637" lon="13.5062808"><ele>158.33333333333334</ele><time>2026-05-03T13:33:50.519Z</time></trkpt><trkpt lat="37.34193" lon="13.506206"><ele>157.66666666666666</ele><time>2026-05-03T13:34:02.519Z</time></trkpt><trkpt lat="37.341869" lon="13.5061467"><ele>157.0</ele><time>2026-05-03T13:34:03.518Z</time></trkpt><trkpt lat="37.341812" lon="13.5060809"><ele>156.33333333333331</ele><time>2026-05-03T13:34:04.519Z</time></trkpt><trkpt lat="37.3417515" lon="13.5060062"><ele>155.66666666666666</ele><time>2026-05-03T13:34:05.519Z</time></trkpt><trkpt lat="37.3416901" lon="13.5059198"><ele>155.0</ele><time>2026-05-03T13:34:06.518Z</time></trkpt><trkpt lat="37.3416313" lon="13.505831"><ele>155.0</ele><time>2026-05-03T13:34:07.518Z</time></trkpt><trkpt lat="37.341569" lon="13.5057361"><ele>155.0</ele><time>2026-05-03T13:34:08.519Z</time></trkpt><trkpt lat="37.3415026" lon="13.5056395"><ele>155.0</ele><time>2026-05-03T13:34:09.518Z</time></trkpt><trkpt lat="37.3414438" lon="13.5055497"><ele>155.0</ele><time>2026-05-03T13:34:10.518Z</time></trkpt><trkpt lat="37.3413893" lon="13.5054651"><ele>155.0</ele><time>2026-05-03T13:34:11.519Z</time></trkpt><trkpt lat="37.3413322" lon="13.5054005"><ele>156.2</ele><time>2026-05-03T13:34:12.519Z</time></trkpt><trkpt lat="37.3412664" lon="13.5053598"><ele>157.4</ele><time>2026-05-03T13:34:13.519Z</time></trkpt><trkpt lat="37.3411829" lon="13.5053384"><ele>158.60000000000002</ele><time>2026-05-03T13:34:14.519Z</time></trkpt><trkpt lat="37.3410848" lon="13.5053395"><ele>159.8</ele><time>2026-05-03T13:34:15.519Z</time></trkpt><trkpt lat="37.340968" lon="13.5053632"><ele>161.0</ele><time>2026-05-03T13:34:16.518Z</time></trkpt><trkpt lat="37.340849" lon="13.5053946"><ele>161.0</ele><time>2026-05-03T13:34:17.518Z</time></trkpt><trkpt lat="37.3407211" lon="13.505436"><ele>161.0</ele><time>2026-05-03T13:34:18.519Z</time></trkpt><trkpt lat="37.340609" lon="13.5054938"><ele>161.0</ele><time>2026-05-03T13:34:19.519Z</time></trkpt><trkpt lat="37.3405" lon="13.5055668"><ele>161.0</ele><time>2026-05-03T13:34:20.519Z</time></trkpt><trkpt lat="37.3404025" lon="13.5056548"><ele>161.0</ele><time>2026-05-03T13:34:21.518Z</time></trkpt><trkpt lat="37.3403103" lon="13.5057554"><ele>161.0</ele><time>2026-05-03T13:34:22.519Z</time></trkpt><trkpt lat="37.3402203" lon="13.5058717"><ele>161.0</ele><time>2026-05-03T13:34:23.519Z</time></trkpt><trkpt lat="37.3401299" lon="13.5060047"><ele>161.0</ele><time>2026-05-03T13:34:24.519Z</time></trkpt><trkpt lat="37.3400428" lon="13.5061375"><ele>159.5</ele><time>2026-05-03T13:34:25.519Z</time></trkpt><trkpt lat="37.3399586" lon="13.5062658"><ele>158.0</ele><time>2026-05-03T13:34:26.518Z</time></trkpt><trkpt lat="37.3398841" lon="13.5063843"><ele>156.5</ele><time>2026-05-03T13:34:27.518Z</time></trkpt><trkpt lat="37.339812" lon="13.5065025"><ele>155.0</ele><time>2026-05-03T13:34:28.519Z</time></trkpt><trkpt lat="37.3397408" lon="13.5066106"><ele>155.66666666666666</ele><time>2026-05-03T13:34:29.519Z</time></trkpt><trkpt lat="37.3396761" lon="13.5067144"><ele>156.33333333333331</ele><time>2026-05-03T13:34:30.518Z</time></trkpt><trkpt lat="37.3396281" lon="13.5068054"><ele>157.0</ele><time>2026-05-03T13:34:31.519Z</time></trkpt><trkpt lat="37.339587" lon="13.5068727"><ele>157.66666666666666</ele><time>2026-05-03T13:34:32.518Z</time></trkpt><trkpt lat="37.3395144" lon="13.5069454"><ele>158.33333333333334</ele><time>2026-05-03T13:34:34.519Z</time></trkpt><trkpt lat="37.3394545" lon="13.5069186"><ele>159.0</ele><time>2026-05-03T13:34:36.519Z</time></trkpt><trkpt lat="37.3394083" lon="13.5068279"><ele>159.0</ele><time>2026-05-03T13:34:38.518Z</time></trkpt><trkpt lat="37.3393829" lon="13.5066671"><ele>159.0</ele><time>2026-05-03T13:34:40.518Z</time></trkpt><trkpt lat="37.3394042" lon="13.5065574"><ele>159.0</ele><time>2026-05-03T13:34:41.518Z</time></trkpt><trkpt lat="37.33944" lon="13.5064412"><ele>159.0</ele><time>2026-05-03T13:34:42.518Z</time></trkpt><trkpt lat="37.3395018" lon="13.5063333"><ele>159.0</ele><time>2026-05-03T13:34:43.519Z</time></trkpt><trkpt lat="37.3395759" lon="13.506237"><ele>159.5</ele><time>2026-05-03T13:34:44.519Z</time></trkpt><trkpt lat="37.3396566" lon="13.5061327"><ele>160.0</ele><time>2026-05-03T13:34:45.519Z</time></trkpt><trkpt lat="37.3397413" lon="13.5060169"><ele>160.5</ele><time>2026-05-03T13:34:46.519Z</time></trkpt><trkpt lat="37.3398309" lon="13.5058898"><ele>161.0</ele><time>2026-05-03T13:34:47.518Z</time></trkpt><trkpt lat="37.3399256" lon="13.5057571"><ele>161.0</ele><time>2026-05-03T13:34:48.518Z</time></trkpt><trkpt lat="37.3400226" lon="13.5056117"><ele>161.0</ele><time>2026-05-03T13:34:49.519Z</time></trkpt><trkpt lat="37.3401246" lon="13.5054618"><ele>161.0</ele><time>2026-05-03T13:34:50.519Z</time></trkpt><trkpt lat="37.3402231" lon="13.5053051"><ele>164.0</ele><time>2026-05-03T13:34:51.519Z</time></trkpt><trkpt lat="37.3403194" lon="13.5051483"><ele>167.0</ele><time>2026-05-03T13:34:52.519Z</time></trkpt><trkpt lat="37.3404159" lon="13.5049866"><ele>170.0</ele><time>2026-05-03T13:34:53.519Z</time></trkpt><trkpt lat="37.340518" lon="13.5048177"><ele>167.66666666666666</ele><time>2026-05-03T13:34:54.519Z</time></trkpt><trkpt lat="37.3406223" lon="13.5046399"><ele>165.33333333333334</ele><time>2026-05-03T13:34:55.519Z</time></trkpt><trkpt lat="37.3407321" lon="13.5044559"><ele>163.0</ele><time>2026-05-03T13:34:56.518Z</time></trkpt><trkpt lat="37.34084" lon="13.5042735"><ele>163.0</ele><time>2026-05-03T13:34:57.519Z</time></trkpt><trkpt lat="37.3409511" lon="13.5040909"><ele>163.0</ele><time>2026-05-03T13:34:58.518Z</time></trkpt><trkpt lat="37.3410676" lon="13.5039086"><ele>163.0</ele><time>2026-05-03T13:34:59.519Z</time></trkpt><trkpt lat="37.3411871" lon="13.5037294"><ele>163.66666666666669</ele><time>2026-05-03T13:35:00.518Z</time></trkpt><trkpt lat="37.3413057" lon="13.5035437"><ele>164.33333333333334</ele><time>2026-05-03T13:35:01.519Z</time></trkpt><trkpt lat="37.3414244" lon="13.5033662"><ele>165.0</ele><time>2026-05-03T13:35:02.519Z</time></trkpt><trkpt lat="37.3415386" lon="13.5031894"><ele>165.0</ele><time>2026-05-03T13:35:03.518Z</time></trkpt><trkpt lat="37.3416523" lon="13.5030177"><ele>165.0</ele><time>2026-05-03T13:35:04.519Z</time></trkpt><trkpt lat="37.3417647" lon="13.5028505"><ele>165.0</ele><time>2026-05-03T13:35:05.519Z</time></trkpt><trkpt lat="37.3418705" lon="13.5026914"><ele>166.66666666666666</ele><time>2026-05-03T13:35:06.518Z</time></trkpt><trkpt lat="37.3419725" lon="13.5025329"><ele>168.33333333333331</ele><time>2026-05-03T13:35:07.518Z</time></trkpt><trkpt lat="37.3420649" lon="13.5023711"><ele>170.0</ele><time>2026-05-03T13:35:08.518Z</time></trkpt><trkpt lat="37.3421572" lon="13.5022032"><ele>170.33333333333331</ele><time>2026-05-03T13:35:09.519Z</time></trkpt><trkpt lat="37.3422433" lon="13.502032"><ele>170.66666666666666</ele><time>2026-05-03T13:35:10.519Z</time></trkpt><trkpt lat="37.3423266" lon="13.5018581"><ele>171.0</ele><time>2026-05-03T13:35:11.519Z</time></trkpt><trkpt lat="37.3424139" lon="13.5016822"><ele>171.0</ele><time>2026-05-03T13:35:12.518Z</time></trkpt><trkpt lat="37.3425022" lon="13.5015101"><ele>171.0</ele><time>2026-05-03T13:35:13.519Z</time></trkpt><trkpt lat="37.3425901" lon="13.5013352"><ele>171.0</ele><time>2026-05-03T13:35:14.519Z</time></trkpt><trkpt lat="37.3426819" lon="13.5011556"><ele>173.0</ele><time>2026-05-03T13:35:15.519Z</time></trkpt><trkpt lat="37.3427715" lon="13.5009804"><ele>175.0</ele><time>2026-05-03T13:35:16.519Z</time></trkpt><trkpt lat="37.3428631" lon="13.5008059"><ele>177.0</ele><time>2026-05-03T13:35:17.519Z</time></trkpt><trkpt lat="37.3429556" lon="13.5006262"><ele>176.33333333333334</ele><time>2026-05-03T13:35:18.518Z</time></trkpt><trkpt lat="37.343053" lon="13.500451"><ele>175.66666666666669</ele><time>2026-05-03T13:35:19.519Z</time></trkpt><trkpt lat="37.3431543" lon="13.5002765"><ele>175.0</ele><time>2026-05-03T13:35:20.519Z</time></trkpt><trkpt lat="37.3432547" lon="13.5000999"><ele>175.0</ele><time>2026-05-03T13:35:21.518Z</time></trkpt><trkpt lat="37.3433561" lon="13.4999178"><ele>175.0</ele><time>2026-05-03T13:35:22.518Z</time></trkpt><trkpt lat="37.3434561" lon="13.4997393"><ele>175.0</ele><time>2026-05-03T13:35:23.519Z</time></trkpt><trkpt lat="37.3435553" lon="13.4995578"><ele>176.66666666666669</ele><time>2026-05-03T13:35:24.518Z</time></trkpt><trkpt lat="37.3436575" lon="13.4993779"><ele>178.33333333333334</ele><time>2026-05-03T13:35:25.518Z</time></trkpt><trkpt lat="37.3437585" lon="13.4991962"><ele>180.0</ele><time>2026-05-03T13:35:26.519Z</time></trkpt><trkpt lat="37.3438587" lon="13.4990183"><ele>179.33333333333334</ele><time>2026-05-03T13:35:27.518Z</time></trkpt><trkpt lat="37.3439566" lon="13.4988417"><ele>178.66666666666669</ele><time>2026-05-03T13:35:28.518Z</time></trkpt><trkpt lat="37.3440555" lon="13.4986615"><ele>178.0</ele><time>2026-05-03T13:35:29.519Z</time></trkpt><trkpt lat="37.3441521" lon="13.4984886"><ele>178.0</ele><time>2026-05-03T13:35:30.519Z</time></trkpt><trkpt lat="37.3442473" lon="13.498318"><ele>178.0</ele><time>2026-05-03T13:35:31.518Z</time></trkpt><trkpt lat="37.3443409" lon="13.4981431"><ele>178.0</ele><time>2026-05-03T13:35:32.518Z</time></trkpt><trkpt lat="37.3444359" lon="13.4979645"><ele>178.0</ele><time>2026-05-03T13:35:33.519Z</time></trkpt><trkpt lat="37.3445343" lon="13.4977879"><ele>178.0</ele><time>2026-05-03T13:35:34.518Z</time></trkpt><trkpt lat="37.3446353" lon="13.497611"><ele>178.0</ele><time>2026-05-03T13:35:35.519Z</time></trkpt><trkpt lat="37.3447384" lon="13.4974335"><ele>178.0</ele><time>2026-05-03T13:35:36.518Z</time></trkpt><trkpt lat="37.3448518" lon="13.497261"><ele>178.0</ele><time>2026-05-03T13:35:37.519Z</time></trkpt><trkpt lat="37.3449677" lon="13.4970867"><ele>178.0</ele><time>2026-05-03T13:35:38.519Z</time></trkpt><trkpt lat="37.3450859" lon="13.4969108"><ele>179.66666666666669</ele><time>2026-05-03T13:35:39.519Z</time></trkpt><trkpt lat="37.3452053" lon="13.4967353"><ele>181.33333333333334</ele><time>2026-05-03T13:35:40.518Z</time></trkpt><trkpt lat="37.345322" lon="13.4965577"><ele>183.0</ele><time>2026-05-03T13:35:41.519Z</time></trkpt><trkpt lat="37.3454413" lon="13.496376"><ele>184.0</ele><time>2026-05-03T13:35:42.518Z</time></trkpt><trkpt lat="37.3455598" lon="13.4962007"><ele>185.0</ele><time>2026-05-03T13:35:43.519Z</time></trkpt><trkpt lat="37.3456843" lon="13.4960234"><ele>186.0</ele><time>2026-05-03T13:35:44.518Z</time></trkpt><trkpt lat="37.3458035" lon="13.4958445"><ele>186.0</ele><time>2026-05-03T13:35:45.519Z</time></trkpt><trkpt lat="37.3459257" lon="13.4956609"><ele>186.0</ele><time>2026-05-03T13:35:46.519Z</time></trkpt><trkpt lat="37.3460485" lon="13.4954798"><ele>186.0</ele><time>2026-05-03T13:35:47.519Z</time></trkpt><trkpt lat="37.3461673" lon="13.4952988"><ele>186.0</ele><time>2026-05-03T13:35:48.519Z</time></trkpt><trkpt lat="37.3462818" lon="13.4951165"><ele>186.0</ele><time>2026-05-03T13:35:49.519Z</time></trkpt><trkpt lat="37.3463986" lon="13.4949343"><ele>186.0</ele><time>2026-05-03T13:35:50.519Z</time></trkpt><trkpt lat="37.3465099" lon="13.494751"><ele>188.66666666666669</ele><time>2026-05-03T13:35:51.519Z</time></trkpt><trkpt lat="37.3466244" lon="13.4945634"><ele>191.33333333333334</ele><time>2026-05-03T13:35:52.519Z</time></trkpt><trkpt lat="37.3467358" lon="13.4943826"><ele>194.0</ele><time>2026-05-03T13:35:53.519Z</time></trkpt><trkpt lat="37.346845" lon="13.4942018"><ele>194.0</ele><time>2026-05-03T13:35:54.518Z</time></trkpt><trkpt lat="37.3469522" lon="13.4940221"><ele>194.0</ele><time>2026-05-03T13:35:55.519Z</time></trkpt><trkpt lat="37.3470602" lon="13.4938427"><ele>194.0</ele><time>2026-05-03T13:35:56.518Z</time></trkpt><trkpt lat="37.3471665" lon="13.4936672"><ele>194.0</ele><time>2026-05-03T13:35:57.519Z</time></trkpt><trkpt lat="37.3472714" lon="13.4934945"><ele>194.0</ele><time>2026-05-03T13:35:58.518Z</time></trkpt><trkpt lat="37.3473773" lon="13.4933259"><ele>194.0</ele><time>2026-05-03T13:35:59.519Z</time></trkpt><trkpt lat="37.347482" lon="13.4931601"><ele>194.0</ele><time>2026-05-03T13:36:00.519Z</time></trkpt><trkpt lat="37.3475838" lon="13.493006"><ele>194.0</ele><time>2026-05-03T13:36:01.519Z</time></trkpt><trkpt lat="37.3476721" lon="13.4928561"><ele>194.0</ele><time>2026-05-03T13:36:02.519Z</time></trkpt><trkpt lat="37.3477597" lon="13.4927134"><ele>196.75</ele><time>2026-05-03T13:36:03.519Z</time></trkpt><trkpt lat="37.3478407" lon="13.4925675"><ele>199.5</ele><time>2026-05-03T13:36:04.519Z</time></trkpt><trkpt lat="37.3479085" lon="13.4924169"><ele>202.25</ele><time>2026-05-03T13:36:05.518Z</time></trkpt><trkpt lat="37.3479646" lon="13.4922568"><ele>205.0</ele><time>2026-05-03T13:36:06.519Z</time></trkpt><trkpt lat="37.348015" lon="13.49209"><ele>204.0</ele><time>2026-05-03T13:36:07.519Z</time></trkpt><trkpt lat="37.3480677" lon="13.4919195"><ele>203.0</ele><time>2026-05-03T13:36:08.519Z</time></trkpt><trkpt lat="37.3481196" lon="13.4917549"><ele>202.0</ele><time>2026-05-03T13:36:09.518Z</time></trkpt><trkpt lat="37.3481702" lon="13.4915919"><ele>201.0</ele><time>2026-05-03T13:36:10.518Z</time></trkpt><trkpt lat="37.348214" lon="13.4914313"><ele>201.0</ele><time>2026-05-03T13:36:11.519Z</time></trkpt><trkpt lat="37.3482505" lon="13.4912791"><ele>201.0</ele><time>2026-05-03T13:36:12.518Z</time></trkpt><trkpt lat="37.3482769" lon="13.4911337"><ele>201.0</ele><time>2026-05-03T13:36:13.519Z</time></trkpt><trkpt lat="37.3482853" lon="13.4909915"><ele>201.0</ele><time>2026-05-03T13:36:14.519Z</time></trkpt><trkpt lat="37.3482757" lon="13.4908561"><ele>203.20000000000002</ele><time>2026-05-03T13:36:15.519Z</time></trkpt><trkpt lat="37.3482549" lon="13.4907189"><ele>205.4</ele><time>2026-05-03T13:36:16.519Z</time></trkpt><trkpt lat="37.3482308" lon="13.4905799"><ele>207.6</ele><time>2026-05-03T13:36:17.518Z</time></trkpt><trkpt lat="37.3482189" lon="13.490442"><ele>209.8</ele><time>2026-05-03T13:36:18.518Z</time></trkpt><trkpt lat="37.3482175" lon="13.4903204"><ele>212.0</ele><time>2026-05-03T13:36:19.519Z</time></trkpt><trkpt lat="37.3482407" lon="13.490201"><ele>212.5</ele><time>2026-05-03T13:36:20.519Z</time></trkpt><trkpt lat="37.3482797" lon="13.4900765"><ele>213.0</ele><time>2026-05-03T13:36:21.519Z</time></trkpt><trkpt lat="37.3483316" lon="13.4899367"><ele>213.5</ele><time>2026-05-03T13:36:22.519Z</time></trkpt><trkpt lat="37.3483852" lon="13.4897832"><ele>214.0</ele><time>2026-05-03T13:36:23.518Z</time></trkpt><trkpt lat="37.3484501" lon="13.4896134"><ele>214.33333333333331</ele><time>2026-05-03T13:36:24.519Z</time></trkpt><trkpt lat="37.3485129" lon="13.4894424"><ele>214.66666666666669</ele><time>2026-05-03T13:36:25.519Z</time></trkpt><trkpt lat="37.3485879" lon="13.4892596"><ele>215.0</ele><time>2026-05-03T13:36:26.519Z</time></trkpt><trkpt lat="37.3486596" lon="13.4890722"><ele>215.0</ele><time>2026-05-03T13:36:27.518Z</time></trkpt><trkpt lat="37.3487271" lon="13.4888835"><ele>215.0</ele><time>2026-05-03T13:36:28.519Z</time></trkpt><trkpt lat="37.3487924" lon="13.4886936"><ele>215.0</ele><time>2026-05-03T13:36:29.519Z</time></trkpt><trkpt lat="37.348859" lon="13.4885138"><ele>216.25</ele><time>2026-05-03T13:36:30.518Z</time></trkpt><trkpt lat="37.3489228" lon="13.4883458"><ele>217.5</ele><time>2026-05-03T13:36:31.519Z</time></trkpt><trkpt lat="37.3489907" lon="13.4881921"><ele>218.75</ele><time>2026-05-03T13:36:32.519Z</time></trkpt><trkpt lat="37.3490658" lon="13.4880531"><ele>220.0</ele><time>2026-05-03T13:36:33.519Z</time></trkpt><trkpt lat="37.3491489" lon="13.4879293"><ele>222.5</ele><time>2026-05-03T13:36:34.519Z</time></trkpt><trkpt lat="37.3492476" lon="13.4878099"><ele>225.0</ele><time>2026-05-03T13:36:35.519Z</time></trkpt><trkpt lat="37.349363" lon="13.4877055"><ele>227.5</ele><time>2026-05-03T13:36:36.519Z</time></trkpt><trkpt lat="37.3494896" lon="13.4876081"><ele>230.0</ele><time>2026-05-03T13:36:37.518Z</time></trkpt><trkpt lat="37.3496225" lon="13.4875136"><ele>230.33333333333334</ele><time>2026-05-03T13:36:38.519Z</time></trkpt><trkpt lat="37.3497566" lon="13.4874168"><ele>230.66666666666669</ele><time>2026-05-03T13:36:39.518Z</time></trkpt><trkpt lat="37.3498882" lon="13.4873107"><ele>231.0</ele><time>2026-05-03T13:36:40.518Z</time></trkpt><trkpt lat="37.3500174" lon="13.4871997"><ele>231.0</ele><time>2026-05-03T13:36:41.519Z</time></trkpt><trkpt lat="37.3501404" lon="13.4870774"><ele>231.0</ele><time>2026-05-03T13:36:42.518Z</time></trkpt><trkpt lat="37.3502626" lon="13.4869425"><ele>231.0</ele><time>2026-05-03T13:36:43.518Z</time></trkpt><trkpt lat="37.350377" lon="13.4867995"><ele>231.0</ele><time>2026-05-03T13:36:44.519Z</time></trkpt><trkpt lat="37.3504895" lon="13.486653"><ele>231.0</ele><time>2026-05-03T13:36:45.518Z</time></trkpt><trkpt lat="37.3505931" lon="13.4865108"><ele>231.0</ele><time>2026-05-03T13:36:46.518Z</time></trkpt><trkpt lat="37.350686" lon="13.4863669"><ele>233.0</ele><time>2026-05-03T13:36:47.519Z</time></trkpt><trkpt lat="37.3507649" lon="13.4862181"><ele>235.0</ele><time>2026-05-03T13:36:48.519Z</time></trkpt><trkpt lat="37.350829" lon="13.4860508"><ele>237.0</ele><time>2026-05-03T13:36:49.519Z</time></trkpt><trkpt lat="37.3508906" lon="13.485869"><ele>239.0</ele><time>2026-05-03T13:36:50.519Z</time></trkpt><trkpt lat="37.3509512" lon="13.4856776"><ele>239.0</ele><time>2026-05-03T13:36:51.518Z</time></trkpt><trkpt lat="37.3510116" lon="13.4854829"><ele>239.0</ele><time>2026-05-03T13:36:52.518Z</time></trkpt><trkpt lat="37.3510746" lon="13.4852865"><ele>239.0</ele><time>2026-05-03T13:36:53.519Z</time></trkpt><trkpt lat="37.3511386" lon="13.4850888"><ele>239.66666666666669</ele><time>2026-05-03T13:36:54.518Z</time></trkpt><trkpt lat="37.3512051" lon="13.4848922"><ele>240.33333333333331</ele><time>2026-05-03T13:36:55.518Z</time></trkpt><trkpt lat="37.351274" lon="13.4846982"><ele>241.0</ele><time>2026-05-03T13:36:56.519Z</time></trkpt><trkpt lat="37.3513456" lon="13.4845077"><ele>245.66666666666666</ele><time>2026-05-03T13:36:57.519Z</time></trkpt><trkpt lat="37.3514278" lon="13.484321"><ele>250.33333333333331</ele><time>2026-05-03T13:36:58.518Z</time></trkpt><trkpt lat="37.351515" lon="13.484145"><ele>255.0</ele><time>2026-05-03T13:36:59.519Z</time></trkpt><trkpt lat="37.35161" lon="13.4839754"><ele>255.0</ele><time>2026-05-03T13:37:00.518Z</time></trkpt><trkpt lat="37.3517053" lon="13.483816"><ele>255.0</ele><time>2026-05-03T13:37:01.518Z</time></trkpt><trkpt lat="37.3517959" lon="13.4836599"><ele>255.0</ele><time>2026-05-03T13:37:02.519Z</time></trkpt><trkpt lat="37.3518841" lon="13.4835047"><ele>255.5</ele><time>2026-05-03T13:37:03.518Z</time></trkpt><trkpt lat="37.3519709" lon="13.4833548"><ele>256.0</ele><time>2026-05-03T13:37:04.518Z</time></trkpt><trkpt lat="37.3520582" lon="13.4832077"><ele>256.5</ele><time>2026-05-03T13:37:05.519Z</time></trkpt><trkpt lat="37.3521437" lon="13.483062"><ele>257.0</ele><time>2026-05-03T13:37:06.519Z</time></trkpt><trkpt lat="37.3522311" lon="13.482916"><ele>258.5</ele><time>2026-05-03T13:37:07.519Z</time></trkpt><trkpt lat="37.3523161" lon="13.4827772"><ele>260.0</ele><time>2026-05-03T13:37:08.519Z</time></trkpt><trkpt lat="37.3523943" lon="13.4826504"><ele>261.5</ele><time>2026-05-03T13:37:09.518Z</time></trkpt><trkpt lat="37.3524626" lon="13.4825378"><ele>263.0</ele><time>2026-05-03T13:37:10.519Z</time></trkpt><trkpt lat="37.3525209" lon="13.4824366"><ele>263.0</ele><time>2026-05-03T13:37:11.519Z</time></trkpt><trkpt lat="37.3525604" lon="13.482343"><ele>263.0</ele><time>2026-05-03T13:37:12.519Z</time></trkpt><trkpt lat="37.3525852" lon="13.4822472"><ele>263.0</ele><time>2026-05-03T13:37:13.519Z</time></trkpt><trkpt lat="37.3525935" lon="13.4821508"><ele>263.0</ele><time>2026-05-03T13:37:14.519Z</time></trkpt><trkpt lat="37.352586" lon="13.4820501"><ele>263.0</ele><time>2026-05-03T13:37:15.519Z</time></trkpt><trkpt lat="37.3525606" lon="13.4819421"><ele>263.0</ele><time>2026-05-03T13:37:16.519Z</time></trkpt><trkpt lat="37.3525221" lon="13.4818325"><ele>262.25</ele><time>2026-05-03T13:37:17.519Z</time></trkpt><trkpt lat="37.3524742" lon="13.4817253"><ele>261.5</ele><time>2026-05-03T13:37:18.518Z</time></trkpt><trkpt lat="37.3524164" lon="13.4816072"><ele>260.75</ele><time>2026-05-03T13:37:19.519Z</time></trkpt><trkpt lat="37.3523396" lon="13.4814763"><ele>260.0</ele><time>2026-05-03T13:37:20.518Z</time></trkpt><trkpt lat="37.3522682" lon="13.4813326"><ele>259.0</ele><time>2026-05-03T13:37:21.519Z</time></trkpt><trkpt lat="37.3521941" lon="13.4811804"><ele>258.0</ele><time>2026-05-03T13:37:22.519Z</time></trkpt><trkpt lat="37.3521163" lon="13.4810257"><ele>257.0</ele><time>2026-05-03T13:37:23.519Z</time></trkpt><trkpt lat="37.3520375" lon="13.4808625"><ele>256.0</ele><time>2026-05-03T13:37:24.518Z</time></trkpt><trkpt lat="37.351958" lon="13.4806943"><ele>256.0</ele><time>2026-05-03T13:37:25.519Z</time></trkpt><trkpt lat="37.3518791" lon="13.4805263"><ele>256.0</ele><time>2026-05-03T13:37:26.519Z</time></trkpt><trkpt lat="37.3517984" lon="13.4803622"><ele>256.0</ele><time>2026-05-03T13:37:27.518Z</time></trkpt><trkpt lat="37.3517159" lon="13.4801925"><ele>258.3333333333333</ele><time>2026-05-03T13:37:28.519Z</time></trkpt><trkpt lat="37.3516321" lon="13.480021"><ele>260.6666666666667</ele><time>2026-05-03T13:37:29.519Z</time></trkpt><trkpt lat="37.3515477" lon="13.4798512"><ele>263.0</ele><time>2026-05-03T13:37:30.518Z</time></trkpt><trkpt lat="37.3514637" lon="13.4796857"><ele>263.6666666666667</ele><time>2026-05-03T13:37:31.519Z</time></trkpt><trkpt lat="37.3513821" lon="13.4795185"><ele>264.3333333333333</ele><time>2026-05-03T13:37:32.518Z</time></trkpt><trkpt lat="37.351299" lon="13.4793522"><ele>265.0</ele><time>2026-05-03T13:37:33.518Z</time></trkpt><trkpt lat="37.3512206" lon="13.4791866"><ele>265.66666666666663</ele><time>2026-05-03T13:37:34.519Z</time></trkpt><trkpt lat="37.3511439" lon="13.4790195"><ele>266.3333333333333</ele><time>2026-05-03T13:37:35.518Z</time></trkpt><trkpt lat="37.35107" lon="13.4788455"><ele>267.0</ele><time>2026-05-03T13:37:36.518Z</time></trkpt><trkpt lat="37.3509995" lon="13.4786665"><ele>268.3333333333333</ele><time>2026-05-03T13:37:37.518Z</time></trkpt><trkpt lat="37.3509296" lon="13.4784831"><ele>269.66666666666663</ele><time>2026-05-03T13:37:38.518Z</time></trkpt><trkpt lat="37.3508566" lon="13.4782963"><ele>271.0</ele><time>2026-05-03T13:37:39.519Z</time></trkpt><trkpt lat="37.3507824" lon="13.4781076"><ele>272.3333333333333</ele><time>2026-05-03T13:37:40.518Z</time></trkpt><trkpt lat="37.3507084" lon="13.4779202"><ele>273.6666666666667</ele><time>2026-05-03T13:37:41.518Z</time></trkpt><trkpt lat="37.3506338" lon="13.4777309"><ele>275.0</ele><time>2026-05-03T13:37:42.519Z</time></trkpt><trkpt lat="37.350558" lon="13.4775406"><ele>275.0</ele><time>2026-05-03T13:37:43.519Z</time></trkpt><trkpt lat="37.3504829" lon="13.4773544"><ele>275.0</ele><time>2026-05-03T13:37:44.518Z</time></trkpt><trkpt lat="37.35041" lon="13.4771653"><ele>275.0</ele><time>2026-05-03T13:37:45.519Z</time></trkpt><trkpt lat="37.3503375" lon="13.4769839"><ele>275.6666666666667</ele><time>2026-05-03T13:37:46.519Z</time></trkpt><trkpt lat="37.3502716" lon="13.4768022"><ele>276.3333333333333</ele><time>2026-05-03T13:37:47.519Z</time></trkpt><trkpt lat="37.3502122" lon="13.4766176"><ele>277.0</ele><time>2026-05-03T13:37:48.518Z</time></trkpt><trkpt lat="37.3501596" lon="13.476427"><ele>278.0</ele><time>2026-05-03T13:37:49.519Z</time></trkpt><trkpt lat="37.3501125" lon="13.4762332"><ele>279.0</ele><time>2026-05-03T13:37:50.519Z</time></trkpt><trkpt lat="37.35007" lon="13.476043"><ele>280.0</ele><time>2026-05-03T13:37:51.519Z</time></trkpt><trkpt lat="37.3500363" lon="13.4758621"><ele>280.0</ele><time>2026-05-03T13:37:52.518Z</time></trkpt><trkpt lat="37.3499989" lon="13.4756968"><ele>280.0</ele><time>2026-05-03T13:37:53.519Z</time></trkpt><trkpt lat="37.3499635" lon="13.4755504"><ele>280.0</ele><time>2026-05-03T13:37:54.519Z</time></trkpt><trkpt lat="37.3499195" lon="13.4754276"><ele>280.0</ele><time>2026-05-03T13:37:55.518Z</time></trkpt><trkpt lat="37.3498711" lon="13.4753274"><ele>280.0</ele><time>2026-05-03T13:37:56.518Z</time></trkpt><trkpt lat="37.3498011" lon="13.4752482"><ele>280.0</ele><time>2026-05-03T13:37:57.519Z</time></trkpt><trkpt lat="37.3497143" lon="13.4751849"><ele>280.0</ele><time>2026-05-03T13:37:58.518Z</time></trkpt><trkpt lat="37.3496213" lon="13.4751334"><ele>280.0</ele><time>2026-05-03T13:37:59.519Z</time></trkpt><trkpt lat="37.349516" lon="13.4751148"><ele>280.0</ele><time>2026-05-03T13:38:00.519Z</time></trkpt><trkpt lat="37.3494032" lon="13.4751138"><ele>278.25</ele><time>2026-05-03T13:38:01.518Z</time></trkpt><trkpt lat="37.3492823" lon="13.4751363"><ele>276.5</ele><time>2026-05-03T13:38:02.518Z</time></trkpt><trkpt lat="37.3491554" lon="13.4751692"><ele>274.75</ele><time>2026-05-03T13:38:03.518Z</time></trkpt><trkpt lat="37.3490199" lon="13.4752207"><ele>273.0</ele><time>2026-05-03T13:38:04.519Z</time></trkpt><trkpt lat="37.3488799" lon="13.4752773"><ele>272.6666666666667</ele><time>2026-05-03T13:38:05.519Z</time></trkpt><trkpt lat="37.3487322" lon="13.4753318"><ele>272.33333333333337</ele><time>2026-05-03T13:38:06.518Z</time></trkpt><trkpt lat="37.3485809" lon="13.4753872"><ele>272.0</ele><time>2026-05-03T13:38:07.518Z</time></trkpt><trkpt lat="37.3484306" lon="13.4754476"><ele>272.0</ele><time>2026-05-03T13:38:08.518Z</time></trkpt><trkpt lat="37.348285" lon="13.4755037"><ele>272.0</ele><time>2026-05-03T13:38:09.519Z</time></trkpt><trkpt lat="37.3481458" lon="13.4755616"><ele>272.0</ele><time>2026-05-03T13:38:10.519Z</time></trkpt><trkpt lat="37.3480032" lon="13.4756167"><ele>272.0</ele><time>2026-05-03T13:38:11.518Z</time></trkpt><trkpt lat="37.347859" lon="13.4756693"><ele>270.25</ele><time>2026-05-03T13:38:12.519Z</time></trkpt><trkpt lat="37.3477122" lon="13.475716"><ele>268.5</ele><time>2026-05-03T13:38:13.518Z</time></trkpt><trkpt lat="37.3475704" lon="13.4757659"><ele>266.75</ele><time>2026-05-03T13:38:14.519Z</time></trkpt><trkpt lat="37.3474307" lon="13.4758175"><ele>265.0</ele><time>2026-05-03T13:38:15.519Z</time></trkpt><trkpt lat="37.3472835" lon="13.4758717"><ele>263.0</ele><time>2026-05-03T13:38:16.519Z</time></trkpt><trkpt lat="37.3471357" lon="13.4759377"><ele>261.0</ele><time>2026-05-03T13:38:17.519Z</time></trkpt><trkpt lat="37.3469862" lon="13.4760086"><ele>259.0</ele><time>2026-05-03T13:38:18.519Z</time></trkpt><trkpt lat="37.3468355" lon="13.4760947"><ele>259.0</ele><time>2026-05-03T13:38:19.519Z</time></trkpt><trkpt lat="37.346675" lon="13.4761845"><ele>259.0</ele><time>2026-05-03T13:38:20.519Z</time></trkpt><trkpt lat="37.3465114" lon="13.4762725"><ele>259.0</ele><time>2026-05-03T13:38:21.519Z</time></trkpt><trkpt lat="37.3463433" lon="13.4763655"><ele>257.0</ele><time>2026-05-03T13:38:22.519Z</time></trkpt><trkpt lat="37.3461711" lon="13.4764575"><ele>255.0</ele><time>2026-05-03T13:38:23.519Z</time></trkpt><trkpt lat="37.3459989" lon="13.4765461"><ele>253.0</ele><time>2026-05-03T13:38:24.518Z</time></trkpt><trkpt lat="37.3458262" lon="13.4766318"><ele>253.0</ele><time>2026-05-03T13:38:25.518Z</time></trkpt><trkpt lat="37.3456573" lon="13.4767145"><ele>253.0</ele><time>2026-05-03T13:38:26.518Z</time></trkpt><trkpt lat="37.3454951" lon="13.4767894"><ele>253.0</ele><time>2026-05-03T13:38:27.519Z</time></trkpt><trkpt lat="37.3453373" lon="13.4768647"><ele>252.0</ele><time>2026-05-03T13:38:28.518Z</time></trkpt><trkpt lat="37.3451797" lon="13.4769395"><ele>251.0</ele><time>2026-05-03T13:38:29.518Z</time></trkpt><trkpt lat="37.3450234" lon="13.4770138"><ele>250.0</ele><time>2026-05-03T13:38:30.519Z</time></trkpt><trkpt lat="37.3448628" lon="13.4770875"><ele>250.0</ele><time>2026-05-03T13:38:31.518Z</time></trkpt><trkpt lat="37.344704" lon="13.4771593"><ele>250.0</ele><time>2026-05-03T13:38:32.519Z</time></trkpt><trkpt lat="37.3445456" lon="13.4772249"><ele>250.0</ele><time>2026-05-03T13:38:33.519Z</time></trkpt><trkpt lat="37.3443945" lon="13.4772938"><ele>250.0</ele><time>2026-05-03T13:38:34.518Z</time></trkpt><trkpt lat="37.3442425" lon="13.4773607"><ele>250.0</ele><time>2026-05-03T13:38:35.519Z</time></trkpt><trkpt lat="37.3440916" lon="13.4774264"><ele>250.0</ele><time>2026-05-03T13:38:36.519Z</time></trkpt><trkpt lat="37.343943" lon="13.4774883"><ele>249.0</ele><time>2026-05-03T13:38:37.518Z</time></trkpt><trkpt lat="37.3437945" lon="13.4775396"><ele>248.0</ele><time>2026-05-03T13:38:38.519Z</time></trkpt><trkpt lat="37.3436451" lon="13.4775831"><ele>247.0</ele><time>2026-05-03T13:38:39.519Z</time></trkpt><trkpt lat="37.3434933" lon="13.4776215"><ele>247.0</ele><time>2026-05-03T13:38:40.518Z</time></trkpt><trkpt lat="37.3433472" lon="13.4776577"><ele>247.0</ele><time>2026-05-03T13:38:41.519Z</time></trkpt><trkpt lat="37.3432107" lon="13.4776991"><ele>247.0</ele><time>2026-05-03T13:38:42.519Z</time></trkpt><trkpt lat="37.3430858" lon="13.4777385"><ele>247.0</ele><time>2026-05-03T13:38:43.518Z</time></trkpt><trkpt lat="37.3429632" lon="13.4777919"><ele>245.75</ele><time>2026-05-03T13:38:44.519Z</time></trkpt><trkpt lat="37.3428445" lon="13.4778602"><ele>244.5</ele><time>2026-05-03T13:38:45.518Z</time></trkpt><trkpt lat="37.3427255" lon="13.47794"><ele>243.25</ele><time>2026-05-03T13:38:46.519Z</time></trkpt><trkpt lat="37.3426015" lon="13.4780292"><ele>242.0</ele><time>2026-05-03T13:38:47.519Z</time></trkpt><trkpt lat="37.3424797" lon="13.4781246"><ele>242.0</ele><time>2026-05-03T13:38:48.518Z</time></trkpt><trkpt lat="37.3423588" lon="13.4782103"><ele>242.0</ele><time>2026-05-03T13:38:49.518Z</time></trkpt><trkpt lat="37.3422299" lon="13.4782907"><ele>242.0</ele><time>2026-05-03T13:38:50.518Z</time></trkpt><trkpt lat="37.3420976" lon="13.4783634"><ele>242.0</ele><time>2026-05-03T13:38:51.519Z</time></trkpt><trkpt lat="37.3419597" lon="13.4784293"><ele>239.0</ele><time>2026-05-03T13:38:52.519Z</time></trkpt><trkpt lat="37.3418214" lon="13.478493"><ele>236.0</ele><time>2026-05-03T13:38:53.519Z</time></trkpt><trkpt lat="37.341677" lon="13.4785488"><ele>233.0</ele><time>2026-05-03T13:38:54.519Z</time></trkpt><trkpt lat="37.3415293" lon="13.4786019"><ele>230.33333333333334</ele><time>2026-05-03T13:38:55.518Z</time></trkpt><trkpt lat="37.3413748" lon="13.4786427"><ele>227.66666666666669</ele><time>2026-05-03T13:38:56.519Z</time></trkpt><trkpt lat="37.3412095" lon="13.4786755"><ele>225.0</ele><time>2026-05-03T13:38:57.518Z</time></trkpt><trkpt lat="37.3410423" lon="13.4787072"><ele>225.0</ele><time>2026-05-03T13:38:58.519Z</time></trkpt><trkpt lat="37.340872" lon="13.4787344"><ele>225.0</ele><time>2026-05-03T13:38:59.518Z</time></trkpt><trkpt lat="37.340704" lon="13.4787641"><ele>225.0</ele><time>2026-05-03T13:39:00.519Z</time></trkpt><trkpt lat="37.3405339" lon="13.4787937"><ele>223.66666666666669</ele><time>2026-05-03T13:39:01.519Z</time></trkpt><trkpt lat="37.340374" lon="13.4788258"><ele>222.33333333333334</ele><time>2026-05-03T13:39:02.519Z</time></trkpt><trkpt lat="37.3402215" lon="13.478858"><ele>221.0</ele><time>2026-05-03T13:39:03.518Z</time></trkpt><trkpt lat="37.3400813" lon="13.4788978"><ele>221.0</ele><time>2026-05-03T13:39:04.519Z</time></trkpt><trkpt lat="37.3399498" lon="13.4789461"><ele>221.0</ele><time>2026-05-03T13:39:05.519Z</time></trkpt><trkpt lat="37.3398247" lon="13.4790076"><ele>221.0</ele><time>2026-05-03T13:39:06.518Z</time></trkpt><trkpt lat="37.3396936" lon="13.4790867"><ele>221.0</ele><time>2026-05-03T13:39:07.519Z</time></trkpt><trkpt lat="37.3395595" lon="13.4791832"><ele>219.66666666666669</ele><time>2026-05-03T13:39:08.518Z</time></trkpt><trkpt lat="37.3394206" lon="13.4792893"><ele>218.33333333333331</ele><time>2026-05-03T13:39:09.519Z</time></trkpt><trkpt lat="37.3392785" lon="13.4794111"><ele>217.0</ele><time>2026-05-03T13:39:10.519Z</time></trkpt><trkpt lat="37.3391301" lon="13.4795327"><ele>217.33333333333331</ele><time>2026-05-03T13:39:11.519Z</time></trkpt><trkpt lat="37.3389827" lon="13.4796591"><ele>217.66666666666669</ele><time>2026-05-03T13:39:12.518Z</time></trkpt><trkpt lat="37.3388382" lon="13.4797817"><ele>218.0</ele><time>2026-05-03T13:39:13.519Z</time></trkpt><trkpt lat="37.3387027" lon="13.4798926"><ele>217.0</ele><time>2026-05-03T13:39:14.519Z</time></trkpt><trkpt lat="37.3385781" lon="13.479994"><ele>216.0</ele><time>2026-05-03T13:39:15.519Z</time></trkpt><trkpt lat="37.3384616" lon="13.4800958"><ele>215.0</ele><time>2026-05-03T13:39:16.519Z</time></trkpt><trkpt lat="37.3383526" lon="13.4801917"><ele>214.0</ele><time>2026-05-03T13:39:17.518Z</time></trkpt><trkpt lat="37.3382525" lon="13.4802783"><ele>214.0</ele><time>2026-05-03T13:39:18.518Z</time></trkpt><trkpt lat="37.3381591" lon="13.4803571"><ele>213.99999999999997</ele><time>2026-05-03T13:39:19.518Z</time></trkpt><trkpt lat="37.3380758" lon="13.4804155"><ele>213.99999999999997</ele><time>2026-05-03T13:39:20.518Z</time></trkpt><trkpt lat="37.3379924" lon="13.4804486"><ele>214.0</ele><time>2026-05-03T13:39:21.519Z</time></trkpt><trkpt lat="37.3379047" lon="13.4804609"><ele>214.0</ele><time>2026-05-03T13:39:22.518Z</time></trkpt><trkpt lat="37.3378194" lon="13.4804373"><ele>214.0</ele><time>2026-05-03T13:39:23.518Z</time></trkpt><trkpt lat="37.3377431" lon="13.4803907"><ele>213.99999999999997</ele><time>2026-05-03T13:39:24.518Z</time></trkpt><trkpt lat="37.3376784" lon="13.4803259"><ele>213.99999999999997</ele><time>2026-05-03T13:39:25.518Z</time></trkpt><trkpt lat="37.3376227" lon="13.4802328"><ele>214.0</ele><time>2026-05-03T13:39:26.518Z</time></trkpt><trkpt lat="37.3375761" lon="13.4801165"><ele>214.0</ele><time>2026-05-03T13:39:27.519Z</time></trkpt><trkpt lat="37.3375331" lon="13.479982"><ele>214.0</ele><time>2026-05-03T13:39:28.518Z</time></trkpt><trkpt lat="37.337495" lon="13.4798354"><ele>214.0</ele><time>2026-05-03T13:39:29.518Z</time></trkpt><trkpt lat="37.3374586" lon="13.4796849"><ele>214.0</ele><time>2026-05-03T13:39:30.519Z</time></trkpt><trkpt lat="37.3374215" lon="13.4795154"><ele>214.0</ele><time>2026-05-03T13:39:31.519Z</time></trkpt><trkpt lat="37.3373875" lon="13.4793427"><ele>214.5</ele><time>2026-05-03T13:39:32.519Z</time></trkpt><trkpt lat="37.337355" lon="13.4791702"><ele>215.0</ele><time>2026-05-03T13:39:33.518Z</time></trkpt><trkpt lat="37.3373333" lon="13.479002"><ele>215.5</ele><time>2026-05-03T13:39:34.518Z</time></trkpt><trkpt lat="37.3373252" lon="13.4788405"><ele>216.0</ele><time>2026-05-03T13:39:35.519Z</time></trkpt><trkpt lat="37.3373329" lon="13.4786861"><ele>216.0</ele><time>2026-05-03T13:39:36.518Z</time></trkpt><trkpt lat="37.3373472" lon="13.4785289"><ele>216.0</ele><time>2026-05-03T13:39:37.519Z</time></trkpt><trkpt lat="37.3373668" lon="13.4783686"><ele>216.0</ele><time>2026-05-03T13:39:38.518Z</time></trkpt><trkpt lat="37.3373931" lon="13.4781954"><ele>216.0</ele><time>2026-05-03T13:39:39.519Z</time></trkpt><trkpt lat="37.3374238" lon="13.4780187"><ele>216.0</ele><time>2026-05-03T13:39:40.518Z</time></trkpt><trkpt lat="37.3374529" lon="13.4778387"><ele>216.0</ele><time>2026-05-03T13:39:41.518Z</time></trkpt><trkpt lat="37.3374846" lon="13.4776525"><ele>216.0</ele><time>2026-05-03T13:39:42.518Z</time></trkpt><trkpt lat="37.3375188" lon="13.4774688"><ele>216.0</ele><time>2026-05-03T13:39:43.519Z</time></trkpt><trkpt lat="37.3375494" lon="13.477285"><ele>216.5</ele><time>2026-05-03T13:39:44.518Z</time></trkpt><trkpt lat="37.3375773" lon="13.4771014"><ele>217.0</ele><time>2026-05-03T13:39:45.519Z</time></trkpt><trkpt lat="37.337592" lon="13.4769205"><ele>217.5</ele><time>2026-05-03T13:39:46.518Z</time></trkpt><trkpt lat="37.3375924" lon="13.4767446"><ele>218.0</ele><time>2026-05-03T13:39:47.518Z</time></trkpt><trkpt lat="37.3375757" lon="13.4765682"><ele>218.0</ele><time>2026-05-03T13:39:48.518Z</time></trkpt><trkpt lat="37.3375488" lon="13.476385"><ele>218.0</ele><time>2026-05-03T13:39:49.519Z</time></trkpt><trkpt lat="37.3375105" lon="13.4762045"><ele>218.0</ele><time>2026-05-03T13:39:50.518Z</time></trkpt><trkpt lat="37.3374718" lon="13.4760202"><ele>218.0</ele><time>2026-05-03T13:39:51.519Z</time></trkpt><trkpt lat="37.3374308" lon="13.4758331"><ele>217.75</ele><time>2026-05-03T13:39:52.519Z</time></trkpt><trkpt lat="37.3373916" lon="13.4756458"><ele>217.5</ele><time>2026-05-03T13:39:53.519Z</time></trkpt><trkpt lat="37.3373542" lon="13.4754613"><ele>217.25</ele><time>2026-05-03T13:39:54.518Z</time></trkpt><trkpt lat="37.3373209" lon="13.475289"><ele>217.0</ele><time>2026-05-03T13:39:55.519Z</time></trkpt><trkpt lat="37.337292" lon="13.4751277"><ele>217.25</ele><time>2026-05-03T13:39:56.519Z</time></trkpt><trkpt lat="37.3372569" lon="13.4749636"><ele>217.5</ele><time>2026-05-03T13:39:57.518Z</time></trkpt><trkpt lat="37.3372223" lon="13.4747952"><ele>217.75</ele><time>2026-05-03T13:39:58.518Z</time></trkpt><trkpt lat="37.337191" lon="13.4746188"><ele>218.0</ele><time>2026-05-03T13:39:59.518Z</time></trkpt><trkpt lat="37.3371614" lon="13.474443"><ele>216.66666666666669</ele><time>2026-05-03T13:40:00.519Z</time></trkpt><trkpt lat="37.3371301" lon="13.4742642"><ele>215.33333333333331</ele><time>2026-05-03T13:40:01.518Z</time></trkpt><trkpt lat="37.3370941" lon="13.4740826"><ele>214.0</ele><time>2026-05-03T13:40:02.519Z</time></trkpt><trkpt lat="37.3370534" lon="13.4738933"><ele>212.33333333333331</ele><time>2026-05-03T13:40:03.518Z</time></trkpt><trkpt lat="37.336996" lon="13.4737057"><ele>210.66666666666669</ele><time>2026-05-03T13:40:04.518Z</time></trkpt><trkpt lat="37.3369337" lon="13.4735151"><ele>209.0</ele><time>2026-05-03T13:40:05.519Z</time></trkpt><trkpt lat="37.3368606" lon="13.473327"><ele>209.0</ele><time>2026-05-03T13:40:06.518Z</time></trkpt><trkpt lat="37.3367781" lon="13.4731375"><ele>209.0</ele><time>2026-05-03T13:40:07.518Z</time></trkpt><trkpt lat="37.3366954" lon="13.4729516"><ele>209.0</ele><time>2026-05-03T13:40:08.518Z</time></trkpt><trkpt lat="37.3366119" lon="13.472766"><ele>208.33333333333334</ele><time>2026-05-03T13:40:09.519Z</time></trkpt><trkpt lat="37.336524" lon="13.4725856"><ele>207.66666666666669</ele><time>2026-05-03T13:40:10.518Z</time></trkpt><trkpt lat="37.3364339" lon="13.4724115"><ele>207.0</ele><time>2026-05-03T13:40:11.519Z</time></trkpt><trkpt lat="37.3363429" lon="13.4722406"><ele>206.0</ele><time>2026-05-03T13:40:12.518Z</time></trkpt><trkpt lat="37.3362534" lon="13.4720709"><ele>205.0</ele><time>2026-05-03T13:40:13.519Z</time></trkpt><trkpt lat="37.3361637" lon="13.4719018"><ele>204.0</ele><time>2026-05-03T13:40:14.519Z</time></trkpt><trkpt lat="37.336071" lon="13.4717352"><ele>204.0</ele><time>2026-05-03T13:40:15.518Z</time></trkpt><trkpt lat="37.3359799" lon="13.4715716"><ele>204.0</ele><time>2026-05-03T13:40:16.519Z</time></trkpt><trkpt lat="37.3358948" lon="13.4714022"><ele>204.0</ele><time>2026-05-03T13:40:17.518Z</time></trkpt><trkpt lat="37.3358209" lon="13.4712286"><ele>204.0</ele><time>2026-05-03T13:40:18.518Z</time></trkpt><trkpt lat="37.3357635" lon="13.4710475"><ele>204.0</ele><time>2026-05-03T13:40:19.519Z</time></trkpt><trkpt lat="37.3357259" lon="13.4708504"><ele>204.0</ele><time>2026-05-03T13:40:20.519Z</time></trkpt><trkpt lat="37.3356913" lon="13.470653"><ele>204.0</ele><time>2026-05-03T13:40:21.519Z</time></trkpt><trkpt lat="37.3356531" lon="13.4704554"><ele>204.0</ele><time>2026-05-03T13:40:22.519Z</time></trkpt><trkpt lat="37.3356169" lon="13.4702577"><ele>204.0</ele><time>2026-05-03T13:40:23.519Z</time></trkpt><trkpt lat="37.3355777" lon="13.4700659"><ele>209.66666666666669</ele><time>2026-05-03T13:40:24.519Z</time></trkpt><trkpt lat="37.3355433" lon="13.4698706"><ele>215.33333333333334</ele><time>2026-05-03T13:40:25.519Z</time></trkpt><trkpt lat="37.335509" lon="13.4696808"><ele>221.0</ele><time>2026-05-03T13:40:26.519Z</time></trkpt><trkpt lat="37.3354759" lon="13.4695049"><ele>221.0</ele><time>2026-05-03T13:40:27.519Z</time></trkpt><trkpt lat="37.3354439" lon="13.4693483"><ele>221.00000000000003</ele><time>2026-05-03T13:40:28.519Z</time></trkpt><trkpt lat="37.3354022" lon="13.4692236"><ele>221.00000000000003</ele><time>2026-05-03T13:40:29.518Z</time></trkpt><trkpt lat="37.3353543" lon="13.4691155"><ele>221.0</ele><time>2026-05-03T13:40:30.519Z</time></trkpt><trkpt lat="37.3352931" lon="13.4690187"><ele>221.0</ele><time>2026-05-03T13:40:31.519Z</time></trkpt><trkpt lat="37.3352117" lon="13.4689359"><ele>221.0</ele><time>2026-05-03T13:40:32.518Z</time></trkpt><trkpt lat="37.3351113" lon="13.4688618"><ele>221.0</ele><time>2026-05-03T13:40:33.518Z</time></trkpt><trkpt lat="37.3349925" lon="13.468799"><ele>221.0</ele><time>2026-05-03T13:40:34.519Z</time></trkpt><trkpt lat="37.3348578" lon="13.4687402"><ele>221.0</ele><time>2026-05-03T13:40:35.519Z</time></trkpt><trkpt lat="37.3347093" lon="13.4686816"><ele>217.0</ele><time>2026-05-03T13:40:36.518Z</time></trkpt><trkpt lat="37.3345499" lon="13.468622"><ele>213.0</ele><time>2026-05-03T13:40:37.519Z</time></trkpt><trkpt lat="37.3343901" lon="13.468568"><ele>209.0</ele><time>2026-05-03T13:40:38.518Z</time></trkpt><trkpt lat="37.3342394" lon="13.4685143"><ele>209.0</ele><time>2026-05-03T13:40:39.518Z</time></trkpt><trkpt lat="37.3340977" lon="13.4684599"><ele>209.0</ele><time>2026-05-03T13:40:40.519Z</time></trkpt><trkpt lat="37.3339623" lon="13.4683974"><ele>209.0</ele><time>2026-05-03T13:40:41.518Z</time></trkpt><trkpt lat="37.3338368" lon="13.4683286"><ele>209.0</ele><time>2026-05-03T13:40:42.518Z</time></trkpt><trkpt lat="37.3337229" lon="13.4682428"><ele>209.75</ele><time>2026-05-03T13:40:43.518Z</time></trkpt><trkpt lat="37.3336322" lon="13.4681507"><ele>210.5</ele><time>2026-05-03T13:40:44.518Z</time></trkpt><trkpt lat="37.333562" lon="13.4680425"><ele>211.25</ele><time>2026-05-03T13:40:45.519Z</time></trkpt><trkpt lat="37.3335052" lon="13.4679206"><ele>212.0</ele><time>2026-05-03T13:40:46.519Z</time></trkpt><trkpt lat="37.333469" lon="13.4677875"><ele>212.0</ele><time>2026-05-03T13:40:47.518Z</time></trkpt><trkpt lat="37.3334276" lon="13.4676529"><ele>212.0</ele><time>2026-05-03T13:40:48.518Z</time></trkpt><trkpt lat="37.3333644" lon="13.4675259"><ele>212.0</ele><time>2026-05-03T13:40:49.519Z</time></trkpt><trkpt lat="37.3332882" lon="13.4674173"><ele>212.0</ele><time>2026-05-03T13:40:50.519Z</time></trkpt><trkpt lat="37.3331846" lon="13.4673245"><ele>212.0</ele><time>2026-05-03T13:40:51.518Z</time></trkpt><trkpt lat="37.3330651" lon="13.4672469"><ele>212.0</ele><time>2026-05-03T13:40:52.519Z</time></trkpt><trkpt lat="37.3329426" lon="13.4671726"><ele>212.0</ele><time>2026-05-03T13:40:53.519Z</time></trkpt><trkpt lat="37.3328134" lon="13.4670959"><ele>212.0</ele><time>2026-05-03T13:40:54.518Z</time></trkpt><trkpt lat="37.3326861" lon="13.46702"><ele>211.0</ele><time>2026-05-03T13:40:55.518Z</time></trkpt><trkpt lat="37.3325516" lon="13.4669499"><ele>210.0</ele><time>2026-05-03T13:40:56.519Z</time></trkpt><trkpt lat="37.3324078" lon="13.4668821"><ele>209.0</ele><time>2026-05-03T13:40:57.519Z</time></trkpt><trkpt lat="37.3322571" lon="13.4668313"><ele>207.0</ele><time>2026-05-03T13:40:58.519Z</time></trkpt><trkpt lat="37.3321033" lon="13.4667855"><ele>205.0</ele><time>2026-05-03T13:40:59.519Z</time></trkpt><trkpt lat="37.3319461" lon="13.4667412"><ele>203.0</ele><time>2026-05-03T13:41:00.519Z</time></trkpt><trkpt lat="37.3317932" lon="13.4667034"><ele>203.0</ele><time>2026-05-03T13:41:01.518Z</time></trkpt><trkpt lat="37.3316418" lon="13.4666721"><ele>203.0</ele><time>2026-05-03T13:41:02.518Z</time></trkpt><trkpt lat="37.3314869" lon="13.466636"><ele>203.0</ele><time>2026-05-03T13:41:03.518Z</time></trkpt><trkpt lat="37.3313336" lon="13.466607"><ele>201.0</ele><time>2026-05-03T13:41:04.519Z</time></trkpt><trkpt lat="37.3311814" lon="13.4665728"><ele>199.0</ele><time>2026-05-03T13:41:05.519Z</time></trkpt><trkpt lat="37.3310354" lon="13.4665328"><ele>197.0</ele><time>2026-05-03T13:41:06.519Z</time></trkpt><trkpt lat="37.3308893" lon="13.4664932"><ele>197.0</ele><time>2026-05-03T13:41:07.519Z</time></trkpt><trkpt lat="37.3307464" lon="13.4664472"><ele>197.0</ele><time>2026-05-03T13:41:08.519Z</time></trkpt><trkpt lat="37.3306089" lon="13.4663844"><ele>197.0</ele><time>2026-05-03T13:41:09.518Z</time></trkpt><trkpt lat="37.3304778" lon="13.4663112"><ele>197.0</ele><time>2026-05-03T13:41:10.518Z</time></trkpt><trkpt lat="37.3303615" lon="13.4662216"><ele>195.0</ele><time>2026-05-03T13:41:11.518Z</time></trkpt><trkpt lat="37.3302511" lon="13.4661106"><ele>193.0</ele><time>2026-05-03T13:41:12.519Z</time></trkpt><trkpt lat="37.3301587" lon="13.4659924"><ele>191.0</ele><time>2026-05-03T13:41:13.519Z</time></trkpt><trkpt lat="37.3300615" lon="13.465869"><ele>189.0</ele><time>2026-05-03T13:41:14.519Z</time></trkpt><trkpt lat="37.3299543" lon="13.4657521"><ele>189.0</ele><time>2026-05-03T13:41:15.518Z</time></trkpt><trkpt lat="37.3298403" lon="13.4656406"><ele>189.0</ele><time>2026-05-03T13:41:16.519Z</time></trkpt><trkpt lat="37.3297182" lon="13.4655324"><ele>189.0</ele><time>2026-05-03T13:41:17.519Z</time></trkpt><trkpt lat="37.3295867" lon="13.4654306"><ele>189.0</ele><time>2026-05-03T13:41:18.518Z</time></trkpt><trkpt lat="37.3294477" lon="13.4653346"><ele>186.33333333333334</ele><time>2026-05-03T13:41:19.519Z</time></trkpt><trkpt lat="37.3293057" lon="13.4652466"><ele>183.66666666666669</ele><time>2026-05-03T13:41:20.518Z</time></trkpt><trkpt lat="37.3291616" lon="13.4651661"><ele>181.0</ele><time>2026-05-03T13:41:21.519Z</time></trkpt><trkpt lat="37.3290183" lon="13.4650949"><ele>181.33333333333334</ele><time>2026-05-03T13:41:22.519Z</time></trkpt><trkpt lat="37.328865" lon="13.4650267"><ele>181.66666666666666</ele><time>2026-05-03T13:41:23.519Z</time></trkpt><trkpt lat="37.32871" lon="13.4649681"><ele>182.0</ele><time>2026-05-03T13:41:24.518Z</time></trkpt><trkpt lat="37.3285584" lon="13.4649203"><ele>182.0</ele><time>2026-05-03T13:41:25.518Z</time></trkpt><trkpt lat="37.3284131" lon="13.4648802"><ele>182.0</ele><time>2026-05-03T13:41:26.518Z</time></trkpt><trkpt lat="37.3282786" lon="13.4648473"><ele>182.0</ele><time>2026-05-03T13:41:27.519Z</time></trkpt><trkpt lat="37.3281536" lon="13.4648033"><ele>182.0</ele><time>2026-05-03T13:41:28.519Z</time></trkpt><trkpt lat="37.3280454" lon="13.4647458"><ele>182.25</ele><time>2026-05-03T13:41:29.519Z</time></trkpt><trkpt lat="37.3279571" lon="13.4646525"><ele>182.5</ele><time>2026-05-03T13:41:30.519Z</time></trkpt><trkpt lat="37.3278845" lon="13.4645345"><ele>182.75</ele><time>2026-05-03T13:41:31.518Z</time></trkpt><trkpt lat="37.3278196" lon="13.4644028"><ele>183.0</ele><time>2026-05-03T13:41:32.518Z</time></trkpt><trkpt lat="37.3277538" lon="13.4642742"><ele>181.0</ele><time>2026-05-03T13:41:33.518Z</time></trkpt><trkpt lat="37.327683" lon="13.4641563"><ele>179.0</ele><time>2026-05-03T13:41:34.519Z</time></trkpt><trkpt lat="37.3276039" lon="13.4640535"><ele>177.0</ele><time>2026-05-03T13:41:35.519Z</time></trkpt><trkpt lat="37.3275182" lon="13.4639682"><ele>175.0</ele><time>2026-05-03T13:41:36.519Z</time></trkpt><trkpt lat="37.3274213" lon="13.4639055"><ele>173.0</ele><time>2026-05-03T13:41:37.519Z</time></trkpt><trkpt lat="37.3273251" lon="13.4638669"><ele>173.0</ele><time>2026-05-03T13:41:38.518Z</time></trkpt><trkpt lat="37.3272335" lon="13.4638532"><ele>173.0</ele><time>2026-05-03T13:41:39.519Z</time></trkpt><trkpt lat="37.3271452" lon="13.4638559"><ele>173.0</ele><time>2026-05-03T13:41:40.519Z</time></trkpt><trkpt lat="37.3270489" lon="13.4638796"><ele>173.0</ele><time>2026-05-03T13:41:41.519Z</time></trkpt><trkpt lat="37.3269462" lon="13.4639269"><ele>173.0</ele><time>2026-05-03T13:41:42.519Z</time></trkpt><trkpt lat="37.3268403" lon="13.4639988"><ele>170.5</ele><time>2026-05-03T13:41:43.519Z</time></trkpt><trkpt lat="37.3267412" lon="13.4640802"><ele>168.0</ele><time>2026-05-03T13:41:44.518Z</time></trkpt><trkpt lat="37.3266497" lon="13.4641722"><ele>165.5</ele><time>2026-05-03T13:41:45.518Z</time></trkpt><trkpt lat="37.3265646" lon="13.4642655"><ele>163.0</ele><time>2026-05-03T13:41:46.519Z</time></trkpt><trkpt lat="37.3264839" lon="13.4643444"><ele>163.0</ele><time>2026-05-03T13:41:47.519Z</time></trkpt><trkpt lat="37.3264031" lon="13.4643911"><ele>163.0</ele><time>2026-05-03T13:41:48.518Z</time></trkpt><trkpt lat="37.3263197" lon="13.4644086"><ele>163.0</ele><time>2026-05-03T13:41:49.518Z</time></trkpt><trkpt lat="37.3262347" lon="13.4643904"><ele>163.0</ele><time>2026-05-03T13:41:50.518Z</time></trkpt><trkpt lat="37.3261436" lon="13.4643367"><ele>163.0</ele><time>2026-05-03T13:41:51.518Z</time></trkpt><trkpt lat="37.3260474" lon="13.4642566"><ele>161.75</ele><time>2026-05-03T13:41:52.518Z</time></trkpt><trkpt lat="37.3259426" lon="13.464169"><ele>160.5</ele><time>2026-05-03T13:41:53.519Z</time></trkpt><trkpt lat="37.3258253" lon="13.4640826"><ele>159.25</ele><time>2026-05-03T13:41:54.518Z</time></trkpt><trkpt lat="37.3256971" lon="13.4639962"><ele>158.0</ele><time>2026-05-03T13:41:55.519Z</time></trkpt><trkpt lat="37.3255546" lon="13.4639066"><ele>161.66666666666666</ele><time>2026-05-03T13:41:56.518Z</time></trkpt><trkpt lat="37.3254119" lon="13.4638181"><ele>165.33333333333334</ele><time>2026-05-03T13:41:57.519Z</time></trkpt><trkpt lat="37.3252636" lon="13.4637285"><ele>169.0</ele><time>2026-05-03T13:41:58.519Z</time></trkpt><trkpt lat="37.3251241" lon="13.4636388"><ele>163.75</ele><time>2026-05-03T13:41:59.518Z</time></trkpt><trkpt lat="37.3249928" lon="13.4635615"><ele>158.5</ele><time>2026-05-03T13:42:00.519Z</time></trkpt><trkpt lat="37.3248685" lon="13.4634895"><ele>153.25</ele><time>2026-05-03T13:42:01.519Z</time></trkpt><trkpt lat="37.3247511" lon="13.4634349"><ele>148.0</ele><time>2026-05-03T13:42:02.519Z</time></trkpt><trkpt lat="37.3246412" lon="13.4634"><ele>148.0</ele><time>2026-05-03T13:42:03.519Z</time></trkpt><trkpt lat="37.3245308" lon="13.4633858"><ele>148.0</ele><time>2026-05-03T13:42:04.519Z</time></trkpt><trkpt lat="37.3244253" lon="13.463379"><ele>148.0</ele><time>2026-05-03T13:42:05.519Z</time></trkpt><trkpt lat="37.3243153" lon="13.4633844"><ele>148.0</ele><time>2026-05-03T13:42:06.519Z</time></trkpt><trkpt lat="37.3241987" lon="13.4634063"><ele>148.0</ele><time>2026-05-03T13:42:07.518Z</time></trkpt><trkpt lat="37.3240778" lon="13.4634425"><ele>148.0</ele><time>2026-05-03T13:42:08.519Z</time></trkpt><trkpt lat="37.323957" lon="13.4634814"><ele>148.0</ele><time>2026-05-03T13:42:09.519Z</time></trkpt><trkpt lat="37.3238391" lon="13.4635151"><ele>148.0</ele><time>2026-05-03T13:42:10.518Z</time></trkpt><trkpt lat="37.323722" lon="13.4635326"><ele>148.0</ele><time>2026-05-03T13:42:11.518Z</time></trkpt><trkpt lat="37.3235984" lon="13.4635249"><ele>145.33333333333334</ele><time>2026-05-03T13:42:12.518Z</time></trkpt><trkpt lat="37.3234632" lon="13.4634951"><ele>142.66666666666666</ele><time>2026-05-03T13:42:13.519Z</time></trkpt><trkpt lat="37.3233158" lon="13.4634547"><ele>140.0</ele><time>2026-05-03T13:42:14.519Z</time></trkpt><trkpt lat="37.3231569" lon="13.4634085"><ele>139.33333333333331</ele><time>2026-05-03T13:42:15.519Z</time></trkpt><trkpt lat="37.3229911" lon="13.4633571"><ele>138.66666666666666</ele><time>2026-05-03T13:42:16.519Z</time></trkpt><trkpt lat="37.322827" lon="13.4633098"><ele>138.0</ele><time>2026-05-03T13:42:17.518Z</time></trkpt><trkpt lat="37.3226632" lon="13.4632753"><ele>138.0</ele><time>2026-05-03T13:42:18.519Z</time></trkpt><trkpt lat="37.3224935" lon="13.4632577"><ele>138.0</ele><time>2026-05-03T13:42:19.518Z</time></trkpt><trkpt lat="37.3223209" lon="13.4632514"><ele>138.0</ele><time>2026-05-03T13:42:20.518Z</time></trkpt><trkpt lat="37.3221494" lon="13.4632499"><ele>137.33333333333334</ele><time>2026-05-03T13:42:21.518Z</time></trkpt><trkpt lat="37.3219879" lon="13.4632497"><ele>136.66666666666669</ele><time>2026-05-03T13:42:22.519Z</time></trkpt><trkpt lat="37.3218376" lon="13.4632474"><ele>136.0</ele><time>2026-05-03T13:42:23.519Z</time></trkpt><trkpt lat="37.3216942" lon="13.4632441"><ele>136.0</ele><time>2026-05-03T13:42:24.518Z</time></trkpt><trkpt lat="37.3215594" lon="13.4632364"><ele>136.0</ele><time>2026-05-03T13:42:25.518Z</time></trkpt><trkpt lat="37.3214279" lon="13.4632167"><ele>136.0</ele><time>2026-05-03T13:42:26.519Z</time></trkpt><trkpt lat="37.3212919" lon="13.4631897"><ele>136.0</ele><time>2026-05-03T13:42:27.518Z</time></trkpt><trkpt lat="37.3211502" lon="13.4631526"><ele>135.66666666666669</ele><time>2026-05-03T13:42:28.519Z</time></trkpt><trkpt lat="37.3210024" lon="13.4631064"><ele>135.33333333333334</ele><time>2026-05-03T13:42:29.518Z</time></trkpt><trkpt lat="37.3208472" lon="13.4630569"><ele>135.0</ele><time>2026-05-03T13:42:30.518Z</time></trkpt><trkpt lat="37.3206916" lon="13.4630042"><ele>133.66666666666666</ele><time>2026-05-03T13:42:31.518Z</time></trkpt><trkpt lat="37.3205354" lon="13.4629539"><ele>132.33333333333331</ele><time>2026-05-03T13:42:32.518Z</time></trkpt><trkpt lat="37.3203918" lon="13.4629053"><ele>131.0</ele><time>2026-05-03T13:42:33.519Z</time></trkpt><trkpt lat="37.3202519" lon="13.4628479"><ele>129.33333333333331</ele><time>2026-05-03T13:42:34.518Z</time></trkpt><trkpt lat="37.3201155" lon="13.4627826"><ele>127.66666666666666</ele><time>2026-05-03T13:42:35.518Z</time></trkpt><trkpt lat="37.3199857" lon="13.4626966"><ele>126.0</ele><time>2026-05-03T13:42:36.518Z</time></trkpt><trkpt lat="37.31985" lon="13.4625945"><ele>125.33333333333334</ele><time>2026-05-03T13:42:37.519Z</time></trkpt><trkpt lat="37.319706" lon="13.4624951"><ele>124.66666666666667</ele><time>2026-05-03T13:42:38.518Z</time></trkpt><trkpt lat="37.3195551" lon="13.4623943"><ele>124.0</ele><time>2026-05-03T13:42:39.519Z</time></trkpt><trkpt lat="37.3194024" lon="13.4622927"><ele>124.0</ele><time>2026-05-03T13:42:40.519Z</time></trkpt><trkpt lat="37.3192432" lon="13.4621873"><ele>124.0</ele><time>2026-05-03T13:42:41.519Z</time></trkpt><trkpt lat="37.319085" lon="13.4620801"><ele>124.0</ele><time>2026-05-03T13:42:42.518Z</time></trkpt><trkpt lat="37.3189278" lon="13.4619785"><ele>124.66666666666667</ele><time>2026-05-03T13:42:43.519Z</time></trkpt><trkpt lat="37.3187793" lon="13.4618801"><ele>125.33333333333334</ele><time>2026-05-03T13:42:44.519Z</time></trkpt><trkpt lat="37.3186356" lon="13.4617915"><ele>126.0</ele><time>2026-05-03T13:42:45.519Z</time></trkpt><trkpt lat="37.3184947" lon="13.4617069"><ele>126.0</ele><time>2026-05-03T13:42:46.519Z</time></trkpt><trkpt lat="37.3183652" lon="13.4616347"><ele>126.0</ele><time>2026-05-03T13:42:47.518Z</time></trkpt><trkpt lat="37.3182419" lon="13.4615758"><ele>126.0</ele><time>2026-05-03T13:42:48.519Z</time></trkpt><trkpt lat="37.3181252" lon="13.46153"><ele>126.0</ele><time>2026-05-03T13:42:49.519Z</time></trkpt><trkpt lat="37.3180294" lon="13.4614878"><ele>126.0</ele><time>2026-05-03T13:42:50.518Z</time></trkpt><trkpt lat="37.3179489" lon="13.4614545"><ele>126.0</ele><time>2026-05-03T13:42:51.519Z</time></trkpt><trkpt lat="37.3178811" lon="13.4614199"><ele>126.0</ele><time>2026-05-03T13:42:52.518Z</time></trkpt><trkpt lat="37.3177907" lon="13.4613565"><ele>126.0</ele><time>2026-05-03T13:42:54.518Z</time></trkpt><trkpt lat="37.3177644" lon="13.461279"><ele>126.0</ele><time>2026-05-03T13:42:56.518Z</time></trkpt><trkpt lat="37.3177833" lon="13.4611841"><ele>126.0</ele><time>2026-05-03T13:42:58.519Z</time></trkpt><trkpt lat="37.3178701" lon="13.4610247"><ele>124.0</ele><time>2026-05-03T13:43:00.519Z</time></trkpt><trkpt lat="37.3179481" lon="13.4609206"><ele>122.0</ele><time>2026-05-03T13:43:01.519Z</time></trkpt><trkpt lat="37.3180341" lon="13.4607975"><ele>120.0</ele><time>2026-05-03T13:43:02.519Z</time></trkpt><trkpt lat="37.3181286" lon="13.4606581"><ele>118.0</ele><time>2026-05-03T13:43:03.519Z</time></trkpt><trkpt lat="37.3182335" lon="13.4605082"><ele>116.33333333333334</ele><time>2026-05-03T13:43:04.519Z</time></trkpt><trkpt lat="37.3183408" lon="13.4603485"><ele>114.66666666666666</ele><time>2026-05-03T13:43:05.518Z</time></trkpt><trkpt lat="37.3184492" lon="13.4601926"><ele>113.0</ele><time>2026-05-03T13:43:06.519Z</time></trkpt><trkpt lat="37.318554" lon="13.4600271"><ele>113.0</ele><time>2026-05-03T13:43:07.519Z</time></trkpt><trkpt lat="37.3186415" lon="13.45985"><ele>113.0</ele><time>2026-05-03T13:43:08.519Z</time></trkpt><trkpt lat="37.3187112" lon="13.4596592"><ele>113.0</ele><time>2026-05-03T13:43:09.519Z</time></trkpt><trkpt lat="37.3187682" lon="13.4594484"><ele>112.0</ele><time>2026-05-03T13:43:10.518Z</time></trkpt><trkpt lat="37.3188039" lon="13.4592253"><ele>111.0</ele><time>2026-05-03T13:43:11.519Z</time></trkpt><trkpt lat="37.318832" lon="13.4589931"><ele>110.0</ele><time>2026-05-03T13:43:12.518Z</time></trkpt><trkpt lat="37.3188582" lon="13.4587502"><ele>110.0</ele><time>2026-05-03T13:43:13.519Z</time></trkpt><trkpt lat="37.3188796" lon="13.4585049"><ele>110.0</ele><time>2026-05-03T13:43:14.519Z</time></trkpt><trkpt lat="37.3189059" lon="13.4582559"><ele>110.0</ele><time>2026-05-03T13:43:15.519Z</time></trkpt><trkpt lat="37.3189302" lon="13.4580006"><ele>110.0</ele><time>2026-05-03T13:43:16.519Z</time></trkpt><trkpt lat="37.3189541" lon="13.4577485"><ele>110.0</ele><time>2026-05-03T13:43:17.518Z</time></trkpt><trkpt lat="37.3189818" lon="13.4574864"><ele>110.0</ele><time>2026-05-03T13:43:18.519Z</time></trkpt><trkpt lat="37.3190117" lon="13.4572248"><ele>109.33333333333333</ele><time>2026-05-03T13:43:19.518Z</time></trkpt><trkpt lat="37.3190388" lon="13.4569637"><ele>108.66666666666666</ele><time>2026-05-03T13:43:20.518Z</time></trkpt><trkpt lat="37.3190695" lon="13.4567089"><ele>108.0</ele><time>2026-05-03T13:43:21.518Z</time></trkpt><trkpt lat="37.3190969" lon="13.456465"><ele>107.66666666666666</ele><time>2026-05-03T13:43:22.519Z</time></trkpt><trkpt lat="37.3191224" lon="13.4562262"><ele>107.33333333333333</ele><time>2026-05-03T13:43:23.519Z</time></trkpt><trkpt lat="37.3191486" lon="13.4559879"><ele>107.0</ele><time>2026-05-03T13:43:24.519Z</time></trkpt><trkpt lat="37.3191815" lon="13.4557404"><ele>107.0</ele><time>2026-05-03T13:43:25.519Z</time></trkpt><trkpt lat="37.3192221" lon="13.4554929"><ele>107.0</ele><time>2026-05-03T13:43:26.519Z</time></trkpt><trkpt lat="37.3192702" lon="13.4552456"><ele>107.0</ele><time>2026-05-03T13:43:27.519Z</time></trkpt><trkpt lat="37.3193241" lon="13.4549993"><ele>106.0</ele><time>2026-05-03T13:43:28.518Z</time></trkpt><trkpt lat="37.3193823" lon="13.4547529"><ele>105.0</ele><time>2026-05-03T13:43:29.519Z</time></trkpt><trkpt lat="37.319434" lon="13.4545124"><ele>104.0</ele><time>2026-05-03T13:43:30.518Z</time></trkpt><trkpt lat="37.3194853" lon="13.4542759"><ele>103.33333333333333</ele><time>2026-05-03T13:43:31.519Z</time></trkpt><trkpt lat="37.319531" lon="13.4540476"><ele>102.66666666666666</ele><time>2026-05-03T13:43:32.518Z</time></trkpt><trkpt lat="37.3195705" lon="13.4538217"><ele>102.0</ele><time>2026-05-03T13:43:33.519Z</time></trkpt><trkpt lat="37.3195945" lon="13.453607"><ele>100.33333333333334</ele><time>2026-05-03T13:43:34.519Z</time></trkpt><trkpt lat="37.3196137" lon="13.4533985"><ele>98.66666666666667</ele><time>2026-05-03T13:43:35.519Z</time></trkpt><trkpt lat="37.319626" lon="13.4531921"><ele>97.0</ele><time>2026-05-03T13:43:36.519Z</time></trkpt><trkpt lat="37.3196334" lon="13.4529928"><ele>96.66666666666667</ele><time>2026-05-03T13:43:37.519Z</time></trkpt><trkpt lat="37.3196411" lon="13.4527921"><ele>96.33333333333334</ele><time>2026-05-03T13:43:38.519Z</time></trkpt><trkpt lat="37.3196498" lon="13.4525842"><ele>96.0</ele><time>2026-05-03T13:43:39.519Z</time></trkpt><trkpt lat="37.3196576" lon="13.4523798"><ele>96.0</ele><time>2026-05-03T13:43:40.518Z</time></trkpt><trkpt lat="37.3196627" lon="13.4521793"><ele>96.0</ele><time>2026-05-03T13:43:41.518Z</time></trkpt><trkpt lat="37.3196695" lon="13.4519911"><ele>96.0</ele><time>2026-05-03T13:43:42.519Z</time></trkpt><trkpt lat="37.3196779" lon="13.4518126"><ele>95.25</ele><time>2026-05-03T13:43:43.518Z</time></trkpt><trkpt lat="37.3196858" lon="13.4516426"><ele>94.5</ele><time>2026-05-03T13:43:44.518Z</time></trkpt><trkpt lat="37.3196922" lon="13.4514777"><ele>93.75</ele><time>2026-05-03T13:43:45.519Z</time></trkpt><trkpt lat="37.3196978" lon="13.4513252"><ele>93.0</ele><time>2026-05-03T13:43:46.519Z</time></trkpt><trkpt lat="37.3197106" lon="13.4511746"><ele>95.5</ele><time>2026-05-03T13:43:47.518Z</time></trkpt><trkpt lat="37.3197353" lon="13.4510297"><ele>98.0</ele><time>2026-05-03T13:43:48.519Z</time></trkpt><trkpt lat="37.3197774" lon="13.4508771"><ele>100.5</ele><time>2026-05-03T13:43:49.519Z</time></trkpt><trkpt lat="37.3198406" lon="13.4507298"><ele>103.0</ele><time>2026-05-03T13:43:50.519Z</time></trkpt><trkpt lat="37.3199185" lon="13.4505879"><ele>103.0</ele><time>2026-05-03T13:43:51.518Z</time></trkpt><trkpt lat="37.320015" lon="13.4504611"><ele>103.0</ele><time>2026-05-03T13:43:52.518Z</time></trkpt><trkpt lat="37.3201281" lon="13.4503402"><ele>103.0</ele><time>2026-05-03T13:43:53.519Z</time></trkpt><trkpt lat="37.3202501" lon="13.4502323"><ele>103.0</ele><time>2026-05-03T13:43:54.519Z</time></trkpt><trkpt lat="37.3203793" lon="13.4501291"><ele>102.66666666666667</ele><time>2026-05-03T13:43:55.518Z</time></trkpt><trkpt lat="37.3205102" lon="13.4500192"><ele>102.33333333333334</ele><time>2026-05-03T13:43:56.518Z</time></trkpt><trkpt lat="37.3206441" lon="13.4499103"><ele>102.0</ele><time>2026-05-03T13:43:57.518Z</time></trkpt><trkpt lat="37.3207771" lon="13.4497976"><ele>102.0</ele><time>2026-05-03T13:43:58.519Z</time></trkpt><trkpt lat="37.3209081" lon="13.4496856"><ele>102.0</ele><time>2026-05-03T13:43:59.519Z</time></trkpt><trkpt lat="37.3210411" lon="13.4495729"><ele>102.0</ele><time>2026-05-03T13:44:00.518Z</time></trkpt><trkpt lat="37.3211728" lon="13.4494603"><ele>103.66666666666666</ele><time>2026-05-03T13:44:01.518Z</time></trkpt><trkpt lat="37.321311" lon="13.4493424"><ele>105.33333333333333</ele><time>2026-05-03T13:44:02.518Z</time></trkpt><trkpt lat="37.3214481" lon="13.4492261"><ele>107.0</ele><time>2026-05-03T13:44:03.519Z</time></trkpt><trkpt lat="37.321583" lon="13.4491096"><ele>107.0</ele><time>2026-05-03T13:44:04.519Z</time></trkpt><trkpt lat="37.3217154" lon="13.4489913"><ele>107.0</ele><time>2026-05-03T13:44:05.519Z</time></trkpt><trkpt lat="37.3218461" lon="13.4488739"><ele>107.0</ele><time>2026-05-03T13:44:06.519Z</time></trkpt><trkpt lat="37.3219808" lon="13.4487562"><ele>107.66666666666666</ele><time>2026-05-03T13:44:07.518Z</time></trkpt><trkpt lat="37.3221159" lon="13.4486372"><ele>108.33333333333334</ele><time>2026-05-03T13:44:08.519Z</time></trkpt><trkpt lat="37.3222507" lon="13.4485215"><ele>109.0</ele><time>2026-05-03T13:44:09.519Z</time></trkpt><trkpt lat="37.3223828" lon="13.4484056"><ele>109.0</ele><time>2026-05-03T13:44:10.519Z</time></trkpt><trkpt lat="37.3225156" lon="13.4482907"><ele>109.0</ele><time>2026-05-03T13:44:11.519Z</time></trkpt><trkpt lat="37.3226417" lon="13.4481804"><ele>109.0</ele><time>2026-05-03T13:44:12.518Z</time></trkpt><trkpt lat="37.3227724" lon="13.4480712"><ele>108.0</ele><time>2026-05-03T13:44:13.518Z</time></trkpt><trkpt lat="37.3229014" lon="13.447959"><ele>107.0</ele><time>2026-05-03T13:44:14.519Z</time></trkpt><trkpt lat="37.3230262" lon="13.4478477"><ele>106.0</ele><time>2026-05-03T13:44:15.519Z</time></trkpt><trkpt lat="37.3231481" lon="13.4477252"><ele>108.0</ele><time>2026-05-03T13:44:16.518Z</time></trkpt><trkpt lat="37.3232646" lon="13.4475832"><ele>110.0</ele><time>2026-05-03T13:44:17.518Z</time></trkpt><trkpt lat="37.3233754" lon="13.4474154"><ele>112.0</ele><time>2026-05-03T13:44:18.518Z</time></trkpt><trkpt lat="37.3234813" lon="13.4472386"><ele>111.66666666666667</ele><time>2026-05-03T13:44:19.519Z</time></trkpt><trkpt lat="37.3235875" lon="13.4470547"><ele>111.33333333333334</ele><time>2026-05-03T13:44:20.519Z</time></trkpt><trkpt lat="37.3236921" lon="13.4468739"><ele>111.0</ele><time>2026-05-03T13:44:21.519Z</time></trkpt><trkpt lat="37.3237919" lon="13.4466959"><ele>111.0</ele><time>2026-05-03T13:44:22.518Z</time></trkpt><trkpt lat="37.3238858" lon="13.4465282"><ele>111.0</ele><time>2026-05-03T13:44:23.518Z</time></trkpt><trkpt lat="37.3239756" lon="13.4463632"><ele>111.0</ele><time>2026-05-03T13:44:24.519Z</time></trkpt><trkpt lat="37.3240595" lon="13.4461912"><ele>112.66666666666666</ele><time>2026-05-03T13:44:25.519Z</time></trkpt><trkpt lat="37.3241396" lon="13.4460109"><ele>114.33333333333333</ele><time>2026-05-03T13:44:26.519Z</time></trkpt><trkpt lat="37.3242146" lon="13.4458254"><ele>116.0</ele><time>2026-05-03T13:44:27.518Z</time></trkpt><trkpt lat="37.324277" lon="13.4456282"><ele>116.0</ele><time>2026-05-03T13:44:28.519Z</time></trkpt><trkpt lat="37.3243378" lon="13.4454224"><ele>116.0</ele><time>2026-05-03T13:44:29.519Z</time></trkpt><trkpt lat="37.3243891" lon="13.4452059"><ele>116.0</ele><time>2026-05-03T13:44:30.518Z</time></trkpt><trkpt lat="37.324443" lon="13.4449887"><ele>116.0</ele><time>2026-05-03T13:44:31.519Z</time></trkpt><trkpt lat="37.3245001" lon="13.4447666"><ele>116.0</ele><time>2026-05-03T13:44:32.518Z</time></trkpt><trkpt lat="37.3245584" lon="13.4445433"><ele>116.0</ele><time>2026-05-03T13:44:33.518Z</time></trkpt><trkpt lat="37.3246165" lon="13.4443132"><ele>117.0</ele><time>2026-05-03T13:44:34.519Z</time></trkpt><trkpt lat="37.3246785" lon="13.4440781"><ele>118.0</ele><time>2026-05-03T13:44:35.518Z</time></trkpt><trkpt lat="37.3247398" lon="13.4438315"><ele>119.0</ele><time>2026-05-03T13:44:36.519Z</time></trkpt><trkpt lat="37.3248097" lon="13.4435598"><ele>121.0</ele><time>2026-05-03T13:44:37.519Z</time></trkpt><trkpt lat="37.3248874" lon="13.4432724"><ele>123.0</ele><time>2026-05-03T13:44:38.519Z</time></trkpt><trkpt lat="37.3249812" lon="13.4429798"><ele>122.5</ele><time>2026-05-03T13:44:39.519Z</time></trkpt><trkpt lat="37.3250686" lon="13.4426911"><ele>122.0</ele><time>2026-05-03T13:44:40.519Z</time></trkpt><trkpt lat="37.3251396" lon="13.4424029"><ele>124.5</ele><time>2026-05-03T13:44:41.519Z</time></trkpt><trkpt lat="37.3252132" lon="13.4421221"><ele>127.0</ele><time>2026-05-03T13:44:42.519Z</time></trkpt><trkpt lat="37.3252928" lon="13.4418448"><ele>127.0</ele><time>2026-05-03T13:44:43.518Z</time></trkpt><trkpt lat="37.3253821" lon="13.4415855"><ele>127.0</ele><time>2026-05-03T13:44:44.519Z</time></trkpt><trkpt lat="37.3254809" lon="13.4413409"><ele>127.0</ele><time>2026-05-03T13:44:45.519Z</time></trkpt><trkpt lat="37.3255878" lon="13.4411077"><ele>127.33333333333334</ele><time>2026-05-03T13:44:46.519Z</time></trkpt><trkpt lat="37.3257042" lon="13.4408824"><ele>127.66666666666666</ele><time>2026-05-03T13:44:47.518Z</time></trkpt><trkpt lat="37.3258293" lon="13.4406578"><ele>128.0</ele><time>2026-05-03T13:44:48.518Z</time></trkpt><trkpt lat="37.3259587" lon="13.4404252"><ele>128.0</ele><time>2026-05-03T13:44:49.518Z</time></trkpt><trkpt lat="37.3260941" lon="13.440186"><ele>128.0</ele><time>2026-05-03T13:44:50.519Z</time></trkpt><trkpt lat="37.326228" lon="13.439945"><ele>128.0</ele><time>2026-05-03T13:44:51.518Z</time></trkpt><trkpt lat="37.3263617" lon="13.4397066"><ele>128.0</ele><time>2026-05-03T13:44:52.519Z</time></trkpt><trkpt lat="37.3264982" lon="13.4394651"><ele>127.0</ele><time>2026-05-03T13:44:53.518Z</time></trkpt><trkpt lat="37.326633" lon="13.4392197"><ele>126.0</ele><time>2026-05-03T13:44:54.518Z</time></trkpt><trkpt lat="37.3267646" lon="13.4389726"><ele>125.0</ele><time>2026-05-03T13:44:55.519Z</time></trkpt><trkpt lat="37.3268963" lon="13.438737"><ele>124.0</ele><time>2026-05-03T13:44:56.519Z</time></trkpt><trkpt lat="37.3270237" lon="13.4385119"><ele>123.0</ele><time>2026-05-03T13:44:57.519Z</time></trkpt><trkpt lat="37.3271451" lon="13.4382945"><ele>122.33333333333334</ele><time>2026-05-03T13:44:58.519Z</time></trkpt><trkpt lat="37.3272605" lon="13.4380714"><ele>121.66666666666667</ele><time>2026-05-03T13:44:59.519Z</time></trkpt><trkpt lat="37.3273732" lon="13.4378468"><ele>121.0</ele><time>2026-05-03T13:45:00.519Z</time></trkpt><trkpt lat="37.3274827" lon="13.4376182"><ele>121.0</ele><time>2026-05-03T13:45:01.519Z</time></trkpt><trkpt lat="37.3275921" lon="13.4373845"><ele>121.0</ele><time>2026-05-03T13:45:02.519Z</time></trkpt><trkpt lat="37.3277004" lon="13.4371511"><ele>121.0</ele><time>2026-05-03T13:45:03.519Z</time></trkpt><trkpt lat="37.327808" lon="13.4369213"><ele>119.33333333333334</ele><time>2026-05-03T13:45:04.518Z</time></trkpt><trkpt lat="37.327918" lon="13.436697"><ele>117.66666666666666</ele><time>2026-05-03T13:45:05.518Z</time></trkpt><trkpt lat="37.328022" lon="13.4364737"><ele>116.0</ele><time>2026-05-03T13:45:06.519Z</time></trkpt><trkpt lat="37.3281253" lon="13.43625"><ele>115.33333333333333</ele><time>2026-05-03T13:45:07.519Z</time></trkpt><trkpt lat="37.3282284" lon="13.436033"><ele>114.66666666666666</ele><time>2026-05-03T13:45:08.518Z</time></trkpt><trkpt lat="37.3283296" lon="13.4358211"><ele>114.0</ele><time>2026-05-03T13:45:09.519Z</time></trkpt><trkpt lat="37.3284308" lon="13.435615"><ele>112.33333333333334</ele><time>2026-05-03T13:45:10.518Z</time></trkpt><trkpt lat="37.3285277" lon="13.4354051"><ele>110.66666666666667</ele><time>2026-05-03T13:45:11.518Z</time></trkpt><trkpt lat="37.3286273" lon="13.4351935"><ele>109.0</ele><time>2026-05-03T13:45:12.519Z</time></trkpt><trkpt lat="37.3287278" lon="13.4349759"><ele>109.0</ele><time>2026-05-03T13:45:13.518Z</time></trkpt><trkpt lat="37.32883" lon="13.4347569"><ele>109.0</ele><time>2026-05-03T13:45:14.519Z</time></trkpt><trkpt lat="37.328935" lon="13.4345424"><ele>109.0</ele><time>2026-05-03T13:45:15.518Z</time></trkpt><trkpt lat="37.32904" lon="13.4343166"><ele>108.66666666666667</ele><time>2026-05-03T13:45:16.518Z</time></trkpt><trkpt lat="37.3291442" lon="13.4340913"><ele>108.33333333333334</ele><time>2026-05-03T13:45:17.519Z</time></trkpt><trkpt lat="37.3292477" lon="13.4338605"><ele>108.0</ele><time>2026-05-03T13:45:18.519Z</time></trkpt><trkpt lat="37.3293513" lon="13.4336294"><ele>105.66666666666666</ele><time>2026-05-03T13:45:19.518Z</time></trkpt><trkpt lat="37.3294575" lon="13.4333947"><ele>103.33333333333333</ele><time>2026-05-03T13:45:20.519Z</time></trkpt><trkpt lat="37.3295621" lon="13.4331664"><ele>101.0</ele><time>2026-05-03T13:45:21.519Z</time></trkpt><trkpt lat="37.3296702" lon="13.4329413"><ele>101.0</ele><time>2026-05-03T13:45:22.518Z</time></trkpt><trkpt lat="37.3297801" lon="13.4327244"><ele>101.0</ele><time>2026-05-03T13:45:23.519Z</time></trkpt><trkpt lat="37.3299037" lon="13.432527"><ele>101.0</ele><time>2026-05-03T13:45:24.518Z</time></trkpt><trkpt lat="37.3300515" lon="13.4323535"><ele>101.0</ele><time>2026-05-03T13:45:25.519Z</time></trkpt><trkpt lat="37.3302155" lon="13.4321938"><ele>101.0</ele><time>2026-05-03T13:45:26.519Z</time></trkpt><trkpt lat="37.3303864" lon="13.4320399"><ele>101.0</ele><time>2026-05-03T13:45:27.519Z</time></trkpt><trkpt lat="37.3305594" lon="13.4318863"><ele>100.33333333333333</ele><time>2026-05-03T13:45:28.518Z</time></trkpt><trkpt lat="37.3307349" lon="13.4317326"><ele>99.66666666666666</ele><time>2026-05-03T13:45:29.519Z</time></trkpt><trkpt lat="37.3309085" lon="13.4315809"><ele>99.0</ele><time>2026-05-03T13:45:30.519Z</time></trkpt><trkpt lat="37.3310789" lon="13.4314247"><ele>98.66666666666666</ele><time>2026-05-03T13:45:31.518Z</time></trkpt><trkpt lat="37.3312503" lon="13.4312713"><ele>98.33333333333333</ele><time>2026-05-03T13:45:32.518Z</time></trkpt><trkpt lat="37.3314162" lon="13.4311211"><ele>98.0</ele><time>2026-05-03T13:45:33.519Z</time></trkpt><trkpt lat="37.3315788" lon="13.4309734"><ele>98.0</ele><time>2026-05-03T13:45:34.519Z</time></trkpt><trkpt lat="37.3317378" lon="13.4308328"><ele>98.0</ele><time>2026-05-03T13:45:35.519Z</time></trkpt><trkpt lat="37.3318934" lon="13.4306903"><ele>98.0</ele><time>2026-05-03T13:45:36.518Z</time></trkpt><trkpt lat="37.3320476" lon="13.4305549"><ele>97.66666666666666</ele><time>2026-05-03T13:45:37.519Z</time></trkpt><trkpt lat="37.3322008" lon="13.4304174"><ele>97.33333333333334</ele><time>2026-05-03T13:45:38.519Z</time></trkpt><trkpt lat="37.3323508" lon="13.4302853"><ele>97.0</ele><time>2026-05-03T13:45:39.518Z</time></trkpt><trkpt lat="37.3324974" lon="13.430152"><ele>97.0</ele><time>2026-05-03T13:45:40.519Z</time></trkpt><trkpt lat="37.3326388" lon="13.4300198"><ele>97.0</ele><time>2026-05-03T13:45:41.519Z</time></trkpt><trkpt lat="37.3327713" lon="13.4298874"><ele>97.0</ele><time>2026-05-03T13:45:42.519Z</time></trkpt><trkpt lat="37.3328974" lon="13.4297538"><ele>96.33333333333334</ele><time>2026-05-03T13:45:43.519Z</time></trkpt><trkpt lat="37.3330093" lon="13.4296122"><ele>95.66666666666667</ele><time>2026-05-03T13:45:44.518Z</time></trkpt><trkpt lat="37.3331146" lon="13.4294535"><ele>95.0</ele><time>2026-05-03T13:45:45.519Z</time></trkpt><trkpt lat="37.3332119" lon="13.4292841"><ele>95.0</ele><time>2026-05-03T13:45:46.518Z</time></trkpt><trkpt lat="37.3332973" lon="13.4290975"><ele>95.0</ele><time>2026-05-03T13:45:47.518Z</time></trkpt><trkpt lat="37.3333778" lon="13.428903"><ele>95.0</ele><time>2026-05-03T13:45:48.519Z</time></trkpt><trkpt lat="37.3334536" lon="13.4286944"><ele>93.0</ele><time>2026-05-03T13:45:49.519Z</time></trkpt><trkpt lat="37.3335236" lon="13.4284775"><ele>91.0</ele><time>2026-05-03T13:45:50.518Z</time></trkpt><trkpt lat="37.3335856" lon="13.4282543"><ele>89.0</ele><time>2026-05-03T13:45:51.519Z</time></trkpt><trkpt lat="37.3336291" lon="13.4280195"><ele>87.33333333333334</ele><time>2026-05-03T13:45:52.519Z</time></trkpt><trkpt lat="37.3336528" lon="13.4277759"><ele>85.66666666666667</ele><time>2026-05-03T13:45:53.519Z</time></trkpt><trkpt lat="37.3336644" lon="13.4275285"><ele>84.0</ele><time>2026-05-03T13:45:54.519Z</time></trkpt><trkpt lat="37.3336602" lon="13.4272804"><ele>83.66666666666667</ele><time>2026-05-03T13:45:55.519Z</time></trkpt><trkpt lat="37.3336424" lon="13.4270344"><ele>83.33333333333334</ele><time>2026-05-03T13:45:56.518Z</time></trkpt><trkpt lat="37.3336156" lon="13.4267869"><ele>83.0</ele><time>2026-05-03T13:45:57.518Z</time></trkpt><trkpt lat="37.3335867" lon="13.4265442"><ele>82.0</ele><time>2026-05-03T13:45:58.518Z</time></trkpt><trkpt lat="37.3335544" lon="13.4263037"><ele>81.0</ele><time>2026-05-03T13:45:59.518Z</time></trkpt><trkpt lat="37.3335242" lon="13.4260587"><ele>80.0</ele><time>2026-05-03T13:46:00.519Z</time></trkpt><trkpt lat="37.3334945" lon="13.4258116"><ele>80.0</ele><time>2026-05-03T13:46:01.519Z</time></trkpt><trkpt lat="37.3334666" lon="13.425564"><ele>80.0</ele><time>2026-05-03T13:46:02.518Z</time></trkpt><trkpt lat="37.3334386" lon="13.4253143"><ele>80.0</ele><time>2026-05-03T13:46:03.518Z</time></trkpt><trkpt lat="37.3334104" lon="13.4250661"><ele>79.0</ele><time>2026-05-03T13:46:04.519Z</time></trkpt><trkpt lat="37.3333819" lon="13.4248101"><ele>78.0</ele><time>2026-05-03T13:46:05.519Z</time></trkpt><trkpt lat="37.3333534" lon="13.4245581"><ele>77.0</ele><time>2026-05-03T13:46:06.519Z</time></trkpt><trkpt lat="37.3333262" lon="13.4243111"><ele>76.0</ele><time>2026-05-03T13:46:07.518Z</time></trkpt><trkpt lat="37.3332961" lon="13.4240595"><ele>75.0</ele><time>2026-05-03T13:46:08.518Z</time></trkpt><trkpt lat="37.3332644" lon="13.4238068"><ele>74.0</ele><time>2026-05-03T13:46:09.518Z</time></trkpt><trkpt lat="37.333233" lon="13.4235519"><ele>73.66666666666667</ele><time>2026-05-03T13:46:10.518Z</time></trkpt><trkpt lat="37.3331992" lon="13.4233034"><ele>73.33333333333333</ele><time>2026-05-03T13:46:11.519Z</time></trkpt><trkpt lat="37.3331685" lon="13.42305"><ele>73.0</ele><time>2026-05-03T13:46:12.518Z</time></trkpt><trkpt lat="37.3331367" lon="13.422797"><ele>72.66666666666666</ele><time>2026-05-03T13:46:13.518Z</time></trkpt><trkpt lat="37.3331052" lon="13.4225406"><ele>72.33333333333333</ele><time>2026-05-03T13:46:14.519Z</time></trkpt><trkpt lat="37.3330729" lon="13.4222834"><ele>72.0</ele><time>2026-05-03T13:46:15.519Z</time></trkpt><trkpt lat="37.3330421" lon="13.4220189"><ele>72.0</ele><time>2026-05-03T13:46:16.519Z</time></trkpt><trkpt lat="37.3330116" lon="13.4217552"><ele>72.0</ele><time>2026-05-03T13:46:17.518Z</time></trkpt><trkpt lat="37.3329791" lon="13.4214909"><ele>72.0</ele><time>2026-05-03T13:46:18.518Z</time></trkpt><trkpt lat="37.3329502" lon="13.4212283"><ele>71.66666666666667</ele><time>2026-05-03T13:46:19.519Z</time></trkpt><trkpt lat="37.3329184" lon="13.4209667"><ele>71.33333333333334</ele><time>2026-05-03T13:46:20.518Z</time></trkpt><trkpt lat="37.332888" lon="13.4207139"><ele>71.0</ele><time>2026-05-03T13:46:21.519Z</time></trkpt><trkpt lat="37.3328564" lon="13.4204675"><ele>70.66666666666667</ele><time>2026-05-03T13:46:22.519Z</time></trkpt><trkpt lat="37.3328303" lon="13.420228"><ele>70.33333333333333</ele><time>2026-05-03T13:46:23.518Z</time></trkpt><trkpt lat="37.3328065" lon="13.4199837"><ele>70.0</ele><time>2026-05-03T13:46:24.519Z</time></trkpt><trkpt lat="37.3327956" lon="13.4197401"><ele>69.33333333333333</ele><time>2026-05-03T13:46:25.518Z</time></trkpt><trkpt lat="37.332799" lon="13.419496"><ele>68.66666666666667</ele><time>2026-05-03T13:46:26.519Z</time></trkpt><trkpt lat="37.3328213" lon="13.419245"><ele>68.0</ele><time>2026-05-03T13:46:27.519Z</time></trkpt><trkpt lat="37.3328635" lon="13.4189968"><ele>66.66666666666667</ele><time>2026-05-03T13:46:28.519Z</time></trkpt><trkpt lat="37.3329232" lon="13.4187594"><ele>65.33333333333333</ele><time>2026-05-03T13:46:29.518Z</time></trkpt><trkpt lat="37.3330021" lon="13.4185352"><ele>64.0</ele><time>2026-05-03T13:46:30.518Z</time></trkpt><trkpt lat="37.3330938" lon="13.4183219"><ele>65.0</ele><time>2026-05-03T13:46:31.518Z</time></trkpt><trkpt lat="37.3332059" lon="13.4181228"><ele>66.0</ele><time>2026-05-03T13:46:32.519Z</time></trkpt><trkpt lat="37.3333354" lon="13.4179259"><ele>67.0</ele><time>2026-05-03T13:46:33.519Z</time></trkpt><trkpt lat="37.3334667" lon="13.4177322"><ele>67.0</ele><time>2026-05-03T13:46:34.519Z</time></trkpt><trkpt lat="37.3336054" lon="13.4175258"><ele>67.0</ele><time>2026-05-03T13:46:35.519Z</time></trkpt><trkpt lat="37.3337412" lon="13.4173253"><ele>67.0</ele><time>2026-05-03T13:46:36.519Z</time></trkpt><trkpt lat="37.3338752" lon="13.4171215"><ele>67.0</ele><time>2026-05-03T13:46:37.519Z</time></trkpt><trkpt lat="37.3340124" lon="13.4169135"><ele>67.0</ele><time>2026-05-03T13:46:38.519Z</time></trkpt><trkpt lat="37.3341494" lon="13.4167053"><ele>67.0</ele><time>2026-05-03T13:46:39.518Z</time></trkpt><trkpt lat="37.3342887" lon="13.4164934"><ele>63.666666666666664</ele><time>2026-05-03T13:46:40.519Z</time></trkpt><trkpt lat="37.3344266" lon="13.416282"><ele>60.33333333333333</ele><time>2026-05-03T13:46:41.519Z</time></trkpt><trkpt lat="37.3345611" lon="13.4160668"><ele>57.0</ele><time>2026-05-03T13:46:42.519Z</time></trkpt><trkpt lat="37.3346827" lon="13.4158425"><ele>57.33333333333333</ele><time>2026-05-03T13:46:43.519Z</time></trkpt><trkpt lat="37.3347875" lon="13.4155993"><ele>57.666666666666664</ele><time>2026-05-03T13:46:44.518Z</time></trkpt><trkpt lat="37.3348771" lon="13.4153488"><ele>58.0</ele><time>2026-05-03T13:46:45.519Z</time></trkpt><trkpt lat="37.3349635" lon="13.4150887"><ele>58.0</ele><time>2026-05-03T13:46:46.518Z</time></trkpt><trkpt lat="37.3350482" lon="13.4148217"><ele>58.0</ele><time>2026-05-03T13:46:47.518Z</time></trkpt><trkpt lat="37.3351336" lon="13.4145572"><ele>56.5</ele><time>2026-05-03T13:46:48.519Z</time></trkpt><trkpt lat="37.3352206" lon="13.4142914"><ele>55.0</ele><time>2026-05-03T13:46:49.518Z</time></trkpt><trkpt lat="37.3353085" lon="13.4140324"><ele>55.33333333333333</ele><time>2026-05-03T13:46:50.519Z</time></trkpt><trkpt lat="37.3353974" lon="13.4137753"><ele>55.66666666666667</ele><time>2026-05-03T13:46:51.518Z</time></trkpt><trkpt lat="37.3354952" lon="13.4135184"><ele>56.0</ele><time>2026-05-03T13:46:52.519Z</time></trkpt><trkpt lat="37.3356005" lon="13.4132677"><ele>56.0</ele><time>2026-05-03T13:46:53.519Z</time></trkpt><trkpt lat="37.3357108" lon="13.4130174"><ele>56.0</ele><time>2026-05-03T13:46:54.519Z</time></trkpt><trkpt lat="37.3358236" lon="13.4127748"><ele>55.0</ele><time>2026-05-03T13:46:55.519Z</time></trkpt><trkpt lat="37.3359444" lon="13.4125427"><ele>54.0</ele><time>2026-05-03T13:46:56.519Z</time></trkpt><trkpt lat="37.3360692" lon="13.4123112"><ele>53.0</ele><time>2026-05-03T13:46:57.518Z</time></trkpt><trkpt lat="37.3361969" lon="13.4120813"><ele>52.333333333333336</ele><time>2026-05-03T13:46:58.517Z</time></trkpt><trkpt lat="37.3363227" lon="13.4118523"><ele>51.66666666666667</ele><time>2026-05-03T13:46:59.517Z</time></trkpt><trkpt lat="37.3364466" lon="13.4116259"><ele>51.0</ele><time>2026-05-03T13:47:00.517Z</time></trkpt><trkpt lat="37.3365641" lon="13.4113995"><ele>50.0</ele><time>2026-05-03T13:47:01.517Z</time></trkpt><trkpt lat="37.336673" lon="13.4111699"><ele>49.0</ele><time>2026-05-03T13:47:02.517Z</time></trkpt><trkpt lat="37.3367781" lon="13.4109379"><ele>48.0</ele><time>2026-05-03T13:47:03.518Z</time></trkpt><trkpt lat="37.3368742" lon="13.4107012"><ele>47.0</ele><time>2026-05-03T13:47:04.517Z</time></trkpt><trkpt lat="37.3369611" lon="13.4104624"><ele>46.0</ele><time>2026-05-03T13:47:05.518Z</time></trkpt><trkpt lat="37.337042" lon="13.4102214"><ele>45.0</ele><time>2026-05-03T13:47:06.518Z</time></trkpt><trkpt lat="37.3371163" lon="13.4099755"><ele>45.0</ele><time>2026-05-03T13:47:07.517Z</time></trkpt><trkpt lat="37.3371819" lon="13.4097313"><ele>45.0</ele><time>2026-05-03T13:47:08.518Z</time></trkpt><trkpt lat="37.3372427" lon="13.4094841"><ele>45.0</ele><time>2026-05-03T13:47:09.517Z</time></trkpt><trkpt lat="37.3373044" lon="13.4092313"><ele>45.0</ele><time>2026-05-03T13:47:10.518Z</time></trkpt><trkpt lat="37.3373621" lon="13.4089837"><ele>45.0</ele><time>2026-05-03T13:47:11.518Z</time></trkpt><trkpt lat="37.3374207" lon="13.4087342"><ele>45.0</ele><time>2026-05-03T13:47:12.517Z</time></trkpt><trkpt lat="37.3374801" lon="13.4084772"><ele>45.0</ele><time>2026-05-03T13:47:13.517Z</time></trkpt><trkpt lat="37.3375405" lon="13.4082233"><ele>45.0</ele><time>2026-05-03T13:47:14.518Z</time></trkpt><trkpt lat="37.3376021" lon="13.4079703"><ele>45.0</ele><time>2026-05-03T13:47:15.518Z</time></trkpt><trkpt lat="37.3376599" lon="13.4077165"><ele>45.333333333333336</ele><time>2026-05-03T13:47:16.518Z</time></trkpt><trkpt lat="37.3377196" lon="13.4074671"><ele>45.66666666666667</ele><time>2026-05-03T13:47:17.518Z</time></trkpt><trkpt lat="37.3377791" lon="13.407214"><ele>46.0</ele><time>2026-05-03T13:47:18.517Z</time></trkpt><trkpt lat="37.3378369" lon="13.406958"><ele>44.66666666666667</ele><time>2026-05-03T13:47:19.517Z</time></trkpt><trkpt lat="37.3378981" lon="13.4067032"><ele>43.333333333333336</ele><time>2026-05-03T13:47:20.518Z</time></trkpt><trkpt lat="37.3379602" lon="13.4064473"><ele>42.0</ele><time>2026-05-03T13:47:21.518Z</time></trkpt><trkpt lat="37.3380208" lon="13.4061919"><ele>46.33333333333333</ele><time>2026-05-03T13:47:22.517Z</time></trkpt><trkpt lat="37.3380856" lon="13.4059341"><ele>50.666666666666664</ele><time>2026-05-03T13:47:23.518Z</time></trkpt><trkpt lat="37.3381487" lon="13.40568"><ele>55.0</ele><time>2026-05-03T13:47:24.517Z</time></trkpt><trkpt lat="37.3382111" lon="13.4054256"><ele>55.0</ele><time>2026-05-03T13:47:25.518Z</time></trkpt><trkpt lat="37.3382752" lon="13.4051683"><ele>55.0</ele><time>2026-05-03T13:47:26.517Z</time></trkpt><trkpt lat="37.3383396" lon="13.404908"><ele>55.0</ele><time>2026-05-03T13:47:27.518Z</time></trkpt><trkpt lat="37.3384075" lon="13.4046473"><ele>56.0</ele><time>2026-05-03T13:47:28.517Z</time></trkpt><trkpt lat="37.3384884" lon="13.4043815"><ele>57.0</ele><time>2026-05-03T13:47:29.518Z</time></trkpt><trkpt lat="37.3385754" lon="13.4041209"><ele>57.0</ele><time>2026-05-03T13:47:30.518Z</time></trkpt><trkpt lat="37.3386696" lon="13.4038563"><ele>57.0</ele><time>2026-05-03T13:47:31.517Z</time></trkpt><trkpt lat="37.3387744" lon="13.4035898"><ele>59.5</ele><time>2026-05-03T13:47:32.518Z</time></trkpt><trkpt lat="37.3388843" lon="13.4033228"><ele>62.0</ele><time>2026-05-03T13:47:33.517Z</time></trkpt><trkpt lat="37.3390059" lon="13.4030579"><ele>63.5</ele><time>2026-05-03T13:47:34.517Z</time></trkpt><trkpt lat="37.3391394" lon="13.4028007"><ele>65.0</ele><time>2026-05-03T13:47:35.518Z</time></trkpt><trkpt lat="37.3392822" lon="13.4025489"><ele>65.0</ele><time>2026-05-03T13:47:36.518Z</time></trkpt><trkpt lat="37.3394308" lon="13.4022956"><ele>65.0</ele><time>2026-05-03T13:47:37.517Z</time></trkpt><trkpt lat="37.3395868" lon="13.4020483"><ele>57.5</ele><time>2026-05-03T13:47:38.518Z</time></trkpt><trkpt lat="37.3397432" lon="13.4018007"><ele>50.0</ele><time>2026-05-03T13:47:39.518Z</time></trkpt><trkpt lat="37.3399025" lon="13.4015498"><ele>52.0</ele><time>2026-05-03T13:47:40.518Z</time></trkpt><trkpt lat="37.3400632" lon="13.401298"><ele>54.0</ele><time>2026-05-03T13:47:41.518Z</time></trkpt><trkpt lat="37.3402252" lon="13.4010461"><ele>54.0</ele><time>2026-05-03T13:47:42.518Z</time></trkpt><trkpt lat="37.3403865" lon="13.4007912"><ele>54.0</ele><time>2026-05-03T13:47:43.518Z</time></trkpt><trkpt lat="37.3405506" lon="13.40054"><ele>45.5</ele><time>2026-05-03T13:47:44.518Z</time></trkpt><trkpt lat="37.3407103" lon="13.4002875"><ele>37.0</ele><time>2026-05-03T13:47:45.517Z</time></trkpt><trkpt lat="37.3408683" lon="13.4000355"><ele>37.0</ele><time>2026-05-03T13:47:46.518Z</time></trkpt><trkpt lat="37.3410273" lon="13.3997797"><ele>37.0</ele><time>2026-05-03T13:47:47.517Z</time></trkpt><trkpt lat="37.3411867" lon="13.3995272"><ele>37.0</ele><time>2026-05-03T13:47:48.518Z</time></trkpt><trkpt lat="37.3413443" lon="13.3992752"><ele>37.0</ele><time>2026-05-03T13:47:49.517Z</time></trkpt><trkpt lat="37.3415053" lon="13.3990217"><ele>30.5</ele><time>2026-05-03T13:47:50.518Z</time></trkpt><trkpt lat="37.3416651" lon="13.398774"><ele>24.0</ele><time>2026-05-03T13:47:51.517Z</time></trkpt><trkpt lat="37.3418256" lon="13.3985243"><ele>24.0</ele><time>2026-05-03T13:47:52.518Z</time></trkpt><trkpt lat="37.3419841" lon="13.3982762"><ele>24.0</ele><time>2026-05-03T13:47:53.518Z</time></trkpt><trkpt lat="37.3421428" lon="13.3980249"><ele>21.5</ele><time>2026-05-03T13:47:54.517Z</time></trkpt><trkpt lat="37.3422972" lon="13.3977713"><ele>19.0</ele><time>2026-05-03T13:47:55.517Z</time></trkpt><trkpt lat="37.342455" lon="13.3975193"><ele>19.0</ele><time>2026-05-03T13:47:56.518Z</time></trkpt><trkpt lat="37.34261" lon="13.3972638"><ele>19.0</ele><time>2026-05-03T13:47:57.518Z</time></trkpt><trkpt lat="37.3427597" lon="13.3970053"><ele>16.0</ele><time>2026-05-03T13:47:58.518Z</time></trkpt><trkpt lat="37.3429069" lon="13.3967463"><ele>13.0</ele><time>2026-05-03T13:47:59.518Z</time></trkpt><trkpt lat="37.3430434" lon="13.396477"><ele>13.5</ele><time>2026-05-03T13:48:00.517Z</time></trkpt><trkpt lat="37.3431713" lon="13.3962023"><ele>14.0</ele><time>2026-05-03T13:48:01.518Z</time></trkpt><trkpt lat="37.3432907" lon="13.3959212"><ele>14.0</ele><time>2026-05-03T13:48:02.518Z</time></trkpt><trkpt lat="37.3433983" lon="13.3956287"><ele>14.0</ele><time>2026-05-03T13:48:03.517Z</time></trkpt><trkpt lat="37.3434984" lon="13.3953314"><ele>12.5</ele><time>2026-05-03T13:48:04.518Z</time></trkpt><trkpt lat="37.3435928" lon="13.3950302"><ele>11.0</ele><time>2026-05-03T13:48:05.518Z</time></trkpt><trkpt lat="37.3436793" lon="13.3947253"><ele>11.0</ele><time>2026-05-03T13:48:06.517Z</time></trkpt><trkpt lat="37.3437589" lon="13.3944205"><ele>11.0</ele><time>2026-05-03T13:48:07.518Z</time></trkpt><trkpt lat="37.3438335" lon="13.3941115"><ele>19.0</ele><time>2026-05-03T13:48:08.518Z</time></trkpt><trkpt lat="37.3439007" lon="13.3938027"><ele>27.0</ele><time>2026-05-03T13:48:09.518Z</time></trkpt><trkpt lat="37.3439649" lon="13.3934931"><ele>27.0</ele><time>2026-05-03T13:48:10.518Z</time></trkpt><trkpt lat="37.3440268" lon="13.3931814"><ele>27.0</ele><time>2026-05-03T13:48:11.518Z</time></trkpt><trkpt lat="37.3440892" lon="13.3928673"><ele>27.0</ele><time>2026-05-03T13:48:12.517Z</time></trkpt><trkpt lat="37.3441532" lon="13.3925614"><ele>27.0</ele><time>2026-05-03T13:48:13.517Z</time></trkpt><trkpt lat="37.3442184" lon="13.3922556"><ele>26.0</ele><time>2026-05-03T13:48:14.518Z</time></trkpt><trkpt lat="37.3442868" lon="13.3919529"><ele>25.0</ele><time>2026-05-03T13:48:15.518Z</time></trkpt><trkpt lat="37.3443549" lon="13.3916509"><ele>25.0</ele><time>2026-05-03T13:48:16.517Z</time></trkpt><trkpt lat="37.3444216" lon="13.3913486"><ele>25.0</ele><time>2026-05-03T13:48:17.518Z</time></trkpt><trkpt lat="37.3444896" lon="13.3910505"><ele>27.0</ele><time>2026-05-03T13:48:18.518Z</time></trkpt><trkpt lat="37.3445554" lon="13.3907556"><ele>29.0</ele><time>2026-05-03T13:48:19.518Z</time></trkpt><trkpt lat="37.3446231" lon="13.3904626"><ele>28.5</ele><time>2026-05-03T13:48:20.518Z</time></trkpt><trkpt lat="37.3446966" lon="13.3901754"><ele>28.0</ele><time>2026-05-03T13:48:21.517Z</time></trkpt><trkpt lat="37.3447798" lon="13.3898907"><ele>29.5</ele><time>2026-05-03T13:48:22.517Z</time></trkpt><trkpt lat="37.3448689" lon="13.3896076"><ele>31.0</ele><time>2026-05-03T13:48:23.518Z</time></trkpt><trkpt lat="37.3449599" lon="13.3893334"><ele>31.0</ele><time>2026-05-03T13:48:24.518Z</time></trkpt><trkpt lat="37.3450612" lon="13.3890603"><ele>31.0</ele><time>2026-05-03T13:48:25.517Z</time></trkpt><trkpt lat="37.3451689" lon="13.3888012"><ele>33.0</ele><time>2026-05-03T13:48:26.518Z</time></trkpt><trkpt lat="37.3452874" lon="13.3885465"><ele>35.0</ele><time>2026-05-03T13:48:27.517Z</time></trkpt><trkpt lat="37.3454133" lon="13.3882947"><ele>34.0</ele><time>2026-05-03T13:48:28.518Z</time></trkpt><trkpt lat="37.3455457" lon="13.3880466"><ele>33.0</ele><time>2026-05-03T13:48:29.517Z</time></trkpt><trkpt lat="37.3456832" lon="13.3878018"><ele>35.0</ele><time>2026-05-03T13:48:30.517Z</time></trkpt><trkpt lat="37.3458239" lon="13.3875602"><ele>37.0</ele><time>2026-05-03T13:48:31.517Z</time></trkpt><trkpt lat="37.3459643" lon="13.3873161"><ele>43.0</ele><time>2026-05-03T13:48:32.517Z</time></trkpt><trkpt lat="37.3461016" lon="13.3870715"><ele>49.0</ele><time>2026-05-03T13:48:33.518Z</time></trkpt><trkpt lat="37.3462429" lon="13.386832"><ele>44.0</ele><time>2026-05-03T13:48:34.517Z</time></trkpt><trkpt lat="37.3463842" lon="13.3865936"><ele>39.0</ele><time>2026-05-03T13:48:35.517Z</time></trkpt><trkpt lat="37.3465258" lon="13.3863534"><ele>42.5</ele><time>2026-05-03T13:48:36.517Z</time></trkpt><trkpt lat="37.3466666" lon="13.3861115"><ele>46.0</ele><time>2026-05-03T13:48:37.517Z</time></trkpt><trkpt lat="37.3468038" lon="13.3858746"><ele>46.0</ele><time>2026-05-03T13:48:38.518Z</time></trkpt><trkpt lat="37.3469352" lon="13.3856377"><ele>46.0</ele><time>2026-05-03T13:48:39.518Z</time></trkpt><trkpt lat="37.3470665" lon="13.3853958"><ele>44.5</ele><time>2026-05-03T13:48:40.517Z</time></trkpt><trkpt lat="37.3471914" lon="13.3851514"><ele>43.0</ele><time>2026-05-03T13:48:41.518Z</time></trkpt><trkpt lat="37.3473136" lon="13.3849023"><ele>45.0</ele><time>2026-05-03T13:48:42.517Z</time></trkpt><trkpt lat="37.3475462" lon="13.3844093"><ele>45.0</ele><time>2026-05-03T13:48:44.518Z</time></trkpt><trkpt lat="37.3476619" lon="13.3841662"><ele>45.0</ele><time>2026-05-03T13:48:45.518Z</time></trkpt><trkpt lat="37.3477739" lon="13.3839283"><ele>45.0</ele><time>2026-05-03T13:48:46.518Z</time></trkpt><trkpt lat="37.3478866" lon="13.3836948"><ele>45.666666666666664</ele><time>2026-05-03T13:48:47.518Z</time></trkpt><trkpt lat="37.3479988" lon="13.3834641"><ele>46.33333333333333</ele><time>2026-05-03T13:48:48.518Z</time></trkpt><trkpt lat="37.3481091" lon="13.3832453"><ele>47.0</ele><time>2026-05-03T13:48:49.518Z</time></trkpt><trkpt lat="37.3482108" lon="13.3830279"><ele>48.666666666666664</ele><time>2026-05-03T13:48:50.517Z</time></trkpt><trkpt lat="37.3483112" lon="13.3828124"><ele>50.33333333333333</ele><time>2026-05-03T13:48:51.518Z</time></trkpt><trkpt lat="37.3484142" lon="13.3825952"><ele>52.0</ele><time>2026-05-03T13:48:52.518Z</time></trkpt><trkpt lat="37.3485221" lon="13.3823853"><ele>52.666666666666664</ele><time>2026-05-03T13:48:53.517Z</time></trkpt><trkpt lat="37.3486301" lon="13.3821797"><ele>53.33333333333333</ele><time>2026-05-03T13:48:54.518Z</time></trkpt><trkpt lat="37.3487404" lon="13.3819768"><ele>54.0</ele><time>2026-05-03T13:48:55.517Z</time></trkpt><trkpt lat="37.3488575" lon="13.3817766"><ele>55.33333333333333</ele><time>2026-05-03T13:48:56.517Z</time></trkpt><trkpt lat="37.3489715" lon="13.3815696"><ele>56.666666666666664</ele><time>2026-05-03T13:48:57.518Z</time></trkpt><trkpt lat="37.3490881" lon="13.3813627"><ele>58.0</ele><time>2026-05-03T13:48:58.518Z</time></trkpt><trkpt lat="37.3492072" lon="13.3811604"><ele>58.0</ele><time>2026-05-03T13:48:59.518Z</time></trkpt><trkpt lat="37.3493316" lon="13.3809563"><ele>58.0</ele><time>2026-05-03T13:49:00.517Z</time></trkpt><trkpt lat="37.3494556" lon="13.380752"><ele>58.0</ele><time>2026-05-03T13:49:01.518Z</time></trkpt><trkpt lat="37.349581" lon="13.3805485"><ele>60.33333333333333</ele><time>2026-05-03T13:49:02.517Z</time></trkpt><trkpt lat="37.3497115" lon="13.3803453"><ele>62.66666666666667</ele><time>2026-05-03T13:49:03.517Z</time></trkpt><trkpt lat="37.3498447" lon="13.3801502"><ele>65.0</ele><time>2026-05-03T13:49:04.518Z</time></trkpt><trkpt lat="37.3499804" lon="13.3799554"><ele>65.0</ele><time>2026-05-03T13:49:05.518Z</time></trkpt><trkpt lat="37.3501161" lon="13.3797628"><ele>65.0</ele><time>2026-05-03T13:49:06.518Z</time></trkpt><trkpt lat="37.3502537" lon="13.3795684"><ele>65.0</ele><time>2026-05-03T13:49:07.518Z</time></trkpt><trkpt lat="37.3503945" lon="13.379375"><ele>65.0</ele><time>2026-05-03T13:49:08.518Z</time></trkpt><trkpt lat="37.3505406" lon="13.3791861"><ele>65.0</ele><time>2026-05-03T13:49:09.518Z</time></trkpt><trkpt lat="37.3506871" lon="13.378997"><ele>65.0</ele><time>2026-05-03T13:49:10.518Z</time></trkpt><trkpt lat="37.3508307" lon="13.3788025"><ele>65.33333333333334</ele><time>2026-05-03T13:49:11.517Z</time></trkpt><trkpt lat="37.3509778" lon="13.3786131"><ele>65.66666666666667</ele><time>2026-05-03T13:49:12.517Z</time></trkpt><trkpt lat="37.3511272" lon="13.3784273"><ele>66.0</ele><time>2026-05-03T13:49:13.517Z</time></trkpt><trkpt lat="37.3512815" lon="13.3782438"><ele>67.33333333333333</ele><time>2026-05-03T13:49:14.517Z</time></trkpt><trkpt lat="37.3514391" lon="13.3780616"><ele>68.66666666666666</ele><time>2026-05-03T13:49:15.518Z</time></trkpt><trkpt lat="37.3515947" lon="13.3778875"><ele>70.0</ele><time>2026-05-03T13:49:16.517Z</time></trkpt><trkpt lat="37.3517528" lon="13.3777145"><ele>71.0</ele><time>2026-05-03T13:49:17.517Z</time></trkpt><trkpt lat="37.3519128" lon="13.3775434"><ele>72.0</ele><time>2026-05-03T13:49:18.518Z</time></trkpt><trkpt lat="37.3520789" lon="13.3773737"><ele>73.0</ele><time>2026-05-03T13:49:19.518Z</time></trkpt><trkpt lat="37.3522437" lon="13.3772062"><ele>74.66666666666666</ele><time>2026-05-03T13:49:20.518Z</time></trkpt><trkpt lat="37.3524046" lon="13.3770399"><ele>76.33333333333333</ele><time>2026-05-03T13:49:21.518Z</time></trkpt><trkpt lat="37.3525679" lon="13.3768793"><ele>78.0</ele><time>2026-05-03T13:49:22.518Z</time></trkpt><trkpt lat="37.3527294" lon="13.3767187"><ele>78.0</ele><time>2026-05-03T13:49:23.517Z</time></trkpt><trkpt lat="37.3528929" lon="13.3765607"><ele>78.0</ele><time>2026-05-03T13:49:24.517Z</time></trkpt><trkpt lat="37.3530572" lon="13.3764002"><ele>78.0</ele><time>2026-05-03T13:49:25.518Z</time></trkpt><trkpt lat="37.3532183" lon="13.3762426"><ele>80.0</ele><time>2026-05-03T13:49:26.517Z</time></trkpt><trkpt lat="37.3533807" lon="13.376082"><ele>82.0</ele><time>2026-05-03T13:49:27.517Z</time></trkpt><trkpt lat="37.3535387" lon="13.3759224"><ele>84.0</ele><time>2026-05-03T13:49:28.517Z</time></trkpt><trkpt lat="37.3536972" lon="13.3757678"><ele>84.0</ele><time>2026-05-03T13:49:29.518Z</time></trkpt><trkpt lat="37.3538531" lon="13.3756128"><ele>84.0</ele><time>2026-05-03T13:49:30.517Z</time></trkpt><trkpt lat="37.3540071" lon="13.3754615"><ele>84.0</ele><time>2026-05-03T13:49:31.518Z</time></trkpt><trkpt lat="37.35416" lon="13.3753111"><ele>85.66666666666667</ele><time>2026-05-03T13:49:32.517Z</time></trkpt><trkpt lat="37.3543098" lon="13.3751613"><ele>87.33333333333334</ele><time>2026-05-03T13:49:33.517Z</time></trkpt><trkpt lat="37.3544591" lon="13.3750155"><ele>89.0</ele><time>2026-05-03T13:49:34.518Z</time></trkpt><trkpt lat="37.3546092" lon="13.3748715"><ele>89.33333333333334</ele><time>2026-05-03T13:49:35.518Z</time></trkpt><trkpt lat="37.3547596" lon="13.3747297"><ele>89.66666666666667</ele><time>2026-05-03T13:49:36.518Z</time></trkpt><trkpt lat="37.3549108" lon="13.3745842"><ele>90.0</ele><time>2026-05-03T13:49:37.518Z</time></trkpt><trkpt lat="37.355065" lon="13.3744321"><ele>91.33333333333333</ele><time>2026-05-03T13:49:38.517Z</time></trkpt><trkpt lat="37.3552199" lon="13.3742831"><ele>92.66666666666666</ele><time>2026-05-03T13:49:39.518Z</time></trkpt><trkpt lat="37.3553766" lon="13.3741297"><ele>94.0</ele><time>2026-05-03T13:49:40.518Z</time></trkpt><trkpt lat="37.3555387" lon="13.3739722"><ele>97.33333333333333</ele><time>2026-05-03T13:49:41.518Z</time></trkpt><trkpt lat="37.3557033" lon="13.373812"><ele>100.66666666666666</ele><time>2026-05-03T13:49:42.518Z</time></trkpt><trkpt lat="37.3558646" lon="13.373651"><ele>104.0</ele><time>2026-05-03T13:49:43.517Z</time></trkpt><trkpt lat="37.3560265" lon="13.3734913"><ele>104.0</ele><time>2026-05-03T13:49:44.517Z</time></trkpt><trkpt lat="37.3561893" lon="13.3733336"><ele>104.0</ele><time>2026-05-03T13:49:45.518Z</time></trkpt><trkpt lat="37.3563539" lon="13.3731748"><ele>104.0</ele><time>2026-05-03T13:49:46.518Z</time></trkpt><trkpt lat="37.3565171" lon="13.3730119"><ele>105.66666666666666</ele><time>2026-05-03T13:49:47.517Z</time></trkpt><trkpt lat="37.3566796" lon="13.3728568"><ele>107.33333333333334</ele><time>2026-05-03T13:49:48.517Z</time></trkpt><trkpt lat="37.3568443" lon="13.3726964"><ele>109.0</ele><time>2026-05-03T13:49:49.518Z</time></trkpt><trkpt lat="37.3570088" lon="13.3725323"><ele>109.0</ele><time>2026-05-03T13:49:50.518Z</time></trkpt><trkpt lat="37.3571738" lon="13.3723706"><ele>109.0</ele><time>2026-05-03T13:49:51.518Z</time></trkpt><trkpt lat="37.357336" lon="13.372211"><ele>109.0</ele><time>2026-05-03T13:49:52.518Z</time></trkpt><trkpt lat="37.3574995" lon="13.3720553"><ele>110.33333333333334</ele><time>2026-05-03T13:49:53.517Z</time></trkpt><trkpt lat="37.3576613" lon="13.3718952"><ele>111.66666666666666</ele><time>2026-05-03T13:49:54.518Z</time></trkpt><trkpt lat="37.3578259" lon="13.3717384"><ele>113.0</ele><time>2026-05-03T13:49:55.518Z</time></trkpt><trkpt lat="37.3579893" lon="13.3715874"><ele>113.33333333333333</ele><time>2026-05-03T13:49:56.517Z</time></trkpt><trkpt lat="37.3581571" lon="13.3714436"><ele>113.66666666666666</ele><time>2026-05-03T13:49:57.517Z</time></trkpt><trkpt lat="37.3583258" lon="13.3713062"><ele>114.0</ele><time>2026-05-03T13:49:58.518Z</time></trkpt><trkpt lat="37.3584998" lon="13.3711769"><ele>114.0</ele><time>2026-05-03T13:49:59.518Z</time></trkpt><trkpt lat="37.3586777" lon="13.3710593"><ele>114.0</ele><time>2026-05-03T13:50:00.517Z</time></trkpt><trkpt lat="37.3588587" lon="13.370943"><ele>114.0</ele><time>2026-05-03T13:50:01.518Z</time></trkpt><trkpt lat="37.3590421" lon="13.3708331"><ele>116.0</ele><time>2026-05-03T13:50:02.518Z</time></trkpt><trkpt lat="37.359228" lon="13.3707266"><ele>118.0</ele><time>2026-05-03T13:50:03.518Z</time></trkpt><trkpt lat="37.3594222" lon="13.3706289"><ele>120.0</ele><time>2026-05-03T13:50:04.518Z</time></trkpt><trkpt lat="37.3635641" lon="13.3682206"><ele>121.33333333333334</ele><time>2026-05-03T13:50:26.517Z</time></trkpt><trkpt lat="37.3637149" lon="13.3680506"><ele>122.66666666666667</ele><time>2026-05-03T13:50:27.518Z</time></trkpt><trkpt lat="37.3638613" lon="13.3678863"><ele>124.0</ele><time>2026-05-03T13:50:28.517Z</time></trkpt><trkpt lat="37.3639965" lon="13.3677103"><ele>124.0</ele><time>2026-05-03T13:50:29.518Z</time></trkpt><trkpt lat="37.3641293" lon="13.3675271"><ele>124.0</ele><time>2026-05-03T13:50:30.518Z</time></trkpt><trkpt lat="37.3642611" lon="13.3673435"><ele>124.0</ele><time>2026-05-03T13:50:31.518Z</time></trkpt><trkpt lat="37.3643871" lon="13.3671628"><ele>123.0</ele><time>2026-05-03T13:50:32.518Z</time></trkpt><trkpt lat="37.3645178" lon="13.366981"><ele>122.0</ele><time>2026-05-03T13:50:33.518Z</time></trkpt><trkpt lat="37.3646487" lon="13.3668"><ele>121.0</ele><time>2026-05-03T13:50:34.517Z</time></trkpt><trkpt lat="37.3647791" lon="13.3666212"><ele>122.66666666666667</ele><time>2026-05-03T13:50:35.517Z</time></trkpt><trkpt lat="37.3649101" lon="13.366442"><ele>124.33333333333334</ele><time>2026-05-03T13:50:36.517Z</time></trkpt><trkpt lat="37.3650394" lon="13.366266"><ele>126.0</ele><time>2026-05-03T13:50:37.518Z</time></trkpt><trkpt lat="37.3651708" lon="13.3660946"><ele>126.0</ele><time>2026-05-03T13:50:38.518Z</time></trkpt><trkpt lat="37.3653073" lon="13.3659271"><ele>126.0</ele><time>2026-05-03T13:50:39.517Z</time></trkpt><trkpt lat="37.3654488" lon="13.3657623"><ele>126.0</ele><time>2026-05-03T13:50:40.517Z</time></trkpt><trkpt lat="37.3655979" lon="13.3656074"><ele>130.0</ele><time>2026-05-03T13:50:41.517Z</time></trkpt><trkpt lat="37.3657587" lon="13.3654694"><ele>134.0</ele><time>2026-05-03T13:50:42.518Z</time></trkpt><trkpt lat="37.3659289" lon="13.365336"><ele>138.0</ele><time>2026-05-03T13:50:43.517Z</time></trkpt><trkpt lat="37.3661062" lon="13.3652097"><ele>138.0</ele><time>2026-05-03T13:50:44.518Z</time></trkpt><trkpt lat="37.3662855" lon="13.3650894"><ele>138.0</ele><time>2026-05-03T13:50:45.518Z</time></trkpt><trkpt lat="37.3664698" lon="13.3649764"><ele>138.0</ele><time>2026-05-03T13:50:46.517Z</time></trkpt><trkpt lat="37.3666552" lon="13.3648584"><ele>139.33333333333334</ele><time>2026-05-03T13:50:47.517Z</time></trkpt><trkpt lat="37.3668412" lon="13.3647375"><ele>140.66666666666669</ele><time>2026-05-03T13:50:48.518Z</time></trkpt><trkpt lat="37.3670263" lon="13.3646108"><ele>142.0</ele><time>2026-05-03T13:50:49.517Z</time></trkpt><trkpt lat="37.3672096" lon="13.3644854"><ele>139.33333333333334</ele><time>2026-05-03T13:50:50.518Z</time></trkpt><trkpt lat="37.3673931" lon="13.3643573"><ele>136.66666666666666</ele><time>2026-05-03T13:50:51.517Z</time></trkpt><trkpt lat="37.3675757" lon="13.364223"><ele>134.0</ele><time>2026-05-03T13:50:52.517Z</time></trkpt><trkpt lat="37.367753" lon="13.3640819"><ele>134.0</ele><time>2026-05-03T13:50:53.517Z</time></trkpt><trkpt lat="37.3679254" lon="13.3639245"><ele>134.0</ele><time>2026-05-03T13:50:54.517Z</time></trkpt><trkpt lat="37.3680946" lon="13.36375"><ele>134.0</ele><time>2026-05-03T13:50:55.518Z</time></trkpt><trkpt lat="37.3682568" lon="13.3635645"><ele>133.0</ele><time>2026-05-03T13:50:56.517Z</time></trkpt><trkpt lat="37.3684152" lon="13.3633684"><ele>132.0</ele><time>2026-05-03T13:50:57.518Z</time></trkpt><trkpt lat="37.3685694" lon="13.3631706"><ele>131.0</ele><time>2026-05-03T13:50:58.517Z</time></trkpt><trkpt lat="37.3687206" lon="13.3629617"><ele>129.0</ele><time>2026-05-03T13:50:59.518Z</time></trkpt><trkpt lat="37.3688727" lon="13.3627486"><ele>127.0</ele><time>2026-05-03T13:51:00.517Z</time></trkpt><trkpt lat="37.3690262" lon="13.3625387"><ele>127.0</ele><time>2026-05-03T13:51:01.517Z</time></trkpt><trkpt lat="37.3691783" lon="13.362325"><ele>127.0</ele><time>2026-05-03T13:51:02.517Z</time></trkpt><trkpt lat="37.369333" lon="13.362115"><ele>127.66666666666667</ele><time>2026-05-03T13:51:03.518Z</time></trkpt><trkpt lat="37.3694876" lon="13.3619152"><ele>128.33333333333334</ele><time>2026-05-03T13:51:04.518Z</time></trkpt><trkpt lat="37.3696464" lon="13.3617159"><ele>129.0</ele><time>2026-05-03T13:51:05.518Z</time></trkpt><trkpt lat="37.3698179" lon="13.3615307"><ele>126.66666666666666</ele><time>2026-05-03T13:51:06.518Z</time></trkpt><trkpt lat="37.3699918" lon="13.361359"><ele>124.33333333333333</ele><time>2026-05-03T13:51:07.517Z</time></trkpt><trkpt lat="37.3701745" lon="13.3612008"><ele>122.0</ele><time>2026-05-03T13:51:08.517Z</time></trkpt><trkpt lat="37.3703625" lon="13.3610575"><ele>122.0</ele><time>2026-05-03T13:51:09.517Z</time></trkpt><trkpt lat="37.3705586" lon="13.3609381"><ele>122.0</ele><time>2026-05-03T13:51:10.518Z</time></trkpt><trkpt lat="37.3707627" lon="13.3608307"><ele>122.0</ele><time>2026-05-03T13:51:11.518Z</time></trkpt><trkpt lat="37.370976" lon="13.3607407"><ele>122.0</ele><time>2026-05-03T13:51:12.518Z</time></trkpt><trkpt lat="37.3711947" lon="13.3606606"><ele>122.0</ele><time>2026-05-03T13:51:13.518Z</time></trkpt><trkpt lat="37.3714133" lon="13.3605974"><ele>120.5</ele><time>2026-05-03T13:51:14.518Z</time></trkpt><trkpt lat="37.3716389" lon="13.3605486"><ele>119.0</ele><time>2026-05-03T13:51:15.518Z</time></trkpt><trkpt lat="37.3718672" lon="13.3605131"><ele>118.0</ele><time>2026-05-03T13:51:16.517Z</time></trkpt><trkpt lat="37.3720986" lon="13.3604907"><ele>117.0</ele><time>2026-05-03T13:51:17.518Z</time></trkpt><trkpt lat="37.3723313" lon="13.3604702"><ele>117.0</ele><time>2026-05-03T13:51:18.517Z</time></trkpt><trkpt lat="37.3725665" lon="13.3604491"><ele>117.0</ele><time>2026-05-03T13:51:19.518Z</time></trkpt><trkpt lat="37.372801" lon="13.360421"><ele>120.5</ele><time>2026-05-03T13:51:20.517Z</time></trkpt><trkpt lat="37.3730335" lon="13.3603938"><ele>124.0</ele><time>2026-05-03T13:51:21.518Z</time></trkpt><trkpt lat="37.3732708" lon="13.3603695"><ele>124.0</ele><time>2026-05-03T13:51:22.518Z</time></trkpt><trkpt lat="37.3735066" lon="13.3603471"><ele>124.0</ele><time>2026-05-03T13:51:23.518Z</time></trkpt><trkpt lat="37.3737422" lon="13.3603255"><ele>126.5</ele><time>2026-05-03T13:51:24.518Z</time></trkpt><trkpt lat="37.3739744" lon="13.3603015"><ele>129.0</ele><time>2026-05-03T13:51:25.518Z</time></trkpt><trkpt lat="37.3742043" lon="13.3602761"><ele>129.0</ele><time>2026-05-03T13:51:26.518Z</time></trkpt><trkpt lat="37.3744321" lon="13.3602506"><ele>129.0</ele><time>2026-05-03T13:51:27.517Z</time></trkpt><trkpt lat="37.3746617" lon="13.360217"><ele>130.0</ele><time>2026-05-03T13:51:28.518Z</time></trkpt><trkpt lat="37.3748888" lon="13.3601764"><ele>131.0</ele><time>2026-05-03T13:51:29.517Z</time></trkpt><trkpt lat="37.3751151" lon="13.3601284"><ele>131.0</ele><time>2026-05-03T13:51:30.518Z</time></trkpt><trkpt lat="37.3753389" lon="13.3600688"><ele>131.0</ele><time>2026-05-03T13:51:31.517Z</time></trkpt><trkpt lat="37.3755575" lon="13.3599999"><ele>133.5</ele><time>2026-05-03T13:51:32.517Z</time></trkpt><trkpt lat="37.3757769" lon="13.3599233"><ele>136.0</ele><time>2026-05-03T13:51:33.518Z</time></trkpt><trkpt lat="37.3759927" lon="13.3598369"><ele>136.0</ele><time>2026-05-03T13:51:34.517Z</time></trkpt><trkpt lat="37.376202" lon="13.359744"><ele>136.0</ele><time>2026-05-03T13:51:35.518Z</time></trkpt><trkpt lat="37.3764112" lon="13.3596357"><ele>136.0</ele><time>2026-05-03T13:51:36.518Z</time></trkpt><trkpt lat="37.3766145" lon="13.3595162"><ele>135.0</ele><time>2026-05-03T13:51:37.518Z</time></trkpt><trkpt lat="37.376814" lon="13.3593932"><ele>134.0</ele><time>2026-05-03T13:51:38.518Z</time></trkpt><trkpt lat="37.3770027" lon="13.3592609"><ele>133.0</ele><time>2026-05-03T13:51:39.518Z</time></trkpt><trkpt lat="37.3771919" lon="13.3591228"><ele>134.33333333333334</ele><time>2026-05-03T13:51:40.518Z</time></trkpt><trkpt lat="37.3773745" lon="13.3589742"><ele>135.66666666666666</ele><time>2026-05-03T13:51:41.518Z</time></trkpt><trkpt lat="37.3775557" lon="13.358821"><ele>137.0</ele><time>2026-05-03T13:51:42.518Z</time></trkpt><trkpt lat="37.3777387" lon="13.3586669"><ele>137.0</ele><time>2026-05-03T13:51:43.518Z</time></trkpt><trkpt lat="37.3779182" lon="13.3585076"><ele>137.0</ele><time>2026-05-03T13:51:44.518Z</time></trkpt><trkpt lat="37.3780956" lon="13.3583489"><ele>137.0</ele><time>2026-05-03T13:51:45.517Z</time></trkpt><trkpt lat="37.3782751" lon="13.3581891"><ele>139.0</ele><time>2026-05-03T13:51:46.518Z</time></trkpt><trkpt lat="37.3784521" lon="13.3580334"><ele>141.0</ele><time>2026-05-03T13:51:47.517Z</time></trkpt><trkpt lat="37.3786284" lon="13.3578743"><ele>143.0</ele><time>2026-05-03T13:51:48.517Z</time></trkpt><trkpt lat="37.3788069" lon="13.3577115"><ele>144.33333333333331</ele><time>2026-05-03T13:51:49.517Z</time></trkpt><trkpt lat="37.378984" lon="13.3575499"><ele>145.66666666666666</ele><time>2026-05-03T13:51:50.518Z</time></trkpt><trkpt lat="37.3791645" lon="13.357387"><ele>147.0</ele><time>2026-05-03T13:51:51.517Z</time></trkpt><trkpt lat="37.3793471" lon="13.3572243"><ele>146.66666666666666</ele><time>2026-05-03T13:51:52.518Z</time></trkpt><trkpt lat="37.3795243" lon="13.3570601"><ele>146.33333333333331</ele><time>2026-05-03T13:51:53.518Z</time></trkpt><trkpt lat="37.3797036" lon="13.3568984"><ele>146.0</ele><time>2026-05-03T13:51:54.517Z</time></trkpt><trkpt lat="37.3798872" lon="13.3567415"><ele>145.66666666666666</ele><time>2026-05-03T13:51:55.517Z</time></trkpt><trkpt lat="37.3800698" lon="13.3565935"><ele>145.33333333333334</ele><time>2026-05-03T13:51:56.518Z</time></trkpt><trkpt lat="37.3802574" lon="13.356448"><ele>145.0</ele><time>2026-05-03T13:51:57.518Z</time></trkpt><trkpt lat="37.3804492" lon="13.3563067"><ele>144.66666666666669</ele><time>2026-05-03T13:51:58.518Z</time></trkpt><trkpt lat="37.3806411" lon="13.3561694"><ele>144.33333333333334</ele><time>2026-05-03T13:51:59.517Z</time></trkpt><trkpt lat="37.3808392" lon="13.3560439"><ele>144.0</ele><time>2026-05-03T13:52:00.517Z</time></trkpt><trkpt lat="37.3810381" lon="13.3559257"><ele>144.0</ele><time>2026-05-03T13:52:01.518Z</time></trkpt><trkpt lat="37.3812427" lon="13.3558148"><ele>144.0</ele><time>2026-05-03T13:52:02.518Z</time></trkpt><trkpt lat="37.3814523" lon="13.3557103"><ele>144.0</ele><time>2026-05-03T13:52:03.517Z</time></trkpt><trkpt lat="37.3816621" lon="13.3556092"><ele>145.0</ele><time>2026-05-03T13:52:04.518Z</time></trkpt><trkpt lat="37.3818721" lon="13.355518"><ele>146.0</ele><time>2026-05-03T13:52:05.517Z</time></trkpt><trkpt lat="37.382083" lon="13.3554261"><ele>147.0</ele><time>2026-05-03T13:52:06.517Z</time></trkpt><trkpt lat="37.3822942" lon="13.3553343"><ele>144.33333333333334</ele><time>2026-05-03T13:52:07.518Z</time></trkpt><trkpt lat="37.3825022" lon="13.3552436"><ele>141.66666666666669</ele><time>2026-05-03T13:52:08.517Z</time></trkpt><trkpt lat="37.3827109" lon="13.3551521"><ele>139.0</ele><time>2026-05-03T13:52:09.517Z</time></trkpt><trkpt lat="37.3829202" lon="13.3550623"><ele>134.5</ele><time>2026-05-03T13:52:10.517Z</time></trkpt><trkpt lat="37.3831338" lon="13.3549721"><ele>130.0</ele><time>2026-05-03T13:52:11.518Z</time></trkpt><trkpt lat="37.3833467" lon="13.3548805"><ele>130.0</ele><time>2026-05-03T13:52:12.518Z</time></trkpt><trkpt lat="37.3835578" lon="13.3547904"><ele>130.0</ele><time>2026-05-03T13:52:13.517Z</time></trkpt><trkpt lat="37.3837708" lon="13.3546975"><ele>130.0</ele><time>2026-05-03T13:52:14.517Z</time></trkpt><trkpt lat="37.3839854" lon="13.3546022"><ele>129.5</ele><time>2026-05-03T13:52:15.518Z</time></trkpt><trkpt lat="37.3842015" lon="13.3545091"><ele>129.0</ele><time>2026-05-03T13:52:16.517Z</time></trkpt><trkpt lat="37.3844216" lon="13.3544173"><ele>129.0</ele><time>2026-05-03T13:52:17.518Z</time></trkpt><trkpt lat="37.3846424" lon="13.3543202"><ele>129.0</ele><time>2026-05-03T13:52:18.517Z</time></trkpt><trkpt lat="37.3848621" lon="13.354225"><ele>126.5</ele><time>2026-05-03T13:52:19.518Z</time></trkpt><trkpt lat="37.3850786" lon="13.3541317"><ele>124.0</ele><time>2026-05-03T13:52:20.517Z</time></trkpt><trkpt lat="37.3852909" lon="13.3540345"><ele>124.0</ele><time>2026-05-03T13:52:21.518Z</time></trkpt><trkpt lat="37.3855039" lon="13.3539341"><ele>124.0</ele><time>2026-05-03T13:52:22.517Z</time></trkpt><trkpt lat="37.3857085" lon="13.3538332"><ele>124.0</ele><time>2026-05-03T13:52:23.517Z</time></trkpt><trkpt lat="37.3859121" lon="13.353729"><ele>123.0</ele><time>2026-05-03T13:52:24.517Z</time></trkpt><trkpt lat="37.3861118" lon="13.353618"><ele>122.0</ele><time>2026-05-03T13:52:25.517Z</time></trkpt><trkpt lat="37.3863017" lon="13.3535035"><ele>121.0</ele><time>2026-05-03T13:52:26.517Z</time></trkpt><trkpt lat="37.3864898" lon="13.3533803"><ele>120.0</ele><time>2026-05-03T13:52:27.517Z</time></trkpt><trkpt lat="37.3866692" lon="13.3532584"><ele>119.0</ele><time>2026-05-03T13:52:28.518Z</time></trkpt><trkpt lat="37.3868366" lon="13.3531294"><ele>118.0</ele><time>2026-05-03T13:52:29.518Z</time></trkpt><trkpt lat="37.3869937" lon="13.3530012"><ele>117.33333333333334</ele><time>2026-05-03T13:52:30.517Z</time></trkpt><trkpt lat="37.3871444" lon="13.3528771"><ele>116.66666666666666</ele><time>2026-05-03T13:52:31.518Z</time></trkpt><trkpt lat="37.387285" lon="13.3527493"><ele>116.0</ele><time>2026-05-03T13:52:32.517Z</time></trkpt><trkpt lat="37.3874177" lon="13.3526249"><ele>114.66666666666666</ele><time>2026-05-03T13:52:33.518Z</time></trkpt><trkpt lat="37.3875447" lon="13.3524938"><ele>113.33333333333334</ele><time>2026-05-03T13:52:34.518Z</time></trkpt><trkpt lat="37.3876676" lon="13.3523586"><ele>112.0</ele><time>2026-05-03T13:52:35.518Z</time></trkpt><trkpt lat="37.3877871" lon="13.3522219"><ele>111.33333333333334</ele><time>2026-05-03T13:52:36.518Z</time></trkpt><trkpt lat="37.3879023" lon="13.3520814"><ele>110.66666666666666</ele><time>2026-05-03T13:52:37.517Z</time></trkpt><trkpt lat="37.3880116" lon="13.3519405"><ele>110.0</ele><time>2026-05-03T13:52:38.517Z</time></trkpt><trkpt lat="37.3881112" lon="13.3518063"><ele>110.0</ele><time>2026-05-03T13:52:39.518Z</time></trkpt><trkpt lat="37.3882049" lon="13.351679"><ele>110.0</ele><time>2026-05-03T13:52:40.518Z</time></trkpt><trkpt lat="37.3882973" lon="13.3515599"><ele>110.0</ele><time>2026-05-03T13:52:41.518Z</time></trkpt><trkpt lat="37.3883783" lon="13.3514574"><ele>110.0</ele><time>2026-05-03T13:52:42.518Z</time></trkpt><trkpt lat="37.3884475" lon="13.3513641"><ele>109.66666666666666</ele><time>2026-05-03T13:52:43.517Z</time></trkpt><trkpt lat="37.3885091" lon="13.3512952"><ele>109.33333333333333</ele><time>2026-05-03T13:52:44.517Z</time></trkpt><trkpt lat="37.3886021" lon="13.3512381"><ele>109.0</ele><time>2026-05-03T13:52:46.518Z</time></trkpt><trkpt lat="37.3886753" lon="13.3512324"><ele>108.66666666666666</ele><time>2026-05-03T13:52:48.517Z</time></trkpt><trkpt lat="37.3887391" lon="13.3512276"><ele>108.33333333333333</ele><time>2026-05-03T13:52:50.517Z</time></trkpt><trkpt lat="37.3888198" lon="13.3512218"><ele>108.0</ele><time>2026-05-03T13:52:53.518Z</time></trkpt><trkpt lat="37.388886" lon="13.3511856"><ele>108.0</ele><time>2026-05-03T13:52:56.518Z</time></trkpt><trkpt lat="37.3889329" lon="13.3511161"><ele>108.0</ele><time>2026-05-03T13:53:00.518Z</time></trkpt><trkpt lat="37.3889465" lon="13.3510299"><ele>108.0</ele><time>2026-05-03T13:53:03.518Z</time></trkpt><trkpt lat="37.3889447" lon="13.3509423"><ele>108.0</ele><time>2026-05-03T13:53:05.518Z</time></trkpt><trkpt lat="37.3889051" lon="13.3508536"><ele>108.0</ele><time>2026-05-03T13:53:08.518Z</time></trkpt><trkpt lat="37.3888352" lon="13.3508069"><ele>108.0</ele><time>2026-05-03T13:53:14.517Z</time></trkpt><trkpt lat="37.3887588" lon="13.3508502"><ele>108.0</ele><time>2026-05-03T13:53:16.517Z</time></trkpt><trkpt lat="37.388662" lon="13.3509748"><ele>108.00000000000001</ele><time>2026-05-03T13:53:18.518Z</time></trkpt><trkpt lat="37.3886068" lon="13.3510529"><ele>108.00000000000001</ele><time>2026-05-03T13:53:19.518Z</time></trkpt><trkpt lat="37.3885473" lon="13.3511389"><ele>108.0</ele><time>2026-05-03T13:53:20.518Z</time></trkpt><trkpt lat="37.388483" lon="13.3512285"><ele>108.0</ele><time>2026-05-03T13:53:21.517Z</time></trkpt><trkpt lat="37.3884149" lon="13.3513256"><ele>108.4</ele><time>2026-05-03T13:53:22.518Z</time></trkpt><trkpt lat="37.3883421" lon="13.3514199"><ele>108.80000000000001</ele><time>2026-05-03T13:53:23.517Z</time></trkpt><trkpt lat="37.3882706" lon="13.3515166"><ele>109.2</ele><time>2026-05-03T13:53:24.518Z</time></trkpt><trkpt lat="37.3881972" lon="13.3516151"><ele>109.6</ele><time>2026-05-03T13:53:25.518Z</time></trkpt><trkpt lat="37.3881203" lon="13.3517155"><ele>110.0</ele><time>2026-05-03T13:53:26.517Z</time></trkpt><trkpt lat="37.3880406" lon="13.3518206"><ele>110.0</ele><time>2026-05-03T13:53:27.517Z</time></trkpt><trkpt lat="37.3879592" lon="13.3519256"><ele>110.0</ele><time>2026-05-03T13:53:28.518Z</time></trkpt><trkpt lat="37.3878712" lon="13.3520357"><ele>110.0</ele><time>2026-05-03T13:53:29.517Z</time></trkpt><trkpt lat="37.3877803" lon="13.3521469"><ele>110.0</ele><time>2026-05-03T13:53:30.517Z</time></trkpt><trkpt lat="37.3876865" lon="13.3522579"><ele>110.5</ele><time>2026-05-03T13:53:31.518Z</time></trkpt><trkpt lat="37.3875879" lon="13.3523725"><ele>111.0</ele><time>2026-05-03T13:53:32.518Z</time></trkpt><trkpt lat="37.3874839" lon="13.3524796"><ele>111.5</ele><time>2026-05-03T13:53:33.518Z</time></trkpt><trkpt lat="37.3873729" lon="13.3525886"><ele>112.0</ele><time>2026-05-03T13:53:34.517Z</time></trkpt><trkpt lat="37.3872581" lon="13.352697"><ele>113.0</ele><time>2026-05-03T13:53:35.517Z</time></trkpt><trkpt lat="37.3871418" lon="13.3528057"><ele>114.0</ele><time>2026-05-03T13:53:36.518Z</time></trkpt><trkpt lat="37.3870246" lon="13.3529071"><ele>115.0</ele><time>2026-05-03T13:53:37.517Z</time></trkpt><trkpt lat="37.3869041" lon="13.353012"><ele>116.0</ele><time>2026-05-03T13:53:38.518Z</time></trkpt><trkpt lat="37.3867767" lon="13.3531176"><ele>116.66666666666666</ele><time>2026-05-03T13:53:39.518Z</time></trkpt><trkpt lat="37.386645" lon="13.3532172"><ele>117.33333333333334</ele><time>2026-05-03T13:53:40.518Z</time></trkpt><trkpt lat="37.386511" lon="13.3533148"><ele>118.0</ele><time>2026-05-03T13:53:41.518Z</time></trkpt><trkpt lat="37.3863766" lon="13.3534095"><ele>119.0</ele><time>2026-05-03T13:53:42.518Z</time></trkpt><trkpt lat="37.3862354" lon="13.3535023"><ele>120.0</ele><time>2026-05-03T13:53:43.518Z</time></trkpt><trkpt lat="37.3860964" lon="13.3535866"><ele>121.0</ele><time>2026-05-03T13:53:44.518Z</time></trkpt><trkpt lat="37.3859512" lon="13.3536647"><ele>121.0</ele><time>2026-05-03T13:53:45.518Z</time></trkpt><trkpt lat="37.3857985" lon="13.3537416"><ele>121.0</ele><time>2026-05-03T13:53:46.517Z</time></trkpt><trkpt lat="37.38565" lon="13.353814"><ele>121.0</ele><time>2026-05-03T13:53:47.517Z</time></trkpt><trkpt lat="37.3855015" lon="13.3538829"><ele>122.0</ele><time>2026-05-03T13:53:48.518Z</time></trkpt><trkpt lat="37.3853517" lon="13.3539509"><ele>123.0</ele><time>2026-05-03T13:53:49.518Z</time></trkpt><trkpt lat="37.3852017" lon="13.3540143"><ele>124.0</ele><time>2026-05-03T13:53:50.518Z</time></trkpt><trkpt lat="37.3850539" lon="13.3540795"><ele>124.0</ele><time>2026-05-03T13:53:51.517Z</time></trkpt><trkpt lat="37.3849053" lon="13.3541435"><ele>124.0</ele><time>2026-05-03T13:53:52.518Z</time></trkpt><trkpt lat="37.3847606" lon="13.3542074"><ele>124.0</ele><time>2026-05-03T13:53:53.518Z</time></trkpt><trkpt lat="37.3846148" lon="13.3542712"><ele>125.66666666666667</ele><time>2026-05-03T13:53:54.518Z</time></trkpt><trkpt lat="37.3844706" lon="13.3543368"><ele>127.33333333333334</ele><time>2026-05-03T13:53:55.517Z</time></trkpt><trkpt lat="37.3843276" lon="13.3543972"><ele>129.0</ele><time>2026-05-03T13:53:56.517Z</time></trkpt><trkpt lat="37.3841865" lon="13.3544568"><ele>129.0</ele><time>2026-05-03T13:53:57.518Z</time></trkpt><trkpt lat="37.3840437" lon="13.3545178"><ele>129.0</ele><time>2026-05-03T13:53:58.517Z</time></trkpt><trkpt lat="37.3838987" lon="13.3545816"><ele>129.0</ele><time>2026-05-03T13:53:59.517Z</time></trkpt><trkpt lat="37.3837571" lon="13.3546472"><ele>129.33333333333334</ele><time>2026-05-03T13:54:00.518Z</time></trkpt><trkpt lat="37.3836124" lon="13.3547077"><ele>129.66666666666669</ele><time>2026-05-03T13:54:01.518Z</time></trkpt><trkpt lat="37.3834684" lon="13.3547675"><ele>130.0</ele><time>2026-05-03T13:54:02.518Z</time></trkpt><trkpt lat="37.3833241" lon="13.3548281"><ele>130.0</ele><time>2026-05-03T13:54:03.518Z</time></trkpt><trkpt lat="37.3831804" lon="13.3548905"><ele>130.0</ele><time>2026-05-03T13:54:04.517Z</time></trkpt><trkpt lat="37.3830367" lon="13.3549508"><ele>130.0</ele><time>2026-05-03T13:54:05.517Z</time></trkpt><trkpt lat="37.3828947" lon="13.3550131"><ele>133.0</ele><time>2026-05-03T13:54:06.517Z</time></trkpt><trkpt lat="37.3827503" lon="13.3550725"><ele>136.0</ele><time>2026-05-03T13:54:07.518Z</time></trkpt><trkpt lat="37.3826051" lon="13.3551339"><ele>139.0</ele><time>2026-05-03T13:54:08.517Z</time></trkpt><trkpt lat="37.3824593" lon="13.3551976"><ele>139.0</ele><time>2026-05-03T13:54:09.518Z</time></trkpt><trkpt lat="37.3823121" lon="13.355262"><ele>139.0</ele><time>2026-05-03T13:54:10.517Z</time></trkpt><trkpt lat="37.3821648" lon="13.3553284"><ele>139.0</ele><time>2026-05-03T13:54:11.518Z</time></trkpt><trkpt lat="37.3820165" lon="13.3553919"><ele>138.33333333333334</ele><time>2026-05-03T13:54:12.518Z</time></trkpt><trkpt lat="37.3818693" lon="13.3554593"><ele>137.66666666666666</ele><time>2026-05-03T13:54:13.517Z</time></trkpt><trkpt lat="37.3817209" lon="13.3555299"><ele>137.0</ele><time>2026-05-03T13:54:14.517Z</time></trkpt><trkpt lat="37.381571" lon="13.3556004"><ele>137.0</ele><time>2026-05-03T13:54:15.517Z</time></trkpt><trkpt lat="37.3814217" lon="13.3556671"><ele>137.0</ele><time>2026-05-03T13:54:16.518Z</time></trkpt><trkpt lat="37.38127" lon="13.3557399"><ele>137.0</ele><time>2026-05-03T13:54:17.517Z</time></trkpt><trkpt lat="37.3811185" lon="13.3558181"><ele>139.33333333333331</ele><time>2026-05-03T13:54:18.518Z</time></trkpt><trkpt lat="37.3809729" lon="13.3558987"><ele>141.66666666666666</ele><time>2026-05-03T13:54:19.517Z</time></trkpt><trkpt lat="37.3808271" lon="13.3559842"><ele>144.0</ele><time>2026-05-03T13:54:20.517Z</time></trkpt><trkpt lat="37.3806837" lon="13.3560752"><ele>144.0</ele><time>2026-05-03T13:54:21.517Z</time></trkpt><trkpt lat="37.3805399" lon="13.3561724"><ele>144.0</ele><time>2026-05-03T13:54:22.518Z</time></trkpt><trkpt lat="37.3803928" lon="13.3562723"><ele>144.0</ele><time>2026-05-03T13:54:23.517Z</time></trkpt><trkpt lat="37.3802528" lon="13.3563726"><ele>144.0</ele><time>2026-05-03T13:54:24.517Z</time></trkpt><trkpt lat="37.3801196" lon="13.356472"><ele>144.0</ele><time>2026-05-03T13:54:25.517Z</time></trkpt><trkpt lat="37.3799902" lon="13.3565732"><ele>144.0</ele><time>2026-05-03T13:54:26.517Z</time></trkpt><trkpt lat="37.3798662" lon="13.3566759"><ele>144.0</ele><time>2026-05-03T13:54:27.518Z</time></trkpt><trkpt lat="37.3797499" lon="13.356775"><ele>144.0</ele><time>2026-05-03T13:54:28.518Z</time></trkpt><trkpt lat="37.3796507" lon="13.3568647"><ele>144.0</ele><time>2026-05-03T13:54:29.518Z</time></trkpt><trkpt lat="37.3795646" lon="13.3569404"><ele>144.0</ele><time>2026-05-03T13:54:30.518Z</time></trkpt><trkpt lat="37.3794921" lon="13.3569934"><ele>144.4</ele><time>2026-05-03T13:54:31.518Z</time></trkpt><trkpt lat="37.3794213" lon="13.3570558"><ele>144.8</ele><time>2026-05-03T13:54:33.517Z</time></trkpt><trkpt lat="37.379355" lon="13.3571234"><ele>145.2</ele><time>2026-05-03T13:56:07.518Z</time></trkpt><trkpt lat="37.3792965" lon="13.357178"><ele>145.6</ele><time>2026-05-03T13:56:08.517Z</time></trkpt><trkpt lat="37.3792122" lon="13.3572534"><ele>146.0</ele><time>2026-05-03T13:56:09.518Z</time></trkpt><trkpt lat="37.3791067" lon="13.3573524"><ele>146.33333333333331</ele><time>2026-05-03T13:56:10.518Z</time></trkpt><trkpt lat="37.3789855" lon="13.3574588"><ele>146.66666666666666</ele><time>2026-05-03T13:56:11.518Z</time></trkpt><trkpt lat="37.378853" lon="13.3575885"><ele>147.0</ele><time>2026-05-03T13:56:12.518Z</time></trkpt><trkpt lat="37.3787062" lon="13.3577189"><ele>145.66666666666666</ele><time>2026-05-03T13:56:13.518Z</time></trkpt><trkpt lat="37.3785463" lon="13.3578687"><ele>144.33333333333331</ele><time>2026-05-03T13:56:14.517Z</time></trkpt><trkpt lat="37.3783739" lon="13.3580253"><ele>143.0</ele><time>2026-05-03T13:56:15.517Z</time></trkpt><trkpt lat="37.3782014" lon="13.3581872"><ele>142.66666666666666</ele><time>2026-05-03T13:56:16.518Z</time></trkpt><trkpt lat="37.3780264" lon="13.3583491"><ele>142.33333333333334</ele><time>2026-05-03T13:56:17.518Z</time></trkpt><trkpt lat="37.3778498" lon="13.3585115"><ele>142.0</ele><time>2026-05-03T13:56:18.517Z</time></trkpt><trkpt lat="37.3776743" lon="13.3586666"><ele>141.0</ele><time>2026-05-03T13:56:19.517Z</time></trkpt><trkpt lat="37.3775034" lon="13.3588147"><ele>140.0</ele><time>2026-05-03T13:56:20.517Z</time></trkpt><trkpt lat="37.3773348" lon="13.3589573"><ele>139.0</ele><time>2026-05-03T13:56:21.517Z</time></trkpt><trkpt lat="37.3771612" lon="13.3590892"><ele>137.0</ele><time>2026-05-03T13:56:22.517Z</time></trkpt><trkpt lat="37.3769849" lon="13.3592195"><ele>135.0</ele><time>2026-05-03T13:56:23.517Z</time></trkpt><trkpt lat="37.3767968" lon="13.3593417"><ele>133.0</ele><time>2026-05-03T13:56:24.517Z</time></trkpt><trkpt lat="37.3766007" lon="13.3594587"><ele>133.0</ele><time>2026-05-03T13:56:25.517Z</time></trkpt><trkpt lat="37.3764013" lon="13.3595721"><ele>133.0</ele><time>2026-05-03T13:56:26.517Z</time></trkpt><trkpt lat="37.3761994" lon="13.35968"><ele>133.0</ele><time>2026-05-03T13:56:27.518Z</time></trkpt><trkpt lat="37.375997" lon="13.3597767"><ele>132.33333333333334</ele><time>2026-05-03T13:56:28.518Z</time></trkpt><trkpt lat="37.375788" lon="13.3598654"><ele>131.66666666666666</ele><time>2026-05-03T13:56:29.517Z</time></trkpt><trkpt lat="37.375575" lon="13.3599413"><ele>131.0</ele><time>2026-05-03T13:56:30.518Z</time></trkpt><trkpt lat="37.3753578" lon="13.3600115"><ele>131.0</ele><time>2026-05-03T13:56:31.517Z</time></trkpt><trkpt lat="37.3751388" lon="13.3600756"><ele>131.0</ele><time>2026-05-03T13:56:32.518Z</time></trkpt><trkpt lat="37.3749142" lon="13.360129"><ele>130.0</ele><time>2026-05-03T13:56:33.517Z</time></trkpt><trkpt lat="37.3746838" lon="13.360168"><ele>129.0</ele><time>2026-05-03T13:56:34.518Z</time></trkpt><trkpt lat="37.3744496" lon="13.3602035"><ele>129.0</ele><time>2026-05-03T13:56:35.518Z</time></trkpt><trkpt lat="37.3742123" lon="13.360238"><ele>129.0</ele><time>2026-05-03T13:56:36.517Z</time></trkpt><trkpt lat="37.3739701" lon="13.3602677"><ele>126.5</ele><time>2026-05-03T13:56:37.517Z</time></trkpt><trkpt lat="37.3737234" lon="13.360293"><ele>124.0</ele><time>2026-05-03T13:56:38.517Z</time></trkpt><trkpt lat="37.3734781" lon="13.3603196"><ele>124.0</ele><time>2026-05-03T13:56:39.518Z</time></trkpt><trkpt lat="37.3732361" lon="13.3603435"><ele>124.0</ele><time>2026-05-03T13:56:40.518Z</time></trkpt><trkpt lat="37.372996" lon="13.3603619"><ele>121.66666666666667</ele><time>2026-05-03T13:56:41.518Z</time></trkpt><trkpt lat="37.372759" lon="13.3603866"><ele>119.33333333333334</ele><time>2026-05-03T13:56:42.518Z</time></trkpt><trkpt lat="37.3725543" lon="13.3604156"><ele>117.0</ele><time>2026-05-03T13:56:43.517Z</time></trkpt><trkpt lat="37.3723216" lon="13.3604375"><ele>115.5</ele><time>2026-05-03T13:56:44.518Z</time></trkpt><trkpt lat="37.3720874" lon="13.3604603"><ele>114.0</ele><time>2026-05-03T13:56:45.518Z</time></trkpt><trkpt lat="37.3718554" lon="13.3604835"><ele>114.0</ele><time>2026-05-03T13:56:46.518Z</time></trkpt><trkpt lat="37.3716235" lon="13.3605201"><ele>114.0</ele><time>2026-05-03T13:56:47.518Z</time></trkpt><trkpt lat="37.3713938" lon="13.3605677"><ele>118.0</ele><time>2026-05-03T13:56:48.517Z</time></trkpt><trkpt lat="37.3711718" lon="13.3606257"><ele>122.0</ele><time>2026-05-03T13:56:49.517Z</time></trkpt><trkpt lat="37.3709543" lon="13.360703"><ele>122.0</ele><time>2026-05-03T13:56:50.518Z</time></trkpt><trkpt lat="37.3707419" lon="13.3607951"><ele>122.0</ele><time>2026-05-03T13:56:51.517Z</time></trkpt><trkpt lat="37.3705344" lon="13.360902"><ele>122.0</ele><time>2026-05-03T13:56:52.517Z</time></trkpt><trkpt lat="37.3703342" lon="13.3610238"><ele>122.0</ele><time>2026-05-03T13:56:53.517Z</time></trkpt><trkpt lat="37.3701393" lon="13.3611606"><ele>122.0</ele><time>2026-05-03T13:56:54.517Z</time></trkpt><trkpt lat="37.3699497" lon="13.3613148"><ele>122.0</ele><time>2026-05-03T13:56:55.518Z</time></trkpt><trkpt lat="37.3697711" lon="13.361483"><ele>122.0</ele><time>2026-05-03T13:56:56.517Z</time></trkpt><trkpt lat="37.369596" lon="13.361668"><ele>122.0</ele><time>2026-05-03T13:56:57.518Z</time></trkpt><trkpt lat="37.3694323" lon="13.3618614"><ele>122.0</ele><time>2026-05-03T13:56:58.518Z</time></trkpt><trkpt lat="37.369278" lon="13.3620586"><ele>122.0</ele><time>2026-05-03T13:56:59.517Z</time></trkpt><trkpt lat="37.3691236" lon="13.3622642"><ele>122.0</ele><time>2026-05-03T13:57:00.517Z</time></trkpt><trkpt lat="37.3689738" lon="13.3624676"><ele>122.66666666666666</ele><time>2026-05-03T13:57:01.518Z</time></trkpt><trkpt lat="37.3688279" lon="13.3626641"><ele>123.33333333333334</ele><time>2026-05-03T13:57:02.518Z</time></trkpt><trkpt lat="37.3686801" lon="13.3628625"><ele>124.0</ele><time>2026-05-03T13:57:03.517Z</time></trkpt><trkpt lat="37.3685409" lon="13.3630548"><ele>126.33333333333334</ele><time>2026-05-03T13:57:04.518Z</time></trkpt><trkpt lat="37.3683963" lon="13.363252"><ele>128.66666666666666</ele><time>2026-05-03T13:57:05.517Z</time></trkpt><trkpt lat="37.3682539" lon="13.363438"><ele>131.0</ele><time>2026-05-03T13:57:06.518Z</time></trkpt><trkpt lat="37.368105" lon="13.3636177"><ele>130.0</ele><time>2026-05-03T13:57:07.517Z</time></trkpt><trkpt lat="37.3679526" lon="13.3637843"><ele>129.0</ele><time>2026-05-03T13:57:08.518Z</time></trkpt><trkpt lat="37.3677915" lon="13.3639442"><ele>128.0</ele><time>2026-05-03T13:57:09.517Z</time></trkpt><trkpt lat="37.3676272" lon="13.3640972"><ele>130.0</ele><time>2026-05-03T13:57:10.517Z</time></trkpt><trkpt lat="37.3674576" lon="13.3642422"><ele>132.0</ele><time>2026-05-03T13:57:11.518Z</time></trkpt><trkpt lat="37.3672811" lon="13.3643744"><ele>134.0</ele><time>2026-05-03T13:57:12.517Z</time></trkpt><trkpt lat="37.367103" lon="13.3644973"><ele>136.66666666666666</ele><time>2026-05-03T13:57:13.517Z</time></trkpt><trkpt lat="37.366919" lon="13.3646211"><ele>139.33333333333334</ele><time>2026-05-03T13:57:14.517Z</time></trkpt><trkpt lat="37.3667294" lon="13.3647427"><ele>142.0</ele><time>2026-05-03T13:57:15.518Z</time></trkpt><trkpt lat="37.3665328" lon="13.3648667"><ele>140.66666666666669</ele><time>2026-05-03T13:57:16.518Z</time></trkpt><trkpt lat="37.3663497" lon="13.3649889"><ele>139.33333333333334</ele><time>2026-05-03T13:57:17.517Z</time></trkpt><trkpt lat="37.3661658" lon="13.365117"><ele>138.0</ele><time>2026-05-03T13:57:18.517Z</time></trkpt><trkpt lat="37.3659729" lon="13.3652449"><ele>138.0</ele><time>2026-05-03T13:57:19.517Z</time></trkpt><trkpt lat="37.3657851" lon="13.3653852"><ele>138.0</ele><time>2026-05-03T13:57:20.517Z</time></trkpt><trkpt lat="37.3656055" lon="13.3655374"><ele>138.0</ele><time>2026-05-03T13:57:21.518Z</time></trkpt><trkpt lat="37.3654342" lon="13.3657024"><ele>134.0</ele><time>2026-05-03T13:57:22.518Z</time></trkpt><trkpt lat="37.3652717" lon="13.3658808"><ele>130.0</ele><time>2026-05-03T13:57:23.518Z</time></trkpt><trkpt lat="37.3651142" lon="13.3660733"><ele>126.0</ele><time>2026-05-03T13:57:24.518Z</time></trkpt><trkpt lat="37.3649626" lon="13.3662708"><ele>126.33333333333334</ele><time>2026-05-03T13:57:25.518Z</time></trkpt><trkpt lat="37.364814" lon="13.366473"><ele>126.66666666666667</ele><time>2026-05-03T13:57:26.518Z</time></trkpt><trkpt lat="37.3646658" lon="13.3666758"><ele>127.0</ele><time>2026-05-03T13:57:27.517Z</time></trkpt><trkpt lat="37.3645144" lon="13.3668761"><ele>126.0</ele><time>2026-05-03T13:57:28.518Z</time></trkpt><trkpt lat="37.3643613" lon="13.367068"><ele>125.0</ele><time>2026-05-03T13:57:29.517Z</time></trkpt><trkpt lat="37.3642048" lon="13.3672557"><ele>124.0</ele><time>2026-05-03T13:57:30.517Z</time></trkpt><trkpt lat="37.3640506" lon="13.3674312"><ele>124.0</ele><time>2026-05-03T13:57:31.518Z</time></trkpt><trkpt lat="37.3638768" lon="13.3676042"><ele>124.0</ele><time>2026-05-03T13:57:32.517Z</time></trkpt><trkpt lat="37.3637009" lon="13.3677706"><ele>124.0</ele><time>2026-05-03T13:57:33.517Z</time></trkpt><trkpt lat="37.3635368" lon="13.3679336"><ele>128.0</ele><time>2026-05-03T13:57:34.517Z</time></trkpt><trkpt lat="37.3633576" lon="13.3680938"><ele>132.0</ele><time>2026-05-03T13:57:35.517Z</time></trkpt><trkpt lat="37.3631623" lon="13.3682563"><ele>141.5</ele><time>2026-05-03T13:57:36.518Z</time></trkpt><trkpt lat="37.3629663" lon="13.36842"><ele>151.0</ele><time>2026-05-03T13:57:37.517Z</time></trkpt><trkpt lat="37.3627693" lon="13.368579"><ele>151.0</ele><time>2026-05-03T13:57:38.518Z</time></trkpt><trkpt lat="37.3625664" lon="13.3687314"><ele>151.0</ele><time>2026-05-03T13:57:39.517Z</time></trkpt><trkpt lat="37.3623571" lon="13.3688746"><ele>155.5</ele><time>2026-05-03T13:57:40.518Z</time></trkpt><trkpt lat="37.3621446" lon="13.369008"><ele>160.0</ele><time>2026-05-03T13:57:41.518Z</time></trkpt><trkpt lat="37.3619271" lon="13.3691292"><ele>160.0</ele><time>2026-05-03T13:57:42.518Z</time></trkpt><trkpt lat="37.3617127" lon="13.3692479"><ele>160.0</ele><time>2026-05-03T13:57:43.517Z</time></trkpt><trkpt lat="37.3615009" lon="13.3693668"><ele>161.5</ele><time>2026-05-03T13:57:44.518Z</time></trkpt><trkpt lat="37.3612896" lon="13.3694832"><ele>163.0</ele><time>2026-05-03T13:57:45.518Z</time></trkpt><trkpt lat="37.3610783" lon="13.3695982"><ele>114.0</ele><time>2026-05-03T13:57:46.517Z</time></trkpt><trkpt lat="37.3588206" lon="13.3708651"><ele>114.0</ele><time>2026-05-03T13:57:58.517Z</time></trkpt><trkpt lat="37.3586293" lon="13.3710172"><ele>114.0</ele><time>2026-05-03T13:57:59.518Z</time></trkpt><trkpt lat="37.3584635" lon="13.3711657"><ele>114.0</ele><time>2026-05-03T13:58:00.518Z</time></trkpt><trkpt lat="37.3582993" lon="13.3713169"><ele>113.66666666666666</ele><time>2026-05-03T13:58:01.518Z</time></trkpt><trkpt lat="37.3581314" lon="13.3714706"><ele>113.33333333333333</ele><time>2026-05-03T13:58:02.518Z</time></trkpt><trkpt lat="37.3579569" lon="13.3716184"><ele>113.0</ele><time>2026-05-03T13:58:03.517Z</time></trkpt><trkpt lat="37.3577783" lon="13.3717787"><ele>113.0</ele><time>2026-05-03T13:58:04.517Z</time></trkpt><trkpt lat="37.3576023" lon="13.3719373"><ele>113.0</ele><time>2026-05-03T13:58:05.518Z</time></trkpt><trkpt lat="37.3574247" lon="13.3721056"><ele>113.0</ele><time>2026-05-03T13:58:06.517Z</time></trkpt><trkpt lat="37.357251" lon="13.3722723"><ele>111.0</ele><time>2026-05-03T13:58:07.518Z</time></trkpt><trkpt lat="37.3570708" lon="13.3724437"><ele>109.0</ele><time>2026-05-03T13:58:08.517Z</time></trkpt><trkpt lat="37.3568875" lon="13.3726109"><ele>109.0</ele><time>2026-05-03T13:58:09.517Z</time></trkpt><trkpt lat="37.3567015" lon="13.3727805"><ele>109.0</ele><time>2026-05-03T13:58:10.518Z</time></trkpt><trkpt lat="37.3565194" lon="13.3729571"><ele>106.5</ele><time>2026-05-03T13:58:11.517Z</time></trkpt><trkpt lat="37.3563399" lon="13.3731331"><ele>104.0</ele><time>2026-05-03T13:58:12.518Z</time></trkpt><trkpt lat="37.3561591" lon="13.3733076"><ele>104.0</ele><time>2026-05-03T13:58:13.517Z</time></trkpt><trkpt lat="37.3559763" lon="13.3734862"><ele>104.0</ele><time>2026-05-03T13:58:14.517Z</time></trkpt><trkpt lat="37.3557966" lon="13.3736655"><ele>104.0</ele><time>2026-05-03T13:58:15.518Z</time></trkpt><trkpt lat="37.3556171" lon="13.373841"><ele>104.0</ele><time>2026-05-03T13:58:16.517Z</time></trkpt><trkpt lat="37.3554286" lon="13.3740204"><ele>99.0</ele><time>2026-05-03T13:58:17.518Z</time></trkpt><trkpt lat="37.3552413" lon="13.3742014"><ele>94.0</ele><time>2026-05-03T13:58:18.518Z</time></trkpt><trkpt lat="37.3550532" lon="13.3743841"><ele>94.0</ele><time>2026-05-03T13:58:19.517Z</time></trkpt><trkpt lat="37.3548623" lon="13.374571"><ele>94.0</ele><time>2026-05-03T13:58:20.517Z</time></trkpt><trkpt lat="37.3546572" lon="13.37477"><ele>91.5</ele><time>2026-05-03T13:58:21.518Z</time></trkpt><trkpt lat="37.3544331" lon="13.374991"><ele>89.0</ele><time>2026-05-03T13:58:22.518Z</time></trkpt><trkpt lat="37.354192" lon="13.3752258"><ele>89.0</ele><time>2026-05-03T13:58:23.517Z</time></trkpt><trkpt lat="37.3539469" lon="13.3754678"><ele>89.0</ele><time>2026-05-03T13:58:24.518Z</time></trkpt><trkpt lat="37.3537025" lon="13.3757111"><ele>86.5</ele><time>2026-05-03T13:58:25.518Z</time></trkpt><trkpt lat="37.3534663" lon="13.3759485"><ele>84.0</ele><time>2026-05-03T13:58:26.518Z</time></trkpt><trkpt lat="37.3532394" lon="13.3761842"><ele>81.0</ele><time>2026-05-03T13:58:27.518Z</time></trkpt><trkpt lat="37.3530238" lon="13.3764135"><ele>78.0</ele><time>2026-05-03T13:58:28.517Z</time></trkpt><trkpt lat="37.3528188" lon="13.3766183"><ele>78.0</ele><time>2026-05-03T13:58:29.517Z</time></trkpt><trkpt lat="37.3526102" lon="13.3768187"><ele>78.0</ele><time>2026-05-03T13:58:30.518Z</time></trkpt><trkpt lat="37.3523888" lon="13.3770415"><ele>75.5</ele><time>2026-05-03T13:58:31.517Z</time></trkpt><trkpt lat="37.3521576" lon="13.3772761"><ele>73.0</ele><time>2026-05-03T13:58:32.517Z</time></trkpt><trkpt lat="37.3519199" lon="13.3775193"><ele>73.0</ele><time>2026-05-03T13:58:33.518Z</time></trkpt><trkpt lat="37.351689" lon="13.37777"><ele>73.0</ele><time>2026-05-03T13:58:34.518Z</time></trkpt><trkpt lat="37.3514637" lon="13.3780219"><ele>69.5</ele><time>2026-05-03T13:58:35.518Z</time></trkpt><trkpt lat="37.3512487" lon="13.3782736"><ele>66.0</ele><time>2026-05-03T13:58:36.518Z</time></trkpt><trkpt lat="37.3510397" lon="13.3785194"><ele>66.0</ele><time>2026-05-03T13:58:37.518Z</time></trkpt><trkpt lat="37.3508387" lon="13.3787706"><ele>66.0</ele><time>2026-05-03T13:58:38.517Z</time></trkpt><trkpt lat="37.3506444" lon="13.379019"><ele>65.5</ele><time>2026-05-03T13:58:39.517Z</time></trkpt><trkpt lat="37.3504616" lon="13.3792591"><ele>65.0</ele><time>2026-05-03T13:58:40.517Z</time></trkpt><trkpt lat="37.3502845" lon="13.3795015"><ele>65.0</ele><time>2026-05-03T13:58:41.517Z</time></trkpt><trkpt lat="37.350114" lon="13.3797408"><ele>65.0</ele><time>2026-05-03T13:58:42.517Z</time></trkpt><trkpt lat="37.3499451" lon="13.3799842"><ele>65.0</ele><time>2026-05-03T13:58:43.517Z</time></trkpt><trkpt lat="37.3497751" lon="13.3802299"><ele>65.0</ele><time>2026-05-03T13:58:44.518Z</time></trkpt><trkpt lat="37.3496097" lon="13.3804774"><ele>61.5</ele><time>2026-05-03T13:58:45.518Z</time></trkpt><trkpt lat="37.3494476" lon="13.380727"><ele>58.0</ele><time>2026-05-03T13:58:46.517Z</time></trkpt><trkpt lat="37.3492918" lon="13.380978"><ele>58.0</ele><time>2026-05-03T13:58:47.518Z</time></trkpt><trkpt lat="37.3491349" lon="13.3812384"><ele>58.0</ele><time>2026-05-03T13:58:48.518Z</time></trkpt><trkpt lat="37.3489818" lon="13.381503"><ele>56.0</ele><time>2026-05-03T13:58:49.517Z</time></trkpt><trkpt lat="37.3488304" lon="13.3817714"><ele>54.0</ele><time>2026-05-03T13:58:50.517Z</time></trkpt><trkpt lat="37.3486787" lon="13.3820428"><ele>53.0</ele><time>2026-05-03T13:58:51.518Z</time></trkpt><trkpt lat="37.3485299" lon="13.3823124"><ele>52.0</ele><time>2026-05-03T13:58:52.518Z</time></trkpt><trkpt lat="37.3483853" lon="13.3826003"><ele>52.0</ele><time>2026-05-03T13:58:53.517Z</time></trkpt><trkpt lat="37.3482426" lon="13.3828942"><ele>52.0</ele><time>2026-05-03T13:58:54.517Z</time></trkpt><trkpt lat="37.3480961" lon="13.3832075"><ele>49.5</ele><time>2026-05-03T13:58:55.517Z</time></trkpt><trkpt lat="37.347954" lon="13.3835359"><ele>47.0</ele><time>2026-05-03T13:58:56.518Z</time></trkpt><trkpt lat="37.3478073" lon="13.3838509"><ele>46.0</ele><time>2026-05-03T13:58:57.518Z</time></trkpt><trkpt lat="37.3476602" lon="13.3841584"><ele>45.0</ele><time>2026-05-03T13:58:58.518Z</time></trkpt><trkpt lat="37.3475154" lon="13.3844566"><ele>44.0</ele><time>2026-05-03T13:58:59.517Z</time></trkpt><trkpt lat="37.3473704" lon="13.3847472"><ele>43.0</ele><time>2026-05-03T13:59:00.518Z</time></trkpt><trkpt lat="37.3472265" lon="13.3850405"><ele>44.5</ele><time>2026-05-03T13:59:01.518Z</time></trkpt><trkpt lat="37.347081" lon="13.3853259"><ele>46.0</ele><time>2026-05-03T13:59:02.518Z</time></trkpt><trkpt lat="37.3467723" lon="13.3858709"><ele>46.0</ele><time>2026-05-03T13:59:04.517Z</time></trkpt><trkpt lat="37.3466147" lon="13.3861387"><ele>46.0</ele><time>2026-05-03T13:59:05.517Z</time></trkpt><trkpt lat="37.346458" lon="13.3864094"><ele>47.5</ele><time>2026-05-03T13:59:06.517Z</time></trkpt><trkpt lat="37.3463013" lon="13.3866725"><ele>49.0</ele><time>2026-05-03T13:59:07.518Z</time></trkpt><trkpt lat="37.3461465" lon="13.386936"><ele>43.0</ele><time>2026-05-03T13:59:08.518Z</time></trkpt><trkpt lat="37.3459935" lon="13.3871997"><ele>37.0</ele><time>2026-05-03T13:59:09.518Z</time></trkpt><trkpt lat="37.3458412" lon="13.3874621"><ele>37.0</ele><time>2026-05-03T13:59:10.518Z</time></trkpt><trkpt lat="37.3456886" lon="13.3877271"><ele>37.0</ele><time>2026-05-03T13:59:11.518Z</time></trkpt><trkpt lat="37.3455389" lon="13.3879973"><ele>36.0</ele><time>2026-05-03T13:59:12.517Z</time></trkpt><trkpt lat="37.3453932" lon="13.3882713"><ele>35.0</ele><time>2026-05-03T13:59:13.517Z</time></trkpt><trkpt lat="37.3452538" lon="13.3885526"><ele>35.0</ele><time>2026-05-03T13:59:14.517Z</time></trkpt><trkpt lat="37.3451243" lon="13.3888412"><ele>35.0</ele><time>2026-05-03T13:59:15.517Z</time></trkpt><trkpt lat="37.3450006" lon="13.3891378"><ele>33.0</ele><time>2026-05-03T13:59:16.518Z</time></trkpt><trkpt lat="37.3448856" lon="13.3894374"><ele>31.0</ele><time>2026-05-03T13:59:17.518Z</time></trkpt><trkpt lat="37.344779" lon="13.3897462"><ele>35.5</ele><time>2026-05-03T13:59:18.517Z</time></trkpt><trkpt lat="37.3446877" lon="13.3900642"><ele>40.0</ele><time>2026-05-03T13:59:19.517Z</time></trkpt><trkpt lat="37.3446018" lon="13.3904001"><ele>34.5</ele><time>2026-05-03T13:59:20.517Z</time></trkpt><trkpt lat="37.3445202" lon="13.3907457"><ele>29.0</ele><time>2026-05-03T13:59:21.518Z</time></trkpt><trkpt lat="37.3444443" lon="13.3911024"><ele>27.0</ele><time>2026-05-03T13:59:22.518Z</time></trkpt><trkpt lat="37.3443704" lon="13.3914708"><ele>25.0</ele><time>2026-05-03T13:59:23.518Z</time></trkpt><trkpt lat="37.3442928" lon="13.3918458"><ele>26.0</ele><time>2026-05-03T13:59:24.518Z</time></trkpt><trkpt lat="37.3442156" lon="13.3922132"><ele>27.0</ele><time>2026-05-03T13:59:25.517Z</time></trkpt><trkpt lat="37.3441372" lon="13.3925802"><ele>27.0</ele><time>2026-05-03T13:59:26.518Z</time></trkpt><trkpt lat="37.3440583" lon="13.392945"><ele>27.0</ele><time>2026-05-03T13:59:27.518Z</time></trkpt><trkpt lat="37.3439796" lon="13.393304"><ele>27.0</ele><time>2026-05-03T13:59:28.518Z</time></trkpt><trkpt lat="37.3439026" lon="13.3936551"><ele>27.0</ele><time>2026-05-03T13:59:29.518Z</time></trkpt><trkpt lat="37.3438218" lon="13.3940066"><ele>19.0</ele><time>2026-05-03T13:59:30.517Z</time></trkpt><trkpt lat="37.3437401" lon="13.3943528"><ele>11.0</ele><time>2026-05-03T13:59:31.517Z</time></trkpt><trkpt lat="37.3436532" lon="13.3946889"><ele>11.0</ele><time>2026-05-03T13:59:32.517Z</time></trkpt><trkpt lat="37.3435631" lon="13.3950102"><ele>11.0</ele><time>2026-05-03T13:59:33.517Z</time></trkpt><trkpt lat="37.3434676" lon="13.3953263"><ele>12.5</ele><time>2026-05-03T13:59:34.518Z</time></trkpt><trkpt lat="37.3433672" lon="13.3956283"><ele>14.0</ele><time>2026-05-03T13:59:35.518Z</time></trkpt><trkpt lat="37.3432593" lon="13.3959229"><ele>14.0</ele><time>2026-05-03T13:59:36.518Z</time></trkpt><trkpt lat="37.3431448" lon="13.3962055"><ele>14.0</ele><time>2026-05-03T13:59:37.518Z</time></trkpt><trkpt lat="37.3430229" lon="13.3964808"><ele>13.5</ele><time>2026-05-03T13:59:38.518Z</time></trkpt><trkpt lat="37.34289" lon="13.3967512"><ele>13.0</ele><time>2026-05-03T13:59:39.517Z</time></trkpt><trkpt lat="37.342754" lon="13.3970166"><ele>16.0</ele><time>2026-05-03T13:59:40.517Z</time></trkpt><trkpt lat="37.3426122" lon="13.3972705"><ele>19.0</ele><time>2026-05-03T13:59:41.517Z</time></trkpt><trkpt lat="37.3424733" lon="13.3975105"><ele>19.0</ele><time>2026-05-03T13:59:42.518Z</time></trkpt><trkpt lat="37.3423329" lon="13.3977388"><ele>19.0</ele><time>2026-05-03T13:59:43.518Z</time></trkpt><trkpt lat="37.3421934" lon="13.3979621"><ele>21.5</ele><time>2026-05-03T13:59:44.517Z</time></trkpt><trkpt lat="37.3420518" lon="13.3981879"><ele>24.0</ele><time>2026-05-03T13:59:45.518Z</time></trkpt><trkpt lat="37.3419067" lon="13.3984167"><ele>24.0</ele><time>2026-05-03T13:59:46.518Z</time></trkpt><trkpt lat="37.3417588" lon="13.3986431"><ele>24.0</ele><time>2026-05-03T13:59:47.517Z</time></trkpt><trkpt lat="37.3416083" lon="13.398875"><ele>27.0</ele><time>2026-05-03T13:59:48.518Z</time></trkpt><trkpt lat="37.3414555" lon="13.3991128"><ele>30.0</ele><time>2026-05-03T13:59:49.518Z</time></trkpt><trkpt lat="37.3412988" lon="13.3993568"><ele>33.5</ele><time>2026-05-03T13:59:50.518Z</time></trkpt><trkpt lat="37.3411353" lon="13.399608"><ele>37.0</ele><time>2026-05-03T13:59:51.517Z</time></trkpt><trkpt lat="37.3409706" lon="13.3998743"><ele>37.0</ele><time>2026-05-03T13:59:52.518Z</time></trkpt><trkpt lat="37.3408059" lon="13.4001437"><ele>37.0</ele><time>2026-05-03T13:59:53.518Z</time></trkpt><trkpt lat="37.3406383" lon="13.4004141"><ele>45.5</ele><time>2026-05-03T13:59:54.518Z</time></trkpt><trkpt lat="37.3404618" lon="13.4006909"><ele>54.0</ele><time>2026-05-03T13:59:55.517Z</time></trkpt><trkpt lat="37.3402866" lon="13.4009636"><ele>54.0</ele><time>2026-05-03T13:59:56.518Z</time></trkpt><trkpt lat="37.3401185" lon="13.4012226"><ele>54.0</ele><time>2026-05-03T13:59:57.518Z</time></trkpt><trkpt lat="37.3399585" lon="13.4014656"><ele>52.0</ele><time>2026-05-03T13:59:58.517Z</time></trkpt><trkpt lat="37.3398079" lon="13.4016959"><ele>50.0</ele><time>2026-05-03T13:59:59.517Z</time></trkpt><trkpt lat="37.3396687" lon="13.4019115"><ele>55.0</ele><time>2026-05-03T14:00:00.517Z</time></trkpt><trkpt lat="37.339533" lon="13.4021235"><ele>60.0</ele><time>2026-05-03T14:00:01.518Z</time></trkpt><trkpt lat="37.3394041" lon="13.4023281"><ele>65.0</ele><time>2026-05-03T14:00:02.517Z</time></trkpt><trkpt lat="37.3392829" lon="13.40253"><ele>65.0</ele><time>2026-05-03T14:00:03.518Z</time></trkpt><trkpt lat="37.339168" lon="13.4027294"><ele>65.0</ele><time>2026-05-03T14:00:04.517Z</time></trkpt><trkpt lat="37.3390578" lon="13.40293"><ele>65.0</ele><time>2026-05-03T14:00:05.517Z</time></trkpt><trkpt lat="37.3389483" lon="13.4031316"><ele>64.0</ele><time>2026-05-03T14:00:06.518Z</time></trkpt><trkpt lat="37.3388487" lon="13.4033363"><ele>63.0</ele><time>2026-05-03T14:00:07.516Z</time></trkpt><trkpt lat="37.3387556" lon="13.4035459"><ele>62.0</ele><time>2026-05-03T14:00:08.516Z</time></trkpt><trkpt lat="37.3386629" lon="13.4037581"><ele>60.333333333333336</ele><time>2026-05-03T14:00:09.516Z</time></trkpt><trkpt lat="37.3385891" lon="13.40397"><ele>58.66666666666667</ele><time>2026-05-03T14:00:10.517Z</time></trkpt><trkpt lat="37.3385185" lon="13.4041819"><ele>57.0</ele><time>2026-05-03T14:00:11.517Z</time></trkpt><trkpt lat="37.3384487" lon="13.4044001"><ele>57.0</ele><time>2026-05-03T14:00:12.516Z</time></trkpt><trkpt lat="37.3383727" lon="13.4046084"><ele>57.0</ele><time>2026-05-03T14:00:13.516Z</time></trkpt><trkpt lat="37.3383047" lon="13.404825"><ele>57.0</ele><time>2026-05-03T14:00:14.517Z</time></trkpt><trkpt lat="37.3382396" lon="13.4050557"><ele>56.33333333333333</ele><time>2026-05-03T14:00:15.517Z</time></trkpt><trkpt lat="37.338174" lon="13.4052937"><ele>55.666666666666664</ele><time>2026-05-03T14:00:16.516Z</time></trkpt><trkpt lat="37.3381099" lon="13.4055267"><ele>55.0</ele><time>2026-05-03T14:00:17.516Z</time></trkpt><trkpt lat="37.338053" lon="13.4057484"><ele>50.666666666666664</ele><time>2026-05-03T14:00:18.516Z</time></trkpt><trkpt lat="37.3379982" lon="13.4059778"><ele>46.33333333333333</ele><time>2026-05-03T14:00:19.516Z</time></trkpt><trkpt lat="37.3379441" lon="13.4062044"><ele>42.0</ele><time>2026-05-03T14:00:20.517Z</time></trkpt><trkpt lat="37.3378889" lon="13.4064336"><ele>42.0</ele><time>2026-05-03T14:00:21.517Z</time></trkpt><trkpt lat="37.3378344" lon="13.4066613"><ele>42.0</ele><time>2026-05-03T14:00:22.517Z</time></trkpt><trkpt lat="37.3377804" lon="13.4068895"><ele>42.0</ele><time>2026-05-03T14:00:23.516Z</time></trkpt><trkpt lat="37.3377262" lon="13.407118"><ele>43.333333333333336</ele><time>2026-05-03T14:00:24.516Z</time></trkpt><trkpt lat="37.3376704" lon="13.4073478"><ele>44.66666666666667</ele><time>2026-05-03T14:00:25.517Z</time></trkpt><trkpt lat="37.3376153" lon="13.4075912"><ele>46.0</ele><time>2026-05-03T14:00:26.517Z</time></trkpt><trkpt lat="37.3375603" lon="13.4078421"><ele>45.66666666666667</ele><time>2026-05-03T14:00:27.516Z</time></trkpt><trkpt lat="37.3375007" lon="13.408105"><ele>45.333333333333336</ele><time>2026-05-03T14:00:28.516Z</time></trkpt><trkpt lat="37.3374424" lon="13.4083768"><ele>45.0</ele><time>2026-05-03T14:00:29.516Z</time></trkpt><trkpt lat="37.3373853" lon="13.4086463"><ele>44.0</ele><time>2026-05-03T14:00:30.517Z</time></trkpt><trkpt lat="37.3373228" lon="13.4089145"><ele>43.0</ele><time>2026-05-03T14:00:31.517Z</time></trkpt><trkpt lat="37.3372591" lon="13.4091848"><ele>42.0</ele><time>2026-05-03T14:00:32.517Z</time></trkpt><trkpt lat="37.3371912" lon="13.4094534"><ele>43.5</ele><time>2026-05-03T14:00:33.517Z</time></trkpt><trkpt lat="37.3371226" lon="13.4097227"><ele>45.0</ele><time>2026-05-03T14:00:34.517Z</time></trkpt><trkpt lat="37.3370511" lon="13.4099946"><ele>45.0</ele><time>2026-05-03T14:00:35.516Z</time></trkpt><trkpt lat="37.3369689" lon="13.4102741"><ele>45.0</ele><time>2026-05-03T14:00:36.516Z</time></trkpt><trkpt lat="37.3368784" lon="13.4105561"><ele>46.5</ele><time>2026-05-03T14:00:37.516Z</time></trkpt><trkpt lat="37.336779" lon="13.410824"><ele>48.0</ele><time>2026-05-03T14:00:38.516Z</time></trkpt><trkpt lat="37.3366723" lon="13.4110862"><ele>49.5</ele><time>2026-05-03T14:00:39.517Z</time></trkpt><trkpt lat="37.3365592" lon="13.4113425"><ele>51.0</ele><time>2026-05-03T14:00:40.517Z</time></trkpt><trkpt lat="37.3364402" lon="13.4115948"><ele>51.0</ele><time>2026-05-03T14:00:41.517Z</time></trkpt><trkpt lat="37.33632" lon="13.4118277"><ele>51.0</ele><time>2026-05-03T14:00:42.517Z</time></trkpt><trkpt lat="37.336201" lon="13.412046"><ele>51.0</ele><time>2026-05-03T14:00:43.517Z</time></trkpt><trkpt lat="37.3360826" lon="13.4122625"><ele>51.66666666666667</ele><time>2026-05-03T14:00:44.516Z</time></trkpt><trkpt lat="37.3359684" lon="13.4124763"><ele>52.333333333333336</ele><time>2026-05-03T14:00:45.517Z</time></trkpt><trkpt lat="37.3358532" lon="13.4126899"><ele>53.0</ele><time>2026-05-03T14:00:46.516Z</time></trkpt><trkpt lat="37.3357394" lon="13.4129064"><ele>52.333333333333336</ele><time>2026-05-03T14:00:47.517Z</time></trkpt><trkpt lat="37.3356324" lon="13.4131229"><ele>51.66666666666667</ele><time>2026-05-03T14:00:48.517Z</time></trkpt><trkpt lat="37.3355304" lon="13.4133462"><ele>51.0</ele><time>2026-05-03T14:00:49.516Z</time></trkpt><trkpt lat="37.3354351" lon="13.4135929"><ele>53.0</ele><time>2026-05-03T14:00:50.516Z</time></trkpt><trkpt lat="37.3353404" lon="13.4138587"><ele>55.0</ele><time>2026-05-03T14:00:51.517Z</time></trkpt><trkpt lat="37.3352424" lon="13.4141368"><ele>55.0</ele><time>2026-05-03T14:00:52.517Z</time></trkpt><trkpt lat="37.3351466" lon="13.4144221"><ele>55.0</ele><time>2026-05-03T14:00:53.516Z</time></trkpt><trkpt lat="37.3350521" lon="13.4147009"><ele>56.5</ele><time>2026-05-03T14:00:54.517Z</time></trkpt><trkpt lat="37.3349633" lon="13.4149691"><ele>58.0</ele><time>2026-05-03T14:00:55.516Z</time></trkpt><trkpt lat="37.3348776" lon="13.4152291"><ele>58.0</ele><time>2026-05-03T14:00:56.516Z</time></trkpt><trkpt lat="37.3347981" lon="13.4154656"><ele>58.0</ele><time>2026-05-03T14:00:57.517Z</time></trkpt><trkpt lat="37.3347126" lon="13.4156925"><ele>58.0</ele><time>2026-05-03T14:00:58.516Z</time></trkpt><trkpt lat="37.33462" lon="13.4159024"><ele>57.666666666666664</ele><time>2026-05-03T14:00:59.517Z</time></trkpt><trkpt lat="37.3345152" lon="13.4161022"><ele>57.33333333333333</ele><time>2026-05-03T14:01:00.517Z</time></trkpt><trkpt lat="37.3343999" lon="13.4162947"><ele>57.0</ele><time>2026-05-03T14:01:01.516Z</time></trkpt><trkpt lat="37.3342806" lon="13.4164811"><ele>58.0</ele><time>2026-05-03T14:01:02.516Z</time></trkpt><trkpt lat="37.334145" lon="13.4166846"><ele>59.0</ele><time>2026-05-03T14:01:03.517Z</time></trkpt><trkpt lat="37.3340166" lon="13.4168814"><ele>60.0</ele><time>2026-05-03T14:01:04.516Z</time></trkpt><trkpt lat="37.3338833" lon="13.4170836"><ele>62.33333333333333</ele><time>2026-05-03T14:01:05.516Z</time></trkpt><trkpt lat="37.3337542" lon="13.4172836"><ele>64.66666666666666</ele><time>2026-05-03T14:01:06.516Z</time></trkpt><trkpt lat="37.3336237" lon="13.4174789"><ele>67.0</ele><time>2026-05-03T14:01:07.516Z</time></trkpt><trkpt lat="37.3334942" lon="13.417673"><ele>67.0</ele><time>2026-05-03T14:01:08.516Z</time></trkpt><trkpt lat="37.3333737" lon="13.4178653"><ele>67.0</ele><time>2026-05-03T14:01:09.517Z</time></trkpt><trkpt lat="37.3332621" lon="13.4180446"><ele>67.0</ele><time>2026-05-03T14:01:10.517Z</time></trkpt><trkpt lat="37.3331514" lon="13.4182281"><ele>66.0</ele><time>2026-05-03T14:01:11.516Z</time></trkpt><trkpt lat="37.3330521" lon="13.4184142"><ele>65.0</ele><time>2026-05-03T14:01:12.517Z</time></trkpt><trkpt lat="37.3329606" lon="13.418603"><ele>64.0</ele><time>2026-05-03T14:01:13.517Z</time></trkpt><trkpt lat="37.3328881" lon="13.4187983"><ele>65.33333333333333</ele><time>2026-05-03T14:01:14.517Z</time></trkpt><trkpt lat="37.3328205" lon="13.4189976"><ele>66.66666666666667</ele><time>2026-05-03T14:01:15.517Z</time></trkpt><trkpt lat="37.3327645" lon="13.4192187"><ele>68.0</ele><time>2026-05-03T14:01:16.516Z</time></trkpt><trkpt lat="37.3327316" lon="13.4194381"><ele>68.66666666666667</ele><time>2026-05-03T14:01:17.517Z</time></trkpt><trkpt lat="37.3327142" lon="13.4196512"><ele>69.33333333333333</ele><time>2026-05-03T14:01:18.517Z</time></trkpt><trkpt lat="37.3327113" lon="13.4198665"><ele>70.0</ele><time>2026-05-03T14:01:19.517Z</time></trkpt><trkpt lat="37.3327208" lon="13.4200793"><ele>70.0</ele><time>2026-05-03T14:01:20.517Z</time></trkpt><trkpt lat="37.3327407" lon="13.4202904"><ele>70.0</ele><time>2026-05-03T14:01:21.517Z</time></trkpt><trkpt lat="37.3327665" lon="13.4204964"><ele>70.0</ele><time>2026-05-03T14:01:22.517Z</time></trkpt><trkpt lat="37.3327933" lon="13.4207011"><ele>70.33333333333333</ele><time>2026-05-03T14:01:23.516Z</time></trkpt><trkpt lat="37.3328175" lon="13.4208983"><ele>70.66666666666667</ele><time>2026-05-03T14:01:24.517Z</time></trkpt><trkpt lat="37.3328388" lon="13.421097"><ele>71.0</ele><time>2026-05-03T14:01:25.517Z</time></trkpt><trkpt lat="37.3328511" lon="13.4213104"><ele>71.33333333333334</ele><time>2026-05-03T14:01:26.516Z</time></trkpt><trkpt lat="37.3328835" lon="13.4215141"><ele>71.66666666666667</ele><time>2026-05-03T14:01:27.516Z</time></trkpt><trkpt lat="37.332909" lon="13.421711"><ele>72.0</ele><time>2026-05-03T14:01:28.516Z</time></trkpt><trkpt lat="37.3329344" lon="13.4219096"><ele>72.0</ele><time>2026-05-03T14:01:29.516Z</time></trkpt><trkpt lat="37.3329609" lon="13.4221154"><ele>72.0</ele><time>2026-05-03T14:01:30.517Z</time></trkpt><trkpt lat="37.3329897" lon="13.4223297"><ele>72.0</ele><time>2026-05-03T14:01:31.517Z</time></trkpt><trkpt lat="37.3330174" lon="13.4225435"><ele>72.33333333333333</ele><time>2026-05-03T14:01:32.517Z</time></trkpt><trkpt lat="37.3330452" lon="13.4227536"><ele>72.66666666666666</ele><time>2026-05-03T14:01:33.517Z</time></trkpt><trkpt lat="37.3330708" lon="13.4229667"><ele>73.0</ele><time>2026-05-03T14:01:34.516Z</time></trkpt><trkpt lat="37.3330984" lon="13.4231863"><ele>73.0</ele><time>2026-05-03T14:01:35.516Z</time></trkpt><trkpt lat="37.3331254" lon="13.4234111"><ele>73.0</ele><time>2026-05-03T14:01:36.517Z</time></trkpt><trkpt lat="37.3331526" lon="13.4236417"><ele>73.0</ele><time>2026-05-03T14:01:37.517Z</time></trkpt><trkpt lat="37.3331813" lon="13.4238733"><ele>73.33333333333333</ele><time>2026-05-03T14:01:38.516Z</time></trkpt><trkpt lat="37.3332069" lon="13.4241065"><ele>73.66666666666667</ele><time>2026-05-03T14:01:39.517Z</time></trkpt><trkpt lat="37.3332331" lon="13.4243428"><ele>74.0</ele><time>2026-05-03T14:01:40.517Z</time></trkpt><trkpt lat="37.3332608" lon="13.4245784"><ele>75.0</ele><time>2026-05-03T14:01:41.516Z</time></trkpt><trkpt lat="37.333292" lon="13.4248167"><ele>76.0</ele><time>2026-05-03T14:01:42.517Z</time></trkpt><trkpt lat="37.3333198" lon="13.4250581"><ele>77.0</ele><time>2026-05-03T14:01:43.517Z</time></trkpt><trkpt lat="37.333352" lon="13.4253012"><ele>78.0</ele><time>2026-05-03T14:01:44.517Z</time></trkpt><trkpt lat="37.3333829" lon="13.4255484"><ele>79.0</ele><time>2026-05-03T14:01:45.517Z</time></trkpt><trkpt lat="37.3334129" lon="13.4257955"><ele>80.0</ele><time>2026-05-03T14:01:46.516Z</time></trkpt><trkpt lat="37.3334423" lon="13.4260442"><ele>80.0</ele><time>2026-05-03T14:01:47.516Z</time></trkpt><trkpt lat="37.333474" lon="13.4262912"><ele>80.0</ele><time>2026-05-03T14:01:48.516Z</time></trkpt><trkpt lat="37.3335012" lon="13.4265309"><ele>80.0</ele><time>2026-05-03T14:01:49.516Z</time></trkpt><trkpt lat="37.3335284" lon="13.4267634"><ele>81.0</ele><time>2026-05-03T14:01:50.517Z</time></trkpt><trkpt lat="37.3335539" lon="13.4269855"><ele>82.0</ele><time>2026-05-03T14:01:51.517Z</time></trkpt><trkpt lat="37.3335772" lon="13.4272025"><ele>83.0</ele><time>2026-05-03T14:01:52.517Z</time></trkpt><trkpt lat="37.3335854" lon="13.427428"><ele>83.33333333333334</ele><time>2026-05-03T14:01:53.517Z</time></trkpt><trkpt lat="37.3335751" lon="13.427664"><ele>83.66666666666667</ele><time>2026-05-03T14:01:54.516Z</time></trkpt><trkpt lat="37.3335638" lon="13.4278971"><ele>84.0</ele><time>2026-05-03T14:01:55.517Z</time></trkpt><trkpt lat="37.3335433" lon="13.4281142"><ele>85.25</ele><time>2026-05-03T14:01:56.516Z</time></trkpt><trkpt lat="37.3335242" lon="13.4282924"><ele>86.5</ele><time>2026-05-03T14:01:57.517Z</time></trkpt><trkpt lat="37.3334874" lon="13.4284677"><ele>87.75</ele><time>2026-05-03T14:01:58.517Z</time></trkpt><trkpt lat="37.3334434" lon="13.4286258"><ele>89.0</ele><time>2026-05-03T14:01:59.516Z</time></trkpt><trkpt lat="37.3333988" lon="13.4287643"><ele>90.5</ele><time>2026-05-03T14:02:00.517Z</time></trkpt><trkpt lat="37.3333579" lon="13.4288821"><ele>92.0</ele><time>2026-05-03T14:02:01.516Z</time></trkpt><trkpt lat="37.333294" lon="13.4290395"><ele>93.5</ele><time>2026-05-03T14:02:03.516Z</time></trkpt><trkpt lat="37.3332324" lon="13.429189"><ele>95.0</ele><time>2026-05-03T14:02:04.517Z</time></trkpt><trkpt lat="37.3331479" lon="13.4293453"><ele>95.66666666666667</ele><time>2026-05-03T14:02:05.516Z</time></trkpt><trkpt lat="37.3330304" lon="13.4295209"><ele>96.33333333333334</ele><time>2026-05-03T14:02:06.516Z</time></trkpt><trkpt lat="37.3328875" lon="13.429691"><ele>97.0</ele><time>2026-05-03T14:02:07.517Z</time></trkpt><trkpt lat="37.3327289" lon="13.4298738"><ele>97.0</ele><time>2026-05-03T14:02:08.517Z</time></trkpt><trkpt lat="37.3325668" lon="13.4300417"><ele>97.0</ele><time>2026-05-03T14:02:09.516Z</time></trkpt><trkpt lat="37.3324073" lon="13.4301909"><ele>97.0</ele><time>2026-05-03T14:02:10.516Z</time></trkpt><trkpt lat="37.3322525" lon="13.4303265"><ele>97.33333333333334</ele><time>2026-05-03T14:02:11.517Z</time></trkpt><trkpt lat="37.3321138" lon="13.4304478"><ele>97.66666666666666</ele><time>2026-05-03T14:02:12.516Z</time></trkpt><trkpt lat="37.3319808" lon="13.4305708"><ele>98.0</ele><time>2026-05-03T14:02:13.516Z</time></trkpt><trkpt lat="37.3318435" lon="13.4306972"><ele>98.0</ele><time>2026-05-03T14:02:14.517Z</time></trkpt><trkpt lat="37.3316969" lon="13.4308398"><ele>98.0</ele><time>2026-05-03T14:02:15.517Z</time></trkpt><trkpt lat="37.3315312" lon="13.4309924"><ele>98.0</ele><time>2026-05-03T14:02:16.516Z</time></trkpt><trkpt lat="37.3313537" lon="13.4311575"><ele>98.5</ele><time>2026-05-03T14:02:17.517Z</time></trkpt><trkpt lat="37.3311611" lon="13.4313346"><ele>99.0</ele><time>2026-05-03T14:02:18.517Z</time></trkpt><trkpt lat="37.3309692" lon="13.4315139"><ele>99.0</ele><time>2026-05-03T14:02:19.516Z</time></trkpt><trkpt lat="37.3307737" lon="13.4316809"><ele>99.0</ele><time>2026-05-03T14:02:20.516Z</time></trkpt><trkpt lat="37.330584" lon="13.4318316"><ele>99.0</ele><time>2026-05-03T14:02:21.517Z</time></trkpt><trkpt lat="37.3303999" lon="13.4319865"><ele>99.0</ele><time>2026-05-03T14:02:22.517Z</time></trkpt><trkpt lat="37.3302204" lon="13.4321415"><ele>99.0</ele><time>2026-05-03T14:02:23.517Z</time></trkpt><trkpt lat="37.3300483" lon="13.4323093"><ele>99.33333333333334</ele><time>2026-05-03T14:02:24.516Z</time></trkpt><trkpt lat="37.3298853" lon="13.4324966"><ele>99.66666666666667</ele><time>2026-05-03T14:02:25.517Z</time></trkpt><trkpt lat="37.329741" lon="13.4327115"><ele>100.0</ele><time>2026-05-03T14:02:26.516Z</time></trkpt><trkpt lat="37.3296078" lon="13.4329565"><ele>100.5</ele><time>2026-05-03T14:02:27.517Z</time></trkpt><trkpt lat="37.3294848" lon="13.4332193"><ele>101.0</ele><time>2026-05-03T14:02:28.516Z</time></trkpt><trkpt lat="37.3293658" lon="13.4334911"><ele>101.0</ele><time>2026-05-03T14:02:29.517Z</time></trkpt><trkpt lat="37.3292472" lon="13.4337635"><ele>101.0</ele><time>2026-05-03T14:02:30.517Z</time></trkpt><trkpt lat="37.3291297" lon="13.4340258"><ele>104.5</ele><time>2026-05-03T14:02:31.516Z</time></trkpt><trkpt lat="37.3290113" lon="13.434287"><ele>108.0</ele><time>2026-05-03T14:02:32.517Z</time></trkpt><trkpt lat="37.3288996" lon="13.43453"><ele>108.33333333333334</ele><time>2026-05-03T14:02:33.517Z</time></trkpt><trkpt lat="37.3287988" lon="13.4347504"><ele>108.66666666666667</ele><time>2026-05-03T14:02:34.517Z</time></trkpt><trkpt lat="37.3287062" lon="13.4349459"><ele>109.0</ele><time>2026-05-03T14:02:35.516Z</time></trkpt><trkpt lat="37.3286209" lon="13.4351308"><ele>109.0</ele><time>2026-05-03T14:02:36.517Z</time></trkpt><trkpt lat="37.328532" lon="13.4353109"><ele>109.0</ele><time>2026-05-03T14:02:37.516Z</time></trkpt><trkpt lat="37.3284493" lon="13.4354865"><ele>109.0</ele><time>2026-05-03T14:02:38.516Z</time></trkpt><trkpt lat="37.3283762" lon="13.4356638"><ele>110.66666666666667</ele><time>2026-05-03T14:02:39.516Z</time></trkpt><trkpt lat="37.328298" lon="13.4358237"><ele>112.33333333333334</ele><time>2026-05-03T14:02:40.516Z</time></trkpt><trkpt lat="37.3282126" lon="13.4359985"><ele>114.0</ele><time>2026-05-03T14:02:41.516Z</time></trkpt><trkpt lat="37.3281265" lon="13.4361879"><ele>114.66666666666666</ele><time>2026-05-03T14:02:42.517Z</time></trkpt><trkpt lat="37.3280249" lon="13.4364076"><ele>115.33333333333333</ele><time>2026-05-03T14:02:43.517Z</time></trkpt><trkpt lat="37.3279066" lon="13.4366541"><ele>116.0</ele><time>2026-05-03T14:02:44.517Z</time></trkpt><trkpt lat="37.3277777" lon="13.4369232"><ele>118.5</ele><time>2026-05-03T14:02:45.517Z</time></trkpt><trkpt lat="37.3276434" lon="13.4372069"><ele>121.0</ele><time>2026-05-03T14:02:46.516Z</time></trkpt><trkpt lat="37.3275107" lon="13.4374863"><ele>121.0</ele><time>2026-05-03T14:02:47.516Z</time></trkpt><trkpt lat="37.3273837" lon="13.4377415"><ele>121.0</ele><time>2026-05-03T14:02:48.517Z</time></trkpt><trkpt lat="37.3272672" lon="13.4379838"><ele>122.0</ele><time>2026-05-03T14:02:49.517Z</time></trkpt><trkpt lat="37.3271426" lon="13.4382232"><ele>123.0</ele><time>2026-05-03T14:02:50.516Z</time></trkpt><trkpt lat="37.3270136" lon="13.4384631"><ele>123.0</ele><time>2026-05-03T14:02:51.517Z</time></trkpt><trkpt lat="37.3268811" lon="13.4387055"><ele>123.0</ele><time>2026-05-03T14:02:52.516Z</time></trkpt><trkpt lat="37.3267437" lon="13.4389514"><ele>124.5</ele><time>2026-05-03T14:02:53.517Z</time></trkpt><trkpt lat="37.3266038" lon="13.4392049"><ele>126.0</ele><time>2026-05-03T14:02:54.517Z</time></trkpt><trkpt lat="37.3264622" lon="13.4394612"><ele>127.0</ele><time>2026-05-03T14:02:55.516Z</time></trkpt><trkpt lat="37.3263245" lon="13.4397094"><ele>128.0</ele><time>2026-05-03T14:02:56.516Z</time></trkpt><trkpt lat="37.3261835" lon="13.4399626"><ele>128.0</ele><time>2026-05-03T14:02:57.517Z</time></trkpt><trkpt lat="37.3260461" lon="13.4402064"><ele>128.0</ele><time>2026-05-03T14:02:58.516Z</time></trkpt><trkpt lat="37.325917" lon="13.4404347"><ele>129.0</ele><time>2026-05-03T14:02:59.516Z</time></trkpt><trkpt lat="37.3257973" lon="13.4406472"><ele>130.0</ele><time>2026-05-03T14:03:00.517Z</time></trkpt><trkpt lat="37.3256854" lon="13.4408543"><ele>131.0</ele><time>2026-05-03T14:03:01.517Z</time></trkpt><trkpt lat="37.3255744" lon="13.4410644"><ele>130.33333333333331</ele><time>2026-05-03T14:03:02.516Z</time></trkpt><trkpt lat="37.3254698" lon="13.4412839"><ele>129.66666666666666</ele><time>2026-05-03T14:03:03.517Z</time></trkpt><trkpt lat="37.3253744" lon="13.4415166"><ele>129.0</ele><time>2026-05-03T14:03:04.516Z</time></trkpt><trkpt lat="37.3252872" lon="13.441769"><ele>128.33333333333334</ele><time>2026-05-03T14:03:05.517Z</time></trkpt><trkpt lat="37.3252072" lon="13.44203"><ele>127.66666666666667</ele><time>2026-05-03T14:03:06.517Z</time></trkpt><trkpt lat="37.3251301" lon="13.4422968"><ele>127.0</ele><time>2026-05-03T14:03:07.516Z</time></trkpt><trkpt lat="37.3250532" lon="13.4425744"><ele>125.0</ele><time>2026-05-03T14:03:08.516Z</time></trkpt><trkpt lat="37.3249762" lon="13.442857"><ele>123.0</ele><time>2026-05-03T14:03:09.516Z</time></trkpt><trkpt lat="37.3249002" lon="13.4431385"><ele>123.0</ele><time>2026-05-03T14:03:10.517Z</time></trkpt><trkpt lat="37.3248243" lon="13.4434199"><ele>123.0</ele><time>2026-05-03T14:03:11.516Z</time></trkpt><trkpt lat="37.3247501" lon="13.4436922"><ele>121.66666666666666</ele><time>2026-05-03T14:03:12.516Z</time></trkpt><trkpt lat="37.3246762" lon="13.4439583"><ele>120.33333333333333</ele><time>2026-05-03T14:03:13.517Z</time></trkpt><trkpt lat="37.3246023" lon="13.4442233"><ele>119.0</ele><time>2026-05-03T14:03:14.516Z</time></trkpt><trkpt lat="37.3245327" lon="13.4444875"><ele>118.0</ele><time>2026-05-03T14:03:15.517Z</time></trkpt><trkpt lat="37.3244682" lon="13.444738"><ele>117.0</ele><time>2026-05-03T14:03:16.516Z</time></trkpt><trkpt lat="37.3244035" lon="13.4449764"><ele>116.0</ele><time>2026-05-03T14:03:17.516Z</time></trkpt><trkpt lat="37.3243418" lon="13.445205"><ele>116.0</ele><time>2026-05-03T14:03:18.517Z</time></trkpt><trkpt lat="37.3242829" lon="13.445428"><ele>116.0</ele><time>2026-05-03T14:03:19.517Z</time></trkpt><trkpt lat="37.3242255" lon="13.4456406"><ele>116.0</ele><time>2026-05-03T14:03:20.517Z</time></trkpt><trkpt lat="37.3241648" lon="13.4458442"><ele>116.0</ele><time>2026-05-03T14:03:21.516Z</time></trkpt><trkpt lat="37.3240961" lon="13.4460451"><ele>116.0</ele><time>2026-05-03T14:03:22.517Z</time></trkpt><trkpt lat="37.3240188" lon="13.4462393"><ele>116.0</ele><time>2026-05-03T14:03:23.516Z</time></trkpt><trkpt lat="37.3239392" lon="13.4464346"><ele>114.33333333333333</ele><time>2026-05-03T14:03:24.517Z</time></trkpt><trkpt lat="37.3238486" lon="13.4466281"><ele>112.66666666666666</ele><time>2026-05-03T14:03:25.517Z</time></trkpt><trkpt lat="37.3237423" lon="13.446824"><ele>111.0</ele><time>2026-05-03T14:03:26.516Z</time></trkpt><trkpt lat="37.3236041" lon="13.4470112"><ele>111.33333333333334</ele><time>2026-05-03T14:03:27.517Z</time></trkpt><trkpt lat="37.3235023" lon="13.4471953"><ele>111.66666666666667</ele><time>2026-05-03T14:03:28.517Z</time></trkpt><trkpt lat="37.3234011" lon="13.4473618"><ele>112.0</ele><time>2026-05-03T14:03:29.517Z</time></trkpt><trkpt lat="37.3232988" lon="13.4475174"><ele>112.0</ele><time>2026-05-03T14:03:30.516Z</time></trkpt><trkpt lat="37.3231839" lon="13.4476667"><ele>112.0</ele><time>2026-05-03T14:03:31.517Z</time></trkpt><trkpt lat="37.3230547" lon="13.4478092"><ele>112.0</ele><time>2026-05-03T14:03:32.516Z</time></trkpt><trkpt lat="37.3229151" lon="13.4479496"><ele>111.0</ele><time>2026-05-03T14:03:33.517Z</time></trkpt><trkpt lat="37.3227661" lon="13.4480873"><ele>110.0</ele><time>2026-05-03T14:03:34.516Z</time></trkpt><trkpt lat="37.3226118" lon="13.448221"><ele>109.0</ele><time>2026-05-03T14:03:35.516Z</time></trkpt><trkpt lat="37.3224448" lon="13.4483651"><ele>109.0</ele><time>2026-05-03T14:03:36.517Z</time></trkpt><trkpt lat="37.3222772" lon="13.4485109"><ele>109.0</ele><time>2026-05-03T14:03:37.516Z</time></trkpt><trkpt lat="37.3221043" lon="13.4486565"><ele>109.0</ele><time>2026-05-03T14:03:38.517Z</time></trkpt><trkpt lat="37.3219247" lon="13.4488069"><ele>108.33333333333334</ele><time>2026-05-03T14:03:39.517Z</time></trkpt><trkpt lat="37.32175" lon="13.4489615"><ele>107.66666666666666</ele><time>2026-05-03T14:03:40.516Z</time></trkpt><trkpt lat="37.3215772" lon="13.4491119"><ele>107.0</ele><time>2026-05-03T14:03:41.517Z</time></trkpt><trkpt lat="37.3213986" lon="13.4492591"><ele>105.33333333333333</ele><time>2026-05-03T14:03:42.516Z</time></trkpt><trkpt lat="37.3212233" lon="13.4494123"><ele>103.66666666666666</ele><time>2026-05-03T14:03:43.516Z</time></trkpt><trkpt lat="37.3210407" lon="13.4495663"><ele>102.0</ele><time>2026-05-03T14:03:44.516Z</time></trkpt><trkpt lat="37.3208628" lon="13.4497146"><ele>102.0</ele><time>2026-05-03T14:03:45.516Z</time></trkpt><trkpt lat="37.320684" lon="13.4498663"><ele>102.0</ele><time>2026-05-03T14:03:46.517Z</time></trkpt><trkpt lat="37.3205105" lon="13.450012"><ele>102.0</ele><time>2026-05-03T14:03:47.517Z</time></trkpt><trkpt lat="37.3203445" lon="13.4501469"><ele>102.33333333333334</ele><time>2026-05-03T14:03:48.516Z</time></trkpt><trkpt lat="37.320195" lon="13.4502702"><ele>102.66666666666667</ele><time>2026-05-03T14:03:49.517Z</time></trkpt><trkpt lat="37.320055" lon="13.450392"><ele>103.0</ele><time>2026-05-03T14:03:50.516Z</time></trkpt><trkpt lat="37.3199227" lon="13.4505285"><ele>103.0</ele><time>2026-05-03T14:03:51.517Z</time></trkpt><trkpt lat="37.3198116" lon="13.4506851"><ele>103.0</ele><time>2026-05-03T14:03:52.516Z</time></trkpt><trkpt lat="37.3197205" lon="13.4508563"><ele>103.0</ele><time>2026-05-03T14:03:53.517Z</time></trkpt><trkpt lat="37.319659" lon="13.4510407"><ele>99.66666666666667</ele><time>2026-05-03T14:03:54.517Z</time></trkpt><trkpt lat="37.3196218" lon="13.4512398"><ele>96.33333333333334</ele><time>2026-05-03T14:03:55.517Z</time></trkpt><trkpt lat="37.3196036" lon="13.4514614"><ele>93.0</ele><time>2026-05-03T14:03:56.516Z</time></trkpt><trkpt lat="37.3195971" lon="13.4517031"><ele>93.0</ele><time>2026-05-03T14:03:57.516Z</time></trkpt><trkpt lat="37.319597" lon="13.4519549"><ele>93.0</ele><time>2026-05-03T14:03:58.517Z</time></trkpt><trkpt lat="37.3195902" lon="13.4522172"><ele>93.0</ele><time>2026-05-03T14:03:59.517Z</time></trkpt><trkpt lat="37.3195786" lon="13.4524847"><ele>94.0</ele><time>2026-05-03T14:04:00.517Z</time></trkpt><trkpt lat="37.319566" lon="13.4527564"><ele>95.0</ele><time>2026-05-03T14:04:01.517Z</time></trkpt><trkpt lat="37.3195593" lon="13.4530315"><ele>96.0</ele><time>2026-05-03T14:04:02.516Z</time></trkpt><trkpt lat="37.3195481" lon="13.4533077"><ele>96.33333333333334</ele><time>2026-05-03T14:04:03.516Z</time></trkpt><trkpt lat="37.3195274" lon="13.4535847"><ele>96.66666666666667</ele><time>2026-05-03T14:04:04.517Z</time></trkpt><trkpt lat="37.3194919" lon="13.4538629"><ele>97.0</ele><time>2026-05-03T14:04:05.517Z</time></trkpt><trkpt lat="37.319447" lon="13.4541435"><ele>99.5</ele><time>2026-05-03T14:04:06.517Z</time></trkpt><trkpt lat="37.3193918" lon="13.4544242"><ele>102.0</ele><time>2026-05-03T14:04:07.517Z</time></trkpt><trkpt lat="37.3193289" lon="13.4547062"><ele>103.0</ele><time>2026-05-03T14:04:08.517Z</time></trkpt><trkpt lat="37.3192651" lon="13.4549885"><ele>104.0</ele><time>2026-05-03T14:04:09.517Z</time></trkpt><trkpt lat="37.3192002" lon="13.4552719"><ele>105.5</ele><time>2026-05-03T14:04:10.517Z</time></trkpt><trkpt lat="37.319141" lon="13.455554"><ele>107.0</ele><time>2026-05-03T14:04:11.517Z</time></trkpt><trkpt lat="37.3190989" lon="13.4558413"><ele>107.0</ele><time>2026-05-03T14:04:12.517Z</time></trkpt><trkpt lat="37.3190691" lon="13.4561337"><ele>107.0</ele><time>2026-05-03T14:04:13.517Z</time></trkpt><trkpt lat="37.3190432" lon="13.4564309"><ele>107.5</ele><time>2026-05-03T14:04:14.516Z</time></trkpt><trkpt lat="37.3190136" lon="13.4567326"><ele>108.0</ele><time>2026-05-03T14:04:15.516Z</time></trkpt><trkpt lat="37.3189829" lon="13.457036"><ele>109.0</ele><time>2026-05-03T14:04:16.517Z</time></trkpt><trkpt lat="37.3189495" lon="13.4573322"><ele>110.0</ele><time>2026-05-03T14:04:17.517Z</time></trkpt><trkpt lat="37.3189169" lon="13.4576323"><ele>110.0</ele><time>2026-05-03T14:04:18.517Z</time></trkpt><trkpt lat="37.3188855" lon="13.4579188"><ele>110.0</ele><time>2026-05-03T14:04:19.516Z</time></trkpt><trkpt lat="37.3188583" lon="13.458187"><ele>110.0</ele><time>2026-05-03T14:04:20.516Z</time></trkpt><trkpt lat="37.3188319" lon="13.4584417"><ele>110.0</ele><time>2026-05-03T14:04:21.517Z</time></trkpt><trkpt lat="37.318806" lon="13.4586954"><ele>110.0</ele><time>2026-05-03T14:04:22.517Z</time></trkpt><trkpt lat="37.3187791" lon="13.4589423"><ele>110.0</ele><time>2026-05-03T14:04:23.516Z</time></trkpt><trkpt lat="37.3187574" lon="13.4591683"><ele>110.0</ele><time>2026-05-03T14:04:24.516Z</time></trkpt><trkpt lat="37.3187279" lon="13.4593841"><ele>110.0</ele><time>2026-05-03T14:04:25.516Z</time></trkpt><trkpt lat="37.318685" lon="13.4595891"><ele>110.0</ele><time>2026-05-03T14:04:26.516Z</time></trkpt><trkpt lat="37.3186226" lon="13.4597886"><ele>111.0</ele><time>2026-05-03T14:04:27.516Z</time></trkpt><trkpt lat="37.3185492" lon="13.4599827"><ele>112.0</ele><time>2026-05-03T14:04:28.517Z</time></trkpt><trkpt lat="37.3184571" lon="13.4601696"><ele>113.0</ele><time>2026-05-03T14:04:29.516Z</time></trkpt><trkpt lat="37.3183504" lon="13.4603442"><ele>114.0</ele><time>2026-05-03T14:04:30.517Z</time></trkpt><trkpt lat="37.318233" lon="13.4605156"><ele>115.0</ele><time>2026-05-03T14:04:31.516Z</time></trkpt><trkpt lat="37.3181111" lon="13.4606887"><ele>116.0</ele><time>2026-05-03T14:04:32.516Z</time></trkpt><trkpt lat="37.3179867" lon="13.4608675"><ele>116.66666666666666</ele><time>2026-05-03T14:04:33.517Z</time></trkpt><trkpt lat="37.317856" lon="13.4610466"><ele>117.33333333333334</ele><time>2026-05-03T14:04:34.517Z</time></trkpt><trkpt lat="37.317724" lon="13.4612333"><ele>118.0</ele><time>2026-05-03T14:04:35.517Z</time></trkpt><trkpt lat="37.3175934" lon="13.4614193"><ele>119.66666666666667</ele><time>2026-05-03T14:04:36.516Z</time></trkpt><trkpt lat="37.3174636" lon="13.4615993"><ele>121.33333333333334</ele><time>2026-05-03T14:04:37.516Z</time></trkpt><trkpt lat="37.3173325" lon="13.4617788"><ele>123.0</ele><time>2026-05-03T14:04:38.517Z</time></trkpt><trkpt lat="37.317203" lon="13.4619563"><ele>126.33333333333334</ele><time>2026-05-03T14:04:39.517Z</time></trkpt><trkpt lat="37.3170765" lon="13.4621369"><ele>129.66666666666669</ele><time>2026-05-03T14:04:40.517Z</time></trkpt><trkpt lat="37.31695" lon="13.4623189"><ele>133.0</ele><time>2026-05-03T14:04:41.517Z</time></trkpt><trkpt lat="37.316819" lon="13.4625024"><ele>133.0</ele><time>2026-05-03T14:04:42.517Z</time></trkpt><trkpt lat="37.3166903" lon="13.4626882"><ele>133.0</ele><time>2026-05-03T14:04:43.516Z</time></trkpt><trkpt lat="37.3165596" lon="13.4628732"><ele>133.0</ele><time>2026-05-03T14:04:44.517Z</time></trkpt><trkpt lat="37.3164283" lon="13.463058"><ele>133.0</ele><time>2026-05-03T14:04:45.517Z</time></trkpt><trkpt lat="37.3163016" lon="13.4632359"><ele>133.0</ele><time>2026-05-03T14:04:46.516Z</time></trkpt><trkpt lat="37.3161786" lon="13.4634135"><ele>133.0</ele><time>2026-05-03T14:04:47.517Z</time></trkpt><trkpt lat="37.3160559" lon="13.463592"><ele>133.0</ele><time>2026-05-03T14:04:48.516Z</time></trkpt><trkpt lat="37.3159317" lon="13.4637716"><ele>133.0</ele><time>2026-05-03T14:04:49.516Z</time></trkpt><trkpt lat="37.3158095" lon="13.4639493"><ele>133.0</ele><time>2026-05-03T14:04:50.517Z</time></trkpt><trkpt lat="37.3156876" lon="13.4641274"><ele>133.33333333333334</ele><time>2026-05-03T14:04:51.516Z</time></trkpt><trkpt lat="37.3155668" lon="13.4643034"><ele>133.66666666666666</ele><time>2026-05-03T14:04:52.516Z</time></trkpt><trkpt lat="37.3154467" lon="13.4644801"><ele>134.0</ele><time>2026-05-03T14:04:53.517Z</time></trkpt><trkpt lat="37.3153246" lon="13.4646556"><ele>136.0</ele><time>2026-05-03T14:04:54.516Z</time></trkpt><trkpt lat="37.3152028" lon="13.4648324"><ele>138.0</ele><time>2026-05-03T14:04:55.516Z</time></trkpt><trkpt lat="37.3150804" lon="13.465007"><ele>140.0</ele><time>2026-05-03T14:04:56.517Z</time></trkpt><trkpt lat="37.3149584" lon="13.4651875"><ele>140.0</ele><time>2026-05-03T14:04:57.516Z</time></trkpt><trkpt lat="37.3148383" lon="13.4653638"><ele>140.0</ele><time>2026-05-03T14:04:58.517Z</time></trkpt><trkpt lat="37.3147182" lon="13.4655323"><ele>140.0</ele><time>2026-05-03T14:04:59.517Z</time></trkpt><trkpt lat="37.3146048" lon="13.4656981"><ele>143.66666666666666</ele><time>2026-05-03T14:05:00.517Z</time></trkpt><trkpt lat="37.3144936" lon="13.4658605"><ele>147.33333333333334</ele><time>2026-05-03T14:05:01.516Z</time></trkpt><trkpt lat="37.3143893" lon="13.4660228"><ele>151.0</ele><time>2026-05-03T14:05:02.517Z</time></trkpt><trkpt lat="37.3142948" lon="13.4661903"><ele>150.66666666666669</ele><time>2026-05-03T14:05:03.516Z</time></trkpt><trkpt lat="37.3142172" lon="13.4663635"><ele>150.33333333333334</ele><time>2026-05-03T14:05:04.517Z</time></trkpt><trkpt lat="37.3141491" lon="13.4665427"><ele>150.0</ele><time>2026-05-03T14:05:05.517Z</time></trkpt><trkpt lat="37.3140926" lon="13.4667171"><ele>150.0</ele><time>2026-05-03T14:05:06.517Z</time></trkpt><trkpt lat="37.3140431" lon="13.4668859"><ele>150.0</ele><time>2026-05-03T14:05:07.517Z</time></trkpt><trkpt lat="37.3140001" lon="13.4670452"><ele>150.0</ele><time>2026-05-03T14:05:08.517Z</time></trkpt><trkpt lat="37.3139603" lon="13.4671902"><ele>150.0</ele><time>2026-05-03T14:05:09.517Z</time></trkpt><trkpt lat="37.3139254" lon="13.4673074"><ele>151.0</ele><time>2026-05-03T14:05:10.517Z</time></trkpt><trkpt lat="37.3138898" lon="13.4674005"><ele>152.0</ele><time>2026-05-03T14:05:11.517Z</time></trkpt><trkpt lat="37.3138397" lon="13.4674829"><ele>153.0</ele><time>2026-05-03T14:05:12.517Z</time></trkpt><trkpt lat="37.3137705" lon="13.4675485"><ele>154.0</ele><time>2026-05-03T14:05:13.516Z</time></trkpt><trkpt lat="37.3137112" lon="13.4675874"><ele>155.0</ele><time>2026-05-03T14:05:14.516Z</time></trkpt><trkpt lat="37.3136468" lon="13.4676151"><ele>156.0</ele><time>2026-05-03T14:05:15.517Z</time></trkpt><trkpt lat="37.3135777" lon="13.4676339"><ele>156.0</ele><time>2026-05-03T14:05:16.517Z</time></trkpt><trkpt lat="37.313502" lon="13.4676322"><ele>156.0</ele><time>2026-05-03T14:05:17.516Z</time></trkpt><trkpt lat="37.3134251" lon="13.4676184"><ele>156.0</ele><time>2026-05-03T14:05:18.516Z</time></trkpt><trkpt lat="37.3133397" lon="13.4675997"><ele>156.0</ele><time>2026-05-03T14:05:19.516Z</time></trkpt><trkpt lat="37.3132534" lon="13.4675739"><ele>156.0</ele><time>2026-05-03T14:05:20.51Z</time></trkpt><trkpt lat="37.313172" lon="13.4675417"><ele>156.0</ele><time>2026-05-03T14:05:21.517Z</time></trkpt><trkpt lat="37.3130959" lon="13.467513"><ele>156.33333333333334</ele><time>2026-05-03T14:05:22.517Z</time></trkpt><trkpt lat="37.3130244" lon="13.4674762"><ele>156.66666666666666</ele><time>2026-05-03T14:05:23.517Z</time></trkpt><trkpt lat="37.3129561" lon="13.4674286"><ele>157.0</ele><time>2026-05-03T14:05:24.516Z</time></trkpt><trkpt lat="37.3128885" lon="13.4673643"><ele>157.33333333333331</ele><time>2026-05-03T14:05:25.517Z</time></trkpt><trkpt lat="37.3128194" lon="13.4672917"><ele>157.66666666666666</ele><time>2026-05-03T14:05:26.516Z</time></trkpt><trkpt lat="37.3127458" lon="13.4672092"><ele>158.0</ele><time>2026-05-03T14:05:27.516Z</time></trkpt><trkpt lat="37.3126714" lon="13.4671258"><ele>158.33333333333331</ele><time>2026-05-03T14:05:28.516Z</time></trkpt><trkpt lat="37.3126025" lon="13.4670374"><ele>158.66666666666666</ele><time>2026-05-03T14:05:29.516Z</time></trkpt><trkpt lat="37.3125414" lon="13.466956"><ele>159.0</ele><time>2026-05-03T14:05:30.517Z</time></trkpt><trkpt lat="37.3124842" lon="13.466876"><ele>159.33333333333334</ele><time>2026-05-03T14:05:31.517Z</time></trkpt><trkpt lat="37.3124295" lon="13.4667979"><ele>159.66666666666669</ele><time>2026-05-03T14:05:32.516Z</time></trkpt><trkpt lat="37.3123792" lon="13.4667196"><ele>160.0</ele><time>2026-05-03T14:05:33.517Z</time></trkpt><trkpt lat="37.3123269" lon="13.466642"><ele>160.0</ele><time>2026-05-03T14:05:34.516Z</time></trkpt><trkpt lat="37.312282" lon="13.4665614"><ele>160.0</ele><time>2026-05-03T14:05:35.516Z</time></trkpt><trkpt lat="37.3122291" lon="13.4664574"><ele>160.0</ele><time>2026-05-03T14:05:37.517Z</time></trkpt><trkpt lat="37.3121963" lon="13.4663851"><ele>160.0</ele><time>2026-05-03T14:06:23.517Z</time></trkpt><trkpt lat="37.3121313" lon="13.466299"><ele>160.0</ele><time>2026-05-03T14:06:25.517Z</time></trkpt><trkpt lat="37.3120429" lon="13.466186"><ele>160.0</ele><time>2026-05-03T14:06:27.517Z</time></trkpt><trkpt lat="37.311991" lon="13.4661215"><ele>160.0</ele><time>2026-05-03T14:06:28.517Z</time></trkpt><trkpt lat="37.3119355" lon="13.466048"><ele>160.0</ele><time>2026-05-03T14:06:29.516Z</time></trkpt><trkpt lat="37.3118795" lon="13.4659727"><ele>160.0</ele><time>2026-05-03T14:06:30.516Z</time></trkpt><trkpt lat="37.3118154" lon="13.4658922"><ele>160.0</ele><time>2026-05-03T14:06:31.517Z</time></trkpt><trkpt lat="37.3117528" lon="13.4658086"><ele>160.0</ele><time>2026-05-03T14:06:32.517Z</time></trkpt><trkpt lat="37.3116892" lon="13.4657255"><ele>160.0</ele><time>2026-05-03T14:06:33.517Z</time></trkpt><trkpt lat="37.3116237" lon="13.4656326"><ele>160.0</ele><time>2026-05-03T14:06:34.517Z</time></trkpt><trkpt lat="37.3115579" lon="13.4655395"><ele>160.0</ele><time>2026-05-03T14:06:35.517Z</time></trkpt><trkpt lat="37.3114971" lon="13.4654451"><ele>160.0</ele><time>2026-05-03T14:06:36.517Z</time></trkpt><trkpt lat="37.311437" lon="13.4653451"><ele>160.0</ele><time>2026-05-03T14:06:37.516Z</time></trkpt><trkpt lat="37.3113802" lon="13.4652393"><ele>159.0</ele><time>2026-05-03T14:06:38.516Z</time></trkpt><trkpt lat="37.3113218" lon="13.4651311"><ele>158.0</ele><time>2026-05-03T14:06:39.516Z</time></trkpt><trkpt lat="37.3112681" lon="13.4650127"><ele>157.0</ele><time>2026-05-03T14:06:40.517Z</time></trkpt><trkpt lat="37.3112001" lon="13.4649019"><ele>156.0</ele><time>2026-05-03T14:06:41.517Z</time></trkpt><trkpt lat="37.3111301" lon="13.4647917"><ele>155.0</ele><time>2026-05-03T14:06:42.516Z</time></trkpt><trkpt lat="37.3110595" lon="13.4646908"><ele>155.0</ele><time>2026-05-03T14:06:43.517Z</time></trkpt><trkpt lat="37.3109834" lon="13.4645931"><ele>155.0</ele><time>2026-05-03T14:06:44.517Z</time></trkpt><trkpt lat="37.3109074" lon="13.4645071"><ele>155.0</ele><time>2026-05-03T14:06:45.517Z</time></trkpt><trkpt lat="37.3108382" lon="13.4644111"><ele>155.0</ele><time>2026-05-03T14:06:46.517Z</time></trkpt><trkpt lat="37.3107764" lon="13.4643308"><ele>155.0</ele><time>2026-05-03T14:06:47.517Z</time></trkpt><trkpt lat="37.3107185" lon="13.4642572"><ele>155.0</ele><time>2026-05-03T14:06:48.516Z</time></trkpt><trkpt lat="37.310661" lon="13.4641868"><ele>155.0</ele><time>2026-05-03T14:06:49.517Z</time></trkpt><trkpt lat="37.3106042" lon="13.4641139"><ele>155.0</ele><time>2026-05-03T14:06:50.517Z</time></trkpt><trkpt lat="37.3105468" lon="13.464045"><ele>155.0</ele><time>2026-05-03T14:06:51.516Z</time></trkpt><trkpt lat="37.3104924" lon="13.463976"><ele>155.0</ele><time>2026-05-03T14:06:52.517Z</time></trkpt><trkpt lat="37.3104456" lon="13.4639097"><ele>155.0</ele><time>2026-05-03T14:06:53.516Z</time></trkpt><trkpt lat="37.310407" lon="13.4638405"><ele>153.6</ele><time>2026-05-03T14:06:54.516Z</time></trkpt><trkpt lat="37.3103845" lon="13.4637662"><ele>152.2</ele><time>2026-05-03T14:06:55.517Z</time></trkpt><trkpt lat="37.3103939" lon="13.4636215"><ele>150.8</ele><time>2026-05-03T14:06:57.517Z</time></trkpt><trkpt lat="37.3104755" lon="13.463516"><ele>149.4</ele><time>2026-05-03T14:06:59.516Z</time></trkpt><trkpt lat="37.3105738" lon="13.4634487"><ele>148.0</ele><time>2026-05-03T14:07:01.516Z</time></trkpt><trkpt lat="37.3106104" lon="13.4633427"><ele>148.0</ele><time>2026-05-03T14:07:03.517Z</time></trkpt><trkpt lat="37.3105751" lon="13.4631815"><ele>148.0</ele><time>2026-05-03T14:07:05.516Z</time></trkpt><trkpt lat="37.310531" lon="13.4630878"><ele>148.0</ele><time>2026-05-03T14:07:06.517Z</time></trkpt><trkpt lat="37.3104686" lon="13.463008"><ele>148.0</ele><time>2026-05-03T14:07:07.517Z</time></trkpt><trkpt lat="37.3103888" lon="13.4629276"><ele>148.0</ele><time>2026-05-03T14:07:08.516Z</time></trkpt><trkpt lat="37.3102932" lon="13.4628486"><ele>145.75</ele><time>2026-05-03T14:07:09.516Z</time></trkpt><trkpt lat="37.3101902" lon="13.4627644"><ele>143.5</ele><time>2026-05-03T14:07:10.517Z</time></trkpt><trkpt lat="37.3100793" lon="13.4626808"><ele>141.25</ele><time>2026-05-03T14:07:11.516Z</time></trkpt><trkpt lat="37.3099717" lon="13.4625896"><ele>139.0</ele><time>2026-05-03T14:07:12.516Z</time></trkpt><trkpt lat="37.3098635" lon="13.462508"><ele>139.0</ele><time>2026-05-03T14:07:13.516Z</time></trkpt><trkpt lat="37.3097662" lon="13.4624199"><ele>139.0</ele><time>2026-05-03T14:07:14.517Z</time></trkpt><trkpt lat="37.309673" lon="13.4623401"><ele>139.0</ele><time>2026-05-03T14:07:15.516Z</time></trkpt><trkpt lat="37.3095861" lon="13.462264"><ele>139.0</ele><time>2026-05-03T14:07:16.517Z</time></trkpt><trkpt lat="37.3095116" lon="13.4622041"><ele>139.0</ele><time>2026-05-03T14:07:17.516Z</time></trkpt><trkpt lat="37.3094473" lon="13.4621484"><ele>139.33333333333334</ele><time>2026-05-03T14:07:18.516Z</time></trkpt><trkpt lat="37.3093894" lon="13.4620985"><ele>139.66666666666669</ele><time>2026-05-03T14:07:19.516Z</time></trkpt><trkpt lat="37.3093261" lon="13.4620572"><ele>140.0</ele><time>2026-05-03T14:07:20.517Z</time></trkpt><trkpt lat="37.3092565" lon="13.4620286"><ele>140.33333333333334</ele><time>2026-05-03T14:07:21.516Z</time></trkpt><trkpt lat="37.3091819" lon="13.4620046"><ele>140.66666666666666</ele><time>2026-05-03T14:07:22.516Z</time></trkpt><trkpt lat="37.3091152" lon="13.4619841"><ele>141.0</ele><time>2026-05-03T14:07:23.517Z</time></trkpt><trkpt lat="37.3090216" lon="13.4619219"><ele>141.0</ele><time>2026-05-03T14:07:25.517Z</time></trkpt><trkpt lat="37.3089423" lon="13.461818"><ele>141.0</ele><time>2026-05-03T14:07:27.516Z</time></trkpt><trkpt lat="37.3088988" lon="13.461749"><ele>141.0</ele><time>2026-05-03T14:07:28.516Z</time></trkpt><trkpt lat="37.3088511" lon="13.4616801"><ele>141.0</ele><time>2026-05-03T14:07:29.517Z</time></trkpt><trkpt lat="37.3087988" lon="13.4615813"><ele>141.0</ele><time>2026-05-03T14:07:30.517Z</time></trkpt><trkpt lat="37.3087571" lon="13.4614937"><ele>141.0</ele><time>2026-05-03T14:07:31.517Z</time></trkpt><trkpt lat="37.3087058" lon="13.461403"><ele>141.66666666666666</ele><time>2026-05-03T14:07:32.517Z</time></trkpt><trkpt lat="37.3086533" lon="13.4613064"><ele>142.33333333333334</ele><time>2026-05-03T14:07:33.516Z</time></trkpt><trkpt lat="37.3086078" lon="13.4612143"><ele>143.0</ele><time>2026-05-03T14:07:34.517Z</time></trkpt><trkpt lat="37.3085668" lon="13.4611429"><ele>143.66666666666669</ele><time>2026-05-03T14:07:35.516Z</time></trkpt><trkpt lat="37.3085029" lon="13.4610332"><ele>144.33333333333334</ele><time>2026-05-03T14:07:37.516Z</time></trkpt><trkpt lat="37.3084372" lon="13.4609923"><ele>145.0</ele><time>2026-05-03T14:07:40.516Z</time></trkpt><trkpt lat="37.3083808" lon="13.4610385"><ele>145.0</ele><time>2026-05-03T14:07:42.516Z</time></trkpt><trkpt lat="37.3082894" lon="13.4611429"><ele>145.0</ele><time>2026-05-03T14:07:44.517Z</time></trkpt><trkpt lat="37.3082347" lon="13.461202"><ele>145.0</ele><time>2026-05-03T14:07:45.516Z</time></trkpt><trkpt lat="37.3081829" lon="13.4612624"><ele>145.0</ele><time>2026-05-03T14:07:46.516Z</time></trkpt><trkpt lat="37.3081029" lon="13.4613498"><ele>145.0</ele><time>2026-05-03T14:07:48.517Z</time></trkpt><trkpt lat="37.3080284" lon="13.4614427"><ele>145.5</ele><time>2026-05-03T14:07:50.517Z</time></trkpt><trkpt lat="37.3079386" lon="13.4615347"><ele>146.0</ele><time>2026-05-03T14:07:52.517Z</time></trkpt><trkpt lat="37.3078927" lon="13.4615909"><ele>146.5</ele><time>2026-05-03T14:07:53.516Z</time></trkpt><trkpt lat="37.3078079" lon="13.4616918"><ele>147.0</ele><time>2026-05-03T14:07:55.516Z</time></trkpt><trkpt lat="37.3077561" lon="13.4617525"><ele>147.5</ele><time>2026-05-03T14:07:57.517Z</time></trkpt><trkpt lat="37.3076909" lon="13.4617702"><ele>148.0</ele><time>2026-05-03T14:07:59.517Z</time></trkpt><trkpt lat="37.3075942" lon="13.46179"><ele>148.0</ele><time>2026-05-03T14:08:01.516Z</time></trkpt><trkpt lat="37.3075088" lon="13.4618743"><ele>148.0</ele><time>2026-05-03T14:08:03.517Z</time></trkpt><trkpt lat="37.307457" lon="13.4619325"><ele>148.0</ele><time>2026-05-03T14:08:04.517Z</time></trkpt><trkpt lat="37.3073999" lon="13.4619956"><ele>148.0</ele><time>2026-05-03T14:08:05.516Z</time></trkpt><trkpt lat="37.3073334" lon="13.4620666"><ele>148.0</ele><time>2026-05-03T14:08:06.516Z</time></trkpt><trkpt lat="37.3072697" lon="13.4621415"><ele>148.0</ele><time>2026-05-03T14:08:07.517Z</time></trkpt><trkpt lat="37.3072055" lon="13.4622106"><ele>146.83333333333334</ele><time>2026-05-03T14:08:08.517Z</time></trkpt><trkpt lat="37.3071417" lon="13.4622724"><ele>145.66666666666669</ele><time>2026-05-03T14:08:09.516Z</time></trkpt><trkpt lat="37.3070873" lon="13.462323"><ele>144.5</ele><time>2026-05-03T14:08:10.517Z</time></trkpt><trkpt lat="37.3070252" lon="13.462356"><ele>143.33333333333334</ele><time>2026-05-03T14:08:11.516Z</time></trkpt><trkpt lat="37.3069179" lon="13.4624432"><ele>142.16666666666666</ele><time>2026-05-03T14:08:13.516Z</time></trkpt><trkpt lat="37.3068762" lon="13.4625228"><ele>141.0</ele><time>2026-05-03T14:08:14.517Z</time></trkpt><trkpt lat="37.3068495" lon="13.4626208"><ele>141.0</ele><time>2026-05-03T14:08:15.517Z</time></trkpt><trkpt lat="37.3068136" lon="13.4627347"><ele>141.0</ele><time>2026-05-03T14:08:16.517Z</time></trkpt><trkpt lat="37.3067729" lon="13.4628558"><ele>141.0</ele><time>2026-05-03T14:08:17.517Z</time></trkpt><trkpt lat="37.3067311" lon="13.4629879"><ele>141.0</ele><time>2026-05-03T14:08:18.516Z</time></trkpt><trkpt lat="37.3066859" lon="13.4631264"><ele>141.0</ele><time>2026-05-03T14:08:19.516Z</time></trkpt><trkpt lat="37.306648" lon="13.4632599"><ele>141.4</ele><time>2026-05-03T14:08:20.516Z</time></trkpt><trkpt lat="37.3066135" lon="13.4633984"><ele>141.8</ele><time>2026-05-03T14:08:21.516Z</time></trkpt><trkpt lat="37.3065727" lon="13.4635257"><ele>142.20000000000002</ele><time>2026-05-03T14:08:22.517Z</time></trkpt><trkpt lat="37.3065322" lon="13.4636304"><ele>142.6</ele><time>2026-05-03T14:08:23.517Z</time></trkpt><trkpt lat="37.3064934" lon="13.4637115"><ele>143.0</ele><time>2026-05-03T14:08:24.516Z</time></trkpt><trkpt lat="37.306413" lon="13.4637967"><ele>143.0</ele><time>2026-05-03T14:08:26.516Z</time></trkpt><trkpt lat="37.3063308" lon="13.4637446"><ele>143.0</ele><time>2026-05-03T14:08:29.516Z</time></trkpt><trkpt lat="37.306329" lon="13.4635807"><ele>143.0</ele><time>2026-05-03T14:08:31.516Z</time></trkpt><trkpt lat="37.3063517" lon="13.4634767"><ele>143.0</ele><time>2026-05-03T14:08:32.517Z</time></trkpt><trkpt lat="37.3063843" lon="13.4633616"><ele>143.0</ele><time>2026-05-03T14:08:33.516Z</time></trkpt><trkpt lat="37.3064252" lon="13.4632127"><ele>143.0</ele><time>2026-05-03T14:08:34.517Z</time></trkpt><trkpt lat="37.306456" lon="13.4630929"><ele>143.0</ele><time>2026-05-03T14:08:35.517Z</time></trkpt><trkpt lat="37.3064743" lon="13.4629813"><ele>143.0</ele><time>2026-05-03T14:08:36.517Z</time></trkpt><trkpt lat="37.3064804" lon="13.4628744"><ele>143.0</ele><time>2026-05-03T14:08:37.516Z</time></trkpt><trkpt lat="37.306467" lon="13.4627643"><ele>143.0</ele><time>2026-05-03T14:08:38.516Z</time></trkpt><trkpt lat="37.3064334" lon="13.4626546"><ele>138.8</ele><time>2026-05-03T14:08:39.516Z</time></trkpt><trkpt lat="37.3063804" lon="13.4625484"><ele>134.60000000000002</ele><time>2026-05-03T14:08:40.517Z</time></trkpt><trkpt lat="37.306315" lon="13.4624473"><ele>130.39999999999998</ele><time>2026-05-03T14:08:41.517Z</time></trkpt><trkpt lat="37.3062489" lon="13.4623515"><ele>126.19999999999999</ele><time>2026-05-03T14:08:42.516Z</time></trkpt><trkpt lat="37.3061888" lon="13.4622565"><ele>122.0</ele><time>2026-05-03T14:08:43.517Z</time></trkpt><trkpt lat="37.3061443" lon="13.4621655"><ele>121.57142857142856</ele><time>2026-05-03T14:08:44.517Z</time></trkpt><trkpt lat="37.3061182" lon="13.4620717"><ele>121.14285714285714</ele><time>2026-05-03T14:08:45.517Z</time></trkpt><trkpt lat="37.3061139" lon="13.461977"><ele>120.71428571428571</ele><time>2026-05-03T14:08:46.516Z</time></trkpt><trkpt lat="37.3061355" lon="13.4618815"><ele>120.28571428571428</ele><time>2026-05-03T14:08:47.517Z</time></trkpt><trkpt lat="37.3061667" lon="13.4617889"><ele>119.85714285714286</ele><time>2026-05-03T14:08:48.516Z</time></trkpt><trkpt lat="37.3061841" lon="13.4617045"><ele>119.42857142857143</ele><time>2026-05-03T14:08:49.516Z</time></trkpt><trkpt lat="37.3061818" lon="13.4616232"><ele>119.0</ele><time>2026-05-03T14:08:50.516Z</time></trkpt><trkpt lat="37.3061147" lon="13.4615247"><ele>119.0</ele><time>2026-05-03T14:08:52.516Z</time></trkpt><trkpt lat="37.3059896" lon="13.4615107"><ele>119.0</ele><time>2026-05-03T14:08:54.517Z</time></trkpt><trkpt lat="37.305914" lon="13.4615382"><ele>119.0</ele><time>2026-05-03T14:08:55.517Z</time></trkpt><trkpt lat="37.3058244" lon="13.461576"><ele>119.0</ele><time>2026-05-03T14:08:56.517Z</time></trkpt><trkpt lat="37.3057306" lon="13.4616144"><ele>119.0</ele><time>2026-05-03T14:08:57.517Z</time></trkpt><trkpt lat="37.3056397" lon="13.4616522"><ele>115.83333333333333</ele><time>2026-05-03T14:08:58.517Z</time></trkpt><trkpt lat="37.3055495" lon="13.4616925"><ele>112.66666666666666</ele><time>2026-05-03T14:08:59.517Z</time></trkpt><trkpt lat="37.3054677" lon="13.4617402"><ele>109.5</ele><time>2026-05-03T14:09:00.517Z</time></trkpt><trkpt lat="37.3053975" lon="13.4617927"><ele>106.33333333333334</ele><time>2026-05-03T14:09:01.516Z</time></trkpt><trkpt lat="37.3053465" lon="13.4618539"><ele>103.16666666666667</ele><time>2026-05-03T14:09:02.516Z</time></trkpt><trkpt lat="37.3053184" lon="13.4619309"><ele>100.0</ele><time>2026-05-03T14:09:03.516Z</time></trkpt><trkpt lat="37.3053167" lon="13.4620232"><ele>100.00000000000001</ele><time>2026-05-03T14:09:04.516Z</time></trkpt><trkpt lat="37.3053366" lon="13.462115"><ele>100.0</ele><time>2026-05-03T14:09:05.517Z</time></trkpt><trkpt lat="37.3053761" lon="13.4622061"><ele>100.0</ele><time>2026-05-03T14:09:06.517Z</time></trkpt><trkpt lat="37.3054214" lon="13.462299"><ele>100.0</ele><time>2026-05-03T14:09:07.517Z</time></trkpt><trkpt lat="37.3054598" lon="13.4623887"><ele>100.00000000000001</ele><time>2026-05-03T14:09:08.517Z</time></trkpt><trkpt lat="37.305479" lon="13.4625276"><ele>100.0</ele><time>2026-05-03T14:09:10.517Z</time></trkpt><trkpt lat="37.3054327" lon="13.4626171"><ele>100.0</ele><time>2026-05-03T14:09:12.516Z</time></trkpt><trkpt lat="37.3053324" lon="13.4626216"><ele>100.0</ele><time>2026-05-03T14:09:14.517Z</time></trkpt><trkpt lat="37.3052689" lon="13.4625826"><ele>100.0</ele><time>2026-05-03T14:09:15.517Z</time></trkpt><trkpt lat="37.305199" lon="13.4625107"><ele>100.0</ele><time>2026-05-03T14:09:16.516Z</time></trkpt><trkpt lat="37.3051374" lon="13.4624175"><ele>100.0</ele><time>2026-05-03T14:09:17.517Z</time></trkpt><trkpt lat="37.3050813" lon="13.4623129"><ele>100.0</ele><time>2026-05-03T14:09:18.517Z</time></trkpt><trkpt lat="37.3050363" lon="13.4622095"><ele>100.0</ele><time>2026-05-03T14:09:19.517Z</time></trkpt><trkpt lat="37.3050007" lon="13.4620997"><ele>100.0</ele><time>2026-05-03T14:09:20.517Z</time></trkpt><trkpt lat="37.3049787" lon="13.4619827"><ele>100.0</ele><time>2026-05-03T14:09:21.517Z</time></trkpt><trkpt lat="37.3049717" lon="13.4618571"><ele>100.0</ele><time>2026-05-03T14:09:22.516Z</time></trkpt><trkpt lat="37.3049712" lon="13.4617339"><ele>100.0</ele><time>2026-05-03T14:09:23.516Z</time></trkpt><trkpt lat="37.3049896" lon="13.4616263"><ele>100.0</ele><time>2026-05-03T14:09:24.517Z</time></trkpt><trkpt lat="37.3050145" lon="13.4615199"><ele>100.0</ele><time>2026-05-03T14:09:25.516Z</time></trkpt><trkpt lat="37.3050546" lon="13.4614152"><ele>100.0</ele><time>2026-05-03T14:09:26.517Z</time></trkpt><trkpt lat="37.3051129" lon="13.4613279"><ele>100.0</ele><time>2026-05-03T14:09:27.517Z</time></trkpt><trkpt lat="37.3051791" lon="13.4612273"><ele>98.8</ele><time>2026-05-03T14:09:28.517Z</time></trkpt><trkpt lat="37.3052398" lon="13.4611292"><ele>97.6</ele><time>2026-05-03T14:09:29.517Z</time></trkpt><trkpt lat="37.3052959" lon="13.4610355"><ele>96.4</ele><time>2026-05-03T14:09:30.516Z</time></trkpt><trkpt lat="37.3053359" lon="13.4609456"><ele>95.2</ele><time>2026-05-03T14:09:31.517Z</time></trkpt><trkpt lat="37.3053566" lon="13.4608611"><ele>94.0</ele><time>2026-05-03T14:09:32.517Z</time></trkpt><trkpt lat="37.3053063" lon="13.4607329"><ele>94.0</ele><time>2026-05-03T14:09:34.517Z</time></trkpt><trkpt lat="37.3051873" lon="13.4607197"><ele>94.0</ele><time>2026-05-03T14:09:36.516Z</time></trkpt><trkpt lat="37.3051296" lon="13.4607551"><ele>94.0</ele><time>2026-05-03T14:09:37.516Z</time></trkpt><trkpt lat="37.3050674" lon="13.4608235"><ele>94.0</ele><time>2026-05-03T14:09:38.516Z</time></trkpt><trkpt lat="37.305001" lon="13.4609151"><ele>94.0</ele><time>2026-05-03T14:09:39.517Z</time></trkpt><trkpt lat="37.3049282" lon="13.4610029"><ele>94.0</ele><time>2026-05-03T14:09:40.517Z</time></trkpt><trkpt lat="37.3048532" lon="13.4610731"><ele>94.0</ele><time>2026-05-03T14:09:41.517Z</time></trkpt><trkpt lat="37.3047733" lon="13.4611345"><ele>94.0</ele><time>2026-05-03T14:09:42.516Z</time></trkpt><trkpt lat="37.3046922" lon="13.4611854"><ele>94.0</ele><time>2026-05-03T14:09:43.517Z</time></trkpt><trkpt lat="37.3046086" lon="13.4612352"><ele>94.0</ele><time>2026-05-03T14:09:44.517Z</time></trkpt><trkpt lat="37.3045299" lon="13.461294"><ele>92.33333333333333</ele><time>2026-05-03T14:09:45.517Z</time></trkpt><trkpt lat="37.3044637" lon="13.461363"><ele>90.66666666666666</ele><time>2026-05-03T14:09:46.517Z</time></trkpt><trkpt lat="37.3044219" lon="13.4614448"><ele>89.0</ele><time>2026-05-03T14:09:47.516Z</time></trkpt><trkpt lat="37.3043892" lon="13.4615258"><ele>87.33333333333333</ele><time>2026-05-03T14:09:48.517Z</time></trkpt><trkpt lat="37.3043587" lon="13.4615952"><ele>85.66666666666667</ele><time>2026-05-03T14:09:49.517Z</time></trkpt><trkpt lat="37.3042594" lon="13.4616688"><ele>84.0</ele><time>2026-05-03T14:09:51.517Z</time></trkpt><trkpt lat="37.3041878" lon="13.4616756"><ele>84.0</ele><time>2026-05-03T14:09:52.516Z</time></trkpt><trkpt lat="37.3040979" lon="13.4616565"><ele>84.0</ele><time>2026-05-03T14:09:53.517Z</time></trkpt><trkpt lat="37.3039938" lon="13.4616341"><ele>84.0</ele><time>2026-05-03T14:09:54.517Z</time></trkpt><trkpt lat="37.3038886" lon="13.4616189"><ele>84.0</ele><time>2026-05-03T14:09:55.516Z</time></trkpt><trkpt lat="37.3037865" lon="13.4616107"><ele>84.0</ele><time>2026-05-03T14:09:56.517Z</time></trkpt><trkpt lat="37.3036892" lon="13.4616101"><ele>82.83333333333333</ele><time>2026-05-03T14:09:57.517Z</time></trkpt><trkpt lat="37.3035978" lon="13.4616115"><ele>81.66666666666667</ele><time>2026-05-03T14:09:58.517Z</time></trkpt><trkpt lat="37.3035077" lon="13.461603"><ele>80.5</ele><time>2026-05-03T14:09:59.517Z</time></trkpt><trkpt lat="37.3034444" lon="13.4615912"><ele>79.33333333333334</ele><time>2026-05-03T14:10:00.517Z</time></trkpt><trkpt lat="37.3033619" lon="13.4615704"><ele>78.16666666666667</ele><time>2026-05-03T14:10:01.517Z</time></trkpt><trkpt lat="37.3032804" lon="13.461547"><ele>77.0</ele><time>2026-05-03T14:10:02.517Z</time></trkpt><trkpt lat="37.3032002" lon="13.4615234"><ele>77.0</ele><time>2026-05-03T14:10:03.516Z</time></trkpt><trkpt lat="37.3031183" lon="13.4614986"><ele>77.0</ele><time>2026-05-03T14:10:04.516Z</time></trkpt><trkpt lat="37.3030407" lon="13.4614736"><ele>77.0</ele><time>2026-05-03T14:10:05.516Z</time></trkpt><trkpt lat="37.302964" lon="13.4614352"><ele>77.0</ele><time>2026-05-03T14:10:06.517Z</time></trkpt><trkpt lat="37.3028878" lon="13.4613812"><ele>77.0</ele><time>2026-05-03T14:10:07.517Z</time></trkpt><trkpt lat="37.3028157" lon="13.4613302"><ele>77.0</ele><time>2026-05-03T14:10:08.517Z</time></trkpt><trkpt lat="37.302743" lon="13.461287"><ele>75.2</ele><time>2026-05-03T14:10:09.516Z</time></trkpt><trkpt lat="37.3026597" lon="13.4612333"><ele>73.4</ele><time>2026-05-03T14:10:10.517Z</time></trkpt><trkpt lat="37.3025804" lon="13.4611495"><ele>71.6</ele><time>2026-05-03T14:10:11.517Z</time></trkpt><trkpt lat="37.3024916" lon="13.4610501"><ele>69.8</ele><time>2026-05-03T14:10:12.516Z</time></trkpt><trkpt lat="37.3023879" lon="13.4609599"><ele>68.0</ele><time>2026-05-03T14:10:13.517Z</time></trkpt><trkpt lat="37.3022694" lon="13.4608601"><ele>67.66666666666667</ele><time>2026-05-03T14:10:14.516Z</time></trkpt><trkpt lat="37.3021291" lon="13.4607355"><ele>67.33333333333333</ele><time>2026-05-03T14:10:15.516Z</time></trkpt><trkpt lat="37.3019562" lon="13.4605711"><ele>67.0</ele><time>2026-05-03T14:10:16.516Z</time></trkpt><trkpt lat="37.3018134" lon="13.4604263"><ele>65.66666666666666</ele><time>2026-05-03T14:10:17.517Z</time></trkpt><trkpt lat="37.3016824" lon="13.4602854"><ele>64.33333333333333</ele><time>2026-05-03T14:10:18.516Z</time></trkpt><trkpt lat="37.3015534" lon="13.460158"><ele>63.0</ele><time>2026-05-03T14:10:19.517Z</time></trkpt><trkpt lat="37.3014245" lon="13.4600335"><ele>62.33333333333333</ele><time>2026-05-03T14:10:20.517Z</time></trkpt><trkpt lat="37.3012969" lon="13.4599169"><ele>61.666666666666664</ele><time>2026-05-03T14:10:21.517Z</time></trkpt><trkpt lat="37.3011666" lon="13.4598107"><ele>61.0</ele><time>2026-05-03T14:10:22.517Z</time></trkpt><trkpt lat="37.3010406" lon="13.4597098"><ele>59.666666666666664</ele><time>2026-05-03T14:10:23.517Z</time></trkpt><trkpt lat="37.3009185" lon="13.4596037"><ele>58.33333333333333</ele><time>2026-05-03T14:10:24.517Z</time></trkpt><trkpt lat="37.3007976" lon="13.4594952"><ele>57.0</ele><time>2026-05-03T14:10:25.517Z</time></trkpt><trkpt lat="37.3006732" lon="13.4593833"><ele>56.66666666666667</ele><time>2026-05-03T14:10:26.517Z</time></trkpt><trkpt lat="37.3005411" lon="13.4592746"><ele>56.333333333333336</ele><time>2026-05-03T14:10:27.516Z</time></trkpt><trkpt lat="37.3004121" lon="13.4591616"><ele>56.0</ele><time>2026-05-03T14:10:28.516Z</time></trkpt><trkpt lat="37.3002862" lon="13.4590694"><ele>56.0</ele><time>2026-05-03T14:10:29.516Z</time></trkpt><trkpt lat="37.3001666" lon="13.4589933"><ele>56.0</ele><time>2026-05-03T14:10:30.517Z</time></trkpt><trkpt lat="37.3000511" lon="13.4589334"><ele>56.0</ele><time>2026-05-03T14:10:31.516Z</time></trkpt><trkpt lat="37.2999312" lon="13.4588914"><ele>56.0</ele><time>2026-05-03T14:10:32.517Z</time></trkpt><trkpt lat="37.2998156" lon="13.4588572"><ele>56.0</ele><time>2026-05-03T14:10:33.517Z</time></trkpt><trkpt lat="37.2997146" lon="13.4588292"><ele>55.99999999999999</ele><time>2026-05-03T14:10:34.517Z</time></trkpt><trkpt lat="37.2996294" lon="13.4588006"><ele>55.99999999999999</ele><time>2026-05-03T14:10:35.516Z</time></trkpt><trkpt lat="37.2995668" lon="13.4587674"><ele>56.0</ele><time>2026-05-03T14:10:36.517Z</time></trkpt><trkpt lat="37.2995022" lon="13.4586811"><ele>56.0</ele><time>2026-05-03T14:10:38.517Z</time></trkpt><trkpt lat="37.2994913" lon="13.4585317"><ele>56.0</ele><time>2026-05-03T14:10:40.517Z</time></trkpt><trkpt lat="37.299508" lon="13.4584146"><ele>55.99999999999999</ele><time>2026-05-03T14:10:41.517Z</time></trkpt><trkpt lat="37.2995308" lon="13.4582807"><ele>55.99999999999999</ele><time>2026-05-03T14:10:42.516Z</time></trkpt><trkpt lat="37.2995456" lon="13.4581453"><ele>56.0</ele><time>2026-05-03T14:10:43.516Z</time></trkpt><trkpt lat="37.2995481" lon="13.4580061"><ele>56.0</ele><time>2026-05-03T14:10:44.517Z</time></trkpt><trkpt lat="37.2995455" lon="13.457876"><ele>56.0</ele><time>2026-05-03T14:10:45.517Z</time></trkpt><trkpt lat="37.299548" lon="13.457749"><ele>55.99999999999999</ele><time>2026-05-03T14:10:46.516Z</time></trkpt><trkpt lat="37.2995616" lon="13.457628"><ele>55.99999999999999</ele><time>2026-05-03T14:10:47.517Z</time></trkpt><trkpt lat="37.2996018" lon="13.4575058"><ele>56.0</ele><time>2026-05-03T14:10:48.517Z</time></trkpt><trkpt lat="37.2996508" lon="13.4573755"><ele>56.0</ele><time>2026-05-03T14:10:49.516Z</time></trkpt><trkpt lat="37.2997055" lon="13.4572429"><ele>55.199999999999996</ele><time>2026-05-03T14:10:50.517Z</time></trkpt><trkpt lat="37.2997481" lon="13.4571108"><ele>54.39999999999999</ele><time>2026-05-03T14:10:51.517Z</time></trkpt><trkpt lat="37.299775" lon="13.4569917"><ele>53.6</ele><time>2026-05-03T14:10:52.516Z</time></trkpt><trkpt lat="37.2997777" lon="13.4568722"><ele>52.8</ele><time>2026-05-03T14:10:53.517Z</time></trkpt><trkpt lat="37.2997686" lon="13.4567466"><ele>52.0</ele><time>2026-05-03T14:10:54.516Z</time></trkpt><trkpt lat="37.2997264" lon="13.4566557"><ele>52.0</ele><time>2026-05-03T14:10:55.517Z</time></trkpt><trkpt lat="37.299674" lon="13.4565565"><ele>52.0</ele><time>2026-05-03T14:10:56.517Z</time></trkpt><trkpt lat="37.2996103" lon="13.4564574"><ele>52.0</ele><time>2026-05-03T14:10:57.516Z</time></trkpt><trkpt lat="37.2995362" lon="13.4563684"><ele>52.0</ele><time>2026-05-03T14:10:58.516Z</time></trkpt><trkpt lat="37.2994588" lon="13.4562701"><ele>52.0</ele><time>2026-05-03T14:10:59.517Z</time></trkpt><trkpt lat="37.2993923" lon="13.4561613"><ele>49.0</ele><time>2026-05-03T14:11:00.516Z</time></trkpt><trkpt lat="37.2992938" lon="13.4561036"><ele>46.0</ele><time>2026-05-03T14:11:01.517Z</time></trkpt><trkpt lat="37.2992032" lon="13.4560345"><ele>43.0</ele><time>2026-05-03T14:11:02.517Z</time></trkpt><trkpt lat="37.2991301" lon="13.455938"><ele>40.0</ele><time>2026-05-03T14:11:03.517Z</time></trkpt><trkpt lat="37.2990693" lon="13.4558102"><ele>37.0</ele><time>2026-05-03T14:11:04.516Z</time></trkpt><trkpt lat="37.2990116" lon="13.4556438"><ele>37.0</ele><time>2026-05-03T14:11:05.516Z</time></trkpt><trkpt lat="37.2989841" lon="13.4554814"><ele>37.0</ele><time>2026-05-03T14:11:06.517Z</time></trkpt><trkpt lat="37.2989753" lon="13.455333"><ele>37.0</ele><time>2026-05-03T14:11:07.517Z</time></trkpt><trkpt lat="37.2989956" lon="13.4552454"><ele>37.0</ele><time>2026-05-03T14:11:08.516Z</time></trkpt><trkpt lat="37.2990263" lon="13.4551711"><ele>37.0</ele><time>2026-05-03T14:11:09.517Z</time></trkpt><trkpt lat="37.2990391" lon="13.4549986"><ele>36.0</ele><time>2026-05-03T14:11:10.517Z</time></trkpt><trkpt lat="37.2990447" lon="13.4548549"><ele>35.0</ele><time>2026-05-03T14:11:11.517Z</time></trkpt><trkpt lat="37.2990335" lon="13.4547424"><ele>34.0</ele><time>2026-05-03T14:11:12.517Z</time></trkpt><trkpt lat="37.299005" lon="13.4546479"><ele>33.0</ele><time>2026-05-03T14:11:13.517Z</time></trkpt><trkpt lat="37.2989556" lon="13.4545814"><ele>32.0</ele><time>2026-05-03T14:11:14.516Z</time></trkpt><trkpt lat="37.2988922" lon="13.454527"><ele>31.0</ele><time>2026-05-03T14:11:15.517Z</time></trkpt><trkpt lat="37.298818" lon="13.4544971"><ele>30.833333333333336</ele><time>2026-05-03T14:11:16.517Z</time></trkpt><trkpt lat="37.2987508" lon="13.4544761"><ele>30.666666666666668</ele><time>2026-05-03T14:11:17.517Z</time></trkpt><trkpt lat="37.2986828" lon="13.4544716"><ele>30.5</ele><time>2026-05-03T14:11:18.517Z</time></trkpt><trkpt lat="37.2985834" lon="13.4545262"><ele>30.333333333333336</ele><time>2026-05-03T14:11:20.517Z</time></trkpt><trkpt lat="37.2985386" lon="13.4545916"><ele>30.166666666666668</ele><time>2026-05-03T14:11:21.516Z</time></trkpt><trkpt lat="37.298488" lon="13.4546802"><ele>30.0</ele><time>2026-05-03T14:11:22.517Z</time></trkpt><trkpt lat="37.2984284" lon="13.4547738"><ele>30.0</ele><time>2026-05-03T14:11:23.517Z</time></trkpt><trkpt lat="37.2983599" lon="13.4548644"><ele>30.0</ele><time>2026-05-03T14:11:24.516Z</time></trkpt><trkpt lat="37.298283" lon="13.4549549"><ele>30.0</ele><time>2026-05-03T14:11:25.516Z</time></trkpt><trkpt lat="37.2982073" lon="13.4550471"><ele>30.0</ele><time>2026-05-03T14:11:26.516Z</time></trkpt><trkpt lat="37.2981248" lon="13.4551376"><ele>30.0</ele><time>2026-05-03T14:11:27.517Z</time></trkpt><trkpt lat="37.2980407" lon="13.4552179"><ele>30.8</ele><time>2026-05-03T14:11:28.516Z</time></trkpt><trkpt lat="37.2979532" lon="13.4552848"><ele>31.6</ele><time>2026-05-03T14:11:29.516Z</time></trkpt><trkpt lat="37.2978573" lon="13.455353"><ele>32.4</ele><time>2026-05-03T14:11:30.517Z</time></trkpt><trkpt lat="37.2977626" lon="13.4554071"><ele>33.2</ele><time>2026-05-03T14:11:31.517Z</time></trkpt><trkpt lat="37.2976613" lon="13.455464"><ele>34.0</ele><time>2026-05-03T14:11:32.517Z</time></trkpt><trkpt lat="37.2975583" lon="13.4555144"><ele>30.599999999999998</ele><time>2026-05-03T14:11:33.517Z</time></trkpt><trkpt lat="37.2974523" lon="13.4555514"><ele>27.2</ele><time>2026-05-03T14:11:34.517Z</time></trkpt><trkpt lat="37.2973518" lon="13.4555957"><ele>23.799999999999997</ele><time>2026-05-03T14:11:35.516Z</time></trkpt><trkpt lat="37.2972629" lon="13.4556476"><ele>20.4</ele><time>2026-05-03T14:11:36.517Z</time></trkpt><trkpt lat="37.2971913" lon="13.455696"><ele>17.0</ele><time>2026-05-03T14:11:37.516Z</time></trkpt><trkpt lat="37.2971283" lon="13.4557445"><ele>15.8</ele><time>2026-05-03T14:11:38.516Z</time></trkpt><trkpt lat="37.2970748" lon="13.4557952"><ele>14.6</ele><time>2026-05-03T14:11:39.517Z</time></trkpt><trkpt lat="37.2969757" lon="13.4558516"><ele>13.4</ele><time>2026-05-03T14:11:41.517Z</time></trkpt><trkpt lat="37.2968506" lon="13.4558245"><ele>12.200000000000001</ele><time>2026-05-03T14:11:43.517Z</time></trkpt><trkpt lat="37.2967791" lon="13.4557911"><ele>11.0</ele><time>2026-05-03T14:11:44.516Z</time></trkpt><trkpt lat="37.2967031" lon="13.4557567"><ele>11.0</ele><time>2026-05-03T14:11:45.516Z</time></trkpt><trkpt lat="37.2966266" lon="13.455714"><ele>11.0</ele><time>2026-05-03T14:11:46.516Z</time></trkpt><trkpt lat="37.296559" lon="13.455665"><ele>11.0</ele><time>2026-05-03T14:11:47.517Z</time></trkpt><trkpt lat="37.2964921" lon="13.4556143"><ele>11.0</ele><time>2026-05-03T14:11:48.517Z</time></trkpt><trkpt lat="37.2964318" lon="13.4555682"><ele>11.0</ele><time>2026-05-03T14:11:49.516Z</time></trkpt><trkpt lat="37.2963359" lon="13.4555083"><ele>11.0</ele><time>2026-05-03T14:11:51.517Z</time></trkpt><trkpt lat="37.296254" lon="13.4554081"><ele>11.333333333333332</ele><time>2026-05-03T14:11:53.516Z</time></trkpt><trkpt lat="37.2962057" lon="13.4553367"><ele>11.666666666666666</ele><time>2026-05-03T14:11:54.516Z</time></trkpt><trkpt lat="37.2961576" lon="13.4552541"><ele>12.0</ele><time>2026-05-03T14:11:55.517Z</time></trkpt><trkpt lat="37.2961036" lon="13.4551701"><ele>12.333333333333332</ele><time>2026-05-03T14:11:56.517Z</time></trkpt><trkpt lat="37.2960456" lon="13.4550773"><ele>12.666666666666666</ele><time>2026-05-03T14:11:57.517Z</time></trkpt><trkpt lat="37.2959858" lon="13.4549895"><ele>13.0</ele><time>2026-05-03T14:11:58.517Z</time></trkpt><trkpt lat="37.2959244" lon="13.4549057"><ele>12.999999999999998</ele><time>2026-05-03T14:11:59.517Z</time></trkpt><trkpt lat="37.2958694" lon="13.4548296"><ele>13.0</ele><time>2026-05-03T14:12:00.516Z</time></trkpt><trkpt lat="37.2958191" lon="13.4547543"><ele>13.0</ele><time>2026-05-03T14:12:01.516Z</time></trkpt><trkpt lat="37.2957765" lon="13.454681"><ele>13.0</ele><time>2026-05-03T14:12:02.515Z</time></trkpt><trkpt lat="37.2957294" lon="13.4546211"><ele>12.999999999999998</ele><time>2026-05-03T14:12:03.516Z</time></trkpt><trkpt lat="37.2956477" lon="13.4545132"><ele>13.0</ele><time>2026-05-03T14:12:05.515Z</time></trkpt><trkpt lat="37.2955816" lon="13.4544524"><ele>13.0</ele><time>2026-05-03T14:12:07.515Z</time></trkpt><trkpt lat="37.2955176" lon="13.4544927"><ele>13.0</ele><time>2026-05-03T14:12:10.515Z</time></trkpt><trkpt lat="37.295553" lon="13.4545878"><ele>13.0</ele><time>2026-05-03T14:12:13.515Z</time></trkpt><trkpt lat="37.2956205" lon="13.4546822"><ele>13.0</ele><time>2026-05-03T14:12:15.516Z</time></trkpt><trkpt lat="37.2956916" lon="13.4547906"><ele>13.0</ele><time>2026-05-03T14:12:17.516Z</time></trkpt><trkpt lat="37.2957501" lon="13.4548828"><ele>12.999999999999998</ele><time>2026-05-03T14:12:19.516Z</time></trkpt><trkpt lat="37.2958013" lon="13.4549771"><ele>13.0</ele><time>2026-05-03T14:12:21.516Z</time></trkpt><trkpt lat="37.2958726" lon="13.4550765"><ele>13.0</ele><time>2026-05-03T14:12:23.516Z</time></trkpt><trkpt lat="37.2959198" lon="13.4551364"><ele>13.0</ele><time>2026-05-03T14:12:24.516Z</time></trkpt><trkpt lat="37.2959727" lon="13.4551958"><ele>12.999999999999998</ele><time>2026-05-03T14:12:25.516Z</time></trkpt><trkpt lat="37.2960252" lon="13.4552532"><ele>13.0</ele><time>2026-05-03T14:12:26.516Z</time></trkpt><trkpt lat="37.2960856" lon="13.4553012"><ele>13.0</ele><time>2026-05-03T14:12:27.516Z</time></trkpt><trkpt lat="37.2961786" lon="13.4553755"><ele>13.0</ele><time>2026-05-03T14:12:29.515Z</time></trkpt><trkpt lat="37.296218" lon="13.4554728"><ele>13.0</ele><time>2026-05-03T14:12:31.516Z</time></trkpt><trkpt lat="37.296202" lon="13.4555702"><ele>13.0</ele><time>2026-05-03T14:12:33.516Z</time></trkpt><trkpt lat="37.2961495" lon="13.4556428"><ele>13.0</ele><time>2026-05-03T14:12:35.516Z</time></trkpt><trkpt lat="37.2960581" lon="13.4557205"><ele>12.857142857142856</ele><time>2026-05-03T14:12:37.515Z</time></trkpt><trkpt lat="37.2960034" lon="13.4557721"><ele>12.714285714285715</ele><time>2026-05-03T14:12:38.516Z</time></trkpt><trkpt lat="37.2959429" lon="13.4558279"><ele>12.571428571428571</ele><time>2026-05-03T14:12:39.515Z</time></trkpt><trkpt lat="37.2958839" lon="13.4558854"><ele>12.428571428571427</ele><time>2026-05-03T14:12:40.516Z</time></trkpt><trkpt lat="37.2958205" lon="13.4559448"><ele>12.285714285714285</ele><time>2026-05-03T14:12:41.516Z</time></trkpt><trkpt lat="37.2957592" lon="13.4560041"><ele>12.142857142857142</ele><time>2026-05-03T14:12:42.515Z</time></trkpt><trkpt lat="37.2957003" lon="13.4560603"><ele>12.0</ele><time>2026-05-03T14:12:43.516Z</time></trkpt><trkpt lat="37.2956438" lon="13.456114"><ele>12.0</ele><time>2026-05-03T14:12:44.515Z</time></trkpt><trkpt lat="37.2955901" lon="13.4561655"><ele>12.0</ele><time>2026-05-03T14:12:45.516Z</time></trkpt><trkpt lat="37.2955425" lon="13.4562188"><ele>12.0</ele><time>2026-05-03T14:12:46.516Z</time></trkpt><trkpt lat="37.2954608" lon="13.4563301"><ele>12.0</ele><time>2026-05-03T14:12:48.516Z</time></trkpt><trkpt lat="37.2953927" lon="13.4564406"><ele>12.0</ele><time>2026-05-03T14:12:50.516Z</time></trkpt><trkpt lat="37.2953305" lon="13.4565208"><ele>11.857142857142856</ele><time>2026-05-03T14:12:52.516Z</time></trkpt><trkpt lat="37.295285" lon="13.4566037"><ele>11.714285714285714</ele><time>2026-05-03T14:12:55.515Z</time></trkpt><trkpt lat="37.2952722" lon="13.45669"><ele>11.571428571428571</ele><time>2026-05-03T14:12:57.515Z</time></trkpt><trkpt lat="37.2952795" lon="13.4567875"><ele>11.428571428571427</ele><time>2026-05-03T14:12:59.516Z</time></trkpt><trkpt lat="37.295284" lon="13.4568755"><ele>11.285714285714285</ele><time>2026-05-03T14:13:01.516Z</time></trkpt><trkpt lat="37.2952835" lon="13.4569596"><ele>11.142857142857142</ele><time>2026-05-03T14:13:03.515Z</time></trkpt><trkpt lat="37.2952808" lon="13.4570494"><ele>11.0</ele><time>2026-05-03T14:13:05.516Z</time></trkpt><trkpt lat="37.2952734" lon="13.4571741"><ele>11.0</ele><time>2026-05-03T14:13:07.515Z</time></trkpt><trkpt lat="37.2952699" lon="13.4573036"><ele>11.0</ele><time>2026-05-03T14:13:09.516Z</time></trkpt><trkpt lat="37.2952619" lon="13.4574355"><ele>11.0</ele><time>2026-05-03T14:13:11.515Z</time></trkpt><trkpt lat="37.2952495" lon="13.4575609"><ele>11.0</ele><time>2026-05-03T14:13:13.516Z</time></trkpt><trkpt lat="37.2952412" lon="13.4576852"><ele>11.0</ele><time>2026-05-03T14:13:15.516Z</time></trkpt><trkpt lat="37.295228" lon="13.4578108"><ele>11.0</ele><time>2026-05-03T14:13:17.515Z</time></trkpt><trkpt lat="37.2952194" lon="13.4578896"><ele>11.0</ele><time>2026-05-03T14:13:18.516Z</time></trkpt><trkpt lat="37.2952094" lon="13.4579758"><ele>11.0</ele><time>2026-05-03T14:13:19.516Z</time></trkpt><trkpt lat="37.2951976" lon="13.4580633"><ele>11.0</ele><time>2026-05-03T14:13:20.515Z</time></trkpt><trkpt lat="37.2951854" lon="13.4581449"><ele>11.0</ele><time>2026-05-03T14:13:21.516Z</time></trkpt><trkpt lat="37.2951555" lon="13.4582845"><ele>11.0</ele><time>2026-05-03T14:13:23.516Z</time></trkpt><trkpt lat="37.2951275" lon="13.4583655"><ele>11.4</ele><time>2026-05-03T14:13:25.515Z</time></trkpt><trkpt lat="37.2951238" lon="13.4584643"><ele>11.8</ele><time>2026-05-03T14:13:30.516Z</time></trkpt><trkpt lat="37.295198" lon="13.4584091"><ele>12.200000000000001</ele><time>2026-05-03T14:13:35.515Z</time></trkpt><trkpt lat="37.2952184" lon="13.4583165"><ele>12.600000000000001</ele><time>2026-05-03T14:13:37.515Z</time></trkpt><trkpt lat="37.2952035" lon="13.4581948"><ele>13.0</ele><time>2026-05-03T14:13:39.516Z</time></trkpt><trkpt lat="37.2951931" lon="13.4580458"><ele>12.999999999999998</ele><time>2026-05-03T14:13:41.515Z</time></trkpt><trkpt lat="37.2951987" lon="13.457962"><ele>13.0</ele><time>2026-05-03T14:13:42.516Z</time></trkpt><trkpt lat="37.2952199" lon="13.4578144"><ele>13.0</ele><time>2026-05-03T14:13:44.515Z</time></trkpt><trkpt lat="37.2952319" lon="13.4576864"><ele>13.0</ele><time>2026-05-03T14:13:46.515Z</time></trkpt><trkpt lat="37.2952606" lon="13.4575941"><ele>12.999999999999998</ele><time>2026-05-03T14:13:48.516Z</time></trkpt><trkpt lat="37.2953221" lon="13.4575532"><ele>13.0</ele><time>2026-05-03T14:13:50.516Z</time></trkpt><trkpt lat="37.2954132" lon="13.4575732"><ele>12.666666666666666</ele><time>2026-05-03T14:13:52.515Z</time></trkpt><trkpt lat="37.2955392" lon="13.4576041"><ele>12.333333333333332</ele><time>2026-05-03T14:13:54.516Z</time></trkpt><trkpt lat="37.2956073" lon="13.4576281"><ele>12.0</ele><time>2026-05-03T14:13:55.516Z</time></trkpt><trkpt lat="37.295677" lon="13.457648"><ele>11.666666666666666</ele><time>2026-05-03T14:13:56.516Z</time></trkpt><trkpt lat="37.2957493" lon="13.4576757"><ele>11.333333333333332</ele><time>2026-05-03T14:13:57.515Z</time></trkpt><trkpt lat="37.2958229" lon="13.4576918"><ele>11.0</ele><time>2026-05-03T14:13:58.516Z</time></trkpt><trkpt lat="37.2958872" lon="13.4576939"><ele>12.4</ele><time>2026-05-03T14:13:59.516Z</time></trkpt><trkpt lat="37.2959962" lon="13.4576652"><ele>13.8</ele><time>2026-05-03T14:14:01.516Z</time></trkpt><trkpt lat="37.2960711" lon="13.4575692"><ele>15.200000000000001</ele><time>2026-05-03T14:14:03.516Z</time></trkpt><trkpt lat="37.2961071" lon="13.4574914"><ele>16.6</ele><time>2026-05-03T14:14:04.516Z</time></trkpt><trkpt lat="37.2961484" lon="13.457406"><ele>18.0</ele><time>2026-05-03T14:14:05.516Z</time></trkpt><trkpt lat="37.2961955" lon="13.4573133"><ele>18.0</ele><time>2026-05-03T14:14:06.516Z</time></trkpt><trkpt lat="37.2962463" lon="13.4572165"><ele>18.0</ele><time>2026-05-03T14:14:07.515Z</time></trkpt><trkpt lat="37.2962954" lon="13.4571207"><ele>18.0</ele><time>2026-05-03T14:14:08.516Z</time></trkpt><trkpt lat="37.2963417" lon="13.4570298"><ele>18.0</ele><time>2026-05-03T14:14:09.516Z</time></trkpt><trkpt lat="37.2963889" lon="13.4569458"><ele>18.0</ele><time>2026-05-03T14:14:10.516Z</time></trkpt><trkpt lat="37.296433" lon="13.4568683"><ele>18.0</ele><time>2026-05-03T14:14:11.515Z</time></trkpt><trkpt lat="37.2964759" lon="13.456787"><ele>17.166666666666668</ele><time>2026-05-03T14:14:12.516Z</time></trkpt><trkpt lat="37.2965082" lon="13.4566989"><ele>16.333333333333332</ele><time>2026-05-03T14:14:13.516Z</time></trkpt><trkpt lat="37.29653" lon="13.4566054"><ele>15.5</ele><time>2026-05-03T14:14:14.516Z</time></trkpt><trkpt lat="37.296544" lon="13.4565096"><ele>14.666666666666666</ele><time>2026-05-03T14:14:15.515Z</time></trkpt><trkpt lat="37.2965529" lon="13.4564129"><ele>13.833333333333332</ele><time>2026-05-03T14:14:16.516Z</time></trkpt><trkpt lat="37.2965554" lon="13.4563291"><ele>13.0</ele><time>2026-05-03T14:14:17.515Z</time></trkpt><trkpt lat="37.2965692" lon="13.4562209"><ele>12.714285714285714</ele><time>2026-05-03T14:14:19.516Z</time></trkpt><trkpt lat="37.2966186" lon="13.4561648"><ele>12.428571428571429</ele><time>2026-05-03T14:14:21.516Z</time></trkpt><trkpt lat="37.2967113" lon="13.456127"><ele>12.142857142857142</ele><time>2026-05-03T14:14:23.516Z</time></trkpt><trkpt lat="37.2967781" lon="13.456111"><ele>11.857142857142858</ele><time>2026-05-03T14:14:24.516Z</time></trkpt><trkpt lat="37.2968535" lon="13.45608"><ele>11.571428571428571</ele><time>2026-05-03T14:14:25.516Z</time></trkpt><trkpt lat="37.2969146" lon="13.4560603"><ele>11.285714285714286</ele><time>2026-05-03T14:14:26.515Z</time></trkpt><trkpt lat="37.2969784" lon="13.4560486"><ele>11.0</ele><time>2026-05-03T14:14:27.515Z</time></trkpt><trkpt lat="37.2970545" lon="13.4560365"><ele>11.0</ele><time>2026-05-03T14:14:28.516Z</time></trkpt><trkpt lat="37.2971516" lon="13.4560043"><ele>11.0</ele><time>2026-05-03T14:14:29.515Z</time></trkpt><trkpt lat="37.2972684" lon="13.4559592"><ele>11.0</ele><time>2026-05-03T14:14:30.515Z</time></trkpt><trkpt lat="37.2974056" lon="13.4558973"><ele>11.0</ele><time>2026-05-03T14:14:31.516Z</time></trkpt><trkpt lat="37.2975509" lon="13.4558278"><ele>12.5</ele><time>2026-05-03T14:14:32.516Z</time></trkpt><trkpt lat="37.297693" lon="13.4557554"><ele>14.0</ele><time>2026-05-03T14:14:33.515Z</time></trkpt><trkpt lat="37.2978178" lon="13.4556798"><ele>15.5</ele><time>2026-05-03T14:14:34.515Z</time></trkpt><trkpt lat="37.2979322" lon="13.4556051"><ele>17.0</ele><time>2026-05-03T14:14:35.516Z</time></trkpt><trkpt lat="37.2980377" lon="13.4555226"><ele>20.25</ele><time>2026-05-03T14:14:36.516Z</time></trkpt><trkpt lat="37.2981473" lon="13.4554251"><ele>23.5</ele><time>2026-05-03T14:14:37.516Z</time></trkpt><trkpt lat="37.2982671" lon="13.4553143"><ele>26.75</ele><time>2026-05-03T14:14:38.516Z</time></trkpt><trkpt lat="37.2983778" lon="13.4551944"><ele>30.0</ele><time>2026-05-03T14:14:39.516Z</time></trkpt><trkpt lat="37.298472" lon="13.4550763"><ele>30.0</ele><time>2026-05-03T14:14:40.516Z</time></trkpt><trkpt lat="37.2985473" lon="13.4549636"><ele>30.0</ele><time>2026-05-03T14:14:41.516Z</time></trkpt><trkpt lat="37.2986053" lon="13.4548756"><ele>30.0</ele><time>2026-05-03T14:14:42.515Z</time></trkpt><trkpt lat="37.2986586" lon="13.4548051"><ele>30.0</ele><time>2026-05-03T14:14:43.515Z</time></trkpt><trkpt lat="37.2987621" lon="13.4547308"><ele>30.0</ele><time>2026-05-03T14:14:45.515Z</time></trkpt><trkpt lat="37.2988798" lon="13.4547279"><ele>30.142857142857146</ele><time>2026-05-03T14:14:47.515Z</time></trkpt><trkpt lat="37.2989406" lon="13.454757"><ele>30.285714285714285</ele><time>2026-05-03T14:14:48.515Z</time></trkpt><trkpt lat="37.2989892" lon="13.4548075"><ele>30.42857142857143</ele><time>2026-05-03T14:14:49.516Z</time></trkpt><trkpt lat="37.2990241" lon="13.4548792"><ele>30.571428571428573</ele><time>2026-05-03T14:14:50.516Z</time></trkpt><trkpt lat="37.2990423" lon="13.4549693"><ele>30.714285714285715</ele><time>2026-05-03T14:14:51.515Z</time></trkpt><trkpt lat="37.2990575" lon="13.4550646"><ele>30.857142857142858</ele><time>2026-05-03T14:14:52.515Z</time></trkpt><trkpt lat="37.2990664" lon="13.4551687"><ele>31.0</ele><time>2026-05-03T14:14:53.516Z</time></trkpt><trkpt lat="37.2990444" lon="13.4553299"><ele>32.5</ele><time>2026-05-03T14:14:54.516Z</time></trkpt><trkpt lat="37.2990247" lon="13.4554901"><ele>34.0</ele><time>2026-05-03T14:14:55.516Z</time></trkpt><trkpt lat="37.299016" lon="13.4556411"><ele>35.5</ele><time>2026-05-03T14:14:56.516Z</time></trkpt><trkpt lat="37.2990264" lon="13.4557754"><ele>37.0</ele><time>2026-05-03T14:14:57.516Z</time></trkpt><trkpt lat="37.2990532" lon="13.4558876"><ele>37.0</ele><time>2026-05-03T14:14:58.515Z</time></trkpt><trkpt lat="37.2991027" lon="13.4559769"><ele>37.0</ele><time>2026-05-03T14:14:59.515Z</time></trkpt><trkpt lat="37.299167" lon="13.4560468"><ele>37.0</ele><time>2026-05-03T14:15:00.516Z</time></trkpt><trkpt lat="37.2992541" lon="13.4561052"><ele>37.0</ele><time>2026-05-03T14:15:01.515Z</time></trkpt><trkpt lat="37.2993515" lon="13.4561593"><ele>37.0</ele><time>2026-05-03T14:15:02.516Z</time></trkpt><trkpt lat="37.2994487" lon="13.4562322"><ele>40.0</ele><time>2026-05-03T14:15:03.515Z</time></trkpt><trkpt lat="37.2995267" lon="13.4563112"><ele>43.0</ele><time>2026-05-03T14:15:04.516Z</time></trkpt><trkpt lat="37.2995975" lon="13.4564151"><ele>46.0</ele><time>2026-05-03T14:15:05.516Z</time></trkpt><trkpt lat="37.2996517" lon="13.4565379"><ele>49.0</ele><time>2026-05-03T14:15:06.515Z</time></trkpt><trkpt lat="37.299705" lon="13.4566663"><ele>52.0</ele><time>2026-05-03T14:15:07.516Z</time></trkpt><trkpt lat="37.2997391" lon="13.4567906"><ele>52.8</ele><time>2026-05-03T14:15:08.516Z</time></trkpt><trkpt lat="37.2997544" lon="13.4569088"><ele>53.6</ele><time>2026-05-03T14:15:09.515Z</time></trkpt><trkpt lat="37.2997544" lon="13.4570181"><ele>54.39999999999999</ele><time>2026-05-03T14:15:10.516Z</time></trkpt><trkpt lat="37.2997393" lon="13.4571295"><ele>55.199999999999996</ele><time>2026-05-03T14:15:11.515Z</time></trkpt><trkpt lat="37.2997013" lon="13.4572477"><ele>56.0</ele><time>2026-05-03T14:15:12.515Z</time></trkpt><trkpt lat="37.2996524" lon="13.4573821"><ele>56.0</ele><time>2026-05-03T14:15:13.515Z</time></trkpt><trkpt lat="37.2996045" lon="13.4575119"><ele>55.99999999999999</ele><time>2026-05-03T14:15:14.515Z</time></trkpt><trkpt lat="37.2995685" lon="13.4576375"><ele>55.99999999999999</ele><time>2026-05-03T14:15:15.516Z</time></trkpt><trkpt lat="37.2995481" lon="13.4577751"><ele>56.0</ele><time>2026-05-03T14:15:16.516Z</time></trkpt><trkpt lat="37.2995415" lon="13.4579211"><ele>56.0</ele><time>2026-05-03T14:15:17.516Z</time></trkpt><trkpt lat="37.2995216" lon="13.458065"><ele>56.0</ele><time>2026-05-03T14:15:18.516Z</time></trkpt><trkpt lat="37.2994972" lon="13.4582144"><ele>56.0</ele><time>2026-05-03T14:15:19.515Z</time></trkpt><trkpt lat="37.2994798" lon="13.4583919"><ele>56.0</ele><time>2026-05-03T14:15:20.515Z</time></trkpt><trkpt lat="37.2994374" lon="13.4585701"><ele>56.0</ele><time>2026-05-03T14:15:21.515Z</time></trkpt><trkpt lat="37.2993905" lon="13.4587559"><ele>56.0</ele><time>2026-05-03T14:15:22.516Z</time></trkpt><trkpt lat="37.299337" lon="13.4589422"><ele>56.0</ele><time>2026-05-03T14:15:23.515Z</time></trkpt><trkpt lat="37.2992734" lon="13.4591341"><ele>56.0</ele><time>2026-05-03T14:15:24.515Z</time></trkpt><trkpt lat="37.2992029" lon="13.4593334"><ele>56.0</ele><time>2026-05-03T14:15:25.516Z</time></trkpt><trkpt lat="37.2991321" lon="13.4595321"><ele>56.0</ele><time>2026-05-03T14:15:26.515Z</time></trkpt><trkpt lat="37.2990594" lon="13.4597427"><ele>56.0</ele><time>2026-05-03T14:15:27.516Z</time></trkpt><trkpt lat="37.2989859" lon="13.4599536"><ele>56.333333333333336</ele><time>2026-05-03T14:15:28.515Z</time></trkpt><trkpt lat="37.2989084" lon="13.4601672"><ele>56.66666666666667</ele><time>2026-05-03T14:15:29.515Z</time></trkpt><trkpt lat="37.2988323" lon="13.4603772"><ele>57.0</ele><time>2026-05-03T14:15:30.515Z</time></trkpt><trkpt lat="37.298763" lon="13.4605912"><ele>57.0</ele><time>2026-05-03T14:15:31.516Z</time></trkpt><trkpt lat="37.2986979" lon="13.4607975"><ele>57.0</ele><time>2026-05-03T14:15:32.515Z</time></trkpt><trkpt lat="37.2986397" lon="13.4609857"><ele>57.0</ele><time>2026-05-03T14:15:33.515Z</time></trkpt><trkpt lat="37.2985819" lon="13.4611581"><ele>57.0</ele><time>2026-05-03T14:15:34.516Z</time></trkpt><trkpt lat="37.2985217" lon="13.4613122"><ele>57.0</ele><time>2026-05-03T14:15:35.516Z</time></trkpt><trkpt lat="37.2984511" lon="13.4614539"><ele>57.0</ele><time>2026-05-03T14:15:36.515Z</time></trkpt><trkpt lat="37.2983683" lon="13.4615928"><ele>57.0</ele><time>2026-05-03T14:15:37.515Z</time></trkpt><trkpt lat="37.2982717" lon="13.4617299"><ele>57.0</ele><time>2026-05-03T14:15:38.516Z</time></trkpt><trkpt lat="37.2981658" lon="13.4618749"><ele>57.0</ele><time>2026-05-03T14:15:39.516Z</time></trkpt><trkpt lat="37.298055" lon="13.4620271"><ele>57.0</ele><time>2026-05-03T14:15:40.516Z</time></trkpt><trkpt lat="37.2979475" lon="13.4621914"><ele>56.33333333333333</ele><time>2026-05-03T14:15:41.515Z</time></trkpt><trkpt lat="37.2978486" lon="13.4623686"><ele>55.666666666666664</ele><time>2026-05-03T14:15:42.515Z</time></trkpt><trkpt lat="37.2977496" lon="13.462553"><ele>55.0</ele><time>2026-05-03T14:15:43.516Z</time></trkpt><trkpt lat="37.2976498" lon="13.4627432"><ele>55.0</ele><time>2026-05-03T14:15:44.515Z</time></trkpt><trkpt lat="37.2975484" lon="13.462939"><ele>55.0</ele><time>2026-05-03T14:15:45.516Z</time></trkpt><trkpt lat="37.2974521" lon="13.4631286"><ele>55.0</ele><time>2026-05-03T14:15:46.515Z</time></trkpt><trkpt lat="37.2973596" lon="13.4633085"><ele>55.0</ele><time>2026-05-03T14:15:47.515Z</time></trkpt><trkpt lat="37.297273" lon="13.4634836"><ele>55.0</ele><time>2026-05-03T14:15:48.515Z</time></trkpt><trkpt lat="37.2971853" lon="13.4636487"><ele>55.0</ele><time>2026-05-03T14:15:49.516Z</time></trkpt><trkpt lat="37.2970954" lon="13.4638138"><ele>51.666666666666664</ele><time>2026-05-03T14:15:50.516Z</time></trkpt><trkpt lat="37.2970038" lon="13.4639806"><ele>48.33333333333333</ele><time>2026-05-03T14:15:51.515Z</time></trkpt><trkpt lat="37.296905" lon="13.4641592"><ele>45.0</ele><time>2026-05-03T14:15:52.515Z</time></trkpt><trkpt lat="37.2968064" lon="13.4643474"><ele>45.0</ele><time>2026-05-03T14:15:53.515Z</time></trkpt><trkpt lat="37.2967038" lon="13.4645356"><ele>45.0</ele><time>2026-05-03T14:15:54.515Z</time></trkpt><trkpt lat="37.2965953" lon="13.4647336"><ele>45.0</ele><time>2026-05-03T14:15:55.515Z</time></trkpt><trkpt lat="37.2964862" lon="13.4649301"><ele>45.0</ele><time>2026-05-03T14:15:56.516Z</time></trkpt><trkpt lat="37.2963819" lon="13.4651274"><ele>45.0</ele><time>2026-05-03T14:15:57.516Z</time></trkpt><trkpt lat="37.2962723" lon="13.4653303"><ele>45.0</ele><time>2026-05-03T14:15:58.516Z</time></trkpt><trkpt lat="37.2961649" lon="13.4655205"><ele>45.0</ele><time>2026-05-03T14:15:59.515Z</time></trkpt><trkpt lat="37.2960649" lon="13.4656977"><ele>45.0</ele><time>2026-05-03T14:16:00.515Z</time></trkpt><trkpt lat="37.2959726" lon="13.4658693"><ele>45.0</ele><time>2026-05-03T14:16:01.515Z</time></trkpt><trkpt lat="37.2958825" lon="13.4660284"><ele>45.0</ele><time>2026-05-03T14:16:02.516Z</time></trkpt><trkpt lat="37.2957911" lon="13.4661866"><ele>45.0</ele><time>2026-05-03T14:16:03.515Z</time></trkpt><trkpt lat="37.2957004" lon="13.466346"><ele>45.0</ele><time>2026-05-03T14:16:04.515Z</time></trkpt><trkpt lat="37.2956103" lon="13.4665079"><ele>43.75</ele><time>2026-05-03T14:16:05.515Z</time></trkpt><trkpt lat="37.2955261" lon="13.466661"><ele>42.5</ele><time>2026-05-03T14:16:06.516Z</time></trkpt><trkpt lat="37.2954515" lon="13.4668041"><ele>41.25</ele><time>2026-05-03T14:16:07.516Z</time></trkpt><trkpt lat="37.2953887" lon="13.4669266"><ele>40.0</ele><time>2026-05-03T14:16:08.516Z</time></trkpt><trkpt lat="37.295329" lon="13.4670526"><ele>42.0</ele><time>2026-05-03T14:16:09.516Z</time></trkpt><trkpt lat="37.2952623" lon="13.4671872"><ele>44.0</ele><time>2026-05-03T14:16:10.515Z</time></trkpt><trkpt lat="37.2951977" lon="13.4673335"><ele>46.0</ele><time>2026-05-03T14:16:11.515Z</time></trkpt><trkpt lat="37.2951429" lon="13.4674992"><ele>48.0</ele><time>2026-05-03T14:16:12.515Z</time></trkpt><trkpt lat="37.2950885" lon="13.4676625"><ele>48.0</ele><time>2026-05-03T14:16:13.516Z</time></trkpt><trkpt lat="37.2950405" lon="13.4678155"><ele>48.0</ele><time>2026-05-03T14:16:14.516Z</time></trkpt><trkpt lat="37.2949949" lon="13.467946"><ele>48.0</ele><time>2026-05-03T14:16:15.515Z</time></trkpt><trkpt lat="37.2949487" lon="13.468062"><ele>48.0</ele><time>2026-05-03T14:16:16.516Z</time></trkpt><trkpt lat="37.2948931" lon="13.4681688"><ele>48.0</ele><time>2026-05-03T14:16:17.515Z</time></trkpt><trkpt lat="37.2948077" lon="13.468274"><ele>46.0</ele><time>2026-05-03T14:16:18.516Z</time></trkpt><trkpt lat="37.2947051" lon="13.4683747"><ele>44.0</ele><time>2026-05-03T14:16:19.515Z</time></trkpt><trkpt lat="37.2945961" lon="13.4684666"><ele>42.0</ele><time>2026-05-03T14:16:20.516Z</time></trkpt><trkpt lat="37.294491" lon="13.4685524"><ele>40.0</ele><time>2026-05-03T14:16:21.516Z</time></trkpt><trkpt lat="37.2943942" lon="13.4686306"><ele>40.0</ele><time>2026-05-03T14:16:22.516Z</time></trkpt><trkpt lat="37.2943142" lon="13.4686982"><ele>40.0</ele><time>2026-05-03T14:16:23.515Z</time></trkpt><trkpt lat="37.2942479" lon="13.4687525"><ele>40.0</ele><time>2026-05-03T14:16:24.516Z</time></trkpt><trkpt lat="37.2941953" lon="13.4687971"><ele>40.0</ele><time>2026-05-03T14:16:25.515Z</time></trkpt><trkpt lat="37.2941124" lon="13.4688619"><ele>40.0</ele><time>2026-05-03T14:16:27.515Z</time></trkpt><trkpt lat="37.2940595" lon="13.4689092"><ele>40.0</ele><time>2026-05-03T14:16:29.516Z</time></trkpt><trkpt lat="37.2939962" lon="13.4689905"><ele>37.333333333333336</ele><time>2026-05-03T14:16:32.515Z</time></trkpt><trkpt lat="37.2939317" lon="13.4690483"><ele>34.66666666666667</ele><time>2026-05-03T14:16:34.515Z</time></trkpt><trkpt lat="37.293843" lon="13.4691447"><ele>32.0</ele><time>2026-05-03T14:16:36.516Z</time></trkpt><trkpt lat="37.2937851" lon="13.4691907"><ele>29.333333333333336</ele><time>2026-05-03T14:16:37.516Z</time></trkpt><trkpt lat="37.2936819" lon="13.469266"><ele>26.666666666666668</ele><time>2026-05-03T14:16:39.516Z</time></trkpt><trkpt lat="37.2936296" lon="13.4693105"><ele>24.0</ele><time>2026-05-03T14:16:40.515Z</time></trkpt><trkpt lat="37.2935787" lon="13.4693713"><ele>23.999999999999996</ele><time>2026-05-03T14:16:41.516Z</time></trkpt><trkpt lat="37.2935352" lon="13.4694385"><ele>24.0</ele><time>2026-05-03T14:16:42.515Z</time></trkpt><trkpt lat="37.2935083" lon="13.469513"><ele>24.0</ele><time>2026-05-03T14:16:43.515Z</time></trkpt><trkpt lat="37.2934894" lon="13.4695931"><ele>24.0</ele><time>2026-05-03T14:16:44.515Z</time></trkpt><trkpt lat="37.2934769" lon="13.4696788"><ele>24.0</ele><time>2026-05-03T14:16:45.516Z</time></trkpt><trkpt lat="37.293469" lon="13.4697754"><ele>23.999999999999996</ele><time>2026-05-03T14:16:46.515Z</time></trkpt><trkpt lat="37.293461" lon="13.4698741"><ele>24.0</ele><time>2026-05-03T14:16:47.515Z</time></trkpt><trkpt lat="37.2934577" lon="13.4699773"><ele>27.833333333333332</ele><time>2026-05-03T14:16:48.515Z</time></trkpt><trkpt lat="37.2934515" lon="13.4700813"><ele>31.666666666666664</ele><time>2026-05-03T14:16:49.515Z</time></trkpt><trkpt lat="37.2934398" lon="13.4701826"><ele>35.5</ele><time>2026-05-03T14:16:50.516Z</time></trkpt><trkpt lat="37.2934275" lon="13.4702822"><ele>39.33333333333333</ele><time>2026-05-03T14:16:51.515Z</time></trkpt><trkpt lat="37.2934144" lon="13.4703744"><ele>43.166666666666664</ele><time>2026-05-03T14:16:52.516Z</time></trkpt><trkpt lat="37.2934002" lon="13.4704691"><ele>47.0</ele><time>2026-05-03T14:16:53.516Z</time></trkpt><trkpt lat="37.2933824" lon="13.4705688"><ele>49.400000000000006</ele><time>2026-05-03T14:16:54.516Z</time></trkpt><trkpt lat="37.293352" lon="13.4706678"><ele>51.800000000000004</ele><time>2026-05-03T14:16:55.515Z</time></trkpt><trkpt lat="37.2933111" lon="13.4707712"><ele>54.2</ele><time>2026-05-03T14:16:56.516Z</time></trkpt><trkpt lat="37.29326" lon="13.4708802"><ele>56.6</ele><time>2026-05-03T14:16:57.516Z</time></trkpt><trkpt lat="37.2931908" lon="13.4709953"><ele>59.0</ele><time>2026-05-03T14:16:58.515Z</time></trkpt><trkpt lat="37.293116" lon="13.4711138"><ele>56.75</ele><time>2026-05-03T14:16:59.516Z</time></trkpt><trkpt lat="37.2930394" lon="13.4712364"><ele>54.5</ele><time>2026-05-03T14:17:00.515Z</time></trkpt><trkpt lat="37.2929666" lon="13.4713543"><ele>52.25</ele><time>2026-05-03T14:17:01.516Z</time></trkpt><trkpt lat="37.2928999" lon="13.4714654"><ele>50.0</ele><time>2026-05-03T14:17:02.516Z</time></trkpt><trkpt lat="37.2928351" lon="13.4715672"><ele>50.00000000000001</ele><time>2026-05-03T14:17:03.515Z</time></trkpt><trkpt lat="37.2927805" lon="13.471658"><ele>50.0</ele><time>2026-05-03T14:17:04.516Z</time></trkpt><trkpt lat="37.2927216" lon="13.4717388"><ele>50.0</ele><time>2026-05-03T14:17:05.516Z</time></trkpt><trkpt lat="37.2926572" lon="13.4718069"><ele>50.0</ele><time>2026-05-03T14:17:06.516Z</time></trkpt><trkpt lat="37.292583" lon="13.4718777"><ele>50.00000000000001</ele><time>2026-05-03T14:17:07.515Z</time></trkpt><trkpt lat="37.2925115" lon="13.4719518"><ele>50.0</ele><time>2026-05-03T14:17:08.515Z</time></trkpt><trkpt lat="37.2924458" lon="13.4720273"><ele>50.00000000000001</ele><time>2026-05-03T14:17:09.516Z</time></trkpt><trkpt lat="37.2923602" lon="13.4720952"><ele>50.0</ele><time>2026-05-03T14:17:10.516Z</time></trkpt><trkpt lat="37.2923114" lon="13.4721959"><ele>50.0</ele><time>2026-05-03T14:17:11.515Z</time></trkpt><trkpt lat="37.2922261" lon="13.4722473"><ele>50.0</ele><time>2026-05-03T14:17:12.515Z</time></trkpt><trkpt lat="37.2921639" lon="13.4723123"><ele>50.00000000000001</ele><time>2026-05-03T14:17:13.515Z</time></trkpt><trkpt lat="37.2921055" lon="13.4723776"><ele>50.0</ele><time>2026-05-03T14:17:14.516Z</time></trkpt><trkpt lat="37.2920532" lon="13.4724444"><ele>49.00000000000001</ele><time>2026-05-03T14:17:15.516Z</time></trkpt><trkpt lat="37.292006" lon="13.4725121"><ele>48.0</ele><time>2026-05-03T14:17:16.515Z</time></trkpt><trkpt lat="37.2919608" lon="13.4725866"><ele>47.0</ele><time>2026-05-03T14:17:17.515Z</time></trkpt><trkpt lat="37.2919205" lon="13.472663"><ele>46.0</ele><time>2026-05-03T14:17:18.516Z</time></trkpt><trkpt lat="37.2918799" lon="13.4727384"><ele>45.0</ele><time>2026-05-03T14:17:19.516Z</time></trkpt><trkpt lat="37.2918454" lon="13.472812"><ele>44.00000000000001</ele><time>2026-05-03T14:17:20.515Z</time></trkpt><trkpt lat="37.2918027" lon="13.4728804"><ele>43.0</ele><time>2026-05-03T14:17:21.516Z</time></trkpt><trkpt lat="37.2917525" lon="13.4729464"><ele>42.833333333333336</ele><time>2026-05-03T14:17:22.516Z</time></trkpt><trkpt lat="37.2916963" lon="13.4730147"><ele>42.66666666666667</ele><time>2026-05-03T14:17:23.516Z</time></trkpt><trkpt lat="37.2916437" lon="13.4730859"><ele>42.5</ele><time>2026-05-03T14:17:24.516Z</time></trkpt><trkpt lat="37.2915915" lon="13.4731615"><ele>42.333333333333336</ele><time>2026-05-03T14:17:25.515Z</time></trkpt><trkpt lat="37.2915431" lon="13.4732298"><ele>42.166666666666664</ele><time>2026-05-03T14:17:26.516Z</time></trkpt><trkpt lat="37.291497" lon="13.4732904"><ele>42.0</ele><time>2026-05-03T14:17:27.515Z</time></trkpt><trkpt lat="37.2914178" lon="13.4733665"><ele>42.0</ele><time>2026-05-03T14:17:29.515Z</time></trkpt><trkpt lat="37.2913482" lon="13.4734323"><ele>42.0</ele><time>2026-05-03T14:17:31.516Z</time></trkpt><trkpt lat="37.2912517" lon="13.4735017"><ele>42.0</ele><time>2026-05-03T14:17:33.515Z</time></trkpt><trkpt lat="37.2911917" lon="13.4735444"><ele>42.0</ele><time>2026-05-03T14:17:34.516Z</time></trkpt><trkpt lat="37.291129" lon="13.4736021"><ele>42.0</ele><time>2026-05-03T14:17:35.516Z</time></trkpt><trkpt lat="37.2910825" lon="13.4736812"><ele>42.0</ele><time>2026-05-03T14:17:36.516Z</time></trkpt><trkpt lat="37.2910082" lon="13.4737638"><ele>44.0</ele><time>2026-05-03T14:17:37.516Z</time></trkpt><trkpt lat="37.290947" lon="13.4738642"><ele>46.0</ele><time>2026-05-03T14:17:38.516Z</time></trkpt><trkpt lat="37.2908852" lon="13.4739786"><ele>48.0</ele><time>2026-05-03T14:17:39.516Z</time></trkpt><trkpt lat="37.2908317" lon="13.4741003"><ele>50.0</ele><time>2026-05-03T14:17:40.515Z</time></trkpt><trkpt lat="37.2907707" lon="13.4742193"><ele>52.0</ele><time>2026-05-03T14:17:41.516Z</time></trkpt><trkpt lat="37.2907102" lon="13.4743359"><ele>52.0</ele><time>2026-05-03T14:17:42.516Z</time></trkpt><trkpt lat="37.2906493" lon="13.4744531"><ele>52.0</ele><time>2026-05-03T14:17:43.516Z</time></trkpt><trkpt lat="37.290582" lon="13.4745637"><ele>52.0</ele><time>2026-05-03T14:17:44.516Z</time></trkpt><trkpt lat="37.2905128" lon="13.4746682"><ele>52.0</ele><time>2026-05-03T14:17:45.515Z</time></trkpt><trkpt lat="37.2904675" lon="13.4747703"><ele>52.0</ele><time>2026-05-03T14:17:46.515Z</time></trkpt><trkpt lat="37.2904537" lon="13.4748834"><ele>51.33333333333333</ele><time>2026-05-03T14:17:47.516Z</time></trkpt><trkpt lat="37.2904271" lon="13.4749952"><ele>50.666666666666664</ele><time>2026-05-03T14:17:48.516Z</time></trkpt><trkpt lat="37.2903928" lon="13.4751166"><ele>50.0</ele><time>2026-05-03T14:17:49.515Z</time></trkpt><trkpt lat="37.2903551" lon="13.4752214"><ele>49.33333333333333</ele><time>2026-05-03T14:17:50.516Z</time></trkpt><trkpt lat="37.2903159" lon="13.4753106"><ele>48.666666666666664</ele><time>2026-05-03T14:17:51.516Z</time></trkpt><trkpt lat="37.2902774" lon="13.4753905"><ele>48.0</ele><time>2026-05-03T14:17:52.515Z</time></trkpt><trkpt lat="37.2902449" lon="13.4754608"><ele>48.0</ele><time>2026-05-03T14:17:53.515Z</time></trkpt><trkpt lat="37.2902147" lon="13.4755348"><ele>48.0</ele><time>2026-05-03T14:17:54.515Z</time></trkpt><trkpt lat="37.2901866" lon="13.4756122"><ele>48.0</ele><time>2026-05-03T14:17:55.516Z</time></trkpt><trkpt lat="37.2901528" lon="13.4757047"><ele>48.0</ele><time>2026-05-03T14:17:56.516Z</time></trkpt><trkpt lat="37.2901251" lon="13.4758008"><ele>48.0</ele><time>2026-05-03T14:17:57.516Z</time></trkpt><trkpt lat="37.2900984" lon="13.4759094"><ele>48.0</ele><time>2026-05-03T14:17:58.516Z</time></trkpt><trkpt lat="37.2900541" lon="13.4760002"><ele>48.0</ele><time>2026-05-03T14:17:59.515Z</time></trkpt><trkpt lat="37.2900139" lon="13.4760794"><ele>48.0</ele><time>2026-05-03T14:18:00.515Z</time></trkpt><trkpt lat="37.2899711" lon="13.4761446"><ele>48.0</ele><time>2026-05-03T14:18:01.515Z</time></trkpt><trkpt lat="37.2899278" lon="13.4762025"><ele>48.0</ele><time>2026-05-03T14:18:02.516Z</time></trkpt><trkpt lat="37.2898479" lon="13.4763122"><ele>48.0</ele><time>2026-05-03T14:18:04.516Z</time></trkpt><trkpt lat="37.2898046" lon="13.4763701"><ele>48.0</ele><time>2026-05-03T14:18:05.516Z</time></trkpt><trkpt lat="37.2897608" lon="13.4764321"><ele>45.42857142857142</ele><time>2026-05-03T14:18:06.515Z</time></trkpt><trkpt lat="37.2897145" lon="13.4764945"><ele>42.857142857142854</ele><time>2026-05-03T14:18:07.516Z</time></trkpt><trkpt lat="37.2896713" lon="13.4765574"><ele>40.285714285714285</ele><time>2026-05-03T14:18:08.515Z</time></trkpt><trkpt lat="37.2896231" lon="13.4766165"><ele>37.71428571428571</ele><time>2026-05-03T14:18:09.516Z</time></trkpt><trkpt lat="37.2895775" lon="13.476676"><ele>35.14285714285714</ele><time>2026-05-03T14:18:10.516Z</time></trkpt><trkpt lat="37.2895343" lon="13.4767344"><ele>32.57142857142857</ele><time>2026-05-03T14:18:11.516Z</time></trkpt><trkpt lat="37.2894889" lon="13.4767951"><ele>30.0</ele><time>2026-05-03T14:18:12.516Z</time></trkpt><trkpt lat="37.2894436" lon="13.4768543"><ele>30.0</ele><time>2026-05-03T14:18:13.516Z</time></trkpt><trkpt lat="37.2894041" lon="13.4769176"><ele>30.0</ele><time>2026-05-03T14:18:14.516Z</time></trkpt><trkpt lat="37.2893372" lon="13.4770531"><ele>30.0</ele><time>2026-05-03T14:18:16.516Z</time></trkpt><trkpt lat="37.2892874" lon="13.4772034"><ele>30.0</ele><time>2026-05-03T14:18:18.516Z</time></trkpt><trkpt lat="37.2892688" lon="13.4772932"><ele>30.0</ele><time>2026-05-03T14:18:19.516Z</time></trkpt><trkpt lat="37.2892526" lon="13.4773954"><ele>31.666666666666668</ele><time>2026-05-03T14:18:20.516Z</time></trkpt><trkpt lat="37.2892437" lon="13.4775015"><ele>33.333333333333336</ele><time>2026-05-03T14:18:21.516Z</time></trkpt><trkpt lat="37.2892301" lon="13.4776012"><ele>35.0</ele><time>2026-05-03T14:18:22.515Z</time></trkpt><trkpt lat="37.2892148" lon="13.4776983"><ele>36.66666666666667</ele><time>2026-05-03T14:18:23.516Z</time></trkpt><trkpt lat="37.2892011" lon="13.477797"><ele>38.333333333333336</ele><time>2026-05-03T14:18:24.516Z</time></trkpt><trkpt lat="37.2891896" lon="13.4778988"><ele>40.0</ele><time>2026-05-03T14:18:25.516Z</time></trkpt><trkpt lat="37.2891769" lon="13.4779993"><ele>40.5</ele><time>2026-05-03T14:18:26.516Z</time></trkpt><trkpt lat="37.2891633" lon="13.4781046"><ele>41.0</ele><time>2026-05-03T14:18:27.516Z</time></trkpt><trkpt lat="37.2891535" lon="13.4782073"><ele>41.5</ele><time>2026-05-03T14:18:28.516Z</time></trkpt><trkpt lat="37.2891414" lon="13.4783135"><ele>42.0</ele><time>2026-05-03T14:18:29.515Z</time></trkpt><trkpt lat="37.2891298" lon="13.4784244"><ele>42.5</ele><time>2026-05-03T14:18:30.515Z</time></trkpt><trkpt lat="37.2891262" lon="13.4785329"><ele>43.0</ele><time>2026-05-03T14:18:31.515Z</time></trkpt><trkpt lat="37.2891185" lon="13.4786462"><ele>43.0</ele><time>2026-05-03T14:18:32.516Z</time></trkpt><trkpt lat="37.2891139" lon="13.4787591"><ele>43.0</ele><time>2026-05-03T14:18:33.515Z</time></trkpt><trkpt lat="37.2891102" lon="13.4788768"><ele>43.0</ele><time>2026-05-03T14:18:34.516Z</time></trkpt><trkpt lat="37.2891074" lon="13.4789979"><ele>43.0</ele><time>2026-05-03T14:18:35.516Z</time></trkpt><trkpt lat="37.2891039" lon="13.4791164"><ele>43.0</ele><time>2026-05-03T14:18:36.516Z</time></trkpt><trkpt lat="37.2890947" lon="13.4792355"><ele>42.66666666666667</ele><time>2026-05-03T14:18:37.516Z</time></trkpt><trkpt lat="37.2890866" lon="13.4793448"><ele>42.333333333333336</ele><time>2026-05-03T14:18:38.515Z</time></trkpt><trkpt lat="37.2890769" lon="13.4794476"><ele>42.0</ele><time>2026-05-03T14:18:39.515Z</time></trkpt><trkpt lat="37.2890615" lon="13.4795479"><ele>41.666666666666664</ele><time>2026-05-03T14:18:40.516Z</time></trkpt><trkpt lat="37.2890395" lon="13.479641"><ele>41.33333333333333</ele><time>2026-05-03T14:18:41.515Z</time></trkpt><trkpt lat="37.2890069" lon="13.4797281"><ele>41.0</ele><time>2026-05-03T14:18:42.516Z</time></trkpt><trkpt lat="37.2889594" lon="13.4798009"><ele>37.166666666666664</ele><time>2026-05-03T14:18:43.516Z</time></trkpt><trkpt lat="37.2889068" lon="13.4798657"><ele>33.33333333333333</ele><time>2026-05-03T14:18:44.515Z</time></trkpt><trkpt lat="37.2888511" lon="13.4799307"><ele>29.5</ele><time>2026-05-03T14:18:45.515Z</time></trkpt><trkpt lat="37.2887912" lon="13.4800031"><ele>25.666666666666664</ele><time>2026-05-03T14:18:46.516Z</time></trkpt><trkpt lat="37.2887474" lon="13.4800853"><ele>21.833333333333332</ele><time>2026-05-03T14:18:47.515Z</time></trkpt><trkpt lat="37.2887189" lon="13.4801811"><ele>18.0</ele><time>2026-05-03T14:18:48.516Z</time></trkpt><trkpt lat="37.288713" lon="13.480288"><ele>18.0</ele><time>2026-05-03T14:18:49.515Z</time></trkpt><trkpt lat="37.2887262" lon="13.4804058"><ele>18.0</ele><time>2026-05-03T14:18:50.515Z</time></trkpt><trkpt lat="37.288739" lon="13.4805283"><ele>18.0</ele><time>2026-05-03T14:18:51.516Z</time></trkpt><trkpt lat="37.2887516" lon="13.4806464"><ele>18.0</ele><time>2026-05-03T14:18:52.516Z</time></trkpt><trkpt lat="37.2887945" lon="13.4807797"><ele>18.0</ele><time>2026-05-03T14:18:53.516Z</time></trkpt><trkpt lat="37.2888395" lon="13.4809214"><ele>17.25</ele><time>2026-05-03T14:18:54.515Z</time></trkpt><trkpt lat="37.2888886" lon="13.4810685"><ele>16.5</ele><time>2026-05-03T14:18:55.516Z</time></trkpt><trkpt lat="37.288941" lon="13.4812132"><ele>15.75</ele><time>2026-05-03T14:18:56.516Z</time></trkpt><trkpt lat="37.2889847" lon="13.4813556"><ele>15.0</ele><time>2026-05-03T14:18:57.516Z</time></trkpt><trkpt lat="37.2890278" lon="13.4815003"><ele>16.75</ele><time>2026-05-03T14:18:58.515Z</time></trkpt><trkpt lat="37.2890844" lon="13.4816365"><ele>18.5</ele><time>2026-05-03T14:18:59.516Z</time></trkpt><trkpt lat="37.2891264" lon="13.4817826"><ele>20.25</ele><time>2026-05-03T14:19:00.515Z</time></trkpt><trkpt lat="37.2891702" lon="13.4819232"><ele>22.0</ele><time>2026-05-03T14:19:01.515Z</time></trkpt><trkpt lat="37.2892304" lon="13.4820488"><ele>19.8</ele><time>2026-05-03T14:19:02.515Z</time></trkpt><trkpt lat="37.289304" lon="13.482158"><ele>17.6</ele><time>2026-05-03T14:19:03.515Z</time></trkpt><trkpt lat="37.289385" lon="13.4822594"><ele>15.400000000000002</ele><time>2026-05-03T14:19:04.516Z</time></trkpt><trkpt lat="37.2894698" lon="13.4823503"><ele>13.200000000000001</ele><time>2026-05-03T14:19:05.516Z</time></trkpt><trkpt lat="37.2895546" lon="13.4824302"><ele>11.0</ele><time>2026-05-03T14:19:06.516Z</time></trkpt><trkpt lat="37.2896237" lon="13.4824965"><ele>11.0</ele><time>2026-05-03T14:19:07.516Z</time></trkpt><trkpt lat="37.2896736" lon="13.4825528"><ele>11.0</ele><time>2026-05-03T14:19:08.516Z</time></trkpt><trkpt lat="37.2897544" lon="13.482632"><ele>11.0</ele><time>2026-05-03T14:19:10.516Z</time></trkpt><trkpt lat="37.289824" lon="13.4826802"><ele>11.0</ele><time>2026-05-03T14:19:17.515Z</time></trkpt><trkpt lat="37.2898777" lon="13.4827296"><ele>11.0</ele><time>2026-05-03T14:19:19.516Z</time></trkpt><trkpt lat="37.2899712" lon="13.4828363"><ele>11.0</ele><time>2026-05-03T14:19:21.516Z</time></trkpt><trkpt lat="37.2900229" lon="13.4829045"><ele>11.166666666666666</ele><time>2026-05-03T14:19:22.516Z</time></trkpt><trkpt lat="37.2900731" lon="13.4829769"><ele>11.333333333333332</ele><time>2026-05-03T14:19:23.516Z</time></trkpt><trkpt lat="37.290124" lon="13.4830585"><ele>11.5</ele><time>2026-05-03T14:19:24.515Z</time></trkpt><trkpt lat="37.2901831" lon="13.4831327"><ele>11.666666666666666</ele><time>2026-05-03T14:19:25.516Z</time></trkpt><trkpt lat="37.2902352" lon="13.4832196"><ele>11.833333333333334</ele><time>2026-05-03T14:19:26.515Z</time></trkpt><trkpt lat="37.2902835" lon="13.4832931"><ele>12.0</ele><time>2026-05-03T14:19:27.515Z</time></trkpt><trkpt lat="37.2903235" lon="13.4833552"><ele>11.999999999999998</ele><time>2026-05-03T14:19:28.515Z</time></trkpt><trkpt lat="37.2903639" lon="13.483419"><ele>12.0</ele><time>2026-05-03T14:19:29.515Z</time></trkpt><trkpt lat="37.2904051" lon="13.4834897"><ele>12.0</ele><time>2026-05-03T14:19:30.516Z</time></trkpt><trkpt lat="37.2904426" lon="13.4835645"><ele>12.0</ele><time>2026-05-03T14:19:31.515Z</time></trkpt><trkpt lat="37.2904762" lon="13.4836381"><ele>12.0</ele><time>2026-05-03T14:19:32.515Z</time></trkpt><trkpt lat="37.2905017" lon="13.4837163"><ele>11.999999999999998</ele><time>2026-05-03T14:19:33.516Z</time></trkpt><trkpt lat="37.2905148" lon="13.4838045"><ele>12.0</ele><time>2026-05-03T14:19:34.516Z</time></trkpt><trkpt lat="37.2905229" lon="13.4839179"><ele>11.8</ele><time>2026-05-03T14:19:35.515Z</time></trkpt><trkpt lat="37.2905276" lon="13.4840248"><ele>11.6</ele><time>2026-05-03T14:19:36.516Z</time></trkpt><trkpt lat="37.2905248" lon="13.4841375"><ele>11.4</ele><time>2026-05-03T14:19:37.516Z</time></trkpt><trkpt lat="37.2905148" lon="13.4842553"><ele>11.200000000000001</ele><time>2026-05-03T14:19:38.516Z</time></trkpt><trkpt lat="37.290504" lon="13.4843781"><ele>11.0</ele><time>2026-05-03T14:19:39.515Z</time></trkpt><trkpt lat="37.2904943" lon="13.4844998"><ele>10.8</ele><time>2026-05-03T14:19:40.515Z</time></trkpt><trkpt lat="37.2904774" lon="13.4846209"><ele>10.600000000000001</ele><time>2026-05-03T14:19:41.515Z</time></trkpt><trkpt lat="37.2904619" lon="13.4847424"><ele>10.4</ele><time>2026-05-03T14:19:42.515Z</time></trkpt><trkpt lat="37.2904325" lon="13.4848632"><ele>10.2</ele><time>2026-05-03T14:19:43.516Z</time></trkpt><trkpt lat="37.2903999" lon="13.4849797"><ele>10.0</ele><time>2026-05-03T14:19:44.515Z</time></trkpt><trkpt lat="37.2903551" lon="13.4850919"><ele>10.0</ele><time>2026-05-03T14:19:45.515Z</time></trkpt><trkpt lat="37.2903033" lon="13.4851949"><ele>10.0</ele><time>2026-05-03T14:19:46.515Z</time></trkpt><trkpt lat="37.2902508" lon="13.4853009"><ele>10.0</ele><time>2026-05-03T14:19:47.516Z</time></trkpt><trkpt lat="37.2901962" lon="13.4854058"><ele>10.0</ele><time>2026-05-03T14:19:48.516Z</time></trkpt><trkpt lat="37.2901361" lon="13.4855133"><ele>10.0</ele><time>2026-05-03T14:19:49.516Z</time></trkpt><trkpt lat="37.2900789" lon="13.4856219"><ele>10.4</ele><time>2026-05-03T14:19:50.516Z</time></trkpt><trkpt lat="37.2900264" lon="13.4857321"><ele>10.8</ele><time>2026-05-03T14:19:51.516Z</time></trkpt><trkpt lat="37.2899785" lon="13.4858523"><ele>11.2</ele><time>2026-05-03T14:19:52.515Z</time></trkpt><trkpt lat="37.2899327" lon="13.4859783"><ele>11.6</ele><time>2026-05-03T14:19:53.516Z</time></trkpt><trkpt lat="37.2898951" lon="13.4861068"><ele>12.0</ele><time>2026-05-03T14:19:54.516Z</time></trkpt><trkpt lat="37.2898702" lon="13.4862422"><ele>12.25</ele><time>2026-05-03T14:19:55.515Z</time></trkpt><trkpt lat="37.2898588" lon="13.486381"><ele>12.5</ele><time>2026-05-03T14:19:56.516Z</time></trkpt><trkpt lat="37.2898607" lon="13.4865116"><ele>12.75</ele><time>2026-05-03T14:19:57.515Z</time></trkpt><trkpt lat="37.289874" lon="13.486726"><ele>13.0</ele><time>2026-05-03T14:19:58.516Z</time></trkpt><trkpt lat="37.2899224" lon="13.4869277"><ele>11.333333333333332</ele><time>2026-05-03T14:19:59.516Z</time></trkpt><trkpt lat="37.2899764" lon="13.4871511"><ele>9.666666666666666</ele><time>2026-05-03T14:20:00.516Z</time></trkpt><trkpt lat="37.2900272" lon="13.4873651"><ele>8.0</ele><time>2026-05-03T14:20:01.516Z</time></trkpt><trkpt lat="37.2900716" lon="13.4875487"><ele>8.0</ele><time>2026-05-03T14:20:02.515Z</time></trkpt><trkpt lat="37.2901111" lon="13.4877041"><ele>8.0</ele><time>2026-05-03T14:20:03.515Z</time></trkpt><trkpt lat="37.2901287" lon="13.48785"><ele>8.0</ele><time>2026-05-03T14:20:04.516Z</time></trkpt><trkpt lat="37.2901207" lon="13.4880159"><ele>8.0</ele><time>2026-05-03T14:20:05.515Z</time></trkpt><trkpt lat="37.2900957" lon="13.4882049"><ele>7.666666666666666</ele><time>2026-05-03T14:20:06.516Z</time></trkpt><trkpt lat="37.2900571" lon="13.4884307"><ele>7.333333333333334</ele><time>2026-05-03T14:20:07.515Z</time></trkpt><trkpt lat="37.2900193" lon="13.4886617"><ele>7.0</ele><time>2026-05-03T14:20:08.516Z</time></trkpt><trkpt lat="37.2899754" lon="13.4888939"><ele>8.666666666666668</ele><time>2026-05-03T14:20:09.516Z</time></trkpt><trkpt lat="37.2899191" lon="13.4891298"><ele>10.333333333333334</ele><time>2026-05-03T14:20:10.516Z</time></trkpt><trkpt lat="37.2898577" lon="13.489368"><ele>12.0</ele><time>2026-05-03T14:20:11.516Z</time></trkpt><trkpt lat="37.289791" lon="13.4896062"><ele>9.666666666666666</ele><time>2026-05-03T14:20:12.516Z</time></trkpt><trkpt lat="37.2897191" lon="13.4898495"><ele>7.333333333333334</ele><time>2026-05-03T14:20:13.516Z</time></trkpt><trkpt lat="37.2896484" lon="13.4900899"><ele>5.0</ele><time>2026-05-03T14:20:14.516Z</time></trkpt><trkpt lat="37.2895795" lon="13.4903198"><ele>6.0</ele><time>2026-05-03T14:20:15.516Z</time></trkpt><trkpt lat="37.2895151" lon="13.490538"><ele>7.0</ele><time>2026-05-03T14:20:16.516Z</time></trkpt><trkpt lat="37.2894483" lon="13.49075"><ele>8.0</ele><time>2026-05-03T14:20:17.516Z</time></trkpt><trkpt lat="37.2893869" lon="13.4909621"><ele>8.0</ele><time>2026-05-03T14:20:18.516Z</time></trkpt><trkpt lat="37.2893279" lon="13.4911686"><ele>8.0</ele><time>2026-05-03T14:20:19.515Z</time></trkpt><trkpt lat="37.2892783" lon="13.4913726"><ele>8.0</ele><time>2026-05-03T14:20:20.516Z</time></trkpt><trkpt lat="37.2892377" lon="13.4915708"><ele>9.0</ele><time>2026-05-03T14:20:21.516Z</time></trkpt><trkpt lat="37.2892093" lon="13.4917616"><ele>10.0</ele><time>2026-05-03T14:20:22.516Z</time></trkpt><trkpt lat="37.2891924" lon="13.4919507"><ele>11.0</ele><time>2026-05-03T14:20:23.515Z</time></trkpt><trkpt lat="37.2891774" lon="13.4921495"><ele>11.0</ele><time>2026-05-03T14:20:24.516Z</time></trkpt><trkpt lat="37.289163" lon="13.4923495"><ele>11.0</ele><time>2026-05-03T14:20:25.516Z</time></trkpt><trkpt lat="37.2891522" lon="13.492547"><ele>11.0</ele><time>2026-05-03T14:20:26.516Z</time></trkpt><trkpt lat="37.2891445" lon="13.4927309"><ele>11.0</ele><time>2026-05-03T14:20:27.516Z</time></trkpt><trkpt lat="37.2891367" lon="13.4929096"><ele>11.0</ele><time>2026-05-03T14:20:28.516Z</time></trkpt><trkpt lat="37.2891338" lon="13.4930845"><ele>11.0</ele><time>2026-05-03T14:20:29.516Z</time></trkpt><trkpt lat="37.2891337" lon="13.4932466"><ele>11.0</ele><time>2026-05-03T14:20:30.515Z</time></trkpt><trkpt lat="37.2891365" lon="13.4933919"><ele>11.0</ele><time>2026-05-03T14:20:31.516Z</time></trkpt><trkpt lat="37.2891478" lon="13.4935396"><ele>11.0</ele><time>2026-05-03T14:20:32.516Z</time></trkpt><trkpt lat="37.2891589" lon="13.4936749"><ele>11.0</ele><time>2026-05-03T14:20:33.515Z</time></trkpt><trkpt lat="37.2891778" lon="13.4938121"><ele>11.0</ele><time>2026-05-03T14:20:34.516Z</time></trkpt><trkpt lat="37.289213" lon="13.4939554"><ele>10.5</ele><time>2026-05-03T14:20:35.515Z</time></trkpt><trkpt lat="37.2892626" lon="13.4941055"><ele>10.0</ele><time>2026-05-03T14:20:36.515Z</time></trkpt><trkpt lat="37.2893271" lon="13.4942552"><ele>9.5</ele><time>2026-05-03T14:20:37.515Z</time></trkpt><trkpt lat="37.2893978" lon="13.4943892"><ele>9.0</ele><time>2026-05-03T14:20:38.515Z</time></trkpt><trkpt lat="37.2894817" lon="13.4945176"><ele>9.5</ele><time>2026-05-03T14:20:39.516Z</time></trkpt><trkpt lat="37.2895787" lon="13.4946445"><ele>10.0</ele><time>2026-05-03T14:20:40.515Z</time></trkpt><trkpt lat="37.2896886" lon="13.4947706"><ele>10.5</ele><time>2026-05-03T14:20:41.516Z</time></trkpt><trkpt lat="37.2898088" lon="13.4948919"><ele>11.0</ele><time>2026-05-03T14:20:42.516Z</time></trkpt><trkpt lat="37.2899331" lon="13.4950132"><ele>11.0</ele><time>2026-05-03T14:20:43.516Z</time></trkpt><trkpt lat="37.2900509" lon="13.4951245"><ele>11.0</ele><time>2026-05-03T14:20:44.515Z</time></trkpt><trkpt lat="37.2901604" lon="13.4952232"><ele>11.0</ele><time>2026-05-03T14:20:45.515Z</time></trkpt><trkpt lat="37.2902514" lon="13.4953049"><ele>11.0</ele><time>2026-05-03T14:20:46.516Z</time></trkpt><trkpt lat="37.2903454" lon="13.4953876"><ele>10.75</ele><time>2026-05-03T14:20:47.516Z</time></trkpt><trkpt lat="37.2904348" lon="13.495477"><ele>10.5</ele><time>2026-05-03T14:20:48.516Z</time></trkpt><trkpt lat="37.2905427" lon="13.4955818"><ele>10.25</ele><time>2026-05-03T14:20:49.515Z</time></trkpt><trkpt lat="37.2906561" lon="13.4956927"><ele>10.0</ele><time>2026-05-03T14:20:50.516Z</time></trkpt><trkpt lat="37.2907758" lon="13.4958113"><ele>10.0</ele><time>2026-05-03T14:20:51.515Z</time></trkpt><trkpt lat="37.2908975" lon="13.4959439"><ele>10.0</ele><time>2026-05-03T14:20:52.516Z</time></trkpt><trkpt lat="37.2910181" lon="13.4960762"><ele>10.0</ele><time>2026-05-03T14:20:53.516Z</time></trkpt><trkpt lat="37.2911442" lon="13.4962143"><ele>10.0</ele><time>2026-05-03T14:20:54.516Z</time></trkpt><trkpt lat="37.2912811" lon="13.4963439"><ele>10.0</ele><time>2026-05-03T14:20:55.516Z</time></trkpt><trkpt lat="37.291402" lon="13.496477"><ele>10.0</ele><time>2026-05-03T14:20:56.516Z</time></trkpt><trkpt lat="37.2915208" lon="13.4966078"><ele>10.0</ele><time>2026-05-03T14:20:57.515Z</time></trkpt><trkpt lat="37.2916369" lon="13.4967386"><ele>10.0</ele><time>2026-05-03T14:20:58.515Z</time></trkpt><trkpt lat="37.2917509" lon="13.4968645"><ele>10.0</ele><time>2026-05-03T14:20:59.515Z</time></trkpt><trkpt lat="37.2918595" lon="13.4969928"><ele>9.25</ele><time>2026-05-03T14:21:00.516Z</time></trkpt><trkpt lat="37.2919652" lon="13.497122"><ele>8.5</ele><time>2026-05-03T14:21:01.515Z</time></trkpt><trkpt lat="37.2920658" lon="13.4972528"><ele>7.75</ele><time>2026-05-03T14:21:02.515Z</time></trkpt><trkpt lat="37.2921644" lon="13.4973919"><ele>7.0</ele><time>2026-05-03T14:21:03.515Z</time></trkpt><trkpt lat="37.2922557" lon="13.4975326"><ele>7.5</ele><time>2026-05-03T14:21:04.515Z</time></trkpt><trkpt lat="37.2923417" lon="13.4976664"><ele>8.0</ele><time>2026-05-03T14:21:05.515Z</time></trkpt><trkpt lat="37.2924211" lon="13.4978048"><ele>8.5</ele><time>2026-05-03T14:21:06.515Z</time></trkpt><trkpt lat="37.2924981" lon="13.497963"><ele>9.0</ele><time>2026-05-03T14:21:07.515Z</time></trkpt><trkpt lat="37.2925747" lon="13.4981347"><ele>9.0</ele><time>2026-05-03T14:21:08.516Z</time></trkpt><trkpt lat="37.2926441" lon="13.4983381"><ele>9.0</ele><time>2026-05-03T14:21:09.516Z</time></trkpt><trkpt lat="37.2927074" lon="13.4985166"><ele>9.0</ele><time>2026-05-03T14:21:10.515Z</time></trkpt><trkpt lat="37.2927641" lon="13.4986863"><ele>8.5</ele><time>2026-05-03T14:21:11.516Z</time></trkpt><trkpt lat="37.2928148" lon="13.4988439"><ele>8.0</ele><time>2026-05-03T14:21:12.515Z</time></trkpt><trkpt lat="37.2928529" lon="13.4990017"><ele>7.5</ele><time>2026-05-03T14:21:13.516Z</time></trkpt><trkpt lat="37.2928856" lon="13.4991649"><ele>7.0</ele><time>2026-05-03T14:21:14.516Z</time></trkpt><trkpt lat="37.2929141" lon="13.499337"><ele>7.0</ele><time>2026-05-03T14:21:15.515Z</time></trkpt><trkpt lat="37.2929436" lon="13.4995209"><ele>7.0</ele><time>2026-05-03T14:21:16.516Z</time></trkpt><trkpt lat="37.2929714" lon="13.4997036"><ele>7.0</ele><time>2026-05-03T14:21:17.516Z</time></trkpt><trkpt lat="37.2929943" lon="13.4998798"><ele>7.0</ele><time>2026-05-03T14:21:18.516Z</time></trkpt><trkpt lat="37.2930194" lon="13.500046"><ele>6.75</ele><time>2026-05-03T14:21:19.515Z</time></trkpt><trkpt lat="37.2930458" lon="13.5002019"><ele>6.5</ele><time>2026-05-03T14:21:20.516Z</time></trkpt><trkpt lat="37.2930712" lon="13.5003469"><ele>6.25</ele><time>2026-05-03T14:21:21.515Z</time></trkpt><trkpt lat="37.2930937" lon="13.500476"><ele>6.0</ele><time>2026-05-03T14:21:22.516Z</time></trkpt><trkpt lat="37.2931053" lon="13.5006008"><ele>6.6</ele><time>2026-05-03T14:21:23.515Z</time></trkpt><trkpt lat="37.2931183" lon="13.500735"><ele>7.199999999999999</ele><time>2026-05-03T14:21:24.516Z</time></trkpt><trkpt lat="37.2931442" lon="13.5008724"><ele>7.800000000000001</ele><time>2026-05-03T14:21:25.516Z</time></trkpt><trkpt lat="37.2931691" lon="13.5010109"><ele>8.4</ele><time>2026-05-03T14:21:26.516Z</time></trkpt><trkpt lat="37.2931933" lon="13.5011418"><ele>9.0</ele><time>2026-05-03T14:21:27.516Z</time></trkpt><trkpt lat="37.2932185" lon="13.501251"><ele>9.0</ele><time>2026-05-03T14:21:28.515Z</time></trkpt><trkpt lat="37.2932431" lon="13.5013495"><ele>9.0</ele><time>2026-05-03T14:21:29.516Z</time></trkpt><trkpt lat="37.2932676" lon="13.5014317"><ele>9.0</ele><time>2026-05-03T14:21:30.516Z</time></trkpt><trkpt lat="37.2933028" lon="13.5015084"><ele>9.0</ele><time>2026-05-03T14:21:31.516Z</time></trkpt><trkpt lat="37.2933524" lon="13.501592"><ele>9.0</ele><time>2026-05-03T14:21:32.516Z</time></trkpt><trkpt lat="37.2934085" lon="13.5016782"><ele>9.0</ele><time>2026-05-03T14:21:33.515Z</time></trkpt><trkpt lat="37.2934693" lon="13.501765"><ele>9.0</ele><time>2026-05-03T14:21:34.516Z</time></trkpt><trkpt lat="37.2935235" lon="13.5018429"><ele>9.0</ele><time>2026-05-03T14:21:35.516Z</time></trkpt><trkpt lat="37.2935658" lon="13.5019393"><ele>9.0</ele><time>2026-05-03T14:21:36.516Z</time></trkpt><trkpt lat="37.2935895" lon="13.5020491"><ele>9.0</ele><time>2026-05-03T14:21:37.516Z</time></trkpt><trkpt lat="37.2935965" lon="13.5021611"><ele>9.0</ele><time>2026-05-03T14:21:38.516Z</time></trkpt><trkpt lat="37.293599" lon="13.5022658"><ele>9.0</ele><time>2026-05-03T14:21:39.515Z</time></trkpt><trkpt lat="37.2936022" lon="13.5023635"><ele>8.833333333333334</ele><time>2026-05-03T14:21:40.516Z</time></trkpt><trkpt lat="37.2936056" lon="13.5024504"><ele>8.666666666666666</ele><time>2026-05-03T14:21:41.516Z</time></trkpt><trkpt lat="37.2936454" lon="13.5025674"><ele>8.5</ele><time>2026-05-03T14:21:43.516Z</time></trkpt><trkpt lat="37.29364" lon="13.5026795"><ele>8.333333333333332</ele><time>2026-05-03T14:21:45.515Z</time></trkpt><trkpt lat="37.2936354" lon="13.5027682"><ele>8.166666666666666</ele><time>2026-05-03T14:21:46.515Z</time></trkpt><trkpt lat="37.2936289" lon="13.5028758"><ele>8.0</ele><time>2026-05-03T14:21:47.515Z</time></trkpt><trkpt lat="37.2936162" lon="13.5030024"><ele>8.0</ele><time>2026-05-03T14:21:48.515Z</time></trkpt><trkpt lat="37.2936039" lon="13.5031336"><ele>8.0</ele><time>2026-05-03T14:21:49.516Z</time></trkpt><trkpt lat="37.2935889" lon="13.5032771"><ele>8.0</ele><time>2026-05-03T14:21:50.516Z</time></trkpt><trkpt lat="37.2935793" lon="13.5034136"><ele>8.0</ele><time>2026-05-03T14:21:51.516Z</time></trkpt><trkpt lat="37.2935677" lon="13.5035442"><ele>8.0</ele><time>2026-05-03T14:21:52.516Z</time></trkpt><trkpt lat="37.2935589" lon="13.5036789"><ele>8.5</ele><time>2026-05-03T14:21:53.515Z</time></trkpt><trkpt lat="37.2935539" lon="13.5038183"><ele>9.0</ele><time>2026-05-03T14:21:54.515Z</time></trkpt><trkpt lat="37.2935449" lon="13.503965"><ele>9.5</ele><time>2026-05-03T14:21:55.515Z</time></trkpt><trkpt lat="37.2935343" lon="13.5041032"><ele>10.0</ele><time>2026-05-03T14:21:56.515Z</time></trkpt><trkpt lat="37.2935235" lon="13.5042494"><ele>10.0</ele><time>2026-05-03T14:21:57.515Z</time></trkpt><trkpt lat="37.2935167" lon="13.5043986"><ele>10.0</ele><time>2026-05-03T14:21:58.516Z</time></trkpt><trkpt lat="37.2935047" lon="13.5045524"><ele>10.0</ele><time>2026-05-03T14:21:59.516Z</time></trkpt><trkpt lat="37.2934932" lon="13.504712"><ele>10.0</ele><time>2026-05-03T14:22:00.515Z</time></trkpt><trkpt lat="37.2934872" lon="13.5048759"><ele>10.25</ele><time>2026-05-03T14:22:01.516Z</time></trkpt><trkpt lat="37.29348" lon="13.505035"><ele>10.5</ele><time>2026-05-03T14:22:02.516Z</time></trkpt><trkpt lat="37.2934721" lon="13.505192"><ele>10.75</ele><time>2026-05-03T14:22:03.516Z</time></trkpt><trkpt lat="37.2934596" lon="13.50535"><ele>11.0</ele><time>2026-05-03T14:22:04.516Z</time></trkpt><trkpt lat="37.2934435" lon="13.5055093"><ele>11.0</ele><time>2026-05-03T14:22:05.515Z</time></trkpt><trkpt lat="37.2934268" lon="13.5056715"><ele>11.0</ele><time>2026-05-03T14:22:06.515Z</time></trkpt><trkpt lat="37.2934246" lon="13.5058286"><ele>11.0</ele><time>2026-05-03T14:22:07.516Z</time></trkpt><trkpt lat="37.2934236" lon="13.5059938"><ele>11.0</ele><time>2026-05-03T14:22:08.515Z</time></trkpt><trkpt lat="37.2934085" lon="13.5061535"><ele>11.0</ele><time>2026-05-03T14:22:09.516Z</time></trkpt><trkpt lat="37.2933981" lon="13.5063129"><ele>11.0</ele><time>2026-05-03T14:22:10.516Z</time></trkpt><trkpt lat="37.2933851" lon="13.5064724"><ele>11.0</ele><time>2026-05-03T14:22:11.516Z</time></trkpt><trkpt lat="37.2933721" lon="13.5066316"><ele>11.0</ele><time>2026-05-03T14:22:12.515Z</time></trkpt><trkpt lat="37.2933607" lon="13.5067847"><ele>11.0</ele><time>2026-05-03T14:22:13.516Z</time></trkpt><trkpt lat="37.2933516" lon="13.5069386"><ele>11.0</ele><time>2026-05-03T14:22:14.516Z</time></trkpt><trkpt lat="37.2933438" lon="13.5070873"><ele>11.0</ele><time>2026-05-03T14:22:15.516Z</time></trkpt><trkpt lat="37.2933306" lon="13.5072331"><ele>11.0</ele><time>2026-05-03T14:22:16.516Z</time></trkpt><trkpt lat="37.293317" lon="13.5073783"><ele>11.0</ele><time>2026-05-03T14:22:17.515Z</time></trkpt><trkpt lat="37.2932992" lon="13.5075237"><ele>11.0</ele><time>2026-05-03T14:22:18.516Z</time></trkpt><trkpt lat="37.2932824" lon="13.5076753"><ele>11.0</ele><time>2026-05-03T14:22:19.515Z</time></trkpt><trkpt lat="37.2932725" lon="13.5078302"><ele>11.0</ele><time>2026-05-03T14:22:20.516Z</time></trkpt><trkpt lat="37.293263" lon="13.5079919"><ele>10.75</ele><time>2026-05-03T14:22:21.516Z</time></trkpt><trkpt lat="37.2932512" lon="13.5081586"><ele>10.5</ele><time>2026-05-03T14:22:22.515Z</time></trkpt><trkpt lat="37.2932334" lon="13.5083264"><ele>10.25</ele><time>2026-05-03T14:22:23.516Z</time></trkpt><trkpt lat="37.2932176" lon="13.5084964"><ele>10.0</ele><time>2026-05-03T14:22:24.515Z</time></trkpt><trkpt lat="37.2932067" lon="13.5086681"><ele>10.25</ele><time>2026-05-03T14:22:25.516Z</time></trkpt><trkpt lat="37.2931906" lon="13.5088411"><ele>10.5</ele><time>2026-05-03T14:22:26.516Z</time></trkpt><trkpt lat="37.2931797" lon="13.5089988"><ele>10.75</ele><time>2026-05-03T14:22:27.515Z</time></trkpt><trkpt lat="37.2931665" lon="13.5091547"><ele>11.0</ele><time>2026-05-03T14:22:28.516Z</time></trkpt><trkpt lat="37.2931514" lon="13.5093023"><ele>11.0</ele><time>2026-05-03T14:22:29.516Z</time></trkpt><trkpt lat="37.293124" lon="13.50945"><ele>11.0</ele><time>2026-05-03T14:22:30.516Z</time></trkpt><trkpt lat="37.293105" lon="13.5095931"><ele>11.0</ele><time>2026-05-03T14:22:31.516Z</time></trkpt><trkpt lat="37.2930974" lon="13.5097316"><ele>11.0</ele><time>2026-05-03T14:22:32.516Z</time></trkpt><trkpt lat="37.293093" lon="13.5098746"><ele>10.0</ele><time>2026-05-03T14:22:33.515Z</time></trkpt><trkpt lat="37.2930692" lon="13.5100124"><ele>9.0</ele><time>2026-05-03T14:22:34.516Z</time></trkpt><trkpt lat="37.2930527" lon="13.5101396"><ele>8.0</ele><time>2026-05-03T14:22:35.516Z</time></trkpt><trkpt lat="37.2930329" lon="13.5102692"><ele>7.0</ele><time>2026-05-03T14:22:36.515Z</time></trkpt><trkpt lat="37.293012" lon="13.5103876"><ele>6.0</ele><time>2026-05-03T14:22:37.516Z</time></trkpt><trkpt lat="37.2929957" lon="13.5104891"><ele>6.0</ele><time>2026-05-03T14:22:38.516Z</time></trkpt><trkpt lat="37.2929791" lon="13.5105718"><ele>6.0</ele><time>2026-05-03T14:22:39.516Z</time></trkpt><trkpt lat="37.2929313" lon="13.5106864"><ele>6.0</ele><time>2026-05-03T14:22:41.515Z</time></trkpt><trkpt lat="37.2928747" lon="13.5107577"><ele>6.0</ele><time>2026-05-03T14:22:43.515Z</time></trkpt><trkpt lat="37.2928374" lon="13.5108561"><ele>6.0</ele><time>2026-05-03T14:22:45.515Z</time></trkpt><trkpt lat="37.292821" lon="13.5109665"><ele>6.0</ele><time>2026-05-03T14:22:47.516Z</time></trkpt><trkpt lat="37.2928058" lon="13.5110567"><ele>5.999999999999999</ele><time>2026-05-03T14:22:49.515Z</time></trkpt><trkpt lat="37.2927812" lon="13.5111619"><ele>6.0</ele><time>2026-05-03T14:22:51.516Z</time></trkpt><trkpt lat="37.2927584" lon="13.5112525"><ele>6.0</ele><time>2026-05-03T14:22:53.515Z</time></trkpt><trkpt lat="37.2927385" lon="13.5113403"><ele>6.0</ele><time>2026-05-03T14:22:55.515Z</time></trkpt><trkpt lat="37.2927175" lon="13.5114257"><ele>6.0</ele><time>2026-05-03T14:22:57.515Z</time></trkpt><trkpt lat="37.2926978" lon="13.5115112"><ele>5.999999999999999</ele><time>2026-05-03T14:22:59.515Z</time></trkpt><trkpt lat="37.292678" lon="13.5115927"><ele>6.0</ele><time>2026-05-03T14:23:01.516Z</time></trkpt><trkpt lat="37.2926604" lon="13.5116835"><ele>6.199999999999999</ele><time>2026-05-03T14:23:03.515Z</time></trkpt><trkpt lat="37.2926389" lon="13.5117864"><ele>6.3999999999999995</ele><time>2026-05-03T14:23:05.515Z</time></trkpt><trkpt lat="37.2926145" lon="13.5118958"><ele>6.6</ele><time>2026-05-03T14:23:07.516Z</time></trkpt><trkpt lat="37.2925846" lon="13.512022"><ele>6.8</ele><time>2026-05-03T14:23:09.515Z</time></trkpt><trkpt lat="37.2925553" lon="13.5121535"><ele>7.0</ele><time>2026-05-03T14:23:11.516Z</time></trkpt><trkpt lat="37.2925181" lon="13.5122746"><ele>7.199999999999999</ele><time>2026-05-03T14:23:13.515Z</time></trkpt><trkpt lat="37.2924823" lon="13.5124016"><ele>7.3999999999999995</ele><time>2026-05-03T14:23:15.516Z</time></trkpt><trkpt lat="37.2924549" lon="13.5125302"><ele>7.6000000000000005</ele><time>2026-05-03T14:23:17.516Z</time></trkpt><trkpt lat="37.2924239" lon="13.5126637"><ele>7.800000000000001</ele><time>2026-05-03T14:23:19.516Z</time></trkpt><trkpt lat="37.2923888" lon="13.5127922"><ele>8.0</ele><time>2026-05-03T14:23:21.515Z</time></trkpt><trkpt lat="37.2923613" lon="13.5129176"><ele>7.0</ele><time>2026-05-03T14:23:23.516Z</time></trkpt><trkpt lat="37.2923219" lon="13.5130465"><ele>6.000000000000001</ele><time>2026-05-03T14:23:25.515Z</time></trkpt><trkpt lat="37.292282" lon="13.5131682"><ele>5.0</ele><time>2026-05-03T14:23:27.515Z</time></trkpt><trkpt lat="37.2922424" lon="13.5132843"><ele>4.0</ele><time>2026-05-03T14:23:29.516Z</time></trkpt><trkpt lat="37.2921986" lon="13.5133993"><ele>3.0</ele><time>2026-05-03T14:23:31.516Z</time></trkpt><trkpt lat="37.2921633" lon="13.5134991"><ele>3.0</ele><time>2026-05-03T14:23:33.515Z</time></trkpt><trkpt lat="37.2921253" lon="13.5136076"><ele>3.0</ele><time>2026-05-03T14:23:35.515Z</time></trkpt><trkpt lat="37.2920855" lon="13.5137008"><ele>3.0</ele><time>2026-05-03T14:23:37.515Z</time></trkpt><trkpt lat="37.2920421" lon="13.5138013"><ele>3.0</ele><time>2026-05-03T14:23:39.516Z</time></trkpt><trkpt lat="37.2919904" lon="13.5139169"><ele>3.0</ele><time>2026-05-03T14:23:41.515Z</time></trkpt><trkpt lat="37.2919346" lon="13.5140498"><ele>3.833333333333333</ele><time>2026-05-03T14:23:43.516Z</time></trkpt><trkpt lat="37.2918819" lon="13.5141927"><ele>4.666666666666666</ele><time>2026-05-03T14:23:45.516Z</time></trkpt><trkpt lat="37.2918489" lon="13.5142721"><ele>5.5</ele><time>2026-05-03T14:23:46.516Z</time></trkpt><trkpt lat="37.2918156" lon="13.5143503"><ele>6.333333333333333</ele><time>2026-05-03T14:23:47.515Z</time></trkpt><trkpt lat="37.2917806" lon="13.514425"><ele>7.166666666666666</ele><time>2026-05-03T14:23:48.516Z</time></trkpt><trkpt lat="37.2917463" lon="13.5145008"><ele>8.0</ele><time>2026-05-03T14:23:49.516Z</time></trkpt><trkpt lat="37.2917133" lon="13.5145747"><ele>10.5</ele><time>2026-05-03T14:23:50.515Z</time></trkpt><trkpt lat="37.2916557" lon="13.5147061"><ele>13.0</ele><time>2026-05-03T14:23:52.516Z</time></trkpt><trkpt lat="37.291596" lon="13.5148337"><ele>15.5</ele><time>2026-05-03T14:23:54.516Z</time></trkpt><trkpt lat="37.2915419" lon="13.5149553"><ele>18.0</ele><time>2026-05-03T14:23:56.515Z</time></trkpt><trkpt lat="37.2914964" lon="13.5150751"><ele>18.0</ele><time>2026-05-03T14:23:58.515Z</time></trkpt><trkpt lat="37.2914415" lon="13.5152018"><ele>18.0</ele><time>2026-05-03T14:24:00.516Z</time></trkpt><trkpt lat="37.2913937" lon="13.5153248"><ele>18.0</ele><time>2026-05-03T14:24:02.516Z</time></trkpt><trkpt lat="37.2913411" lon="13.5154578"><ele>18.0</ele><time>2026-05-03T14:24:04.515Z</time></trkpt><trkpt lat="37.291291" lon="13.515586"><ele>16.5</ele><time>2026-05-03T14:24:06.515Z</time></trkpt><trkpt lat="37.2912591" lon="13.5156544"><ele>15.0</ele><time>2026-05-03T14:24:07.515Z</time></trkpt><trkpt lat="37.2911986" lon="13.5157812"><ele>13.5</ele><time>2026-05-03T14:24:09.516Z</time></trkpt><trkpt lat="37.2911455" lon="13.5159165"><ele>12.0</ele><time>2026-05-03T14:24:11.515Z</time></trkpt><trkpt lat="37.2911144" lon="13.515996"><ele>10.5</ele><time>2026-05-03T14:24:12.516Z</time></trkpt><trkpt lat="37.2910795" lon="13.5160798"><ele>9.0</ele><time>2026-05-03T14:24:13.515Z</time></trkpt><trkpt lat="37.2910497" lon="13.516157"><ele>9.0</ele><time>2026-05-03T14:24:14.516Z</time></trkpt><trkpt lat="37.2910169" lon="13.5162313"><ele>9.0</ele><time>2026-05-03T14:24:15.516Z</time></trkpt><trkpt lat="37.290984" lon="13.5163064"><ele>9.0</ele><time>2026-05-03T14:24:16.515Z</time></trkpt><trkpt lat="37.2909535" lon="13.5163817"><ele>9.0</ele><time>2026-05-03T14:24:17.515Z</time></trkpt><trkpt lat="37.2909231" lon="13.5164629"><ele>9.0</ele><time>2026-05-03T14:24:18.516Z</time></trkpt><trkpt lat="37.2908978" lon="13.5165413"><ele>9.0</ele><time>2026-05-03T14:24:19.515Z</time></trkpt><trkpt lat="37.2908604" lon="13.5166923"><ele>9.333333333333334</ele><time>2026-05-03T14:24:21.515Z</time></trkpt><trkpt lat="37.2908449" lon="13.51677"><ele>9.666666666666666</ele><time>2026-05-03T14:24:22.515Z</time></trkpt><trkpt lat="37.2908161" lon="13.5169283"><ele>10.0</ele><time>2026-05-03T14:24:24.516Z</time></trkpt><trkpt lat="37.2907984" lon="13.5170099"><ele>10.333333333333332</ele><time>2026-05-03T14:24:25.516Z</time></trkpt><trkpt lat="37.2907764" lon="13.5170974"><ele>10.666666666666666</ele><time>2026-05-03T14:24:26.516Z</time></trkpt><trkpt lat="37.2907486" lon="13.5171913"><ele>11.0</ele><time>2026-05-03T14:24:27.516Z</time></trkpt><trkpt lat="37.2907103" lon="13.5172941"><ele>10.200000000000001</ele><time>2026-05-03T14:24:28.516Z</time></trkpt><trkpt lat="37.2906619" lon="13.5174036"><ele>9.4</ele><time>2026-05-03T14:24:29.516Z</time></trkpt><trkpt lat="37.290615" lon="13.5175219"><ele>8.6</ele><time>2026-05-03T14:24:30.516Z</time></trkpt><trkpt lat="37.2905768" lon="13.5176444"><ele>7.8</ele><time>2026-05-03T14:24:31.516Z</time></trkpt><trkpt lat="37.2905149" lon="13.5177636"><ele>7.0</ele><time>2026-05-03T14:24:32.516Z</time></trkpt><trkpt lat="37.2904391" lon="13.5178805"><ele>7.75</ele><time>2026-05-03T14:24:33.516Z</time></trkpt><trkpt lat="37.2903597" lon="13.5179961"><ele>8.5</ele><time>2026-05-03T14:24:34.516Z</time></trkpt><trkpt lat="37.2902733" lon="13.518102"><ele>9.25</ele><time>2026-05-03T14:24:35.516Z</time></trkpt><trkpt lat="37.2901917" lon="13.5182178"><ele>10.0</ele><time>2026-05-03T14:24:36.515Z</time></trkpt><trkpt lat="37.2900995" lon="13.5183404"><ele>10.0</ele><time>2026-05-03T14:24:37.515Z</time></trkpt><trkpt lat="37.2900071" lon="13.5184717"><ele>10.0</ele><time>2026-05-03T14:24:38.516Z</time></trkpt><trkpt lat="37.289916" lon="13.5186088"><ele>10.0</ele><time>2026-05-03T14:24:39.516Z</time></trkpt><trkpt lat="37.2898143" lon="13.5187521"><ele>10.0</ele><time>2026-05-03T14:24:40.516Z</time></trkpt><trkpt lat="37.2897076" lon="13.5188971"><ele>9.666666666666668</ele><time>2026-05-03T14:24:41.516Z</time></trkpt><trkpt lat="37.2896011" lon="13.5190462"><ele>9.333333333333334</ele><time>2026-05-03T14:24:42.515Z</time></trkpt><trkpt lat="37.2894909" lon="13.5192027"><ele>9.0</ele><time>2026-05-03T14:24:43.515Z</time></trkpt><trkpt lat="37.2893769" lon="13.5193615"><ele>9.0</ele><time>2026-05-03T14:24:44.516Z</time></trkpt><trkpt lat="37.2892674" lon="13.5195201"><ele>9.0</ele><time>2026-05-03T14:24:45.515Z</time></trkpt><trkpt lat="37.2891564" lon="13.5196833"><ele>9.0</ele><time>2026-05-03T14:24:46.515Z</time></trkpt><trkpt lat="37.2890442" lon="13.5198454"><ele>7.666666666666667</ele><time>2026-05-03T14:24:47.515Z</time></trkpt><trkpt lat="37.2889364" lon="13.520014"><ele>6.333333333333334</ele><time>2026-05-03T14:24:48.516Z</time></trkpt><trkpt lat="37.288829" lon="13.5201884"><ele>5.0</ele><time>2026-05-03T14:24:49.515Z</time></trkpt><trkpt lat="37.288728" lon="13.5203645"><ele>6.333333333333334</ele><time>2026-05-03T14:24:50.516Z</time></trkpt><trkpt lat="37.2886292" lon="13.5205328"><ele>7.666666666666667</ele><time>2026-05-03T14:24:51.516Z</time></trkpt><trkpt lat="37.2885396" lon="13.5207022"><ele>9.0</ele><time>2026-05-03T14:24:52.515Z</time></trkpt><trkpt lat="37.2884461" lon="13.5208711"><ele>9.0</ele><time>2026-05-03T14:24:53.516Z</time></trkpt><trkpt lat="37.2883498" lon="13.5210343"><ele>9.0</ele><time>2026-05-03T14:24:54.516Z</time></trkpt><trkpt lat="37.2882526" lon="13.5211912"><ele>9.0</ele><time>2026-05-03T14:24:55.516Z</time></trkpt><trkpt lat="37.2881442" lon="13.5213452"><ele>10.666666666666668</ele><time>2026-05-03T14:24:56.515Z</time></trkpt><trkpt lat="37.2880424" lon="13.5214923"><ele>12.333333333333334</ele><time>2026-05-03T14:24:57.516Z</time></trkpt><trkpt lat="37.2879402" lon="13.5216366"><ele>14.0</ele><time>2026-05-03T14:24:58.515Z</time></trkpt><trkpt lat="37.2878311" lon="13.5217775"><ele>14.0</ele><time>2026-05-03T14:24:59.516Z</time></trkpt><trkpt lat="37.2877196" lon="13.5219185"><ele>14.0</ele><time>2026-05-03T14:25:00.515Z</time></trkpt><trkpt lat="37.2876143" lon="13.5220657"><ele>14.0</ele><time>2026-05-03T14:25:01.515Z</time></trkpt><trkpt lat="37.2875147" lon="13.5222172"><ele>12.0</ele><time>2026-05-03T14:25:02.516Z</time></trkpt><trkpt lat="37.287434" lon="13.5223835"><ele>10.0</ele><time>2026-05-03T14:25:03.515Z</time></trkpt><trkpt lat="37.2873709" lon="13.5225584"><ele>8.0</ele><time>2026-05-03T14:25:04.515Z</time></trkpt><trkpt lat="37.2873249" lon="13.5227351"><ele>8.666666666666666</ele><time>2026-05-03T14:25:05.516Z</time></trkpt><trkpt lat="37.2872656" lon="13.5229156"><ele>9.333333333333334</ele><time>2026-05-03T14:25:06.516Z</time></trkpt><trkpt lat="37.2872183" lon="13.5231042"><ele>10.0</ele><time>2026-05-03T14:25:07.516Z</time></trkpt><trkpt lat="37.2871686" lon="13.5232762"><ele>10.0</ele><time>2026-05-03T14:25:08.515Z</time></trkpt><trkpt lat="37.2871238" lon="13.5234517"><ele>10.0</ele><time>2026-05-03T14:25:09.516Z</time></trkpt><trkpt lat="37.2870867" lon="13.5236269"><ele>10.0</ele><time>2026-05-03T14:25:10.516Z</time></trkpt><trkpt lat="37.2870605" lon="13.523806"><ele>10.0</ele><time>2026-05-03T14:25:11.515Z</time></trkpt><trkpt lat="37.2870361" lon="13.5239884"><ele>8.333333333333334</ele><time>2026-05-03T14:25:12.516Z</time></trkpt><trkpt lat="37.287013" lon="13.5241785"><ele>6.666666666666667</ele><time>2026-05-03T14:25:13.515Z</time></trkpt><trkpt lat="37.2869883" lon="13.5243658"><ele>5.0</ele><time>2026-05-03T14:25:14.516Z</time></trkpt><trkpt lat="37.2869677" lon="13.524553"><ele>4.5</ele><time>2026-05-03T14:25:15.516Z</time></trkpt><trkpt lat="37.2869459" lon="13.5247362"><ele>4.0</ele><time>2026-05-03T14:25:16.516Z</time></trkpt><trkpt lat="37.2869242" lon="13.5249177"><ele>3.5</ele><time>2026-05-03T14:25:17.516Z</time></trkpt><trkpt lat="37.2869046" lon="13.5250862"><ele>3.0</ele><time>2026-05-03T14:25:18.515Z</time></trkpt><trkpt lat="37.2868897" lon="13.5252526"><ele>3.5</ele><time>2026-05-03T14:25:19.515Z</time></trkpt><trkpt lat="37.2868667" lon="13.5254185"><ele>4.0</ele><time>2026-05-03T14:25:20.515Z</time></trkpt><trkpt lat="37.2868501" lon="13.5255881"><ele>4.5</ele><time>2026-05-03T14:25:21.515Z</time></trkpt><trkpt lat="37.2868349" lon="13.5257596"><ele>5.0</ele><time>2026-05-03T14:25:22.516Z</time></trkpt><trkpt lat="37.2868211" lon="13.5259276"><ele>5.0</ele><time>2026-05-03T14:25:23.516Z</time></trkpt><trkpt lat="37.2868096" lon="13.5260842"><ele>5.0</ele><time>2026-05-03T14:25:24.516Z</time></trkpt><trkpt lat="37.2867976" lon="13.5262309"><ele>5.0</ele><time>2026-05-03T14:25:25.515Z</time></trkpt><trkpt lat="37.2867904" lon="13.5263665"><ele>5.0</ele><time>2026-05-03T14:25:26.515Z</time></trkpt><trkpt lat="37.2867843" lon="13.5265054"><ele>5.5</ele><time>2026-05-03T14:25:27.516Z</time></trkpt><trkpt lat="37.2867753" lon="13.5266529"><ele>6.0</ele><time>2026-05-03T14:25:28.516Z</time></trkpt><trkpt lat="37.286766" lon="13.5268085"><ele>6.5</ele><time>2026-05-03T14:25:29.515Z</time></trkpt><trkpt lat="37.2867749" lon="13.5269654"><ele>7.0</ele><time>2026-05-03T14:25:30.516Z</time></trkpt><trkpt lat="37.2867902" lon="13.5271235"><ele>7.0</ele><time>2026-05-03T14:25:31.515Z</time></trkpt><trkpt lat="37.2868118" lon="13.5272836"><ele>7.0</ele><time>2026-05-03T14:25:32.516Z</time></trkpt><trkpt lat="37.2868433" lon="13.5274417"><ele>7.0</ele><time>2026-05-03T14:25:33.515Z</time></trkpt><trkpt lat="37.286893" lon="13.5275991"><ele>7.0</ele><time>2026-05-03T14:25:34.515Z</time></trkpt><trkpt lat="37.2869487" lon="13.5277558"><ele>6.0</ele><time>2026-05-03T14:25:35.515Z</time></trkpt><trkpt lat="37.2870106" lon="13.5279099"><ele>5.0</ele><time>2026-05-03T14:25:36.515Z</time></trkpt><trkpt lat="37.2870647" lon="13.5280438"><ele>4.0</ele><time>2026-05-03T14:25:37.515Z</time></trkpt><trkpt lat="37.2871366" lon="13.528186"><ele>3.0</ele><time>2026-05-03T14:25:38.515Z</time></trkpt><trkpt lat="37.287204" lon="13.5283324"><ele>3.5</ele><time>2026-05-03T14:25:39.516Z</time></trkpt><trkpt lat="37.2872789" lon="13.528471"><ele>4.0</ele><time>2026-05-03T14:25:40.516Z</time></trkpt><trkpt lat="37.287357" lon="13.5286156"><ele>4.5</ele><time>2026-05-03T14:25:41.516Z</time></trkpt><trkpt lat="37.2874338" lon="13.5287599"><ele>5.0</ele><time>2026-05-03T14:25:42.515Z</time></trkpt><trkpt lat="37.28751" lon="13.5289091"><ele>5.0</ele><time>2026-05-03T14:25:43.515Z</time></trkpt><trkpt lat="37.2875871" lon="13.5290564"><ele>5.0</ele><time>2026-05-03T14:25:44.514Z</time></trkpt><trkpt lat="37.2876671" lon="13.5292026"><ele>5.0</ele><time>2026-05-03T14:25:45.514Z</time></trkpt><trkpt lat="37.2877457" lon="13.5293335"><ele>5.0</ele><time>2026-05-03T14:25:46.515Z</time></trkpt><trkpt lat="37.2878279" lon="13.5294545"><ele>5.0</ele><time>2026-05-03T14:25:47.515Z</time></trkpt><trkpt lat="37.287922" lon="13.5295544"><ele>5.0</ele><time>2026-05-03T14:25:48.515Z</time></trkpt><trkpt lat="37.2880263" lon="13.5296429"><ele>5.0</ele><time>2026-05-03T14:25:49.514Z</time></trkpt><trkpt lat="37.2881353" lon="13.5297256"><ele>5.0</ele><time>2026-05-03T14:25:50.515Z</time></trkpt><trkpt lat="37.2882468" lon="13.5297948"><ele>5.2</ele><time>2026-05-03T14:25:51.515Z</time></trkpt><trkpt lat="37.2883563" lon="13.5298619"><ele>5.4</ele><time>2026-05-03T14:25:52.515Z</time></trkpt><trkpt lat="37.2884549" lon="13.5299249"><ele>5.6</ele><time>2026-05-03T14:25:53.514Z</time></trkpt><trkpt lat="37.2885485" lon="13.5299892"><ele>5.8</ele><time>2026-05-03T14:25:54.514Z</time></trkpt><trkpt lat="37.2886267" lon="13.5300587"><ele>6.0</ele><time>2026-05-03T14:25:55.515Z</time></trkpt><trkpt lat="37.2886981" lon="13.5301305"><ele>6.0</ele><time>2026-05-03T14:25:56.515Z</time></trkpt><trkpt lat="37.2887623" lon="13.5302159"><ele>6.0</ele><time>2026-05-03T14:25:57.515Z</time></trkpt><trkpt lat="37.2888224" lon="13.5303165"><ele>6.0</ele><time>2026-05-03T14:25:58.515Z</time></trkpt><trkpt lat="37.2888785" lon="13.5304151"><ele>6.0</ele><time>2026-05-03T14:25:59.514Z</time></trkpt><trkpt lat="37.2889291" lon="13.5305156"><ele>6.0</ele><time>2026-05-03T14:26:00.515Z</time></trkpt><trkpt lat="37.2889737" lon="13.5306202"><ele>6.0</ele><time>2026-05-03T14:26:01.515Z</time></trkpt><trkpt lat="37.2890209" lon="13.5307193"><ele>6.0</ele><time>2026-05-03T14:26:02.515Z</time></trkpt><trkpt lat="37.289068" lon="13.5308165"><ele>6.0</ele><time>2026-05-03T14:26:03.515Z</time></trkpt><trkpt lat="37.2891178" lon="13.5309163"><ele>6.0</ele><time>2026-05-03T14:26:04.515Z</time></trkpt><trkpt lat="37.2891683" lon="13.5310173"><ele>6.0</ele><time>2026-05-03T14:26:05.514Z</time></trkpt><trkpt lat="37.2892074" lon="13.5311218"><ele>6.0</ele><time>2026-05-03T14:26:06.514Z</time></trkpt><trkpt lat="37.2892496" lon="13.5312322"><ele>6.0</ele><time>2026-05-03T14:26:07.514Z</time></trkpt><trkpt lat="37.2892968" lon="13.5313443"><ele>6.0</ele><time>2026-05-03T14:26:08.515Z</time></trkpt><trkpt lat="37.2893496" lon="13.5314557"><ele>6.0</ele><time>2026-05-03T14:26:09.515Z</time></trkpt><trkpt lat="37.289403" lon="13.5315643"><ele>6.0</ele><time>2026-05-03T14:26:10.515Z</time></trkpt><trkpt lat="37.2894519" lon="13.5316745"><ele>6.0</ele><time>2026-05-03T14:26:11.514Z</time></trkpt><trkpt lat="37.2894929" lon="13.5317742"><ele>6.0</ele><time>2026-05-03T14:26:12.515Z</time></trkpt><trkpt lat="37.2895264" lon="13.5318506"><ele>6.0</ele><time>2026-05-03T14:26:13.514Z</time></trkpt><trkpt lat="37.2895509" lon="13.5319586"><ele>6.0</ele><time>2026-05-03T14:26:15.515Z</time></trkpt><trkpt lat="37.289507" lon="13.5320508"><ele>6.0</ele><time>2026-05-03T14:26:17.514Z</time></trkpt><trkpt lat="37.2894584" lon="13.5321098"><ele>6.0</ele><time>2026-05-03T14:26:18.515Z</time></trkpt><trkpt lat="37.2893857" lon="13.5321711"><ele>5.8</ele><time>2026-05-03T14:26:19.515Z</time></trkpt><trkpt lat="37.2892861" lon="13.5322279"><ele>5.6</ele><time>2026-05-03T14:26:20.515Z</time></trkpt><trkpt lat="37.2891956" lon="13.5322785"><ele>5.4</ele><time>2026-05-03T14:26:21.515Z</time></trkpt><trkpt lat="37.2891098" lon="13.5323267"><ele>5.2</ele><time>2026-05-03T14:26:22.514Z</time></trkpt><trkpt lat="37.2890268" lon="13.532355"><ele>5.0</ele><time>2026-05-03T14:26:23.515Z</time></trkpt><trkpt lat="37.2889495" lon="13.5323714"><ele>4.6</ele><time>2026-05-03T14:26:24.514Z</time></trkpt><trkpt lat="37.2888754" lon="13.5323687"><ele>4.2</ele><time>2026-05-03T14:26:25.515Z</time></trkpt><trkpt lat="37.2888025" lon="13.5323694"><ele>3.8</ele><time>2026-05-03T14:26:26.515Z</time></trkpt><trkpt lat="37.2887378" lon="13.5323919"><ele>3.4</ele><time>2026-05-03T14:26:27.514Z</time></trkpt><trkpt lat="37.2886535" lon="13.5324991"><ele>3.0</ele><time>2026-05-03T14:26:29.514Z</time></trkpt><trkpt lat="37.2886535" lon="13.5326444"><ele>3.0</ele><time>2026-05-03T14:26:31.515Z</time></trkpt><trkpt lat="37.2886878" lon="13.5327146"><ele>3.0</ele><time>2026-05-03T14:26:32.515Z</time></trkpt><trkpt lat="37.2887373" lon="13.5327944"><ele>3.0</ele><time>2026-05-03T14:26:33.515Z</time></trkpt><trkpt lat="37.2887916" lon="13.5328855"><ele>3.0</ele><time>2026-05-03T14:26:34.514Z</time></trkpt><trkpt lat="37.2888387" lon="13.533006"><ele>3.0</ele><time>2026-05-03T14:26:35.515Z</time></trkpt><trkpt lat="37.2888733" lon="13.5331608"><ele>2.6666666666666665</ele><time>2026-05-03T14:26:36.515Z</time></trkpt><trkpt lat="37.2889075" lon="13.5333388"><ele>2.333333333333333</ele><time>2026-05-03T14:26:37.515Z</time></trkpt><trkpt lat="37.2889468" lon="13.5335409"><ele>2.0</ele><time>2026-05-03T14:26:38.515Z</time></trkpt><trkpt lat="37.2889917" lon="13.533757"><ele>2.6666666666666665</ele><time>2026-05-03T14:26:39.514Z</time></trkpt><trkpt lat="37.2890405" lon="13.5339912"><ele>3.333333333333333</ele><time>2026-05-03T14:26:40.515Z</time></trkpt><trkpt lat="37.289089" lon="13.5342377"><ele>4.0</ele><time>2026-05-03T14:26:41.514Z</time></trkpt><trkpt lat="37.2891409" lon="13.534496"><ele>3.6666666666666665</ele><time>2026-05-03T14:26:42.514Z</time></trkpt><trkpt lat="37.2891919" lon="13.5347606"><ele>3.333333333333333</ele><time>2026-05-03T14:26:43.515Z</time></trkpt><trkpt lat="37.2892442" lon="13.5350322"><ele>3.0</ele><time>2026-05-03T14:26:44.514Z</time></trkpt><trkpt lat="37.2892935" lon="13.5352979"><ele>3.333333333333333</ele><time>2026-05-03T14:26:45.514Z</time></trkpt><trkpt lat="37.289348" lon="13.5355478"><ele>3.6666666666666665</ele><time>2026-05-03T14:26:46.514Z</time></trkpt><trkpt lat="37.2893971" lon="13.5357902"><ele>4.0</ele><time>2026-05-03T14:26:47.515Z</time></trkpt><trkpt lat="37.2894252" lon="13.5360379"><ele>4.333333333333333</ele><time>2026-05-03T14:26:48.514Z</time></trkpt><trkpt lat="37.2894362" lon="13.5362861"><ele>4.666666666666667</ele><time>2026-05-03T14:26:49.514Z</time></trkpt><trkpt lat="37.2894281" lon="13.5365472"><ele>5.0</ele><time>2026-05-03T14:26:50.515Z</time></trkpt><trkpt lat="37.2894051" lon="13.5368234"><ele>5.5</ele><time>2026-05-03T14:26:51.515Z</time></trkpt><trkpt lat="37.2893789" lon="13.5371116"><ele>6.0</ele><time>2026-05-03T14:26:52.514Z</time></trkpt><trkpt lat="37.2893514" lon="13.537409"><ele>6.0</ele><time>2026-05-03T14:26:53.515Z</time></trkpt><trkpt lat="37.2893229" lon="13.5377116"><ele>6.0</ele><time>2026-05-03T14:26:54.515Z</time></trkpt><trkpt lat="37.2892934" lon="13.5380112"><ele>5.0</ele><time>2026-05-03T14:26:55.514Z</time></trkpt><trkpt lat="37.2892636" lon="13.5383149"><ele>4.0</ele><time>2026-05-03T14:26:56.515Z</time></trkpt><trkpt lat="37.2892347" lon="13.5386247"><ele>4.5</ele><time>2026-05-03T14:26:57.514Z</time></trkpt><trkpt lat="37.2892054" lon="13.5389318"><ele>5.0</ele><time>2026-05-03T14:26:58.515Z</time></trkpt><trkpt lat="37.2891761" lon="13.5392389"><ele>5.0</ele><time>2026-05-03T14:26:59.515Z</time></trkpt><trkpt lat="37.2891481" lon="13.5395485"><ele>5.0</ele><time>2026-05-03T14:27:00.515Z</time></trkpt><trkpt lat="37.289119" lon="13.5398634"><ele>5.0</ele><time>2026-05-03T14:27:01.515Z</time></trkpt><trkpt lat="37.2890912" lon="13.540174"><ele>5.0</ele><time>2026-05-03T14:27:02.515Z</time></trkpt><trkpt lat="37.2890637" lon="13.5404823"><ele>5.0</ele><time>2026-05-03T14:27:03.514Z</time></trkpt><trkpt lat="37.2890339" lon="13.5407861"><ele>5.0</ele><time>2026-05-03T14:27:04.514Z</time></trkpt><trkpt lat="37.2890032" lon="13.5410912"><ele>7.0</ele><time>2026-05-03T14:27:05.515Z</time></trkpt><trkpt lat="37.2889777" lon="13.5413944"><ele>9.0</ele><time>2026-05-03T14:27:06.515Z</time></trkpt><trkpt lat="37.2889513" lon="13.5416942"><ele>6.5</ele><time>2026-05-03T14:27:07.515Z</time></trkpt><trkpt lat="37.2889257" lon="13.5419857"><ele>4.0</ele><time>2026-05-03T14:27:08.514Z</time></trkpt><trkpt lat="37.2888994" lon="13.5422707"><ele>4.0</ele><time>2026-05-03T14:27:09.515Z</time></trkpt><trkpt lat="37.2888707" lon="13.5425467"><ele>4.0</ele><time>2026-05-03T14:27:10.514Z</time></trkpt><trkpt lat="37.2888455" lon="13.5428082"><ele>4.0</ele><time>2026-05-03T14:27:11.515Z</time></trkpt><trkpt lat="37.2888195" lon="13.543064"><ele>4.0</ele><time>2026-05-03T14:27:12.514Z</time></trkpt><trkpt lat="37.2887913" lon="13.5433097"><ele>4.0</ele><time>2026-05-03T14:27:13.515Z</time></trkpt><trkpt lat="37.2887576" lon="13.5435478"><ele>4.0</ele><time>2026-05-03T14:27:14.514Z</time></trkpt><trkpt lat="37.288706" lon="13.5437853"><ele>4.333333333333333</ele><time>2026-05-03T14:27:15.515Z</time></trkpt><trkpt lat="37.2886301" lon="13.5440248"><ele>4.666666666666667</ele><time>2026-05-03T14:27:16.515Z</time></trkpt><trkpt lat="37.2885379" lon="13.5442629"><ele>5.0</ele><time>2026-05-03T14:27:17.515Z</time></trkpt><trkpt lat="37.2884424" lon="13.5444951"><ele>4.333333333333334</ele><time>2026-05-03T14:27:18.515Z</time></trkpt><trkpt lat="37.2883454" lon="13.5447208"><ele>3.666666666666667</ele><time>2026-05-03T14:27:19.515Z</time></trkpt><trkpt lat="37.2882461" lon="13.5449388"><ele>3.0</ele><time>2026-05-03T14:27:20.515Z</time></trkpt><trkpt lat="37.2881543" lon="13.5451524"><ele>2.6666666666666665</ele><time>2026-05-03T14:27:21.515Z</time></trkpt><trkpt lat="37.288062" lon="13.5453703"><ele>2.333333333333333</ele><time>2026-05-03T14:27:22.514Z</time></trkpt><trkpt lat="37.287976" lon="13.5455819"><ele>2.0</ele><time>2026-05-03T14:27:23.515Z</time></trkpt><trkpt lat="37.2879031" lon="13.5457774"><ele>2.0</ele><time>2026-05-03T14:27:24.514Z</time></trkpt><trkpt lat="37.2878388" lon="13.5459713"><ele>2.0</ele><time>2026-05-03T14:27:25.515Z</time></trkpt><trkpt lat="37.2877707" lon="13.5461667"><ele>2.0</ele><time>2026-05-03T14:27:26.515Z</time></trkpt><trkpt lat="37.2877163" lon="13.5463691"><ele>3.0</ele><time>2026-05-03T14:27:27.514Z</time></trkpt><trkpt lat="37.2876512" lon="13.5466405"><ele>4.0</ele><time>2026-05-03T14:27:28.514Z</time></trkpt><trkpt lat="37.2875585" lon="13.546943"><ele>4.333333333333333</ele><time>2026-05-03T14:27:29.515Z</time></trkpt><trkpt lat="37.2874865" lon="13.5472283"><ele>4.666666666666667</ele><time>2026-05-03T14:27:30.515Z</time></trkpt><trkpt lat="37.2874604" lon="13.5474743"><ele>5.0</ele><time>2026-05-03T14:27:31.515Z</time></trkpt><trkpt lat="37.2874447" lon="13.5477351"><ele>5.333333333333334</ele><time>2026-05-03T14:27:32.514Z</time></trkpt><trkpt lat="37.2874471" lon="13.5480014"><ele>5.666666666666667</ele><time>2026-05-03T14:27:33.515Z</time></trkpt><trkpt lat="37.2874773" lon="13.5482801"><ele>6.0</ele><time>2026-05-03T14:27:34.515Z</time></trkpt><trkpt lat="37.2875216" lon="13.5485434"><ele>5.666666666666667</ele><time>2026-05-03T14:27:35.515Z</time></trkpt><trkpt lat="37.2875803" lon="13.5488079"><ele>5.333333333333334</ele><time>2026-05-03T14:27:36.515Z</time></trkpt><trkpt lat="37.2876505" lon="13.5490739"><ele>5.0</ele><time>2026-05-03T14:27:37.515Z</time></trkpt><trkpt lat="37.2877261" lon="13.5493378"><ele>4.666666666666667</ele><time>2026-05-03T14:27:38.514Z</time></trkpt><trkpt lat="37.2878028" lon="13.5495995"><ele>4.333333333333333</ele><time>2026-05-03T14:27:39.514Z</time></trkpt><trkpt lat="37.2878743" lon="13.5498546"><ele>4.0</ele><time>2026-05-03T14:27:40.514Z</time></trkpt><trkpt lat="37.2879422" lon="13.5501146"><ele>4.0</ele><time>2026-05-03T14:27:41.515Z</time></trkpt><trkpt lat="37.2879997" lon="13.5503718"><ele>4.0</ele><time>2026-05-03T14:27:42.515Z</time></trkpt><trkpt lat="37.2880515" lon="13.5506414"><ele>4.0</ele><time>2026-05-03T14:27:43.514Z</time></trkpt><trkpt lat="37.2880801" lon="13.5509343"><ele>10.333333333333334</ele><time>2026-05-03T14:27:44.514Z</time></trkpt><trkpt lat="37.2881056" lon="13.5511764"><ele>16.666666666666668</ele><time>2026-05-03T14:27:45.515Z</time></trkpt><trkpt lat="37.288116" lon="13.5514202"><ele>23.0</ele><time>2026-05-03T14:27:46.514Z</time></trkpt><trkpt lat="37.2881101" lon="13.5516725"><ele>20.0</ele><time>2026-05-03T14:27:47.514Z</time></trkpt><trkpt lat="37.2880903" lon="13.5519242"><ele>17.0</ele><time>2026-05-03T14:27:48.515Z</time></trkpt><trkpt lat="37.2880556" lon="13.5521827"><ele>14.0</ele><time>2026-05-03T14:27:49.514Z</time></trkpt><trkpt lat="37.2880071" lon="13.5524512"><ele>24.5</ele><time>2026-05-03T14:27:50.514Z</time></trkpt><trkpt lat="37.2879445" lon="13.5527261"><ele>35.0</ele><time>2026-05-03T14:27:51.514Z</time></trkpt><trkpt lat="37.2878616" lon="13.553006"><ele>41.5</ele><time>2026-05-03T14:27:52.514Z</time></trkpt><trkpt lat="37.2877641" lon="13.5532935"><ele>48.0</ele><time>2026-05-03T14:27:53.514Z</time></trkpt><trkpt lat="37.2876534" lon="13.5535861"><ele>40.0</ele><time>2026-05-03T14:27:54.515Z</time></trkpt><trkpt lat="37.2866315" lon="13.5555405"><ele>40.0</ele><time>2026-05-03T14:28:04.514Z</time></trkpt><trkpt lat="37.2865363" lon="13.5557352"><ele>40.0</ele><time>2026-05-03T14:28:05.514Z</time></trkpt><trkpt lat="37.2863971" lon="13.5559386"><ele>40.0</ele><time>2026-05-03T14:28:06.514Z</time></trkpt><trkpt lat="37.2862698" lon="13.5561506"><ele>39.66666666666667</ele><time>2026-05-03T14:28:07.515Z</time></trkpt><trkpt lat="37.2861416" lon="13.5563619"><ele>39.333333333333336</ele><time>2026-05-03T14:28:08.515Z</time></trkpt><trkpt lat="37.2860123" lon="13.5565723"><ele>39.0</ele><time>2026-05-03T14:28:09.514Z</time></trkpt><trkpt lat="37.2858824" lon="13.5567822"><ele>39.0</ele><time>2026-05-03T14:28:10.515Z</time></trkpt><trkpt lat="37.2857486" lon="13.5569961"><ele>39.0</ele><time>2026-05-03T14:28:11.514Z</time></trkpt><trkpt lat="37.2856208" lon="13.5572121"><ele>39.0</ele><time>2026-05-03T14:28:12.514Z</time></trkpt><trkpt lat="37.2854854" lon="13.557426"><ele>38.333333333333336</ele><time>2026-05-03T14:28:13.515Z</time></trkpt><trkpt lat="37.2853524" lon="13.557642"><ele>37.66666666666667</ele><time>2026-05-03T14:28:14.515Z</time></trkpt><trkpt lat="37.2852221" lon="13.5578599"><ele>37.0</ele><time>2026-05-03T14:28:15.515Z</time></trkpt><trkpt lat="37.2850944" lon="13.5580751"><ele>39.0</ele><time>2026-05-03T14:28:16.515Z</time></trkpt><trkpt lat="37.2849678" lon="13.5582899"><ele>41.0</ele><time>2026-05-03T14:28:17.514Z</time></trkpt><trkpt lat="37.2848424" lon="13.5585043"><ele>43.0</ele><time>2026-05-03T14:28:18.514Z</time></trkpt><trkpt lat="37.2847149" lon="13.5587221"><ele>43.0</ele><time>2026-05-03T14:28:19.515Z</time></trkpt><trkpt lat="37.2845848" lon="13.558935"><ele>43.0</ele><time>2026-05-03T14:28:20.515Z</time></trkpt><trkpt lat="37.2844531" lon="13.5591489"><ele>43.0</ele><time>2026-05-03T14:28:21.515Z</time></trkpt><trkpt lat="37.2843443" lon="13.5593482"><ele>44.333333333333336</ele><time>2026-05-03T14:28:22.514Z</time></trkpt><trkpt lat="37.2842148" lon="13.5595477"><ele>45.666666666666664</ele><time>2026-05-03T14:28:23.515Z</time></trkpt><trkpt lat="37.2841073" lon="13.5597499"><ele>47.0</ele><time>2026-05-03T14:28:24.515Z</time></trkpt><trkpt lat="37.2839936" lon="13.5599514"><ele>46.0</ele><time>2026-05-03T14:28:25.515Z</time></trkpt><trkpt lat="37.2838833" lon="13.5601378"><ele>45.0</ele><time>2026-05-03T14:28:26.515Z</time></trkpt><trkpt lat="37.2837805" lon="13.560309"><ele>44.0</ele><time>2026-05-03T14:28:27.514Z</time></trkpt><trkpt lat="37.2836802" lon="13.5604749"><ele>44.0</ele><time>2026-05-03T14:28:28.514Z</time></trkpt><trkpt lat="37.283579" lon="13.5606382"><ele>44.0</ele><time>2026-05-03T14:28:29.514Z</time></trkpt><trkpt lat="37.2834927" lon="13.560797"><ele>44.0</ele><time>2026-05-03T14:28:30.515Z</time></trkpt><trkpt lat="37.2834101" lon="13.5609588"><ele>44.0</ele><time>2026-05-03T14:28:31.515Z</time></trkpt><trkpt lat="37.2833414" lon="13.5611246"><ele>44.0</ele><time>2026-05-03T14:28:32.515Z</time></trkpt><trkpt lat="37.2832903" lon="13.5612968"><ele>44.0</ele><time>2026-05-03T14:28:33.515Z</time></trkpt><trkpt lat="37.283256" lon="13.5614713"><ele>44.0</ele><time>2026-05-03T14:28:34.515Z</time></trkpt><trkpt lat="37.2832407" lon="13.5616468"><ele>44.75</ele><time>2026-05-03T14:28:35.515Z</time></trkpt><trkpt lat="37.2832437" lon="13.5618227"><ele>45.5</ele><time>2026-05-03T14:28:36.514Z</time></trkpt><trkpt lat="37.2832695" lon="13.5619994"><ele>46.25</ele><time>2026-05-03T14:28:37.515Z</time></trkpt><trkpt lat="37.2833198" lon="13.5621703"><ele>47.0</ele><time>2026-05-03T14:28:38.514Z</time></trkpt><trkpt lat="37.2833738" lon="13.5623277"><ele>47.75</ele><time>2026-05-03T14:28:39.514Z</time></trkpt><trkpt lat="37.2834375" lon="13.5624615"><ele>48.5</ele><time>2026-05-03T14:28:40.515Z</time></trkpt><trkpt lat="37.2835188" lon="13.562579"><ele>49.25</ele><time>2026-05-03T14:28:41.514Z</time></trkpt><trkpt lat="37.283617" lon="13.5626817"><ele>50.0</ele><time>2026-05-03T14:28:42.515Z</time></trkpt><trkpt lat="37.2837326" lon="13.5627595"><ele>50.0</ele><time>2026-05-03T14:28:43.514Z</time></trkpt><trkpt lat="37.2838533" lon="13.5628022"><ele>50.0</ele><time>2026-05-03T14:28:44.515Z</time></trkpt><trkpt lat="37.2839787" lon="13.5628239"><ele>50.0</ele><time>2026-05-03T14:28:45.515Z</time></trkpt><trkpt lat="37.2841003" lon="13.5628131"><ele>50.0</ele><time>2026-05-03T14:28:46.515Z</time></trkpt><trkpt lat="37.2842074" lon="13.5627651"><ele>51.0</ele><time>2026-05-03T14:28:47.515Z</time></trkpt><trkpt lat="37.2843057" lon="13.5626859"><ele>52.0</ele><time>2026-05-03T14:28:48.514Z</time></trkpt><trkpt lat="37.2843948" lon="13.5625796"><ele>53.0</ele><time>2026-05-03T14:28:49.515Z</time></trkpt><trkpt lat="37.284463" lon="13.5624562"><ele>54.0</ele><time>2026-05-03T14:28:50.515Z</time></trkpt><trkpt lat="37.2845031" lon="13.5623174"><ele>54.0</ele><time>2026-05-03T14:28:51.514Z</time></trkpt><trkpt lat="37.2845189" lon="13.56217"><ele>54.0</ele><time>2026-05-03T14:28:52.515Z</time></trkpt><trkpt lat="37.2845178" lon="13.5620118"><ele>54.0</ele><time>2026-05-03T14:28:53.515Z</time></trkpt><trkpt lat="37.284501" lon="13.5618451"><ele>54.0</ele><time>2026-05-03T14:28:54.515Z</time></trkpt><trkpt lat="37.2844828" lon="13.561683"><ele>53.5</ele><time>2026-05-03T14:28:55.515Z</time></trkpt><trkpt lat="37.2844728" lon="13.561524"><ele>53.0</ele><time>2026-05-03T14:28:56.515Z</time></trkpt><trkpt lat="37.2844731" lon="13.5613726"><ele>52.5</ele><time>2026-05-03T14:28:57.514Z</time></trkpt><trkpt lat="37.2844868" lon="13.561224"><ele>52.0</ele><time>2026-05-03T14:28:58.515Z</time></trkpt><trkpt lat="37.2845165" lon="13.5610871"><ele>51.8</ele><time>2026-05-03T14:28:59.514Z</time></trkpt><trkpt lat="37.2845491" lon="13.5609666"><ele>51.6</ele><time>2026-05-03T14:29:00.514Z</time></trkpt><trkpt lat="37.2845995" lon="13.5608587"><ele>51.4</ele><time>2026-05-03T14:29:01.514Z</time></trkpt><trkpt lat="37.284648" lon="13.5607665"><ele>51.199999999999996</ele><time>2026-05-03T14:29:02.515Z</time></trkpt><trkpt lat="37.2847322" lon="13.5606941"><ele>51.0</ele><time>2026-05-03T14:29:03.515Z</time></trkpt><trkpt lat="37.2847938" lon="13.5606412"><ele>51.199999999999996</ele><time>2026-05-03T14:29:04.514Z</time></trkpt><trkpt lat="37.2848755" lon="13.5605869"><ele>51.4</ele><time>2026-05-03T14:29:05.514Z</time></trkpt><trkpt lat="37.2849663" lon="13.5605279"><ele>51.6</ele><time>2026-05-03T14:29:06.515Z</time></trkpt><trkpt lat="37.2850531" lon="13.560462"><ele>51.8</ele><time>2026-05-03T14:29:07.515Z</time></trkpt><trkpt lat="37.2851441" lon="13.5603778"><ele>52.0</ele><time>2026-05-03T14:29:08.515Z</time></trkpt><trkpt lat="37.285233" lon="13.5603026"><ele>51.99999999999999</ele><time>2026-05-03T14:29:09.515Z</time></trkpt><trkpt lat="37.2853075" lon="13.560248"><ele>52.0</ele><time>2026-05-03T14:29:10.514Z</time></trkpt><trkpt lat="37.2853729" lon="13.5602186"><ele>52.0</ele><time>2026-05-03T14:29:11.514Z</time></trkpt><trkpt lat="37.2854573" lon="13.5602492"><ele>52.0</ele><time>2026-05-03T14:29:13.514Z</time></trkpt><trkpt lat="37.2854747" lon="13.5603492"><ele>51.99999999999999</ele><time>2026-05-03T14:29:15.514Z</time></trkpt><trkpt lat="37.2854037" lon="13.5604603"><ele>52.0</ele><time>2026-05-03T14:29:17.515Z</time></trkpt><trkpt lat="37.285299" lon="13.560511"><ele>52.0</ele><time>2026-05-03T14:29:19.514Z</time></trkpt><trkpt lat="37.2852156" lon="13.5604519"><ele>52.0</ele><time>2026-05-03T14:29:21.515Z</time></trkpt><trkpt lat="37.2851512" lon="13.5603243"><ele>52.0</ele><time>2026-05-03T14:29:23.514Z</time></trkpt><trkpt lat="37.2851069" lon="13.5602116"><ele>52.0</ele><time>2026-05-03T14:29:25.514Z</time></trkpt><trkpt lat="37.2851078" lon="13.5601312"><ele>52.0</ele><time>2026-05-03T14:29:27.514Z</time></trkpt><trkpt lat="37.2851868" lon="13.5600255"><ele>51.99999999999999</ele><time>2026-05-03T14:29:29.514Z</time></trkpt><trkpt lat="37.2852507" lon="13.5599777"><ele>52.0</ele><time>2026-05-03T14:29:30.514Z</time></trkpt><trkpt lat="37.2853086" lon="13.5599435"><ele>52.0</ele><time>2026-05-03T14:29:31.515Z</time></trkpt><trkpt lat="37.285405" lon="13.5599338"><ele>52.0</ele><time>2026-05-03T14:29:33.514Z</time></trkpt><trkpt lat="37.2854609" lon="13.5599793"><ele>51.99999999999999</ele><time>2026-05-03T14:29:35.515Z</time></trkpt><trkpt lat="37.2854448" lon="13.5600817"><ele>52.0</ele><time>2026-05-03T14:29:45.515Z</time></trkpt><trkpt lat="37.2853299" lon="13.5602093"><ele>52.0</ele><time>2026-05-03T14:29:47.515Z</time></trkpt><trkpt lat="37.2852162" lon="13.5602955"><ele>52.0</ele><time>2026-05-03T14:29:48.515Z</time></trkpt><trkpt lat="37.285076" lon="13.5604015"><ele>52.0</ele><time>2026-05-03T14:29:49.515Z</time></trkpt><trkpt lat="37.2849175" lon="13.5605258"><ele>51.666666666666664</ele><time>2026-05-03T14:29:50.514Z</time></trkpt><trkpt lat="37.2847476" lon="13.5606667"><ele>51.33333333333333</ele><time>2026-05-03T14:29:51.515Z</time></trkpt><trkpt lat="37.284572" lon="13.5608129"><ele>51.0</ele><time>2026-05-03T14:29:52.514Z</time></trkpt><trkpt lat="37.2843913" lon="13.5609657"><ele>51.0</ele><time>2026-05-03T14:29:53.514Z</time></trkpt><trkpt lat="37.2842105" lon="13.5611215"><ele>51.0</ele><time>2026-05-03T14:29:54.514Z</time></trkpt><trkpt lat="37.2840304" lon="13.5612817"><ele>51.0</ele><time>2026-05-03T14:29:55.514Z</time></trkpt><trkpt lat="37.2838542" lon="13.5614452"><ele>49.666666666666664</ele><time>2026-05-03T14:29:56.515Z</time></trkpt><trkpt lat="37.2836875" lon="13.5616062"><ele>48.33333333333333</ele><time>2026-05-03T14:29:57.515Z</time></trkpt><trkpt lat="37.283525" lon="13.5617621"><ele>47.0</ele><time>2026-05-03T14:29:58.515Z</time></trkpt><trkpt lat="37.2833677" lon="13.561918"><ele>46.33333333333333</ele><time>2026-05-03T14:29:59.514Z</time></trkpt><trkpt lat="37.2832166" lon="13.5620785"><ele>45.666666666666664</ele><time>2026-05-03T14:30:00.515Z</time></trkpt><trkpt lat="37.2830621" lon="13.5622236"><ele>45.0</ele><time>2026-05-03T14:30:01.514Z</time></trkpt><trkpt lat="37.2829017" lon="13.5623591"><ele>45.0</ele><time>2026-05-03T14:30:02.515Z</time></trkpt><trkpt lat="37.2827388" lon="13.5624851"><ele>45.0</ele><time>2026-05-03T14:30:03.514Z</time></trkpt><trkpt lat="37.2825717" lon="13.5625986"><ele>45.0</ele><time>2026-05-03T14:30:04.515Z</time></trkpt><trkpt lat="37.2824238" lon="13.5627306"><ele>45.0</ele><time>2026-05-03T14:30:05.515Z</time></trkpt><trkpt lat="37.2822788" lon="13.5628519"><ele>45.0</ele><time>2026-05-03T14:30:06.515Z</time></trkpt><trkpt lat="37.2821397" lon="13.562984"><ele>45.0</ele><time>2026-05-03T14:30:07.514Z</time></trkpt><trkpt lat="37.2820082" lon="13.563154"><ele>46.33333333333333</ele><time>2026-05-03T14:30:08.515Z</time></trkpt><trkpt lat="37.2818829" lon="13.5633328"><ele>47.666666666666664</ele><time>2026-05-03T14:30:09.515Z</time></trkpt><trkpt lat="37.2817732" lon="13.5635411"><ele>49.0</ele><time>2026-05-03T14:30:10.514Z</time></trkpt><trkpt lat="37.2816448" lon="13.5637057"><ele>50.0</ele><time>2026-05-03T14:30:11.515Z</time></trkpt><trkpt lat="37.2815213" lon="13.5638845"><ele>51.0</ele><time>2026-05-03T14:30:12.515Z</time></trkpt><trkpt lat="37.2813978" lon="13.5640666"><ele>52.0</ele><time>2026-05-03T14:30:13.515Z</time></trkpt><trkpt lat="37.2812741" lon="13.5642512"><ele>50.666666666666664</ele><time>2026-05-03T14:30:14.515Z</time></trkpt><trkpt lat="37.2811492" lon="13.5644393"><ele>49.33333333333333</ele><time>2026-05-03T14:30:15.514Z</time></trkpt><trkpt lat="37.2810254" lon="13.5646247"><ele>48.0</ele><time>2026-05-03T14:30:16.514Z</time></trkpt><trkpt lat="37.2809023" lon="13.5648136"><ele>48.0</ele><time>2026-05-03T14:30:17.515Z</time></trkpt><trkpt lat="37.280781" lon="13.5650006"><ele>48.0</ele><time>2026-05-03T14:30:18.515Z</time></trkpt><trkpt lat="37.2806659" lon="13.5651784"><ele>48.0</ele><time>2026-05-03T14:30:19.515Z</time></trkpt><trkpt lat="37.2805517" lon="13.5653547"><ele>48.66666666666667</ele><time>2026-05-03T14:30:20.515Z</time></trkpt><trkpt lat="37.2804348" lon="13.5655335"><ele>49.333333333333336</ele><time>2026-05-03T14:30:21.515Z</time></trkpt><trkpt lat="37.2803208" lon="13.5657097"><ele>50.0</ele><time>2026-05-03T14:30:22.514Z</time></trkpt><trkpt lat="37.280207" lon="13.5658872"><ele>50.0</ele><time>2026-05-03T14:30:23.514Z</time></trkpt><trkpt lat="37.280087" lon="13.5660627"><ele>50.0</ele><time>2026-05-03T14:30:24.515Z</time></trkpt><trkpt lat="37.279968" lon="13.5662448"><ele>50.0</ele><time>2026-05-03T14:30:25.514Z</time></trkpt><trkpt lat="37.2798476" lon="13.5664192"><ele>48.333333333333336</ele><time>2026-05-03T14:30:26.515Z</time></trkpt><trkpt lat="37.2797307" lon="13.5665989"><ele>46.66666666666667</ele><time>2026-05-03T14:30:27.514Z</time></trkpt><trkpt lat="37.2796159" lon="13.5667808"><ele>45.0</ele><time>2026-05-03T14:30:28.514Z</time></trkpt><trkpt lat="37.2794997" lon="13.566967"><ele>47.33333333333333</ele><time>2026-05-03T14:30:29.515Z</time></trkpt><trkpt lat="37.2793792" lon="13.5671514"><ele>49.666666666666664</ele><time>2026-05-03T14:30:30.515Z</time></trkpt><trkpt lat="37.2792569" lon="13.5673414"><ele>52.0</ele><time>2026-05-03T14:30:31.515Z</time></trkpt><trkpt lat="37.2791375" lon="13.5675283"><ele>52.0</ele><time>2026-05-03T14:30:32.514Z</time></trkpt><trkpt lat="37.2790214" lon="13.5677122"><ele>52.0</ele><time>2026-05-03T14:30:33.515Z</time></trkpt><trkpt lat="37.2789058" lon="13.5678946"><ele>52.0</ele><time>2026-05-03T14:30:34.514Z</time></trkpt><trkpt lat="37.278789" lon="13.5680737"><ele>51.666666666666664</ele><time>2026-05-03T14:30:35.515Z</time></trkpt><trkpt lat="37.2786724" lon="13.5682527"><ele>51.33333333333333</ele><time>2026-05-03T14:30:36.514Z</time></trkpt><trkpt lat="37.2785589" lon="13.5684277"><ele>51.0</ele><time>2026-05-03T14:30:37.515Z</time></trkpt><trkpt lat="37.2784442" lon="13.5686032"><ele>50.66666666666667</ele><time>2026-05-03T14:30:38.514Z</time></trkpt><trkpt lat="37.2783285" lon="13.5687782"><ele>50.333333333333336</ele><time>2026-05-03T14:30:39.515Z</time></trkpt><trkpt lat="37.278211" lon="13.5689561"><ele>50.0</ele><time>2026-05-03T14:30:40.515Z</time></trkpt><trkpt lat="37.2780975" lon="13.5691356"><ele>50.0</ele><time>2026-05-03T14:30:41.514Z</time></trkpt><trkpt lat="37.277985" lon="13.5693173"><ele>50.0</ele><time>2026-05-03T14:30:42.515Z</time></trkpt><trkpt lat="37.2778784" lon="13.5694986"><ele>50.0</ele><time>2026-05-03T14:30:43.515Z</time></trkpt><trkpt lat="37.2777769" lon="13.5696845"><ele>51.66666666666667</ele><time>2026-05-03T14:30:44.515Z</time></trkpt><trkpt lat="37.2776794" lon="13.5698754"><ele>53.33333333333333</ele><time>2026-05-03T14:30:45.515Z</time></trkpt><trkpt lat="37.2775852" lon="13.5700701"><ele>55.0</ele><time>2026-05-03T14:30:46.514Z</time></trkpt><trkpt lat="37.2774994" lon="13.5702673"><ele>54.666666666666664</ele><time>2026-05-03T14:30:47.515Z</time></trkpt><trkpt lat="37.2774145" lon="13.5704661"><ele>54.33333333333333</ele><time>2026-05-03T14:30:48.514Z</time></trkpt><trkpt lat="37.2773328" lon="13.5706675"><ele>54.0</ele><time>2026-05-03T14:30:49.514Z</time></trkpt><trkpt lat="37.277262" lon="13.5708648"><ele>54.0</ele><time>2026-05-03T14:30:50.514Z</time></trkpt><trkpt lat="37.2771981" lon="13.5710518"><ele>54.0</ele><time>2026-05-03T14:30:51.514Z</time></trkpt><trkpt lat="37.2771352" lon="13.571239"><ele>54.0</ele><time>2026-05-03T14:30:52.515Z</time></trkpt><trkpt lat="37.2770835" lon="13.5714271"><ele>54.0</ele><time>2026-05-03T14:30:53.514Z</time></trkpt><trkpt lat="37.2770349" lon="13.5716126"><ele>54.0</ele><time>2026-05-03T14:30:54.515Z</time></trkpt><trkpt lat="37.2769853" lon="13.5717984"><ele>54.0</ele><time>2026-05-03T14:30:55.515Z</time></trkpt><trkpt lat="37.2769452" lon="13.5719828"><ele>53.75</ele><time>2026-05-03T14:30:56.514Z</time></trkpt><trkpt lat="37.2769057" lon="13.5721667"><ele>53.5</ele><time>2026-05-03T14:30:57.514Z</time></trkpt><trkpt lat="37.2768684" lon="13.5723473"><ele>53.25</ele><time>2026-05-03T14:30:58.515Z</time></trkpt><trkpt lat="37.2768408" lon="13.5725285"><ele>53.0</ele><time>2026-05-03T14:30:59.514Z</time></trkpt><trkpt lat="37.2768184" lon="13.5727124"><ele>52.0</ele><time>2026-05-03T14:31:00.515Z</time></trkpt><trkpt lat="37.2767816" lon="13.5728882"><ele>51.0</ele><time>2026-05-03T14:31:01.514Z</time></trkpt><trkpt lat="37.2767706" lon="13.5730695"><ele>50.0</ele><time>2026-05-03T14:31:02.514Z</time></trkpt><trkpt lat="37.276756" lon="13.5732398"><ele>49.0</ele><time>2026-05-03T14:31:03.515Z</time></trkpt><trkpt lat="37.2767444" lon="13.5734078"><ele>49.0</ele><time>2026-05-03T14:31:04.514Z</time></trkpt><trkpt lat="37.2767366" lon="13.5735563"><ele>49.0</ele><time>2026-05-03T14:31:05.515Z</time></trkpt><trkpt lat="37.2767327" lon="13.5736885"><ele>49.0</ele><time>2026-05-03T14:31:06.514Z</time></trkpt><trkpt lat="37.2767269" lon="13.5737897"><ele>49.0</ele><time>2026-05-03T14:31:07.515Z</time></trkpt><trkpt lat="37.2767055" lon="13.5739013"><ele>49.0</ele><time>2026-05-03T14:31:09.514Z</time></trkpt><trkpt lat="37.2766479" lon="13.5739873"><ele>48.49999999999999</ele><time>2026-05-03T14:31:12.515Z</time></trkpt><trkpt lat="37.2765977" lon="13.5740771"><ele>48.0</ele><time>2026-05-03T14:31:15.515Z</time></trkpt><trkpt lat="37.2765392" lon="13.5741086"><ele>47.5</ele><time>2026-05-03T14:31:17.514Z</time></trkpt><trkpt lat="37.2764745" lon="13.5740964"><ele>47.0</ele><time>2026-05-03T14:31:19.514Z</time></trkpt><trkpt lat="37.2764177" lon="13.5740619"><ele>46.5</ele><time>2026-05-03T14:31:21.515Z</time></trkpt><trkpt lat="37.2763437" lon="13.5740071"><ele>46.0</ele><time>2026-05-03T14:31:23.515Z</time></trkpt><trkpt lat="37.2762649" lon="13.5739568"><ele>45.8</ele><time>2026-05-03T14:31:25.515Z</time></trkpt><trkpt lat="37.2761928" lon="13.5739019"><ele>45.599999999999994</ele><time>2026-05-03T14:31:27.515Z</time></trkpt><trkpt lat="37.2761069" lon="13.5738852"><ele>45.4</ele><time>2026-05-03T14:31:29.515Z</time></trkpt><trkpt lat="37.2760129" lon="13.5739081"><ele>45.2</ele><time>2026-05-03T14:31:31.515Z</time></trkpt><trkpt lat="37.2759238" lon="13.5739417"><ele>45.0</ele><time>2026-05-03T14:31:33.514Z</time></trkpt><trkpt lat="37.2758314" lon="13.5739814"><ele>45.0</ele><time>2026-05-03T14:31:35.515Z</time></trkpt><trkpt lat="37.2757384" lon="13.5740321"><ele>45.0</ele><time>2026-05-03T14:31:37.514Z</time></trkpt><trkpt lat="37.2756506" lon="13.5740712"><ele>45.0</ele><time>2026-05-03T14:31:39.514Z</time></trkpt><trkpt lat="37.2755575" lon="13.5741142"><ele>45.0</ele><time>2026-05-03T14:31:41.515Z</time></trkpt><trkpt lat="37.2754514" lon="13.5741676"><ele>45.0</ele><time>2026-05-03T14:31:43.514Z</time></trkpt><trkpt lat="37.2753417" lon="13.5742243"><ele>45.0</ele><time>2026-05-03T14:31:45.515Z</time></trkpt><trkpt lat="37.2752299" lon="13.5742798"><ele>45.0</ele><time>2026-05-03T14:31:47.515Z</time></trkpt><trkpt lat="37.2751232" lon="13.5743314"><ele>45.0</ele><time>2026-05-03T14:31:49.514Z</time></trkpt><trkpt lat="37.2750583" lon="13.5743615"><ele>45.0</ele><time>2026-05-03T14:31:50.515Z</time></trkpt><trkpt lat="37.2749946" lon="13.5743957"><ele>45.0</ele><time>2026-05-03T14:31:51.514Z</time></trkpt><trkpt lat="37.2749234" lon="13.574427"><ele>45.0</ele><time>2026-05-03T14:31:52.514Z</time></trkpt><trkpt lat="37.2748468" lon="13.5744628"><ele>45.0</ele><time>2026-05-03T14:31:53.515Z</time></trkpt><trkpt lat="37.2747759" lon="13.5744955"><ele>45.0</ele><time>2026-05-03T14:31:54.515Z</time></trkpt><trkpt lat="37.2747007" lon="13.5745321"><ele>45.0</ele><time>2026-05-03T14:31:55.515Z</time></trkpt><trkpt lat="37.2746211" lon="13.5745685"><ele>45.0</ele><time>2026-05-03T14:31:56.515Z</time></trkpt><trkpt lat="37.274542" lon="13.5746049"><ele>45.0</ele><time>2026-05-03T14:31:57.515Z</time></trkpt><trkpt lat="37.2744668" lon="13.5746403"><ele>45.0</ele><time>2026-05-03T14:31:58.514Z</time></trkpt><trkpt lat="37.2743953" lon="13.5746765"><ele>44.333333333333336</ele><time>2026-05-03T14:31:59.515Z</time></trkpt><trkpt lat="37.2743223" lon="13.5747111"><ele>43.666666666666664</ele><time>2026-05-03T14:32:00.515Z</time></trkpt><trkpt lat="37.2742512" lon="13.5747443"><ele>43.0</ele><time>2026-05-03T14:32:01.515Z</time></trkpt><trkpt lat="37.274187" lon="13.5747755"><ele>42.33333333333333</ele><time>2026-05-03T14:32:02.515Z</time></trkpt><trkpt lat="37.2741275" lon="13.574805"><ele>41.666666666666664</ele><time>2026-05-03T14:32:03.515Z</time></trkpt><trkpt lat="37.2740289" lon="13.5748602"><ele>41.0</ele><time>2026-05-03T14:32:05.515Z</time></trkpt><trkpt lat="37.2739651" lon="13.5748975"><ele>40.83333333333333</ele><time>2026-05-03T14:32:07.515Z</time></trkpt><trkpt lat="37.2738914" lon="13.5748545"><ele>40.666666666666664</ele><time>2026-05-03T14:32:36.514Z</time></trkpt><trkpt lat="37.2738729" lon="13.5747604"><ele>40.5</ele><time>2026-05-03T14:32:38.515Z</time></trkpt><trkpt lat="37.2738492" lon="13.5746535"><ele>40.333333333333336</ele><time>2026-05-03T14:32:40.515Z</time></trkpt><trkpt lat="37.2738345" lon="13.5745596"><ele>40.16666666666667</ele><time>2026-05-03T14:32:42.515Z</time></trkpt><trkpt lat="37.2738115" lon="13.5744646"><ele>40.0</ele><time>2026-05-03T14:32:44.514Z</time></trkpt><trkpt lat="37.2737843" lon="13.5743703"><ele>39.5</ele><time>2026-05-03T14:32:46.515Z</time></trkpt><trkpt lat="37.2737494" lon="13.5742565"><ele>39.0</ele><time>2026-05-03T14:32:48.515Z</time></trkpt><trkpt lat="37.2737269" lon="13.5741581"><ele>38.5</ele><time>2026-05-03T14:32:50.514Z</time></trkpt><trkpt lat="37.2736956" lon="13.5740409"><ele>38.0</ele><time>2026-05-03T14:32:52.514Z</time></trkpt><trkpt lat="37.2736757" lon="13.5739329"><ele>37.5</ele><time>2026-05-03T14:32:54.515Z</time></trkpt><trkpt lat="37.2736608" lon="13.5738452"><ele>37.0</ele><time>2026-05-03T14:32:56.514Z</time></trkpt><trkpt lat="37.2736383" lon="13.573757"><ele>37.0</ele><time>2026-05-03T14:32:59.514Z</time></trkpt><trkpt lat="37.2735737" lon="13.5737723"><ele>37.0</ele><time>2026-05-03T14:33:09.514Z</time></trkpt><trkpt lat="37.2735153" lon="13.5738121"><ele>37.0</ele><time>2026-05-03T14:33:11.514Z</time></trkpt><trkpt lat="37.2734587" lon="13.5738658"><ele>37.0</ele><time>2026-05-03T14:33:13.514Z</time></trkpt><trkpt lat="37.2733854" lon="13.5739437"><ele>37.0</ele><time>2026-05-03T14:33:15.515Z</time></trkpt><trkpt lat="37.2733365" lon="13.5739985"><ele>37.0</ele><time>2026-05-03T14:33:16.515Z</time></trkpt><trkpt lat="37.273248" lon="13.5740892"><ele>37.0</ele><time>2026-05-03T14:33:18.514Z</time></trkpt><trkpt lat="37.2731957" lon="13.5741422"><ele>37.0</ele><time>2026-05-03T14:33:19.514Z</time></trkpt><trkpt lat="37.2730913" lon="13.574242"><ele>37.0</ele><time>2026-05-03T14:33:21.515Z</time></trkpt><trkpt lat="37.273028" lon="13.5743015"><ele>37.0</ele><time>2026-05-03T14:33:22.515Z</time></trkpt><trkpt lat="37.2729603" lon="13.5743687"><ele>37.0</ele><time>2026-05-03T14:33:23.514Z</time></trkpt><trkpt lat="37.2728807" lon="13.5744415"><ele>36.2</ele><time>2026-05-03T14:33:24.515Z</time></trkpt><trkpt lat="37.2728033" lon="13.5745176"><ele>35.400000000000006</ele><time>2026-05-03T14:33:25.514Z</time></trkpt><trkpt lat="37.2727321" lon="13.5745958"><ele>34.599999999999994</ele><time>2026-05-03T14:33:26.515Z</time></trkpt><trkpt lat="37.2726705" lon="13.57467"><ele>33.8</ele><time>2026-05-03T14:33:27.515Z</time></trkpt><trkpt lat="37.2726126" lon="13.5747338"><ele>33.0</ele><time>2026-05-03T14:33:28.514Z</time></trkpt><trkpt lat="37.2725357" lon="13.5748045"><ele>33.0</ele><time>2026-05-03T14:33:29.515Z</time></trkpt><trkpt lat="37.2724661" lon="13.5748806"><ele>33.0</ele><time>2026-05-03T14:33:30.514Z</time></trkpt><trkpt lat="37.2723937" lon="13.5749537"><ele>33.0</ele><time>2026-05-03T14:33:31.514Z</time></trkpt><trkpt lat="37.2723191" lon="13.5750232"><ele>33.0</ele><time>2026-05-03T14:33:32.515Z</time></trkpt><trkpt lat="37.2722459" lon="13.5750921"><ele>33.0</ele><time>2026-05-03T14:33:33.515Z</time></trkpt><trkpt lat="37.2721734" lon="13.5751543"><ele>32.666666666666664</ele><time>2026-05-03T14:33:34.514Z</time></trkpt><trkpt lat="37.2721023" lon="13.5752083"><ele>32.333333333333336</ele><time>2026-05-03T14:33:35.514Z</time></trkpt><trkpt lat="37.2720391" lon="13.5752511"><ele>32.0</ele><time>2026-05-03T14:33:36.515Z</time></trkpt><trkpt lat="37.2719794" lon="13.5752931"><ele>31.666666666666668</ele><time>2026-05-03T14:33:37.515Z</time></trkpt><trkpt lat="37.2719173" lon="13.5753345"><ele>31.333333333333336</ele><time>2026-05-03T14:33:38.515Z</time></trkpt><trkpt lat="37.2718522" lon="13.5753637"><ele>31.0</ele><time>2026-05-03T14:33:39.514Z</time></trkpt><trkpt lat="37.2717333" lon="13.5754307"><ele>31.0</ele><time>2026-05-03T14:33:41.515Z</time></trkpt><trkpt lat="37.2716743" lon="13.5754637"><ele>31.000000000000004</ele><time>2026-05-03T14:33:42.514Z</time></trkpt><trkpt lat="37.2715991" lon="13.5754892"><ele>31.0</ele><time>2026-05-03T14:33:43.515Z</time></trkpt><trkpt lat="37.271519" lon="13.5755144"><ele>31.0</ele><time>2026-05-03T14:33:44.515Z</time></trkpt><trkpt lat="37.2714533" lon="13.575543"><ele>31.000000000000004</ele><time>2026-05-03T14:33:45.515Z</time></trkpt><trkpt lat="37.2713814" lon="13.5755803"><ele>31.0</ele><time>2026-05-03T14:33:46.514Z</time></trkpt><trkpt lat="37.2713208" lon="13.5756164"><ele>31.0</ele><time>2026-05-03T14:33:47.514Z</time></trkpt><trkpt lat="37.2712644" lon="13.5756556"><ele>30.000000000000004</ele><time>2026-05-03T14:33:48.514Z</time></trkpt><trkpt lat="37.2711939" lon="13.5757084"><ele>29.0</ele><time>2026-05-03T14:33:49.515Z</time></trkpt><trkpt lat="37.2711131" lon="13.5757629"><ele>28.0</ele><time>2026-05-03T14:33:50.514Z</time></trkpt><trkpt lat="37.2710374" lon="13.5758494"><ele>27.0</ele><time>2026-05-03T14:33:51.515Z</time></trkpt><trkpt lat="37.2709767" lon="13.5759073"><ele>26.000000000000004</ele><time>2026-05-03T14:33:52.515Z</time></trkpt><trkpt lat="37.270911" lon="13.5759635"><ele>25.0</ele><time>2026-05-03T14:33:53.515Z</time></trkpt><trkpt lat="37.2708419" lon="13.5760269"><ele>25.000000000000004</ele><time>2026-05-03T14:33:54.515Z</time></trkpt><trkpt lat="37.2707829" lon="13.5760952"><ele>25.0</ele><time>2026-05-03T14:33:55.515Z</time></trkpt><trkpt lat="37.2707167" lon="13.5761609"><ele>25.0</ele><time>2026-05-03T14:33:56.515Z</time></trkpt><trkpt lat="37.2706499" lon="13.5762174"><ele>25.0</ele><time>2026-05-03T14:33:57.513Z</time></trkpt><trkpt lat="37.2705832" lon="13.5762694"><ele>25.000000000000004</ele><time>2026-05-03T14:33:58.514Z</time></trkpt><trkpt lat="37.2705169" lon="13.5763194"><ele>25.0</ele><time>2026-05-03T14:33:59.514Z</time></trkpt><trkpt lat="37.2704515" lon="13.5763657"><ele>24.333333333333336</ele><time>2026-05-03T14:34:00.514Z</time></trkpt><trkpt lat="37.2703858" lon="13.5764065"><ele>23.666666666666668</ele><time>2026-05-03T14:34:01.513Z</time></trkpt><trkpt lat="37.2703191" lon="13.5764451"><ele>23.0</ele><time>2026-05-03T14:34:02.514Z</time></trkpt><trkpt lat="37.2702494" lon="13.576484"><ele>22.333333333333336</ele><time>2026-05-03T14:34:03.514Z</time></trkpt><trkpt lat="37.2701776" lon="13.5765255"><ele>21.666666666666668</ele><time>2026-05-03T14:34:04.514Z</time></trkpt><trkpt lat="37.2701063" lon="13.5765732"><ele>21.0</ele><time>2026-05-03T14:34:05.514Z</time></trkpt><trkpt lat="37.270037" lon="13.5766231"><ele>21.0</ele><time>2026-05-03T14:34:06.514Z</time></trkpt><trkpt lat="37.269969" lon="13.5766722"><ele>21.0</ele><time>2026-05-03T14:34:07.514Z</time></trkpt><trkpt lat="37.2699002" lon="13.5767199"><ele>21.0</ele><time>2026-05-03T14:34:08.514Z</time></trkpt><trkpt lat="37.2698344" lon="13.5767616"><ele>21.0</ele><time>2026-05-03T14:34:09.514Z</time></trkpt><trkpt lat="37.2697682" lon="13.5767991"><ele>21.0</ele><time>2026-05-03T14:34:10.513Z</time></trkpt><trkpt lat="37.269705" lon="13.576844"><ele>21.0</ele><time>2026-05-03T14:34:11.514Z</time></trkpt><trkpt lat="37.2696418" lon="13.5768869"><ele>21.0</ele><time>2026-05-03T14:34:12.514Z</time></trkpt><trkpt lat="37.2695795" lon="13.5769286"><ele>20.428571428571427</ele><time>2026-05-03T14:34:13.514Z</time></trkpt><trkpt lat="37.2695206" lon="13.5769689"><ele>19.857142857142858</ele><time>2026-05-03T14:34:14.513Z</time></trkpt><trkpt lat="37.2694606" lon="13.5770077"><ele>19.285714285714285</ele><time>2026-05-03T14:34:15.514Z</time></trkpt><trkpt lat="37.2694024" lon="13.5770463"><ele>18.714285714285715</ele><time>2026-05-03T14:34:16.513Z</time></trkpt><trkpt lat="37.2693447" lon="13.5770891"><ele>18.142857142857142</ele><time>2026-05-03T14:34:17.514Z</time></trkpt><trkpt lat="37.2692901" lon="13.5771348"><ele>17.57142857142857</ele><time>2026-05-03T14:34:18.513Z</time></trkpt><trkpt lat="37.2692358" lon="13.5771805"><ele>17.0</ele><time>2026-05-03T14:34:19.513Z</time></trkpt><trkpt lat="37.2691833" lon="13.5772287"><ele>16.999999999999996</ele><time>2026-05-03T14:34:20.513Z</time></trkpt><trkpt lat="37.269125" lon="13.5772747"><ele>17.0</ele><time>2026-05-03T14:34:21.513Z</time></trkpt><trkpt lat="37.2690596" lon="13.5773236"><ele>17.0</ele><time>2026-05-03T14:34:22.513Z</time></trkpt><trkpt lat="37.2689967" lon="13.577367"><ele>17.0</ele><time>2026-05-03T14:34:23.513Z</time></trkpt><trkpt lat="37.2689334" lon="13.5774111"><ele>17.0</ele><time>2026-05-03T14:34:24.513Z</time></trkpt><trkpt lat="37.2688709" lon="13.5774554"><ele>16.999999999999996</ele><time>2026-05-03T14:34:25.514Z</time></trkpt><trkpt lat="37.2688094" lon="13.5775003"><ele>17.0</ele><time>2026-05-03T14:34:26.514Z</time></trkpt><trkpt lat="37.2687461" lon="13.5775392"><ele>16.285714285714285</ele><time>2026-05-03T14:34:27.513Z</time></trkpt><trkpt lat="37.2686791" lon="13.5775719"><ele>15.571428571428571</ele><time>2026-05-03T14:34:28.514Z</time></trkpt><trkpt lat="37.2686146" lon="13.5776044"><ele>14.857142857142856</ele><time>2026-05-03T14:34:29.514Z</time></trkpt><trkpt lat="37.2685518" lon="13.5776357"><ele>14.142857142857142</ele><time>2026-05-03T14:34:30.514Z</time></trkpt><trkpt lat="37.2684843" lon="13.5776749"><ele>13.428571428571427</ele><time>2026-05-03T14:34:31.514Z</time></trkpt><trkpt lat="37.2684147" lon="13.5777208"><ele>12.714285714285714</ele><time>2026-05-03T14:34:32.514Z</time></trkpt><trkpt lat="37.2683439" lon="13.5777719"><ele>12.0</ele><time>2026-05-03T14:34:33.514Z</time></trkpt><trkpt lat="37.2682744" lon="13.5778187"><ele>11.5</ele><time>2026-05-03T14:34:34.514Z</time></trkpt><trkpt lat="37.2682041" lon="13.5778701"><ele>11.0</ele><time>2026-05-03T14:34:35.513Z</time></trkpt><trkpt lat="37.2681353" lon="13.5779211"><ele>10.5</ele><time>2026-05-03T14:34:36.513Z</time></trkpt><trkpt lat="37.2680676" lon="13.5779713"><ele>10.0</ele><time>2026-05-03T14:34:37.513Z</time></trkpt><trkpt lat="37.2679994" lon="13.5780261"><ele>9.5</ele><time>2026-05-03T14:34:38.514Z</time></trkpt><trkpt lat="37.2679304" lon="13.5780848"><ele>9.0</ele><time>2026-05-03T14:34:39.514Z</time></trkpt><trkpt lat="37.2678608" lon="13.5781426"><ele>9.0</ele><time>2026-05-03T14:34:40.513Z</time></trkpt><trkpt lat="37.2677901" lon="13.5781997"><ele>9.0</ele><time>2026-05-03T14:34:41.513Z</time></trkpt><trkpt lat="37.2677127" lon="13.5782547"><ele>9.0</ele><time>2026-05-03T14:34:42.514Z</time></trkpt><trkpt lat="37.2676349" lon="13.578306"><ele>9.0</ele><time>2026-05-03T14:34:43.514Z</time></trkpt><trkpt lat="37.2675596" lon="13.5783549"><ele>9.0</ele><time>2026-05-03T14:34:44.513Z</time></trkpt><trkpt lat="37.2674797" lon="13.5784037"><ele>9.0</ele><time>2026-05-03T14:34:45.514Z</time></trkpt><trkpt lat="37.2673998" lon="13.5784572"><ele>9.0</ele><time>2026-05-03T14:34:46.514Z</time></trkpt><trkpt lat="37.2673147" lon="13.5785127"><ele>9.0</ele><time>2026-05-03T14:34:47.513Z</time></trkpt><trkpt lat="37.2672281" lon="13.5785713"><ele>9.0</ele><time>2026-05-03T14:34:48.514Z</time></trkpt><trkpt lat="37.2671417" lon="13.5786237"><ele>9.0</ele><time>2026-05-03T14:34:49.513Z</time></trkpt><trkpt lat="37.2670579" lon="13.5786728"><ele>9.0</ele><time>2026-05-03T14:34:50.514Z</time></trkpt><trkpt lat="37.2669779" lon="13.5787226"><ele>8.6</ele><time>2026-05-03T14:34:51.513Z</time></trkpt><trkpt lat="37.2669004" lon="13.5787704"><ele>8.2</ele><time>2026-05-03T14:34:52.514Z</time></trkpt><trkpt lat="37.2668277" lon="13.5788142"><ele>7.799999999999999</ele><time>2026-05-03T14:34:53.513Z</time></trkpt><trkpt lat="37.2667607" lon="13.5788551"><ele>7.3999999999999995</ele><time>2026-05-03T14:34:54.513Z</time></trkpt><trkpt lat="37.2666541" lon="13.5789215"><ele>7.0</ele><time>2026-05-03T14:34:56.513Z</time></trkpt><trkpt lat="37.2665558" lon="13.578949"><ele>7.000000000000001</ele><time>2026-05-03T14:34:58.513Z</time></trkpt><trkpt lat="37.2664709" lon="13.5789382"><ele>7.0</ele><time>2026-05-03T14:35:00.514Z</time></trkpt><trkpt lat="37.2663849" lon="13.5788947"><ele>7.0</ele><time>2026-05-03T14:35:02.514Z</time></trkpt><trkpt lat="37.2663281" lon="13.5788576"><ele>7.0</ele><time>2026-05-03T14:35:03.514Z</time></trkpt><trkpt lat="37.2662645" lon="13.5788148"><ele>7.000000000000001</ele><time>2026-05-03T14:35:04.514Z</time></trkpt><trkpt lat="37.2661817" lon="13.5787659"><ele>7.0</ele><time>2026-05-03T14:35:05.514Z</time></trkpt><trkpt lat="37.2660957" lon="13.5787127"><ele>6.833333333333334</ele><time>2026-05-03T14:35:06.513Z</time></trkpt><trkpt lat="37.2660116" lon="13.5786645"><ele>6.666666666666667</ele><time>2026-05-03T14:35:07.513Z</time></trkpt><trkpt lat="37.2659453" lon="13.5786288"><ele>6.5</ele><time>2026-05-03T14:35:08.514Z</time></trkpt><trkpt lat="37.2658432" lon="13.5785743"><ele>6.333333333333334</ele><time>2026-05-03T14:35:10.513Z</time></trkpt><trkpt lat="37.2657584" lon="13.5785675"><ele>6.166666666666667</ele><time>2026-05-03T14:35:13.513Z</time></trkpt><trkpt lat="37.2657078" lon="13.5786377"><ele>6.0</ele><time>2026-05-03T14:35:15.514Z</time></trkpt><trkpt lat="37.2656794" lon="13.5787142"><ele>6.0</ele><time>2026-05-03T14:35:16.513Z</time></trkpt><trkpt lat="37.265637" lon="13.5788314"><ele>6.0</ele><time>2026-05-03T14:35:17.514Z</time></trkpt><trkpt lat="37.2655753" lon="13.5789714"><ele>6.0</ele><time>2026-05-03T14:35:18.513Z</time></trkpt><trkpt lat="37.2655113" lon="13.5791188"><ele>6.0</ele><time>2026-05-03T14:35:19.513Z</time></trkpt><trkpt lat="37.2654558" lon="13.5792586"><ele>6.199999999999999</ele><time>2026-05-03T14:35:20.514Z</time></trkpt><trkpt lat="37.2654082" lon="13.579388"><ele>6.3999999999999995</ele><time>2026-05-03T14:35:21.514Z</time></trkpt><trkpt lat="37.2653651" lon="13.5795069"><ele>6.6</ele><time>2026-05-03T14:35:22.514Z</time></trkpt><trkpt lat="37.2653169" lon="13.5796254"><ele>6.8</ele><time>2026-05-03T14:35:23.515Z</time></trkpt><trkpt lat="37.2652626" lon="13.5797455"><ele>7.0</ele><time>2026-05-03T14:35:24.514Z</time></trkpt><trkpt lat="37.2652089" lon="13.5798654"><ele>7.199999999999999</ele><time>2026-05-03T14:35:25.515Z</time></trkpt><trkpt lat="37.2651563" lon="13.5799784"><ele>7.3999999999999995</ele><time>2026-05-03T14:35:26.515Z</time></trkpt><trkpt lat="37.2651077" lon="13.5800859"><ele>7.6000000000000005</ele><time>2026-05-03T14:35:27.514Z</time></trkpt><trkpt lat="37.2650611" lon="13.5801919"><ele>7.800000000000001</ele><time>2026-05-03T14:35:28.514Z</time></trkpt><trkpt lat="37.265018" lon="13.5802922"><ele>8.0</ele><time>2026-05-03T14:35:29.515Z</time></trkpt><trkpt lat="37.2649793" lon="13.5803869"><ele>7.999999999999999</ele><time>2026-05-03T14:35:30.515Z</time></trkpt><trkpt lat="37.2649434" lon="13.5804668"><ele>8.0</ele><time>2026-05-03T14:35:31.514Z</time></trkpt><trkpt lat="37.2649097" lon="13.5805418"><ele>8.0</ele><time>2026-05-03T14:35:32.513Z</time></trkpt><trkpt lat="37.2648587" lon="13.5806395"><ele>8.0</ele><time>2026-05-03T14:35:34.513Z</time></trkpt><trkpt lat="37.2648088" lon="13.5806881"><ele>7.999999999999999</ele><time>2026-05-03T14:35:38.513Z</time></trkpt><trkpt lat="37.2647447" lon="13.5806529"><ele>8.0</ele><time>2026-05-03T14:35:45.514Z</time></trkpt><trkpt lat="37.2646714" lon="13.5805809"><ele>8.0</ele><time>2026-05-03T14:35:48.513Z</time></trkpt><trkpt lat="37.2646113" lon="13.5805179"><ele>8.0</ele><time>2026-05-03T14:35:50.514Z</time></trkpt><trkpt lat="37.2645524" lon="13.5804297"><ele>8.0</ele><time>2026-05-03T14:35:52.513Z</time></trkpt><trkpt lat="37.2644841" lon="13.5803335"><ele>8.0</ele><time>2026-05-03T14:35:54.513Z</time></trkpt><trkpt lat="37.2644115" lon="13.5802273"><ele>8.0</ele><time>2026-05-03T14:35:56.514Z</time></trkpt><trkpt lat="37.2643401" lon="13.5801119"><ele>8.200000000000001</ele><time>2026-05-03T14:35:58.514Z</time></trkpt><trkpt lat="37.2642719" lon="13.5800152"><ele>8.4</ele><time>2026-05-03T14:36:00.514Z</time></trkpt><trkpt lat="37.2642001" lon="13.5799112"><ele>8.600000000000001</ele><time>2026-05-03T14:36:02.514Z</time></trkpt><trkpt lat="37.2641235" lon="13.5798093"><ele>8.8</ele><time>2026-05-03T14:36:04.514Z</time></trkpt><trkpt lat="37.2640443" lon="13.5796953"><ele>9.0</ele><time>2026-05-03T14:36:06.514Z</time></trkpt><trkpt lat="37.2639714" lon="13.5795816"><ele>9.0</ele><time>2026-05-03T14:36:08.513Z</time></trkpt><trkpt lat="37.2639139" lon="13.5794865"><ele>9.0</ele><time>2026-05-03T14:36:10.514Z</time></trkpt><trkpt lat="37.263855" lon="13.5793976"><ele>9.0</ele><time>2026-05-03T14:36:12.513Z</time></trkpt><trkpt lat="37.2638162" lon="13.5793235"><ele>9.0</ele><time>2026-05-03T14:36:14.514Z</time></trkpt><trkpt lat="37.2637659" lon="13.5792368"><ele>9.0</ele><time>2026-05-03T14:36:17.514Z</time></trkpt><trkpt lat="37.263712" lon="13.5791617"><ele>9.0</ele><time>2026-05-03T14:36:19.514Z</time></trkpt><trkpt lat="37.2636452" lon="13.5790781"><ele>9.0</ele><time>2026-05-03T14:36:21.514Z</time></trkpt><trkpt lat="37.263561" lon="13.5789829"><ele>9.0</ele><time>2026-05-03T14:36:23.513Z</time></trkpt><trkpt lat="37.263509" lon="13.5789365"><ele>9.0</ele><time>2026-05-03T14:36:24.514Z</time></trkpt><trkpt lat="37.2634514" lon="13.5789004"><ele>9.0</ele><time>2026-05-03T14:36:25.514Z</time></trkpt><trkpt lat="37.2633379" lon="13.5788524"><ele>9.0</ele><time>2026-05-03T14:36:27.513Z</time></trkpt><trkpt lat="37.2632359" lon="13.5788462"><ele>9.0</ele><time>2026-05-03T14:36:29.513Z</time></trkpt><trkpt lat="37.2631459" lon="13.5788567"><ele>9.0</ele><time>2026-05-03T14:36:31.514Z</time></trkpt><trkpt lat="37.2630755" lon="13.5788608"><ele>9.0</ele><time>2026-05-03T14:36:33.514Z</time></trkpt><trkpt lat="37.2630108" lon="13.5788333"><ele>9.0</ele><time>2026-05-03T14:36:35.513Z</time></trkpt><trkpt lat="37.2629595" lon="13.5787711"><ele>9.0</ele><time>2026-05-03T14:36:37.514Z</time></trkpt><trkpt lat="37.2629502" lon="13.578663"><ele>9.0</ele><time>2026-05-03T14:36:39.514Z</time></trkpt><trkpt lat="37.2629385" lon="13.5785435"><ele>8.333333333333334</ele><time>2026-05-03T14:36:41.513Z</time></trkpt><trkpt lat="37.2629109" lon="13.5784267"><ele>7.666666666666667</ele><time>2026-05-03T14:36:43.513Z</time></trkpt><trkpt lat="37.2628624" lon="13.5783467"><ele>7.0</ele><time>2026-05-03T14:36:45.514Z</time></trkpt><trkpt lat="37.2628133" lon="13.5782772"><ele>6.333333333333334</ele><time>2026-05-03T14:36:47.514Z</time></trkpt><trkpt lat="37.2627678" lon="13.5782179"><ele>5.666666666666667</ele><time>2026-05-03T14:36:49.514Z</time></trkpt><trkpt lat="37.26271" lon="13.5781644"><ele>5.0</ele><time>2026-05-03T14:36:51.513Z</time></trkpt><trkpt lat="37.2626637" lon="13.5781037"><ele>5.0</ele><time>2026-05-03T14:36:53.514Z</time></trkpt><trkpt lat="37.2626385" lon="13.5780283"><ele>5.0</ele><time>2026-05-03T14:36:55.514Z</time></trkpt><trkpt lat="37.2626488" lon="13.5779128"><ele>5.0</ele><time>2026-05-03T14:36:57.514Z</time></trkpt><trkpt lat="37.2626542" lon="13.5777949"><ele>5.0</ele><time>2026-05-03T14:36:59.514Z</time></trkpt><trkpt lat="37.2626151" lon="13.5776968"><ele>5.0</ele><time>2026-05-03T14:37:01.513Z</time></trkpt><trkpt lat="37.2625457" lon="13.5776192"><ele>5.0</ele><time>2026-05-03T14:37:03.514Z</time></trkpt><trkpt lat="37.2624352" lon="13.5775607"><ele>5.0</ele><time>2026-05-03T14:37:05.513Z</time></trkpt><trkpt lat="37.2623686" lon="13.5775273"><ele>5.0</ele><time>2026-05-03T14:37:06.513Z</time></trkpt><trkpt lat="37.262303" lon="13.5774927"><ele>5.0</ele><time>2026-05-03T14:37:07.514Z</time></trkpt><trkpt lat="37.2622365" lon="13.5774585"><ele>5.0</ele><time>2026-05-03T14:37:08.514Z</time></trkpt><trkpt lat="37.2621684" lon="13.577423"><ele>5.0</ele><time>2026-05-03T14:37:09.513Z</time></trkpt><trkpt lat="37.262101" lon="13.5773871"><ele>5.0</ele><time>2026-05-03T14:37:10.514Z</time></trkpt><trkpt lat="37.2620354" lon="13.5773532"><ele>5.0</ele><time>2026-05-03T14:37:11.514Z</time></trkpt><trkpt lat="37.2619663" lon="13.577315"><ele>4.571428571428571</ele><time>2026-05-03T14:37:12.514Z</time></trkpt><trkpt lat="37.2618974" lon="13.5772749"><ele>4.142857142857143</ele><time>2026-05-03T14:37:13.513Z</time></trkpt><trkpt lat="37.2618298" lon="13.5772363"><ele>3.7142857142857144</ele><time>2026-05-03T14:37:14.513Z</time></trkpt><trkpt lat="37.2617612" lon="13.577194"><ele>3.2857142857142856</ele><time>2026-05-03T14:37:15.514Z</time></trkpt><trkpt lat="37.2616947" lon="13.5771503"><ele>2.8571428571428568</ele><time>2026-05-03T14:37:16.514Z</time></trkpt><trkpt lat="37.2616335" lon="13.577109"><ele>2.4285714285714284</ele><time>2026-05-03T14:37:17.514Z</time></trkpt><trkpt lat="37.2615754" lon="13.5770701"><ele>2.0</ele><time>2026-05-03T14:37:18.514Z</time></trkpt><trkpt lat="37.2615121" lon="13.5770223"><ele>2.0</ele><time>2026-05-03T14:37:19.513Z</time></trkpt><trkpt lat="37.2614057" lon="13.5769506"><ele>2.0</ele><time>2026-05-03T14:37:21.514Z</time></trkpt><trkpt lat="37.2613068" lon="13.5768872"><ele>2.0</ele><time>2026-05-03T14:37:23.514Z</time></trkpt><trkpt lat="37.2612204" lon="13.5768408"><ele>2.0</ele><time>2026-05-03T14:37:25.514Z</time></trkpt><trkpt lat="37.2611341" lon="13.5767842"><ele>2.0</ele><time>2026-05-03T14:37:27.514Z</time></trkpt><trkpt lat="37.2610289" lon="13.576728"><ele>1.9999999999999998</ele><time>2026-05-03T14:37:29.514Z</time></trkpt><trkpt lat="37.2609096" lon="13.5767007"><ele>2.0</ele><time>2026-05-03T14:37:31.514Z</time></trkpt><trkpt lat="37.260842" lon="13.5766937"><ele>2.0</ele><time>2026-05-03T14:37:32.513Z</time></trkpt><trkpt lat="37.2607721" lon="13.5766934"><ele>2.0</ele><time>2026-05-03T14:37:33.513Z</time></trkpt><trkpt lat="37.2607003" lon="13.5767043"><ele>1.9999999999999998</ele><time>2026-05-03T14:37:34.514Z</time></trkpt><trkpt lat="37.2606276" lon="13.5767209"><ele>2.0</ele><time>2026-05-03T14:37:35.514Z</time></trkpt><trkpt lat="37.2605539" lon="13.5767414"><ele>2.0</ele><time>2026-05-03T14:37:36.514Z</time></trkpt><trkpt lat="37.2604845" lon="13.5767572"><ele>1.9999999999999998</ele><time>2026-05-03T14:37:37.514Z</time></trkpt><trkpt lat="37.2604164" lon="13.5767737"><ele>2.0</ele><time>2026-05-03T14:37:38.514Z</time></trkpt><trkpt lat="37.2603528" lon="13.5767892"><ele>2.0</ele><time>2026-05-03T14:37:39.514Z</time></trkpt><trkpt lat="37.2602488" lon="13.5768048"><ele>1.9999999999999998</ele><time>2026-05-03T14:37:41.514Z</time></trkpt><trkpt lat="37.2601781" lon="13.5768179"><ele>2.0</ele><time>2026-05-03T14:37:43.513Z</time></trkpt><trkpt lat="37.2601353" lon="13.5768815"><ele>2.0</ele><time>2026-05-03T14:37:46.514Z</time></trkpt><trkpt lat="37.2602069" lon="13.5769006"><ele>2.0</ele><time>2026-05-03T14:37:50.513Z</time></trkpt><trkpt lat="37.2602792" lon="13.5768594"><ele>2.0</ele><time>2026-05-03T14:37:52.513Z</time></trkpt><trkpt lat="37.2603821" lon="13.5768177"><ele>2.0</ele><time>2026-05-03T14:37:54.513Z</time></trkpt><trkpt lat="37.2604962" lon="13.5767918"><ele>2.0</ele><time>2026-05-03T14:37:56.514Z</time></trkpt><trkpt lat="37.2606207" lon="13.5767666"><ele>2.0</ele><time>2026-05-03T14:37:58.514Z</time></trkpt><trkpt lat="37.2606902" lon="13.5767553"><ele>2.0</ele><time>2026-05-03T14:37:59.513Z</time></trkpt><trkpt lat="37.2607574" lon="13.5767468"><ele>1.9999999999999998</ele><time>2026-05-03T14:38:00.514Z</time></trkpt><trkpt lat="37.2608272" lon="13.5767415"><ele>2.0</ele><time>2026-05-03T14:38:01.513Z</time></trkpt><trkpt lat="37.2608986" lon="13.5767441"><ele>2.0</ele><time>2026-05-03T14:38:02.514Z</time></trkpt><trkpt lat="37.2609711" lon="13.5767692"><ele>1.9999999999999998</ele><time>2026-05-03T14:38:03.513Z</time></trkpt><trkpt lat="37.2610465" lon="13.5768033"><ele>2.0</ele><time>2026-05-03T14:38:04.513Z</time></trkpt><trkpt lat="37.261123" lon="13.5768373"><ele>2.0</ele><time>2026-05-03T14:38:05.514Z</time></trkpt><trkpt lat="37.2612003" lon="13.5768833"><ele>1.9999999999999998</ele><time>2026-05-03T14:38:06.514Z</time></trkpt><trkpt lat="37.2612776" lon="13.5769292"><ele>2.0</ele><time>2026-05-03T14:38:07.514Z</time></trkpt><trkpt lat="37.2613568" lon="13.5769716"><ele>2.0</ele><time>2026-05-03T14:38:08.514Z</time></trkpt><trkpt lat="37.2614392" lon="13.5770187"><ele>2.0</ele><time>2026-05-03T14:38:09.514Z</time></trkpt><trkpt lat="37.2615234" lon="13.5770663"><ele>1.9999999999999998</ele><time>2026-05-03T14:38:10.514Z</time></trkpt><trkpt lat="37.2616081" lon="13.5771104"><ele>2.0</ele><time>2026-05-03T14:38:11.513Z</time></trkpt><trkpt lat="37.2616925" lon="13.5771571"><ele>1.9999999999999998</ele><time>2026-05-03T14:38:12.514Z</time></trkpt><trkpt lat="37.2617778" lon="13.5772098"><ele>2.0</ele><time>2026-05-03T14:38:13.513Z</time></trkpt><trkpt lat="37.2618523" lon="13.5772548"><ele>2.0</ele><time>2026-05-03T14:38:14.514Z</time></trkpt><trkpt lat="37.2619213" lon="13.5773041"><ele>2.0</ele><time>2026-05-03T14:38:15.513Z</time></trkpt><trkpt lat="37.2619868" lon="13.577346"><ele>1.9999999999999998</ele><time>2026-05-03T14:38:16.513Z</time></trkpt><trkpt lat="37.2620465" lon="13.5773868"><ele>2.0</ele><time>2026-05-03T14:38:17.513Z</time></trkpt><trkpt lat="37.2621431" lon="13.5774463"><ele>1.9999999999999998</ele><time>2026-05-03T14:38:19.513Z</time></trkpt><trkpt lat="37.2622124" lon="13.577474"><ele>2.0</ele><time>2026-05-03T14:38:21.514Z</time></trkpt><trkpt lat="37.2622976" lon="13.5775195"><ele>2.0</ele><time>2026-05-03T14:38:24.513Z</time></trkpt><trkpt lat="37.2623561" lon="13.5775492"><ele>2.0</ele><time>2026-05-03T14:38:26.514Z</time></trkpt><trkpt lat="37.2624382" lon="13.577585"><ele>1.9999999999999998</ele><time>2026-05-03T14:38:29.514Z</time></trkpt><trkpt lat="37.2625172" lon="13.5776327"><ele>2.0</ele><time>2026-05-03T14:38:32.513Z</time></trkpt><trkpt lat="37.2625705" lon="13.5777117"><ele>2.5</ele><time>2026-05-03T14:38:35.513Z</time></trkpt><trkpt lat="37.2625564" lon="13.5778314"><ele>3.0</ele><time>2026-05-03T14:38:38.514Z</time></trkpt><trkpt lat="37.2625226" lon="13.5779017"><ele>3.5</ele><time>2026-05-03T14:38:40.514Z</time></trkpt><trkpt lat="37.2624717" lon="13.5779789"><ele>4.0</ele><time>2026-05-03T14:38:43.513Z</time></trkpt><trkpt lat="37.2624268" lon="13.578076"><ele>4.5</ele><time>2026-05-03T14:38:46.513Z</time></trkpt><trkpt lat="37.2624094" lon="13.5781859"><ele>5.0</ele><time>2026-05-03T14:38:49.514Z</time></trkpt><trkpt lat="37.2624068" lon="13.5782842"><ele>5.0</ele><time>2026-05-03T14:38:52.514Z</time></trkpt><trkpt lat="37.2624108" lon="13.5783951"><ele>5.0</ele><time>2026-05-03T14:38:55.514Z</time></trkpt><trkpt lat="37.2624145" lon="13.5785147"><ele>5.0</ele><time>2026-05-03T14:38:58.514Z</time></trkpt><trkpt lat="37.2624037" lon="13.5786346"><ele>5.0</ele><time>2026-05-03T14:39:01.514Z</time></trkpt><trkpt lat="37.262369" lon="13.5787463"><ele>5.0</ele><time>2026-05-03T14:39:03.514Z</time></trkpt><trkpt lat="37.2622916" lon="13.5788714"><ele>4.666666666666667</ele><time>2026-05-03T14:39:05.513Z</time></trkpt><trkpt lat="37.2622486" lon="13.5789317"><ele>4.333333333333334</ele><time>2026-05-03T14:39:06.513Z</time></trkpt><trkpt lat="37.2622009" lon="13.5789964"><ele>4.0</ele><time>2026-05-03T14:39:07.513Z</time></trkpt><trkpt lat="37.2621581" lon="13.5790607"><ele>3.666666666666667</ele><time>2026-05-03T14:39:08.513Z</time></trkpt><trkpt lat="37.2621054" lon="13.5791935"><ele>3.3333333333333335</ele><time>2026-05-03T14:39:10.513Z</time></trkpt><trkpt lat="37.2620773" lon="13.5792752"><ele>3.0</ele><time>2026-05-03T14:39:11.514Z</time></trkpt><trkpt lat="37.2620359" lon="13.5793536"><ele>2.9999999999999996</ele><time>2026-05-03T14:39:12.513Z</time></trkpt><trkpt lat="37.2619884" lon="13.5794362"><ele>3.0</ele><time>2026-05-03T14:39:13.514Z</time></trkpt><trkpt lat="37.2619397" lon="13.5795137"><ele>3.0</ele><time>2026-05-03T14:39:14.514Z</time></trkpt><trkpt lat="37.2618897" lon="13.5795831"><ele>3.0</ele><time>2026-05-03T14:39:15.514Z</time></trkpt><trkpt lat="37.2618361" lon="13.5796403"><ele>3.0</ele><time>2026-05-03T14:39:16.513Z</time></trkpt><trkpt lat="37.2617833" lon="13.5796947"><ele>2.9999999999999996</ele><time>2026-05-03T14:39:17.513Z</time></trkpt><trkpt lat="37.26173" lon="13.5797608"><ele>3.0</ele><time>2026-05-03T14:39:18.513Z</time></trkpt><trkpt lat="37.2616801" lon="13.5798341"><ele>3.3333333333333335</ele><time>2026-05-03T14:39:19.513Z</time></trkpt><trkpt lat="37.261638" lon="13.5799108"><ele>3.666666666666667</ele><time>2026-05-03T14:39:20.513Z</time></trkpt><trkpt lat="37.2615924" lon="13.5799817"><ele>4.0</ele><time>2026-05-03T14:39:21.514Z</time></trkpt><trkpt lat="37.2615511" lon="13.5800517"><ele>4.333333333333334</ele><time>2026-05-03T14:39:22.513Z</time></trkpt><trkpt lat="37.2615106" lon="13.5801137"><ele>4.666666666666667</ele><time>2026-05-03T14:39:23.513Z</time></trkpt><trkpt lat="37.2614587" lon="13.5802266"><ele>5.0</ele><time>2026-05-03T14:39:25.514Z</time></trkpt><trkpt lat="37.2614517" lon="13.5803155"><ele>5.166666666666667</ele><time>2026-05-03T14:39:27.514Z</time></trkpt><trkpt lat="37.2614901" lon="13.5804208"><ele>5.333333333333334</ele><time>2026-05-03T14:39:30.514Z</time></trkpt><trkpt lat="37.2615354" lon="13.5804758"><ele>5.5</ele><time>2026-05-03T14:39:32.514Z</time></trkpt><trkpt lat="37.2615943" lon="13.5805412"><ele>5.666666666666667</ele><time>2026-05-03T14:39:36.514Z</time></trkpt><trkpt lat="37.2616576" lon="13.5805955"><ele>5.833333333333333</ele><time>2026-05-03T14:39:41.514Z</time></trkpt><trkpt lat="37.2617244" lon="13.5806406"><ele>6.0</ele><time>2026-05-03T14:39:46.513Z</time></trkpt><trkpt lat="37.261771" lon="13.5807146"><ele>6.0</ele><time>2026-05-03T14:39:51.513Z</time></trkpt><trkpt lat="37.2617723" lon="13.5807969"><ele>6.0</ele><time>2026-05-03T14:39:53.513Z</time></trkpt><trkpt lat="37.2617394" lon="13.5808872"><ele>6.0</ele><time>2026-05-03T14:39:55.513Z</time></trkpt><trkpt lat="37.2616954" lon="13.5809794"><ele>6.0</ele><time>2026-05-03T14:39:57.513Z</time></trkpt><trkpt lat="37.2616412" lon="13.5810706"><ele>6.0</ele><time>2026-05-03T14:39:59.514Z</time></trkpt><trkpt lat="37.2615844" lon="13.5811672"><ele>6.0</ele><time>2026-05-03T14:40:01.513Z</time></trkpt><trkpt lat="37.2615173" lon="13.5812711"><ele>5.6</ele><time>2026-05-03T14:40:03.514Z</time></trkpt><trkpt lat="37.2614459" lon="13.5813876"><ele>5.199999999999999</ele><time>2026-05-03T14:40:05.514Z</time></trkpt><trkpt lat="37.2613835" lon="13.5814888"><ele>4.800000000000001</ele><time>2026-05-03T14:40:07.514Z</time></trkpt><trkpt lat="37.2613262" lon="13.5815844"><ele>4.4</ele><time>2026-05-03T14:40:09.513Z</time></trkpt><trkpt lat="37.2612626" lon="13.581686"><ele>4.0</ele><time>2026-05-03T14:40:11.514Z</time></trkpt><trkpt lat="37.2612017" lon="13.5817902"><ele>4.0</ele><time>2026-05-03T14:40:13.513Z</time></trkpt><trkpt lat="37.2611445" lon="13.5818944"><ele>4.0</ele><time>2026-05-03T14:40:15.513Z</time></trkpt><trkpt lat="37.2610903" lon="13.5820034"><ele>4.0</ele><time>2026-05-03T14:40:17.514Z</time></trkpt><trkpt lat="37.2610378" lon="13.5821137"><ele>4.0</ele><time>2026-05-03T14:40:19.513Z</time></trkpt><trkpt lat="37.2609752" lon="13.5822282"><ele>4.0</ele><time>2026-05-03T14:40:21.514Z</time></trkpt><trkpt lat="37.2609178" lon="13.5823459"><ele>4.4</ele><time>2026-05-03T14:40:23.514Z</time></trkpt><trkpt lat="37.2608622" lon="13.5824581"><ele>4.800000000000001</ele><time>2026-05-03T14:40:25.513Z</time></trkpt><trkpt lat="37.2608108" lon="13.5825544"><ele>5.199999999999999</ele><time>2026-05-03T14:40:27.513Z</time></trkpt><trkpt lat="37.2607623" lon="13.582649"><ele>5.6</ele><time>2026-05-03T14:40:29.514Z</time></trkpt><trkpt lat="37.2607063" lon="13.5827635"><ele>6.0</ele><time>2026-05-03T14:40:31.514Z</time></trkpt><trkpt lat="37.2606588" lon="13.5828878"><ele>6.166666666666667</ele><time>2026-05-03T14:40:33.514Z</time></trkpt><trkpt lat="37.2606252" lon="13.5829949"><ele>6.333333333333334</ele><time>2026-05-03T14:40:35.513Z</time></trkpt><trkpt lat="37.2606031" lon="13.5830701"><ele>6.5</ele><time>2026-05-03T14:40:37.514Z</time></trkpt><trkpt lat="37.2605811" lon="13.5831881"><ele>6.666666666666667</ele><time>2026-05-03T14:40:40.514Z</time></trkpt><trkpt lat="37.2605612" lon="13.5832864"><ele>6.833333333333334</ele><time>2026-05-03T14:40:42.513Z</time></trkpt><trkpt lat="37.2605402" lon="13.5833933"><ele>7.0</ele><time>2026-05-03T14:40:44.514Z</time></trkpt><trkpt lat="37.260528" lon="13.5835171"><ele>6.500000000000001</ele><time>2026-05-03T14:40:46.513Z</time></trkpt><trkpt lat="37.2605236" lon="13.5836446"><ele>6.0</ele><time>2026-05-03T14:40:48.514Z</time></trkpt><trkpt lat="37.2605187" lon="13.5837627"><ele>5.5</ele><time>2026-05-03T14:40:50.514Z</time></trkpt><trkpt lat="37.2605117" lon="13.583869"><ele>5.0</ele><time>2026-05-03T14:40:52.514Z</time></trkpt><trkpt lat="37.2605042" lon="13.5839707"><ele>4.5</ele><time>2026-05-03T14:40:54.513Z</time></trkpt><trkpt lat="37.2605005" lon="13.5840686"><ele>4.0</ele><time>2026-05-03T14:40:56.514Z</time></trkpt><trkpt lat="37.2604956" lon="13.5841853"><ele>3.9999999999999996</ele><time>2026-05-03T14:40:58.513Z</time></trkpt><trkpt lat="37.26049" lon="13.5842888"><ele>4.0</ele><time>2026-05-03T14:41:00.514Z</time></trkpt><trkpt lat="37.2604832" lon="13.5843904"><ele>4.0</ele><time>2026-05-03T14:41:02.514Z</time></trkpt><trkpt lat="37.2604732" lon="13.5845202"><ele>4.0</ele><time>2026-05-03T14:41:04.513Z</time></trkpt><trkpt lat="37.2604757" lon="13.5846221"><ele>3.9999999999999996</ele><time>2026-05-03T14:41:06.514Z</time></trkpt><trkpt lat="37.260472" lon="13.5847073"><ele>4.0</ele><time>2026-05-03T14:41:08.514Z</time></trkpt><trkpt lat="37.2604669" lon="13.5848029"><ele>3.9999999999999996</ele><time>2026-05-03T14:41:10.514Z</time></trkpt><trkpt lat="37.2604623" lon="13.5848896"><ele>4.0</ele><time>2026-05-03T14:41:12.513Z</time></trkpt><trkpt lat="37.2604579" lon="13.584972"><ele>4.0</ele><time>2026-05-03T14:41:14.514Z</time></trkpt><trkpt lat="37.2604547" lon="13.5850666"><ele>4.0</ele><time>2026-05-03T14:41:16.513Z</time></trkpt><trkpt lat="37.2604548" lon="13.5851877"><ele>3.9999999999999996</ele><time>2026-05-03T14:41:19.513Z</time></trkpt><trkpt lat="37.2604545" lon="13.5852779"><ele>4.0</ele><time>2026-05-03T14:41:21.514Z</time></trkpt><trkpt lat="37.2604567" lon="13.5853719"><ele>4.166666666666666</ele><time>2026-05-03T14:41:23.513Z</time></trkpt><trkpt lat="37.2604586" lon="13.585455"><ele>4.333333333333333</ele><time>2026-05-03T14:41:25.513Z</time></trkpt><trkpt lat="37.2604664" lon="13.5855349"><ele>4.5</ele><time>2026-05-03T14:41:28.514Z</time></trkpt><trkpt lat="37.2604798" lon="13.5856453"><ele>4.666666666666667</ele><time>2026-05-03T14:42:06.514Z</time></trkpt><trkpt lat="37.2604922" lon="13.5857575"><ele>4.833333333333334</ele><time>2026-05-03T14:42:09.514Z</time></trkpt><trkpt lat="37.2605037" lon="13.5858492"><ele>5.0</ele><time>2026-05-03T14:42:12.513Z</time></trkpt><trkpt lat="37.2605001" lon="13.5859521"><ele>5.0</ele><time>2026-05-03T14:42:34.514Z</time></trkpt><trkpt lat="37.2605151" lon="13.5860644"><ele>5.0</ele><time>2026-05-03T14:42:37.513Z</time></trkpt><trkpt lat="37.2605304" lon="13.5861559"><ele>5.0</ele><time>2026-05-03T14:42:40.514Z</time></trkpt><trkpt lat="37.2605406" lon="13.5862535"><ele>5.0</ele><time>2026-05-03T14:42:44.513Z</time></trkpt><trkpt lat="37.2605505" lon="13.586351"><ele>5.0</ele><time>2026-05-03T14:42:48.514Z</time></trkpt><trkpt lat="37.2605653" lon="13.5864463"><ele>5.0</ele><time>2026-05-03T14:42:52.514Z</time></trkpt><trkpt lat="37.2605755" lon="13.5865394"><ele>4.833333333333334</ele><time>2026-05-03T14:42:56.513Z</time></trkpt><trkpt lat="37.2605869" lon="13.5866303"><ele>4.666666666666667</ele><time>2026-05-03T14:42:59.513Z</time></trkpt><trkpt lat="37.2605918" lon="13.5867222"><ele>4.5</ele><time>2026-05-03T14:43:02.513Z</time></trkpt><trkpt lat="37.2606008" lon="13.5868134"><ele>4.333333333333333</ele><time>2026-05-03T14:43:14.514Z</time></trkpt><trkpt lat="37.2606227" lon="13.5869241"><ele>4.166666666666666</ele><time>2026-05-03T14:43:25.514Z</time></trkpt><trkpt lat="37.2606407" lon="13.5870218"><ele>4.0</ele><time>2026-05-03T14:43:27.513Z</time></trkpt><trkpt lat="37.2606487" lon="13.5871326"><ele>4.333333333333333</ele><time>2026-05-03T14:43:30.514Z</time></trkpt><trkpt lat="37.2606676" lon="13.5872363"><ele>4.666666666666666</ele><time>2026-05-03T14:43:33.514Z</time></trkpt><trkpt lat="37.2606848" lon="13.5873309"><ele>5.0</ele><time>2026-05-03T14:44:04.514Z</time></trkpt><trkpt lat="37.2607082" lon="13.5874165"><ele>5.333333333333333</ele><time>2026-05-03T14:44:08.513Z</time></trkpt><trkpt lat="37.260725" lon="13.5875093"><ele>5.666666666666667</ele><time>2026-05-03T14:44:11.513Z</time></trkpt><trkpt lat="37.2607402" lon="13.5876037"><ele>6.0</ele><time>2026-05-03T14:44:14.513Z</time></trkpt><trkpt lat="37.2607529" lon="13.5877059"><ele>6.0</ele><time>2026-05-03T14:44:17.514Z</time></trkpt><trkpt lat="37.2607542" lon="13.5878066"><ele>6.0</ele><time>2026-05-03T14:44:43.513Z</time></trkpt><trkpt lat="37.2607735" lon="13.5879031"><ele>6.0</ele><time>2026-05-03T14:45:24.513Z</time></trkpt><trkpt lat="37.2607886" lon="13.5880214"><ele>6.0</ele><time>2026-05-03T14:45:41.512Z</time></trkpt><trkpt lat="37.2607969" lon="13.5881261"><ele>6.0</ele><time>2026-05-03T14:45:43.513Z</time></trkpt><trkpt lat="37.2607911" lon="13.5882072"><ele>6.0</ele><time>2026-05-03T14:46:16.512Z</time></trkpt><trkpt lat="37.260771" lon="13.5882916"><ele>6.333333333333333</ele><time>2026-05-03T14:46:34.513Z</time></trkpt><trkpt lat="37.2607541" lon="13.5883794"><ele>6.666666666666666</ele><time>2026-05-03T14:46:44.512Z</time></trkpt><trkpt lat="37.2607419" lon="13.5884788"><ele>7.0</ele><time>2026-05-03T14:46:56.513Z</time></trkpt><trkpt lat="37.2607255" lon="13.5885747"><ele>7.333333333333333</ele><time>2026-05-03T14:46:59.512Z</time></trkpt><trkpt lat="37.26072" lon="13.5886827"><ele>7.666666666666666</ele><time>2026-05-03T14:47:07.513Z</time></trkpt><trkpt lat="37.2608209" lon="13.5887575"><ele>8.0</ele><time>2026-05-03T14:47:54.512Z</time></trkpt><trkpt lat="37.2608884" lon="13.5887926"><ele>8.166666666666666</ele><time>2026-05-03T14:47:57.513Z</time></trkpt><trkpt lat="37.2609493" lon="13.5888157"><ele>8.333333333333332</ele><time>2026-05-03T14:48:00.512Z</time></trkpt><trkpt lat="37.261015" lon="13.5888469"><ele>8.5</ele><time>2026-05-03T14:48:10.512Z</time></trkpt><trkpt lat="37.2611005" lon="13.5888863"><ele>8.666666666666666</ele><time>2026-05-03T14:48:13.513Z</time></trkpt><trkpt lat="37.2612121" lon="13.5889248"><ele>8.833333333333334</ele><time>2026-05-03T14:48:15.513Z</time></trkpt><trkpt lat="37.2612784" lon="13.5889495"><ele>9.0</ele><time>2026-05-03T14:48:16.512Z</time></trkpt><trkpt lat="37.2613432" lon="13.5889695"><ele>9.000000000000002</ele><time>2026-05-03T14:48:17.513Z</time></trkpt><trkpt lat="37.2614083" lon="13.5889868"><ele>9.0</ele><time>2026-05-03T14:48:18.513Z</time></trkpt><trkpt lat="37.2614719" lon="13.5890058"><ele>9.0</ele><time>2026-05-03T14:48:19.513Z</time></trkpt><trkpt lat="37.2615371" lon="13.5890269"><ele>9.0</ele><time>2026-05-03T14:48:20.512Z</time></trkpt><trkpt lat="37.2616062" lon="13.5890455"><ele>9.0</ele><time>2026-05-03T14:48:21.512Z</time></trkpt><trkpt lat="37.2616723" lon="13.5890641"><ele>9.000000000000002</ele><time>2026-05-03T14:48:22.513Z</time></trkpt><trkpt lat="37.261738" lon="13.5890809"><ele>9.0</ele><time>2026-05-03T14:48:23.513Z</time></trkpt><trkpt lat="37.2618007" lon="13.5890978"><ele>9.333333333333334</ele><time>2026-05-03T14:48:24.513Z</time></trkpt><trkpt lat="37.2618709" lon="13.5891126"><ele>9.666666666666666</ele><time>2026-05-03T14:48:25.512Z</time></trkpt><trkpt lat="37.2619412" lon="13.5891254"><ele>10.0</ele><time>2026-05-03T14:48:26.512Z</time></trkpt><trkpt lat="37.2620074" lon="13.5891442"><ele>10.333333333333332</ele><time>2026-05-03T14:48:27.513Z</time></trkpt><trkpt lat="37.2620755" lon="13.5891646"><ele>10.666666666666666</ele><time>2026-05-03T14:48:28.513Z</time></trkpt><trkpt lat="37.2621393" lon="13.5891851"><ele>11.0</ele><time>2026-05-03T14:48:29.513Z</time></trkpt><trkpt lat="37.2622499" lon="13.5892241"><ele>11.833333333333332</ele><time>2026-05-03T14:48:31.513Z</time></trkpt><trkpt lat="37.2623362" lon="13.5892521"><ele>12.666666666666666</ele><time>2026-05-03T14:48:33.513Z</time></trkpt><trkpt lat="37.2624286" lon="13.5892717"><ele>13.5</ele><time>2026-05-03T14:48:35.513Z</time></trkpt><trkpt lat="37.2624955" lon="13.5892884"><ele>14.333333333333332</ele><time>2026-05-03T14:48:36.512Z</time></trkpt><trkpt lat="37.262569" lon="13.5893085"><ele>15.166666666666666</ele><time>2026-05-03T14:48:37.513Z</time></trkpt><trkpt lat="37.2626394" lon="13.589331"><ele>16.0</ele><time>2026-05-03T14:48:38.513Z</time></trkpt><trkpt lat="37.2627363" lon="13.5893746"><ele>15.999999999999998</ele><time>2026-05-03T14:48:40.512Z</time></trkpt><trkpt lat="37.2627964" lon="13.5894002"><ele>16.0</ele><time>2026-05-03T14:48:42.512Z</time></trkpt><trkpt lat="37.262882" lon="13.5894339"><ele>16.0</ele><time>2026-05-03T14:48:45.512Z</time></trkpt><trkpt lat="37.2629528" lon="13.589453"><ele>16.0</ele><time>2026-05-03T14:48:47.512Z</time></trkpt><trkpt lat="37.2630287" lon="13.5894753"><ele>15.999999999999998</ele><time>2026-05-03T14:48:49.512Z</time></trkpt><trkpt lat="37.2631052" lon="13.5895015"><ele>16.0</ele><time>2026-05-03T14:48:51.512Z</time></trkpt><trkpt lat="37.2631753" lon="13.5895217"><ele>16.333333333333332</ele><time>2026-05-03T14:48:53.513Z</time></trkpt><trkpt lat="37.2632468" lon="13.5895359"><ele>16.666666666666664</ele><time>2026-05-03T14:48:55.512Z</time></trkpt><trkpt lat="37.263317" lon="13.5895599"><ele>17.0</ele><time>2026-05-03T14:48:57.512Z</time></trkpt><trkpt lat="37.2633942" lon="13.5895851"><ele>17.333333333333332</ele><time>2026-05-03T14:48:59.512Z</time></trkpt><trkpt lat="37.2634815" lon="13.5896095"><ele>17.666666666666668</ele><time>2026-05-03T14:49:01.513Z</time></trkpt><trkpt lat="37.2635699" lon="13.5896387"><ele>18.0</ele><time>2026-05-03T14:49:03.513Z</time></trkpt><trkpt lat="37.2636597" lon="13.5896674"><ele>18.0</ele><time>2026-05-03T14:49:05.513Z</time></trkpt><trkpt lat="37.2637485" lon="13.5896975"><ele>18.0</ele><time>2026-05-03T14:49:07.512Z</time></trkpt><trkpt lat="37.2638618" lon="13.589725"><ele>18.0</ele><time>2026-05-03T14:49:09.512Z</time></trkpt><trkpt lat="37.2639605" lon="13.589747"><ele>18.0</ele><time>2026-05-03T14:49:10.513Z</time></trkpt><trkpt lat="37.2640836" lon="13.5897765"><ele>18.0</ele><time>2026-05-03T14:49:11.513Z</time></trkpt><trkpt lat="37.2641578" lon="13.5898092"><ele>18.6</ele><time>2026-05-03T14:49:12.512Z</time></trkpt><trkpt lat="37.2642533" lon="13.5898619"><ele>19.200000000000003</ele><time>2026-05-03T14:49:14.512Z</time></trkpt><trkpt lat="37.2643358" lon="13.5898998"><ele>19.8</ele><time>2026-05-03T14:49:16.512Z</time></trkpt><trkpt lat="37.2644005" lon="13.5899363"><ele>20.400000000000002</ele><time>2026-05-03T14:49:18.512Z</time></trkpt><trkpt lat="37.2644885" lon="13.5899912"><ele>21.0</ele><time>2026-05-03T14:49:20.512Z</time></trkpt><trkpt lat="37.2645781" lon="13.5900696"><ele>21.0</ele><time>2026-05-03T14:49:22.512Z</time></trkpt><trkpt lat="37.2646491" lon="13.5901342"><ele>21.0</ele><time>2026-05-03T14:49:24.512Z</time></trkpt><trkpt lat="37.2647182" lon="13.5901892"><ele>21.0</ele><time>2026-05-03T14:49:26.513Z</time></trkpt><trkpt lat="37.2647969" lon="13.5902409"><ele>21.0</ele><time>2026-05-03T14:49:28.513Z</time></trkpt><trkpt lat="37.2648559" lon="13.5902778"><ele>21.0</ele><time>2026-05-03T14:49:29.513Z</time></trkpt><trkpt lat="37.2649277" lon="13.5903224"><ele>21.0</ele><time>2026-05-03T14:49:30.512Z</time></trkpt><trkpt lat="37.2650006" lon="13.5903725"><ele>20.6</ele><time>2026-05-03T14:49:31.513Z</time></trkpt><trkpt lat="37.2650572" lon="13.5904165"><ele>20.200000000000003</ele><time>2026-05-03T14:49:32.512Z</time></trkpt><trkpt lat="37.2651351" lon="13.5904786"><ele>19.799999999999997</ele><time>2026-05-03T14:49:34.513Z</time></trkpt><trkpt lat="37.2652058" lon="13.5905341"><ele>19.4</ele><time>2026-05-03T14:49:36.512Z</time></trkpt><trkpt lat="37.2652799" lon="13.5905792"><ele>19.0</ele><time>2026-05-03T14:49:38.512Z</time></trkpt><trkpt lat="37.2653933" lon="13.5906523"><ele>19.0</ele><time>2026-05-03T14:49:40.513Z</time></trkpt><trkpt lat="37.2654699" lon="13.5907223"><ele>19.0</ele><time>2026-05-03T14:49:41.513Z</time></trkpt><trkpt lat="37.2655587" lon="13.5908013"><ele>19.0</ele><time>2026-05-03T14:49:42.513Z</time></trkpt><trkpt lat="37.2656507" lon="13.5908789"><ele>19.0</ele><time>2026-05-03T14:49:43.512Z</time></trkpt><trkpt lat="37.2657386" lon="13.5909475"><ele>19.0</ele><time>2026-05-03T14:49:44.512Z</time></trkpt><trkpt lat="37.2658182" lon="13.5910084"><ele>19.5</ele><time>2026-05-03T14:49:45.512Z</time></trkpt><trkpt lat="37.2658874" lon="13.591063"><ele>20.0</ele><time>2026-05-03T14:49:46.512Z</time></trkpt><trkpt lat="37.2659469" lon="13.5911105"><ele>20.5</ele><time>2026-05-03T14:49:47.513Z</time></trkpt><trkpt lat="37.2660114" lon="13.5911584"><ele>21.0</ele><time>2026-05-03T14:49:48.513Z</time></trkpt><trkpt lat="37.266083" lon="13.5912152"><ele>21.5</ele><time>2026-05-03T14:49:49.512Z</time></trkpt><trkpt lat="37.266166" lon="13.5912776"><ele>22.0</ele><time>2026-05-03T14:49:50.513Z</time></trkpt><trkpt lat="37.2662707" lon="13.591352"><ele>22.0</ele><time>2026-05-03T14:49:51.513Z</time></trkpt><trkpt lat="37.2663777" lon="13.591431"><ele>22.0</ele><time>2026-05-03T14:49:52.513Z</time></trkpt><trkpt lat="37.2665367" lon="13.5915174"><ele>22.0</ele><time>2026-05-03T14:49:53.513Z</time></trkpt><trkpt lat="37.2666345" lon="13.5915831"><ele>22.0</ele><time>2026-05-03T14:49:54.513Z</time></trkpt><trkpt lat="37.2667175" lon="13.5916418"><ele>22.333333333333332</ele><time>2026-05-03T14:49:55.513Z</time></trkpt><trkpt lat="37.2667853" lon="13.5916929"><ele>22.666666666666664</ele><time>2026-05-03T14:49:56.513Z</time></trkpt><trkpt lat="37.2668514" lon="13.5917401"><ele>23.0</ele><time>2026-05-03T14:49:57.513Z</time></trkpt><trkpt lat="37.2669275" lon="13.5917981"><ele>23.333333333333332</ele><time>2026-05-03T14:49:58.513Z</time></trkpt><trkpt lat="37.266996" lon="13.5918439"><ele>23.666666666666668</ele><time>2026-05-03T14:49:59.513Z</time></trkpt><trkpt lat="37.2670761" lon="13.5919094"><ele>24.0</ele><time>2026-05-03T14:50:00.512Z</time></trkpt><trkpt lat="37.2672023" lon="13.5919897"><ele>25.333333333333336</ele><time>2026-05-03T14:50:01.512Z</time></trkpt><trkpt lat="37.2673318" lon="13.5920865"><ele>26.666666666666668</ele><time>2026-05-03T14:50:02.512Z</time></trkpt><trkpt lat="37.2674686" lon="13.5921888"><ele>28.0</ele><time>2026-05-03T14:50:03.512Z</time></trkpt><trkpt lat="37.2676047" lon="13.5922907"><ele>28.0</ele><time>2026-05-03T14:50:04.512Z</time></trkpt><trkpt lat="37.2677388" lon="13.5923923"><ele>28.0</ele><time>2026-05-03T14:50:05.513Z</time></trkpt><trkpt lat="37.2678614" lon="13.5924921"><ele>28.0</ele><time>2026-05-03T14:50:06.513Z</time></trkpt><trkpt lat="37.2679744" lon="13.5925859"><ele>28.0</ele><time>2026-05-03T14:50:07.513Z</time></trkpt><trkpt lat="37.2680747" lon="13.5926709"><ele>29.333333333333336</ele><time>2026-05-03T14:50:08.513Z</time></trkpt><trkpt lat="37.2681602" lon="13.5927387"><ele>30.666666666666668</ele><time>2026-05-03T14:50:09.513Z</time></trkpt><trkpt lat="37.2682356" lon="13.5927923"><ele>32.0</ele><time>2026-05-03T14:50:10.513Z</time></trkpt><trkpt lat="37.2683101" lon="13.5928513"><ele>33.333333333333336</ele><time>2026-05-03T14:50:11.512Z</time></trkpt><trkpt lat="37.26838" lon="13.5929074"><ele>34.666666666666664</ele><time>2026-05-03T14:50:12.513Z</time></trkpt><trkpt lat="37.2684474" lon="13.59296"><ele>36.0</ele><time>2026-05-03T14:50:13.513Z</time></trkpt><trkpt lat="37.2685104" lon="13.5930086"><ele>36.00000000000001</ele><time>2026-05-03T14:50:14.512Z</time></trkpt><trkpt lat="37.2685765" lon="13.5930589"><ele>36.0</ele><time>2026-05-03T14:50:15.513Z</time></trkpt><trkpt lat="37.2686405" lon="13.5931017"><ele>36.0</ele><time>2026-05-03T14:50:16.512Z</time></trkpt><trkpt lat="37.2687027" lon="13.5931393"><ele>36.0</ele><time>2026-05-03T14:50:17.513Z</time></trkpt><trkpt lat="37.2687613" lon="13.5931813"><ele>36.0</ele><time>2026-05-03T14:50:18.513Z</time></trkpt><trkpt lat="37.268817" lon="13.5932192"><ele>36.00000000000001</ele><time>2026-05-03T14:50:19.512Z</time></trkpt><trkpt lat="37.2688762" lon="13.5932717"><ele>36.0</ele><time>2026-05-03T14:50:20.513Z</time></trkpt><trkpt lat="37.2689424" lon="13.5933328"><ele>37.0</ele><time>2026-05-03T14:50:21.512Z</time></trkpt><trkpt lat="37.2690081" lon="13.5933979"><ele>38.0</ele><time>2026-05-03T14:50:22.513Z</time></trkpt><trkpt lat="37.2690715" lon="13.5934485"><ele>39.0</ele><time>2026-05-03T14:50:23.512Z</time></trkpt><trkpt lat="37.2691343" lon="13.5934905"><ele>40.0</ele><time>2026-05-03T14:50:24.513Z</time></trkpt><trkpt lat="37.2692037" lon="13.5935307"><ele>41.0</ele><time>2026-05-03T14:50:25.513Z</time></trkpt><trkpt lat="37.269296" lon="13.5935793"><ele>42.0</ele><time>2026-05-03T14:50:26.513Z</time></trkpt><trkpt lat="37.269407" lon="13.5936199"><ele>42.0</ele><time>2026-05-03T14:50:27.512Z</time></trkpt><trkpt lat="37.2695336" lon="13.5936623"><ele>42.0</ele><time>2026-05-03T14:50:28.513Z</time></trkpt><trkpt lat="37.2696718" lon="13.593717"><ele>42.0</ele><time>2026-05-03T14:50:29.512Z</time></trkpt><trkpt lat="37.2698249" lon="13.5937785"><ele>42.0</ele><time>2026-05-03T14:50:30.512Z</time></trkpt><trkpt lat="37.2699876" lon="13.5938405"><ele>42.333333333333336</ele><time>2026-05-03T14:50:31.513Z</time></trkpt><trkpt lat="37.2701591" lon="13.593901"><ele>42.66666666666667</ele><time>2026-05-03T14:50:32.512Z</time></trkpt><trkpt lat="37.2703283" lon="13.5939664"><ele>43.0</ele><time>2026-05-03T14:50:33.513Z</time></trkpt><trkpt lat="37.2704969" lon="13.5940307"><ele>45.333333333333336</ele><time>2026-05-03T14:50:34.513Z</time></trkpt><trkpt lat="37.2706689" lon="13.5940929"><ele>47.66666666666667</ele><time>2026-05-03T14:50:35.512Z</time></trkpt><trkpt lat="37.2708425" lon="13.5941509"><ele>50.0</ele><time>2026-05-03T14:50:36.513Z</time></trkpt><trkpt lat="37.2710023" lon="13.5942042"><ele>50.0</ele><time>2026-05-03T14:50:37.513Z</time></trkpt><trkpt lat="37.2711581" lon="13.5942519"><ele>50.0</ele><time>2026-05-03T14:50:38.513Z</time></trkpt><trkpt lat="37.2713112" lon="13.5942945"><ele>50.0</ele><time>2026-05-03T14:50:39.513Z</time></trkpt><trkpt lat="37.2714629" lon="13.5943342"><ele>50.66666666666667</ele><time>2026-05-03T14:50:40.513Z</time></trkpt><trkpt lat="37.2716133" lon="13.5943762"><ele>51.33333333333333</ele><time>2026-05-03T14:50:41.513Z</time></trkpt><trkpt lat="37.2717653" lon="13.5944161"><ele>52.0</ele><time>2026-05-03T14:50:42.513Z</time></trkpt><trkpt lat="37.2719136" lon="13.5944586"><ele>52.0</ele><time>2026-05-03T14:50:43.513Z</time></trkpt><trkpt lat="37.2720575" lon="13.594499"><ele>52.0</ele><time>2026-05-03T14:50:44.512Z</time></trkpt><trkpt lat="37.2721926" lon="13.5945415"><ele>52.0</ele><time>2026-05-03T14:50:45.513Z</time></trkpt><trkpt lat="37.2723107" lon="13.5945693"><ele>52.0</ele><time>2026-05-03T14:50:46.512Z</time></trkpt><trkpt lat="37.2724119" lon="13.5945944"><ele>52.2</ele><time>2026-05-03T14:50:47.512Z</time></trkpt><trkpt lat="37.2725132" lon="13.5946212"><ele>52.400000000000006</ele><time>2026-05-03T14:50:48.513Z</time></trkpt><trkpt lat="37.2726048" lon="13.5946456"><ele>52.599999999999994</ele><time>2026-05-03T14:50:49.512Z</time></trkpt><trkpt lat="37.2727018" lon="13.5946663"><ele>52.8</ele><time>2026-05-03T14:50:50.513Z</time></trkpt><trkpt lat="37.2728128" lon="13.594693"><ele>53.0</ele><time>2026-05-03T14:50:51.513Z</time></trkpt><trkpt lat="37.272948" lon="13.5947251"><ele>53.0</ele><time>2026-05-03T14:50:52.513Z</time></trkpt><trkpt lat="37.2730931" lon="13.5947595"><ele>53.0</ele><time>2026-05-03T14:50:53.512Z</time></trkpt><trkpt lat="37.2732335" lon="13.5947921"><ele>53.0</ele><time>2026-05-03T14:50:54.513Z</time></trkpt><trkpt lat="37.2733651" lon="13.59483"><ele>53.0</ele><time>2026-05-03T14:50:55.513Z</time></trkpt><trkpt lat="37.2734854" lon="13.5948939"><ele>54.0</ele><time>2026-05-03T14:50:56.512Z</time></trkpt><trkpt lat="37.2736017" lon="13.5949575"><ele>55.0</ele><time>2026-05-03T14:50:57.513Z</time></trkpt><trkpt lat="37.2737112" lon="13.5950413"><ele>56.0</ele><time>2026-05-03T14:50:58.513Z</time></trkpt><trkpt lat="37.2738176" lon="13.595148"><ele>57.0</ele><time>2026-05-03T14:50:59.512Z</time></trkpt><trkpt lat="37.2739268" lon="13.5952794"><ele>58.0</ele><time>2026-05-03T14:51:00.513Z</time></trkpt><trkpt lat="37.2740458" lon="13.5954282"><ele>59.0</ele><time>2026-05-03T14:51:01.513Z</time></trkpt><trkpt lat="37.274175" lon="13.5955834"><ele>60.0</ele><time>2026-05-03T14:51:02.513Z</time></trkpt><trkpt lat="37.2743073" lon="13.5957436"><ele>60.0</ele><time>2026-05-03T14:51:03.513Z</time></trkpt><trkpt lat="37.2744392" lon="13.5959085"><ele>60.0</ele><time>2026-05-03T14:51:04.513Z</time></trkpt><trkpt lat="37.2745723" lon="13.5960749"><ele>60.0</ele><time>2026-05-03T14:51:05.512Z</time></trkpt><trkpt lat="37.2746979" lon="13.5962375"><ele>60.75</ele><time>2026-05-03T14:51:06.512Z</time></trkpt><trkpt lat="37.2748115" lon="13.5963857"><ele>61.5</ele><time>2026-05-03T14:51:07.513Z</time></trkpt><trkpt lat="37.2749136" lon="13.5965184"><ele>62.25</ele><time>2026-05-03T14:51:08.513Z</time></trkpt><trkpt lat="37.2750002" lon="13.596637"><ele>63.0</ele><time>2026-05-03T14:51:09.512Z</time></trkpt><trkpt lat="37.2750691" lon="13.5967373"><ele>63.0</ele><time>2026-05-03T14:51:10.512Z</time></trkpt><trkpt lat="37.2751209" lon="13.596816"><ele>63.0</ele><time>2026-05-03T14:51:11.512Z</time></trkpt><trkpt lat="37.2751607" lon="13.5969309"><ele>63.0</ele><time>2026-05-03T14:51:13.513Z</time></trkpt><trkpt lat="37.2751326" lon="13.5970409"><ele>63.0</ele><time>2026-05-03T14:51:15.513Z</time></trkpt><trkpt lat="37.2750865" lon="13.5971008"><ele>63.0</ele><time>2026-05-03T14:51:16.513Z</time></trkpt><trkpt lat="37.2750156" lon="13.5971615"><ele>63.0</ele><time>2026-05-03T14:51:17.513Z</time></trkpt><trkpt lat="37.2749375" lon="13.5972284"><ele>63.5</ele><time>2026-05-03T14:51:18.512Z</time></trkpt><trkpt lat="37.2748514" lon="13.5973074"><ele>64.0</ele><time>2026-05-03T14:51:19.512Z</time></trkpt><trkpt lat="37.2747539" lon="13.5973927"><ele>64.5</ele><time>2026-05-03T14:51:20.513Z</time></trkpt><trkpt lat="37.2746494" lon="13.5974881"><ele>65.0</ele><time>2026-05-03T14:51:21.513Z</time></trkpt><trkpt lat="37.2745437" lon="13.5975754"><ele>65.0</ele><time>2026-05-03T14:51:22.513Z</time></trkpt><trkpt lat="37.2744474" lon="13.5976553"><ele>65.0</ele><time>2026-05-03T14:51:23.513Z</time></trkpt><trkpt lat="37.2743368" lon="13.5977391"><ele>65.0</ele><time>2026-05-03T14:51:24.513Z</time></trkpt><trkpt lat="37.27422" lon="13.5978184"><ele>65.0</ele><time>2026-05-03T14:51:25.512Z</time></trkpt><trkpt lat="37.2741086" lon="13.5978849"><ele>65.5</ele><time>2026-05-03T14:51:26.512Z</time></trkpt><trkpt lat="37.2739878" lon="13.5979477"><ele>66.0</ele><time>2026-05-03T14:51:27.513Z</time></trkpt><trkpt lat="37.2738609" lon="13.5980109"><ele>66.5</ele><time>2026-05-03T14:51:28.512Z</time></trkpt><trkpt lat="37.2737307" lon="13.5980802"><ele>67.0</ele><time>2026-05-03T14:51:29.512Z</time></trkpt><trkpt lat="37.2735925" lon="13.5981459"><ele>67.0</ele><time>2026-05-03T14:51:30.512Z</time></trkpt><trkpt lat="37.2734634" lon="13.5982105"><ele>67.0</ele><time>2026-05-03T14:51:31.512Z</time></trkpt><trkpt lat="37.273351" lon="13.5982725"><ele>67.0</ele><time>2026-05-03T14:51:32.512Z</time></trkpt><trkpt lat="37.2732506" lon="13.5983254"><ele>67.0</ele><time>2026-05-03T14:51:33.513Z</time></trkpt><trkpt lat="37.2731431" lon="13.5983721"><ele>66.83333333333333</ele><time>2026-05-03T14:51:34.513Z</time></trkpt><trkpt lat="37.2730511" lon="13.5984226"><ele>66.66666666666666</ele><time>2026-05-03T14:51:35.513Z</time></trkpt><trkpt lat="37.272965" lon="13.598462"><ele>66.5</ele><time>2026-05-03T14:51:36.512Z</time></trkpt><trkpt lat="37.2728888" lon="13.5984916"><ele>66.33333333333333</ele><time>2026-05-03T14:51:37.513Z</time></trkpt><trkpt lat="37.2728159" lon="13.5985202"><ele>66.16666666666667</ele><time>2026-05-03T14:51:38.512Z</time></trkpt><trkpt lat="37.272744" lon="13.598554"><ele>66.0</ele><time>2026-05-03T14:51:39.512Z</time></trkpt><trkpt lat="37.2726662" lon="13.5985975"><ele>66.0</ele><time>2026-05-03T14:51:40.513Z</time></trkpt><trkpt lat="37.2725763" lon="13.5986421"><ele>66.0</ele><time>2026-05-03T14:51:41.512Z</time></trkpt><trkpt lat="37.2724792" lon="13.5986817"><ele>66.0</ele><time>2026-05-03T14:51:42.513Z</time></trkpt><trkpt lat="37.2723571" lon="13.5987192"><ele>66.0</ele><time>2026-05-03T14:51:43.512Z</time></trkpt><trkpt lat="37.2722382" lon="13.5987636"><ele>66.0</ele><time>2026-05-03T14:51:44.513Z</time></trkpt><trkpt lat="37.2721133" lon="13.5988111"><ele>67.0</ele><time>2026-05-03T14:51:45.513Z</time></trkpt><trkpt lat="37.2720025" lon="13.5988631"><ele>68.0</ele><time>2026-05-03T14:51:46.513Z</time></trkpt><trkpt lat="37.2719002" lon="13.5989142"><ele>69.0</ele><time>2026-05-03T14:51:47.513Z</time></trkpt><trkpt lat="37.2717952" lon="13.5989639"><ele>70.0</ele><time>2026-05-03T14:51:48.513Z</time></trkpt><trkpt lat="37.2716766" lon="13.5990145"><ele>70.0</ele><time>2026-05-03T14:51:49.512Z</time></trkpt><trkpt lat="37.2715575" lon="13.5990875"><ele>70.0</ele><time>2026-05-03T14:51:50.512Z</time></trkpt><trkpt lat="37.2714306" lon="13.5991802"><ele>70.0</ele><time>2026-05-03T14:51:51.512Z</time></trkpt><trkpt lat="37.2713033" lon="13.5992919"><ele>70.0</ele><time>2026-05-03T14:51:52.512Z</time></trkpt><trkpt lat="37.2711737" lon="13.5994107"><ele>70.0</ele><time>2026-05-03T14:51:53.512Z</time></trkpt><trkpt lat="37.2710427" lon="13.5995274"><ele>70.0</ele><time>2026-05-03T14:51:54.512Z</time></trkpt><trkpt lat="37.2709147" lon="13.5996439"><ele>70.0</ele><time>2026-05-03T14:51:55.512Z</time></trkpt><trkpt lat="37.2707868" lon="13.5997614"><ele>70.0</ele><time>2026-05-03T14:51:56.512Z</time></trkpt><trkpt lat="37.2706553" lon="13.5998792"><ele>70.0</ele><time>2026-05-03T14:51:57.513Z</time></trkpt><trkpt lat="37.2705323" lon="13.6000002"><ele>70.0</ele><time>2026-05-03T14:51:58.512Z</time></trkpt><trkpt lat="37.2703926" lon="13.6001188"><ele>69.33333333333333</ele><time>2026-05-03T14:51:59.513Z</time></trkpt><trkpt lat="37.2702524" lon="13.6002391"><ele>68.66666666666667</ele><time>2026-05-03T14:52:00.513Z</time></trkpt><trkpt lat="37.270115" lon="13.6003722"><ele>68.0</ele><time>2026-05-03T14:52:01.513Z</time></trkpt><trkpt lat="37.2699812" lon="13.6005193"><ele>67.33333333333334</ele><time>2026-05-03T14:52:02.512Z</time></trkpt><trkpt lat="37.2698533" lon="13.600681"><ele>66.66666666666667</ele><time>2026-05-03T14:52:03.512Z</time></trkpt><trkpt lat="37.2697262" lon="13.6008517"><ele>66.0</ele><time>2026-05-03T14:52:04.512Z</time></trkpt><trkpt lat="37.2695946" lon="13.601019"><ele>65.33333333333333</ele><time>2026-05-03T14:52:05.513Z</time></trkpt><trkpt lat="37.2694663" lon="13.6011883"><ele>64.66666666666666</ele><time>2026-05-03T14:52:06.513Z</time></trkpt><trkpt lat="37.269335" lon="13.6013491"><ele>64.0</ele><time>2026-05-03T14:52:07.512Z</time></trkpt><trkpt lat="37.2692027" lon="13.6015107"><ele>64.0</ele><time>2026-05-03T14:52:08.512Z</time></trkpt><trkpt lat="37.2690739" lon="13.6016724"><ele>64.0</ele><time>2026-05-03T14:52:09.513Z</time></trkpt><trkpt lat="37.2689526" lon="13.6018329"><ele>64.0</ele><time>2026-05-03T14:52:10.513Z</time></trkpt><trkpt lat="37.268829" lon="13.6019912"><ele>63.666666666666664</ele><time>2026-05-03T14:52:11.513Z</time></trkpt><trkpt lat="37.2687055" lon="13.6021471"><ele>63.33333333333333</ele><time>2026-05-03T14:52:12.513Z</time></trkpt><trkpt lat="37.2685865" lon="13.6022964"><ele>63.0</ele><time>2026-05-03T14:52:13.512Z</time></trkpt><trkpt lat="37.2684798" lon="13.6024344"><ele>63.0</ele><time>2026-05-03T14:52:14.512Z</time></trkpt><trkpt lat="37.2683855" lon="13.6025566"><ele>63.0</ele><time>2026-05-03T14:52:15.513Z</time></trkpt><trkpt lat="37.2683" lon="13.602664"><ele>63.0</ele><time>2026-05-03T14:52:16.512Z</time></trkpt><trkpt lat="37.2682319" lon="13.6027457"><ele>63.0</ele><time>2026-05-03T14:52:17.513Z</time></trkpt><trkpt lat="37.2681793" lon="13.6028164"><ele>63.0</ele><time>2026-05-03T14:52:18.513Z</time></trkpt><trkpt lat="37.2681316" lon="13.6028762"><ele>62.599999999999994</ele><time>2026-05-03T14:52:19.512Z</time></trkpt><trkpt lat="37.2680789" lon="13.6029374"><ele>62.199999999999996</ele><time>2026-05-03T14:52:20.512Z</time></trkpt><trkpt lat="37.2680208" lon="13.6030131"><ele>61.8</ele><time>2026-05-03T14:52:21.513Z</time></trkpt><trkpt lat="37.2679478" lon="13.6031102"><ele>61.4</ele><time>2026-05-03T14:52:22.513Z</time></trkpt><trkpt lat="37.2678517" lon="13.6032203"><ele>61.0</ele><time>2026-05-03T14:52:23.513Z</time></trkpt><trkpt lat="37.2677435" lon="13.6033523"><ele>61.0</ele><time>2026-05-03T14:52:24.512Z</time></trkpt><trkpt lat="37.2676304" lon="13.6034973"><ele>61.0</ele><time>2026-05-03T14:52:25.512Z</time></trkpt><trkpt lat="37.2675097" lon="13.6036517"><ele>61.0</ele><time>2026-05-03T14:52:26.512Z</time></trkpt><trkpt lat="37.267388" lon="13.6038149"><ele>60.33333333333333</ele><time>2026-05-03T14:52:27.512Z</time></trkpt><trkpt lat="37.2672528" lon="13.6039696"><ele>59.66666666666667</ele><time>2026-05-03T14:52:28.513Z</time></trkpt><trkpt lat="37.2671122" lon="13.6041225"><ele>59.0</ele><time>2026-05-03T14:52:29.513Z</time></trkpt><trkpt lat="37.2669881" lon="13.6042802"><ele>59.0</ele><time>2026-05-03T14:52:30.513Z</time></trkpt><trkpt lat="37.2668584" lon="13.604438"><ele>59.0</ele><time>2026-05-03T14:52:31.512Z</time></trkpt><trkpt lat="37.2667347" lon="13.6045942"><ele>59.0</ele><time>2026-05-03T14:52:32.513Z</time></trkpt><trkpt lat="37.2666232" lon="13.6047351"><ele>58.66666666666667</ele><time>2026-05-03T14:52:33.513Z</time></trkpt><trkpt lat="37.2665054" lon="13.6048765"><ele>58.33333333333333</ele><time>2026-05-03T14:52:34.513Z</time></trkpt><trkpt lat="37.2663969" lon="13.6050279"><ele>58.0</ele><time>2026-05-03T14:52:35.513Z</time></trkpt><trkpt lat="37.2662789" lon="13.6051731"><ele>57.666666666666664</ele><time>2026-05-03T14:52:36.512Z</time></trkpt><trkpt lat="37.2661605" lon="13.6053062"><ele>57.33333333333333</ele><time>2026-05-03T14:52:37.512Z</time></trkpt><trkpt lat="37.2660521" lon="13.6054342"><ele>57.0</ele><time>2026-05-03T14:52:38.512Z</time></trkpt><trkpt lat="37.2659473" lon="13.6055624"><ele>56.75</ele><time>2026-05-03T14:52:39.513Z</time></trkpt><trkpt lat="37.265839" lon="13.6056862"><ele>56.5</ele><time>2026-05-03T14:52:40.513Z</time></trkpt><trkpt lat="37.265733" lon="13.6058116"><ele>56.25</ele><time>2026-05-03T14:52:41.512Z</time></trkpt><trkpt lat="37.2656231" lon="13.6059428"><ele>56.0</ele><time>2026-05-03T14:52:42.513Z</time></trkpt><trkpt lat="37.2655193" lon="13.6060893"><ele>54.333333333333336</ele><time>2026-05-03T14:52:43.513Z</time></trkpt><trkpt lat="37.2654124" lon="13.6062407"><ele>52.66666666666667</ele><time>2026-05-03T14:52:44.512Z</time></trkpt><trkpt lat="37.2653092" lon="13.606406"><ele>51.0</ele><time>2026-05-03T14:52:45.513Z</time></trkpt><trkpt lat="37.2652021" lon="13.6065797"><ele>51.0</ele><time>2026-05-03T14:52:46.513Z</time></trkpt><trkpt lat="37.2650917" lon="13.6067492"><ele>51.0</ele><time>2026-05-03T14:52:47.513Z</time></trkpt><trkpt lat="37.2649815" lon="13.6069275"><ele>51.0</ele><time>2026-05-03T14:52:48.512Z</time></trkpt><trkpt lat="37.2648722" lon="13.6071098"><ele>52.0</ele><time>2026-05-03T14:52:49.512Z</time></trkpt><trkpt lat="37.2647654" lon="13.6072902"><ele>53.0</ele><time>2026-05-03T14:52:50.512Z</time></trkpt><trkpt lat="37.2646551" lon="13.6074721"><ele>54.0</ele><time>2026-05-03T14:52:51.513Z</time></trkpt><trkpt lat="37.2645453" lon="13.6076541"><ele>54.66666666666667</ele><time>2026-05-03T14:52:52.513Z</time></trkpt><trkpt lat="37.2644361" lon="13.6078447"><ele>55.333333333333336</ele><time>2026-05-03T14:52:53.512Z</time></trkpt><trkpt lat="37.2643261" lon="13.6080288"><ele>56.0</ele><time>2026-05-03T14:52:54.513Z</time></trkpt><trkpt lat="37.2642174" lon="13.6082122"><ele>56.0</ele><time>2026-05-03T14:52:55.513Z</time></trkpt><trkpt lat="37.2641116" lon="13.6083872"><ele>56.0</ele><time>2026-05-03T14:52:56.513Z</time></trkpt><trkpt lat="37.2640072" lon="13.6085629"><ele>56.0</ele><time>2026-05-03T14:52:57.513Z</time></trkpt><trkpt lat="37.2639014" lon="13.6087375"><ele>55.66666666666667</ele><time>2026-05-03T14:52:58.512Z</time></trkpt><trkpt lat="37.2638055" lon="13.6089097"><ele>55.33333333333333</ele><time>2026-05-03T14:52:59.513Z</time></trkpt><trkpt lat="37.2637081" lon="13.6090832"><ele>55.0</ele><time>2026-05-03T14:53:00.513Z</time></trkpt><trkpt lat="37.2636068" lon="13.6092509"><ele>55.0</ele><time>2026-05-03T14:53:01.513Z</time></trkpt><trkpt lat="37.2635039" lon="13.6094226"><ele>55.0</ele><time>2026-05-03T14:53:02.513Z</time></trkpt><trkpt lat="37.2633951" lon="13.6095932"><ele>55.0</ele><time>2026-05-03T14:53:03.512Z</time></trkpt><trkpt lat="37.2632829" lon="13.6097673"><ele>55.33333333333333</ele><time>2026-05-03T14:53:04.512Z</time></trkpt><trkpt lat="37.26317" lon="13.6099424"><ele>55.66666666666667</ele><time>2026-05-03T14:53:05.512Z</time></trkpt><trkpt lat="37.2630555" lon="13.6101227"><ele>56.0</ele><time>2026-05-03T14:53:06.513Z</time></trkpt><trkpt lat="37.2629361" lon="13.6103009"><ele>54.66666666666667</ele><time>2026-05-03T14:53:07.513Z</time></trkpt><trkpt lat="37.2628144" lon="13.6104798"><ele>53.33333333333333</ele><time>2026-05-03T14:53:08.512Z</time></trkpt><trkpt lat="37.2626974" lon="13.6106569"><ele>52.0</ele><time>2026-05-03T14:53:09.513Z</time></trkpt><trkpt lat="37.2625758" lon="13.610841"><ele>52.0</ele><time>2026-05-03T14:53:10.513Z</time></trkpt><trkpt lat="37.2624567" lon="13.6110248"><ele>52.0</ele><time>2026-05-03T14:53:11.513Z</time></trkpt><trkpt lat="37.2623419" lon="13.6112125"><ele>52.0</ele><time>2026-05-03T14:53:12.512Z</time></trkpt><trkpt lat="37.2622305" lon="13.6114036"><ele>51.33333333333333</ele><time>2026-05-03T14:53:13.513Z</time></trkpt><trkpt lat="37.2621187" lon="13.6115928"><ele>50.66666666666667</ele><time>2026-05-03T14:53:14.513Z</time></trkpt><trkpt lat="37.2620042" lon="13.6117814"><ele>50.0</ele><time>2026-05-03T14:53:15.513Z</time></trkpt><trkpt lat="37.2618917" lon="13.6119586"><ele>49.0</ele><time>2026-05-03T14:53:16.512Z</time></trkpt><trkpt lat="37.2617847" lon="13.6121263"><ele>48.0</ele><time>2026-05-03T14:53:17.513Z</time></trkpt><trkpt lat="37.2616866" lon="13.6122893"><ele>47.0</ele><time>2026-05-03T14:53:18.513Z</time></trkpt><trkpt lat="37.2615856" lon="13.6124493"><ele>47.0</ele><time>2026-05-03T14:53:19.512Z</time></trkpt><trkpt lat="37.2614902" lon="13.6126091"><ele>47.0</ele><time>2026-05-03T14:53:20.513Z</time></trkpt><trkpt lat="37.2614031" lon="13.612758"><ele>47.0</ele><time>2026-05-03T14:53:21.513Z</time></trkpt><trkpt lat="37.2613196" lon="13.6129019"><ele>47.0</ele><time>2026-05-03T14:53:22.513Z</time></trkpt><trkpt lat="37.2612407" lon="13.613033"><ele>47.0</ele><time>2026-05-03T14:53:23.512Z</time></trkpt><trkpt lat="37.261174" lon="13.6131428"><ele>47.0</ele><time>2026-05-03T14:53:24.512Z</time></trkpt><trkpt lat="37.2611026" lon="13.6132455"><ele>47.0</ele><time>2026-05-03T14:53:25.512Z</time></trkpt><trkpt lat="37.2610367" lon="13.613342"><ele>47.0</ele><time>2026-05-03T14:53:26.512Z</time></trkpt><trkpt lat="37.2609734" lon="13.613428"><ele>47.0</ele><time>2026-05-03T14:53:27.513Z</time></trkpt><trkpt lat="37.2609252" lon="13.6135147"><ele>47.0</ele><time>2026-05-03T14:53:28.513Z</time></trkpt><trkpt lat="37.2608729" lon="13.6136065"><ele>47.0</ele><time>2026-05-03T14:53:29.512Z</time></trkpt><trkpt lat="37.2608133" lon="13.6137027"><ele>47.0</ele><time>2026-05-03T14:53:30.513Z</time></trkpt><trkpt lat="37.2607489" lon="13.6138078"><ele>47.0</ele><time>2026-05-03T14:53:31.512Z</time></trkpt><trkpt lat="37.2606793" lon="13.6139119"><ele>47.0</ele><time>2026-05-03T14:53:32.513Z</time></trkpt><trkpt lat="37.2606011" lon="13.6140159"><ele>47.0</ele><time>2026-05-03T14:53:33.513Z</time></trkpt><trkpt lat="37.2605181" lon="13.6141192"><ele>47.0</ele><time>2026-05-03T14:53:34.512Z</time></trkpt><trkpt lat="37.2604456" lon="13.6142165"><ele>47.0</ele><time>2026-05-03T14:53:35.512Z</time></trkpt><trkpt lat="37.2603719" lon="13.6142985"><ele>47.0</ele><time>2026-05-03T14:53:36.512Z</time></trkpt><trkpt lat="37.2603181" lon="13.6143751"><ele>47.0</ele><time>2026-05-03T14:53:37.513Z</time></trkpt><trkpt lat="37.2602543" lon="13.6144423"><ele>47.6</ele><time>2026-05-03T14:53:38.513Z</time></trkpt><trkpt lat="37.2601829" lon="13.614508"><ele>48.2</ele><time>2026-05-03T14:53:39.512Z</time></trkpt><trkpt lat="37.2601067" lon="13.6145808"><ele>48.8</ele><time>2026-05-03T14:53:40.513Z</time></trkpt><trkpt lat="37.2600313" lon="13.6146542"><ele>49.4</ele><time>2026-05-03T14:53:41.512Z</time></trkpt><trkpt lat="37.2599607" lon="13.6147181"><ele>50.0</ele><time>2026-05-03T14:53:42.513Z</time></trkpt><trkpt lat="37.25989" lon="13.6147799"><ele>50.00000000000001</ele><time>2026-05-03T14:53:43.513Z</time></trkpt><trkpt lat="37.2598131" lon="13.6148326"><ele>50.0</ele><time>2026-05-03T14:53:44.512Z</time></trkpt><trkpt lat="37.2597407" lon="13.6148739"><ele>50.0</ele><time>2026-05-03T14:53:45.513Z</time></trkpt><trkpt lat="37.2596635" lon="13.6149028"><ele>50.0</ele><time>2026-05-03T14:53:46.513Z</time></trkpt><trkpt lat="37.2595927" lon="13.6149207"><ele>50.00000000000001</ele><time>2026-05-03T14:53:47.513Z</time></trkpt><trkpt lat="37.259488" lon="13.6149538"><ele>50.0</ele><time>2026-05-03T14:53:49.512Z</time></trkpt><trkpt lat="37.2594377" lon="13.6150469"><ele>49.4</ele><time>2026-05-03T14:53:51.513Z</time></trkpt><trkpt lat="37.259388" lon="13.615168"><ele>48.8</ele><time>2026-05-03T14:53:53.512Z</time></trkpt><trkpt lat="37.2593311" lon="13.6152261"><ele>48.2</ele><time>2026-05-03T14:53:54.513Z</time></trkpt><trkpt lat="37.2592518" lon="13.6152903"><ele>47.6</ele><time>2026-05-03T14:53:55.513Z</time></trkpt><trkpt lat="37.25916" lon="13.6153573"><ele>47.0</ele><time>2026-05-03T14:53:56.512Z</time></trkpt><trkpt lat="37.2590611" lon="13.6154354"><ele>47.0</ele><time>2026-05-03T14:53:57.513Z</time></trkpt><trkpt lat="37.2589632" lon="13.6155147"><ele>47.0</ele><time>2026-05-03T14:53:58.512Z</time></trkpt><trkpt lat="37.2588568" lon="13.6155892"><ele>47.0</ele><time>2026-05-03T14:53:59.513Z</time></trkpt><trkpt lat="37.2587417" lon="13.6156483"><ele>47.0</ele><time>2026-05-03T14:54:00.513Z</time></trkpt><trkpt lat="37.2586235" lon="13.6157015"><ele>46.75</ele><time>2026-05-03T14:54:01.512Z</time></trkpt><trkpt lat="37.2585026" lon="13.6157609"><ele>46.5</ele><time>2026-05-03T14:54:02.513Z</time></trkpt><trkpt lat="37.2583703" lon="13.6158198"><ele>46.25</ele><time>2026-05-03T14:54:03.513Z</time></trkpt><trkpt lat="37.2582339" lon="13.6158805"><ele>46.0</ele><time>2026-05-03T14:54:04.513Z</time></trkpt><trkpt lat="37.2580949" lon="13.6159425"><ele>46.0</ele><time>2026-05-03T14:54:05.513Z</time></trkpt><trkpt lat="37.2579581" lon="13.6160035"><ele>46.0</ele><time>2026-05-03T14:54:06.513Z</time></trkpt><trkpt lat="37.2578249" lon="13.6160634"><ele>46.0</ele><time>2026-05-03T14:54:07.513Z</time></trkpt><trkpt lat="37.2576972" lon="13.6161238"><ele>46.0</ele><time>2026-05-03T14:54:08.512Z</time></trkpt><trkpt lat="37.2575787" lon="13.6161754"><ele>46.0</ele><time>2026-05-03T14:54:09.513Z</time></trkpt><trkpt lat="37.2574666" lon="13.6162233"><ele>46.0</ele><time>2026-05-03T14:54:10.513Z</time></trkpt><trkpt lat="37.2573648" lon="13.6162608"><ele>46.0</ele><time>2026-05-03T14:54:11.512Z</time></trkpt><trkpt lat="37.2572498" lon="13.616287"><ele>46.0</ele><time>2026-05-03T14:54:12.512Z</time></trkpt><trkpt lat="37.2571294" lon="13.6163087"><ele>46.0</ele><time>2026-05-03T14:54:13.512Z</time></trkpt><trkpt lat="37.2570088" lon="13.6163262"><ele>46.0</ele><time>2026-05-03T14:54:14.512Z</time></trkpt><trkpt lat="37.2568947" lon="13.6163448"><ele>46.0</ele><time>2026-05-03T14:54:15.512Z</time></trkpt><trkpt lat="37.2567779" lon="13.6163628"><ele>46.0</ele><time>2026-05-03T14:54:16.512Z</time></trkpt><trkpt lat="37.2566678" lon="13.6163815"><ele>46.0</ele><time>2026-05-03T14:54:17.513Z</time></trkpt><trkpt lat="37.256559" lon="13.6163971"><ele>46.0</ele><time>2026-05-03T14:54:18.512Z</time></trkpt><trkpt lat="37.2564472" lon="13.6164118"><ele>46.0</ele><time>2026-05-03T14:54:19.512Z</time></trkpt><trkpt lat="37.2563323" lon="13.6164328"><ele>46.0</ele><time>2026-05-03T14:54:20.513Z</time></trkpt><trkpt lat="37.2562222" lon="13.6164594"><ele>45.5</ele><time>2026-05-03T14:54:21.512Z</time></trkpt><trkpt lat="37.2561245" lon="13.6164849"><ele>45.0</ele><time>2026-05-03T14:54:22.513Z</time></trkpt><trkpt lat="37.2560464" lon="13.6165153"><ele>44.5</ele><time>2026-05-03T14:54:23.512Z</time></trkpt><trkpt lat="37.2559746" lon="13.6165361"><ele>44.0</ele><time>2026-05-03T14:54:24.513Z</time></trkpt><trkpt lat="37.2558977" lon="13.6165486"><ele>43.5</ele><time>2026-05-03T14:54:25.512Z</time></trkpt><trkpt lat="37.255825" lon="13.6165646"><ele>43.0</ele><time>2026-05-03T14:54:26.513Z</time></trkpt><trkpt lat="37.2557442" lon="13.6165797"><ele>43.0</ele><time>2026-05-03T14:54:27.512Z</time></trkpt><trkpt lat="37.2556567" lon="13.6165976"><ele>43.0</ele><time>2026-05-03T14:54:28.513Z</time></trkpt><trkpt lat="37.2555578" lon="13.6166084"><ele>43.0</ele><time>2026-05-03T14:54:29.512Z</time></trkpt><trkpt lat="37.2554458" lon="13.6166148"><ele>43.0</ele><time>2026-05-03T14:54:30.513Z</time></trkpt><trkpt lat="37.2553295" lon="13.6166199"><ele>43.0</ele><time>2026-05-03T14:54:31.513Z</time></trkpt><trkpt lat="37.2552139" lon="13.6166245"><ele>43.5</ele><time>2026-05-03T14:54:32.513Z</time></trkpt><trkpt lat="37.2551019" lon="13.6166254"><ele>44.0</ele><time>2026-05-03T14:54:33.512Z</time></trkpt><trkpt lat="37.2549904" lon="13.6166148"><ele>44.5</ele><time>2026-05-03T14:54:34.512Z</time></trkpt><trkpt lat="37.2548754" lon="13.616595"><ele>45.0</ele><time>2026-05-03T14:54:35.513Z</time></trkpt><trkpt lat="37.2547609" lon="13.6165776"><ele>45.0</ele><time>2026-05-03T14:54:36.512Z</time></trkpt><trkpt lat="37.2546489" lon="13.6165565"><ele>45.0</ele><time>2026-05-03T14:54:37.512Z</time></trkpt><trkpt lat="37.2545422" lon="13.616537"><ele>45.0</ele><time>2026-05-03T14:54:38.513Z</time></trkpt><trkpt lat="37.2544381" lon="13.6165144"><ele>45.0</ele><time>2026-05-03T14:54:39.513Z</time></trkpt><trkpt lat="37.2543405" lon="13.6164849"><ele>45.0</ele><time>2026-05-03T14:54:40.512Z</time></trkpt><trkpt lat="37.2542359" lon="13.6164681"><ele>45.0</ele><time>2026-05-03T14:54:41.513Z</time></trkpt><trkpt lat="37.2541226" lon="13.6164535"><ele>45.0</ele><time>2026-05-03T14:54:42.512Z</time></trkpt><trkpt lat="37.2540027" lon="13.6164434"><ele>45.0</ele><time>2026-05-03T14:54:43.513Z</time></trkpt><trkpt lat="37.2538778" lon="13.6164306"><ele>45.0</ele><time>2026-05-03T14:54:44.511Z</time></trkpt><trkpt lat="37.2537471" lon="13.6164208"><ele>45.5</ele><time>2026-05-03T14:54:45.511Z</time></trkpt><trkpt lat="37.2536139" lon="13.6164191"><ele>46.0</ele><time>2026-05-03T14:54:46.512Z</time></trkpt><trkpt lat="37.253475" lon="13.6164302"><ele>46.5</ele><time>2026-05-03T14:54:47.512Z</time></trkpt><trkpt lat="37.2533398" lon="13.6164495"><ele>47.0</ele><time>2026-05-03T14:54:48.511Z</time></trkpt><trkpt lat="37.253194" lon="13.6164817"><ele>46.6</ele><time>2026-05-03T14:54:49.511Z</time></trkpt><trkpt lat="37.2530749" lon="13.6164973"><ele>46.2</ele><time>2026-05-03T14:54:50.511Z</time></trkpt><trkpt lat="37.2529661" lon="13.6165206"><ele>45.8</ele><time>2026-05-03T14:54:51.511Z</time></trkpt><trkpt lat="37.2528605" lon="13.6165401"><ele>45.4</ele><time>2026-05-03T14:54:52.512Z</time></trkpt><trkpt lat="37.2527513" lon="13.6165522"><ele>45.0</ele><time>2026-05-03T14:54:53.512Z</time></trkpt><trkpt lat="37.2526392" lon="13.6165688"><ele>45.0</ele><time>2026-05-03T14:54:54.512Z</time></trkpt><trkpt lat="37.2525226" lon="13.6165879"><ele>45.0</ele><time>2026-05-03T14:54:55.512Z</time></trkpt><trkpt lat="37.2524073" lon="13.616604"><ele>45.0</ele><time>2026-05-03T14:54:56.512Z</time></trkpt><trkpt lat="37.2522955" lon="13.6166192"><ele>45.0</ele><time>2026-05-03T14:54:57.511Z</time></trkpt><trkpt lat="37.2521878" lon="13.6166397"><ele>44.4</ele><time>2026-05-03T14:54:58.512Z</time></trkpt><trkpt lat="37.2520869" lon="13.6166623"><ele>43.8</ele><time>2026-05-03T14:54:59.511Z</time></trkpt><trkpt lat="37.2519976" lon="13.6166872"><ele>43.2</ele><time>2026-05-03T14:55:00.512Z</time></trkpt><trkpt lat="37.2519126" lon="13.6167113"><ele>42.6</ele><time>2026-05-03T14:55:01.512Z</time></trkpt><trkpt lat="37.2518247" lon="13.616735"><ele>42.0</ele><time>2026-05-03T14:55:02.512Z</time></trkpt><trkpt lat="37.25173" lon="13.6167429"><ele>42.0</ele><time>2026-05-03T14:55:03.512Z</time></trkpt><trkpt lat="37.251653" lon="13.6167434"><ele>42.0</ele><time>2026-05-03T14:55:04.512Z</time></trkpt><trkpt lat="37.25154" lon="13.6167508"><ele>42.0</ele><time>2026-05-03T14:55:06.511Z</time></trkpt><trkpt lat="37.2514629" lon="13.6167386"><ele>42.0</ele><time>2026-05-03T14:55:08.512Z</time></trkpt><trkpt lat="37.2513911" lon="13.6166731"><ele>42.0</ele><time>2026-05-03T14:55:10.511Z</time></trkpt><trkpt lat="37.2513574" lon="13.6166035"><ele>42.0</ele><time>2026-05-03T14:55:11.512Z</time></trkpt><trkpt lat="37.2513163" lon="13.6165269"><ele>40.833333333333336</ele><time>2026-05-03T14:55:12.511Z</time></trkpt><trkpt lat="37.2512627" lon="13.6164436"><ele>39.666666666666664</ele><time>2026-05-03T14:55:13.512Z</time></trkpt><trkpt lat="37.2512028" lon="13.6163688"><ele>38.5</ele><time>2026-05-03T14:55:14.511Z</time></trkpt><trkpt lat="37.2511388" lon="13.6163002"><ele>37.33333333333333</ele><time>2026-05-03T14:55:15.511Z</time></trkpt><trkpt lat="37.2510801" lon="13.6162421"><ele>36.166666666666664</ele><time>2026-05-03T14:55:16.512Z</time></trkpt><trkpt lat="37.2510245" lon="13.6162017"><ele>35.0</ele><time>2026-05-03T14:55:17.512Z</time></trkpt><trkpt lat="37.2509232" lon="13.6161468"><ele>34.83333333333333</ele><time>2026-05-03T14:55:19.511Z</time></trkpt><trkpt lat="37.2508435" lon="13.6161048"><ele>34.666666666666664</ele><time>2026-05-03T14:55:21.512Z</time></trkpt><trkpt lat="37.2507757" lon="13.6160775"><ele>34.5</ele><time>2026-05-03T14:55:23.511Z</time></trkpt><trkpt lat="37.2506697" lon="13.616075"><ele>34.333333333333336</ele><time>2026-05-03T14:55:25.512Z</time></trkpt><trkpt lat="37.2505679" lon="13.6161039"><ele>34.16666666666667</ele><time>2026-05-03T14:55:27.513Z</time></trkpt><trkpt lat="37.2505113" lon="13.6161513"><ele>34.0</ele><time>2026-05-03T14:55:29.512Z</time></trkpt><trkpt lat="37.2504876" lon="13.6162528"><ele>34.0</ele><time>2026-05-03T14:55:45.513Z</time></trkpt><trkpt lat="37.2505183" lon="13.6164289"><ele>34.0</ele><time>2026-05-03T14:55:47.512Z</time></trkpt><trkpt lat="37.2505591" lon="13.6165563"><ele>34.0</ele><time>2026-05-03T14:55:48.513Z</time></trkpt><trkpt lat="37.2506057" lon="13.6166872"><ele>34.0</ele><time>2026-05-03T14:55:49.513Z</time></trkpt><trkpt lat="37.2506589" lon="13.616836"><ele>34.75</ele><time>2026-05-03T14:55:50.513Z</time></trkpt><trkpt lat="37.2507272" lon="13.6169864"><ele>35.5</ele><time>2026-05-03T14:55:51.513Z</time></trkpt><trkpt lat="37.2508041" lon="13.6171316"><ele>36.25</ele><time>2026-05-03T14:55:52.513Z</time></trkpt><trkpt lat="37.250884" lon="13.6172738"><ele>37.0</ele><time>2026-05-03T14:55:53.513Z</time></trkpt><trkpt lat="37.2509593" lon="13.6173913"><ele>37.0</ele><time>2026-05-03T14:55:54.512Z</time></trkpt><trkpt lat="37.251019" lon="13.6174929"><ele>37.0</ele><time>2026-05-03T14:55:55.513Z</time></trkpt><trkpt lat="37.2510564" lon="13.6175704"><ele>37.0</ele><time>2026-05-03T14:55:56.512Z</time></trkpt><trkpt lat="37.2510643" lon="13.6176661"><ele>37.0</ele><time>2026-05-03T14:55:58.512Z</time></trkpt><trkpt lat="37.2509825" lon="13.6177026"><ele>37.0</ele><time>2026-05-03T14:56:00.512Z</time></trkpt><trkpt lat="37.2509098" lon="13.6176933"><ele>37.0</ele><time>2026-05-03T14:56:01.512Z</time></trkpt><trkpt lat="37.250819" lon="13.6176467"><ele>37.0</ele><time>2026-05-03T14:56:02.512Z</time></trkpt><trkpt lat="37.2507009" lon="13.6175877"><ele>37.0</ele><time>2026-05-03T14:56:03.511Z</time></trkpt><trkpt lat="37.25056" lon="13.6175246"><ele>37.0</ele><time>2026-05-03T14:56:04.511Z</time></trkpt><trkpt lat="37.2504046" lon="13.6174553"><ele>37.0</ele><time>2026-05-03T14:56:05.511Z</time></trkpt><trkpt lat="37.2502459" lon="13.6173855"><ele>37.333333333333336</ele><time>2026-05-03T14:56:06.511Z</time></trkpt><trkpt lat="37.2500957" lon="13.6173142"><ele>37.666666666666664</ele><time>2026-05-03T14:56:07.511Z</time></trkpt><trkpt lat="37.2499553" lon="13.6172488"><ele>38.0</ele><time>2026-05-03T14:56:08.512Z</time></trkpt><trkpt lat="37.2498247" lon="13.6171857"><ele>38.75</ele><time>2026-05-03T14:56:09.512Z</time></trkpt><trkpt lat="37.2496984" lon="13.6171265"><ele>39.5</ele><time>2026-05-03T14:56:10.512Z</time></trkpt><trkpt lat="37.2495869" lon="13.6170898"><ele>40.25</ele><time>2026-05-03T14:56:11.512Z</time></trkpt><trkpt lat="37.249476" lon="13.617054"><ele>41.0</ele><time>2026-05-03T14:56:12.511Z</time></trkpt><trkpt lat="37.2493647" lon="13.6170329"><ele>41.0</ele><time>2026-05-03T14:56:13.512Z</time></trkpt><trkpt lat="37.2492392" lon="13.6170269"><ele>41.0</ele><time>2026-05-03T14:56:14.512Z</time></trkpt><trkpt lat="37.2490992" lon="13.6170351"><ele>41.0</ele><time>2026-05-03T14:56:15.511Z</time></trkpt><trkpt lat="37.2489536" lon="13.6170545"><ele>41.0</ele><time>2026-05-03T14:56:16.512Z</time></trkpt><trkpt lat="37.2488004" lon="13.6170823"><ele>41.0</ele><time>2026-05-03T14:56:17.512Z</time></trkpt><trkpt lat="37.2486322" lon="13.6171174"><ele>41.0</ele><time>2026-05-03T14:56:18.512Z</time></trkpt><trkpt lat="37.2484585" lon="13.6171539"><ele>41.0</ele><time>2026-05-03T14:56:19.511Z</time></trkpt><trkpt lat="37.2482804" lon="13.6171927"><ele>41.0</ele><time>2026-05-03T14:56:20.511Z</time></trkpt><trkpt lat="37.2480979" lon="13.6172303"><ele>41.0</ele><time>2026-05-03T14:56:21.512Z</time></trkpt><trkpt lat="37.2479115" lon="13.6172676"><ele>41.0</ele><time>2026-05-03T14:56:22.512Z</time></trkpt><trkpt lat="37.2477186" lon="13.6173038"><ele>41.0</ele><time>2026-05-03T14:56:23.512Z</time></trkpt><trkpt lat="37.2475172" lon="13.6173434"><ele>41.0</ele><time>2026-05-03T14:56:24.512Z</time></trkpt><trkpt lat="37.2473212" lon="13.6173766"><ele>41.0</ele><time>2026-05-03T14:56:25.511Z</time></trkpt><trkpt lat="37.2471338" lon="13.617408"><ele>40.0</ele><time>2026-05-03T14:56:26.512Z</time></trkpt><trkpt lat="37.2469544" lon="13.6174366"><ele>39.0</ele><time>2026-05-03T14:56:27.512Z</time></trkpt><trkpt lat="37.2467825" lon="13.6174632"><ele>38.0</ele><time>2026-05-03T14:56:28.512Z</time></trkpt><trkpt lat="37.2466156" lon="13.6174877"><ele>37.666666666666664</ele><time>2026-05-03T14:56:29.511Z</time></trkpt><trkpt lat="37.2464586" lon="13.6175171"><ele>37.333333333333336</ele><time>2026-05-03T14:56:30.512Z</time></trkpt><trkpt lat="37.2463069" lon="13.6175521"><ele>37.0</ele><time>2026-05-03T14:56:31.512Z</time></trkpt><trkpt lat="37.2461597" lon="13.6176034"><ele>37.0</ele><time>2026-05-03T14:56:32.511Z</time></trkpt><trkpt lat="37.2460197" lon="13.6176745"><ele>37.0</ele><time>2026-05-03T14:56:33.511Z</time></trkpt><trkpt lat="37.2458824" lon="13.6177555"><ele>37.0</ele><time>2026-05-03T14:56:34.512Z</time></trkpt><trkpt lat="37.245757" lon="13.6178473"><ele>37.0</ele><time>2026-05-03T14:56:35.512Z</time></trkpt><trkpt lat="37.2456378" lon="13.617955"><ele>36.333333333333336</ele><time>2026-05-03T14:56:36.511Z</time></trkpt><trkpt lat="37.2455258" lon="13.6180727"><ele>35.666666666666664</ele><time>2026-05-03T14:56:37.511Z</time></trkpt><trkpt lat="37.2454207" lon="13.6182057"><ele>35.0</ele><time>2026-05-03T14:56:38.512Z</time></trkpt><trkpt lat="37.2453231" lon="13.6183559"><ele>35.0</ele><time>2026-05-03T14:56:39.512Z</time></trkpt><trkpt lat="37.2452317" lon="13.6185229"><ele>35.0</ele><time>2026-05-03T14:56:40.512Z</time></trkpt><trkpt lat="37.2451431" lon="13.6187047"><ele>35.0</ele><time>2026-05-03T14:56:41.512Z</time></trkpt><trkpt lat="37.2450546" lon="13.6188994"><ele>35.0</ele><time>2026-05-03T14:56:42.512Z</time></trkpt><trkpt lat="37.2449642" lon="13.6191055"><ele>35.0</ele><time>2026-05-03T14:56:43.511Z</time></trkpt><trkpt lat="37.2448721" lon="13.6193218"><ele>35.0</ele><time>2026-05-03T14:56:44.511Z</time></trkpt><trkpt lat="37.2447798" lon="13.6195328"><ele>35.0</ele><time>2026-05-03T14:56:45.511Z</time></trkpt><trkpt lat="37.2446839" lon="13.6197525"><ele>35.0</ele><time>2026-05-03T14:56:46.511Z</time></trkpt><trkpt lat="37.2445888" lon="13.6199715"><ele>35.0</ele><time>2026-05-03T14:56:47.512Z</time></trkpt><trkpt lat="37.2444919" lon="13.6201961"><ele>34.666666666666664</ele><time>2026-05-03T14:56:48.512Z</time></trkpt><trkpt lat="37.2443947" lon="13.6204202"><ele>34.333333333333336</ele><time>2026-05-03T14:56:49.511Z</time></trkpt><trkpt lat="37.2442993" lon="13.620643"><ele>34.0</ele><time>2026-05-03T14:56:50.511Z</time></trkpt><trkpt lat="37.2442087" lon="13.6208654"><ele>34.0</ele><time>2026-05-03T14:56:51.512Z</time></trkpt><trkpt lat="37.2441217" lon="13.6210881"><ele>34.0</ele><time>2026-05-03T14:56:52.512Z</time></trkpt><trkpt lat="37.2440375" lon="13.621315"><ele>34.0</ele><time>2026-05-03T14:56:53.511Z</time></trkpt><trkpt lat="37.2439521" lon="13.6215501"><ele>34.0</ele><time>2026-05-03T14:56:54.511Z</time></trkpt><trkpt lat="37.2438666" lon="13.6217818"><ele>34.0</ele><time>2026-05-03T14:56:55.512Z</time></trkpt><trkpt lat="37.2437824" lon="13.6220006"><ele>34.0</ele><time>2026-05-03T14:56:56.512Z</time></trkpt><trkpt lat="37.2437044" lon="13.6222062"><ele>34.0</ele><time>2026-05-03T14:56:57.512Z</time></trkpt><trkpt lat="37.2436262" lon="13.6224063"><ele>34.0</ele><time>2026-05-03T14:56:58.512Z</time></trkpt><trkpt lat="37.2435467" lon="13.622613"><ele>34.0</ele><time>2026-05-03T14:56:59.512Z</time></trkpt><trkpt lat="37.2434736" lon="13.6228125"><ele>33.0</ele><time>2026-05-03T14:57:00.512Z</time></trkpt><trkpt lat="37.2434063" lon="13.623005"><ele>32.0</ele><time>2026-05-03T14:57:01.512Z</time></trkpt><trkpt lat="37.2433425" lon="13.6231959"><ele>31.0</ele><time>2026-05-03T14:57:02.511Z</time></trkpt><trkpt lat="37.2432801" lon="13.62338"><ele>31.0</ele><time>2026-05-03T14:57:03.511Z</time></trkpt><trkpt lat="37.2432226" lon="13.6235504"><ele>31.0</ele><time>2026-05-03T14:57:04.512Z</time></trkpt><trkpt lat="37.2431692" lon="13.6237132"><ele>31.0</ele><time>2026-05-03T14:57:05.512Z</time></trkpt><trkpt lat="37.2431219" lon="13.6238594"><ele>31.0</ele><time>2026-05-03T14:57:06.511Z</time></trkpt><trkpt lat="37.2430816" lon="13.6239879"><ele>30.200000000000003</ele><time>2026-05-03T14:57:07.512Z</time></trkpt><trkpt lat="37.243047" lon="13.6240874"><ele>29.400000000000002</ele><time>2026-05-03T14:57:08.511Z</time></trkpt><trkpt lat="37.2429759" lon="13.6241989"><ele>28.6</ele><time>2026-05-03T14:57:10.512Z</time></trkpt><trkpt lat="37.2428903" lon="13.6242328"><ele>27.8</ele><time>2026-05-03T14:57:12.512Z</time></trkpt><trkpt lat="37.2427479" lon="13.6242107"><ele>27.0</ele><time>2026-05-03T14:57:14.512Z</time></trkpt><trkpt lat="37.2426601" lon="13.6241944"><ele>27.0</ele><time>2026-05-03T14:57:15.511Z</time></trkpt><trkpt lat="37.2425655" lon="13.6241706"><ele>27.000000000000004</ele><time>2026-05-03T14:57:16.512Z</time></trkpt><trkpt lat="37.2424593" lon="13.6241427"><ele>27.000000000000004</ele><time>2026-05-03T14:57:17.512Z</time></trkpt><trkpt lat="37.2423438" lon="13.6241192"><ele>27.0</ele><time>2026-05-03T14:57:18.512Z</time></trkpt><trkpt lat="37.2422194" lon="13.6240949"><ele>27.0</ele><time>2026-05-03T14:57:19.512Z</time></trkpt><trkpt lat="37.2420931" lon="13.6240681"><ele>26.25</ele><time>2026-05-03T14:57:20.512Z</time></trkpt><trkpt lat="37.2419685" lon="13.624039"><ele>25.5</ele><time>2026-05-03T14:57:21.512Z</time></trkpt><trkpt lat="37.241843" lon="13.6240034"><ele>24.75</ele><time>2026-05-03T14:57:22.512Z</time></trkpt><trkpt lat="37.2417211" lon="13.6239723"><ele>24.0</ele><time>2026-05-03T14:57:23.512Z</time></trkpt><trkpt lat="37.2416019" lon="13.6239458"><ele>24.0</ele><time>2026-05-03T14:57:24.512Z</time></trkpt><trkpt lat="37.2414933" lon="13.6239205"><ele>24.0</ele><time>2026-05-03T14:57:25.512Z</time></trkpt><trkpt lat="37.2413907" lon="13.6238857"><ele>24.0</ele><time>2026-05-03T14:57:26.511Z</time></trkpt><trkpt lat="37.2412938" lon="13.6238526"><ele>24.0</ele><time>2026-05-03T14:57:27.511Z</time></trkpt><trkpt lat="37.2411978" lon="13.6237976"><ele>24.0</ele><time>2026-05-03T14:57:28.512Z</time></trkpt><trkpt lat="37.2411055" lon="13.6237266"><ele>22.0</ele><time>2026-05-03T14:57:29.511Z</time></trkpt><trkpt lat="37.2410136" lon="13.6236381"><ele>20.0</ele><time>2026-05-03T14:57:30.512Z</time></trkpt><trkpt lat="37.2409201" lon="13.623535"><ele>18.0</ele><time>2026-05-03T14:57:31.512Z</time></trkpt><trkpt lat="37.2408281" lon="13.6234236"><ele>16.0</ele><time>2026-05-03T14:57:32.511Z</time></trkpt><trkpt lat="37.2407288" lon="13.623302"><ele>14.5</ele><time>2026-05-03T14:57:33.512Z</time></trkpt><trkpt lat="37.2406318" lon="13.6231859"><ele>13.0</ele><time>2026-05-03T14:57:34.512Z</time></trkpt><trkpt lat="37.240539" lon="13.623081"><ele>11.5</ele><time>2026-05-03T14:57:35.511Z</time></trkpt><trkpt lat="37.2404381" lon="13.6229806"><ele>10.0</ele><time>2026-05-03T14:57:36.512Z</time></trkpt><trkpt lat="37.2403281" lon="13.6228947"><ele>10.5</ele><time>2026-05-03T14:57:37.512Z</time></trkpt><trkpt lat="37.2402072" lon="13.6228118"><ele>11.0</ele><time>2026-05-03T14:57:38.512Z</time></trkpt><trkpt lat="37.2400749" lon="13.6227344"><ele>11.5</ele><time>2026-05-03T14:57:39.512Z</time></trkpt><trkpt lat="37.2399369" lon="13.6226596"><ele>12.0</ele><time>2026-05-03T14:57:40.512Z</time></trkpt><trkpt lat="37.2397893" lon="13.6225816"><ele>12.0</ele><time>2026-05-03T14:57:41.511Z</time></trkpt><trkpt lat="37.239638" lon="13.622499"><ele>12.0</ele><time>2026-05-03T14:57:42.511Z</time></trkpt><trkpt lat="37.2394873" lon="13.6224135"><ele>12.0</ele><time>2026-05-03T14:57:43.512Z</time></trkpt><trkpt lat="37.2393373" lon="13.6223278"><ele>12.0</ele><time>2026-05-03T14:57:44.512Z</time></trkpt><trkpt lat="37.2391878" lon="13.6222426"><ele>12.0</ele><time>2026-05-03T14:57:45.511Z</time></trkpt><trkpt lat="37.2390475" lon="13.622156"><ele>12.0</ele><time>2026-05-03T14:57:46.512Z</time></trkpt><trkpt lat="37.2389134" lon="13.6220784"><ele>12.0</ele><time>2026-05-03T14:57:47.512Z</time></trkpt><trkpt lat="37.2387878" lon="13.6220045"><ele>12.0</ele><time>2026-05-03T14:57:48.511Z</time></trkpt><trkpt lat="37.2386766" lon="13.6219346"><ele>12.0</ele><time>2026-05-03T14:57:49.511Z</time></trkpt><trkpt lat="37.2385642" lon="13.6218634"><ele>12.0</ele><time>2026-05-03T14:57:50.511Z</time></trkpt><trkpt lat="37.2384425" lon="13.6217937"><ele>12.0</ele><time>2026-05-03T14:57:51.511Z</time></trkpt><trkpt lat="37.2383316" lon="13.6217263"><ele>12.0</ele><time>2026-05-03T14:57:52.511Z</time></trkpt><trkpt lat="37.2382384" lon="13.6216727"><ele>12.0</ele><time>2026-05-03T14:57:53.511Z</time></trkpt><trkpt lat="37.2381585" lon="13.6216223"><ele>12.0</ele><time>2026-05-03T14:57:54.512Z</time></trkpt><trkpt lat="37.2380904" lon="13.6215795"><ele>12.0</ele><time>2026-05-03T14:57:55.512Z</time></trkpt><trkpt lat="37.2380157" lon="13.6215391"><ele>11.6</ele><time>2026-05-03T14:57:56.511Z</time></trkpt><trkpt lat="37.2379294" lon="13.6214894"><ele>11.2</ele><time>2026-05-03T14:57:57.512Z</time></trkpt><trkpt lat="37.2378378" lon="13.6214275"><ele>10.8</ele><time>2026-05-03T14:57:58.512Z</time></trkpt><trkpt lat="37.2377503" lon="13.6213728"><ele>10.4</ele><time>2026-05-03T14:57:59.511Z</time></trkpt><trkpt lat="37.237661" lon="13.621306"><ele>10.0</ele><time>2026-05-03T14:58:00.511Z</time></trkpt><trkpt lat="37.2375621" lon="13.6212656"><ele>10.0</ele><time>2026-05-03T14:58:01.512Z</time></trkpt><trkpt lat="37.2374561" lon="13.6212237"><ele>10.0</ele><time>2026-05-03T14:58:02.512Z</time></trkpt><trkpt lat="37.2373479" lon="13.6211605"><ele>10.0</ele><time>2026-05-03T14:58:03.511Z</time></trkpt><trkpt lat="37.2372403" lon="13.6210962"><ele>10.0</ele><time>2026-05-03T14:58:04.512Z</time></trkpt><trkpt lat="37.2371207" lon="13.6210294"><ele>9.75</ele><time>2026-05-03T14:58:05.512Z</time></trkpt><trkpt lat="37.236996" lon="13.620961"><ele>9.5</ele><time>2026-05-03T14:58:06.512Z</time></trkpt><trkpt lat="37.2368669" lon="13.62089"><ele>9.25</ele><time>2026-05-03T14:58:07.512Z</time></trkpt><trkpt lat="37.2367424" lon="13.6208247"><ele>9.0</ele><time>2026-05-03T14:58:08.512Z</time></trkpt><trkpt lat="37.2366201" lon="13.6207577"><ele>9.0</ele><time>2026-05-03T14:58:09.512Z</time></trkpt><trkpt lat="37.2365082" lon="13.6206941"><ele>9.0</ele><time>2026-05-03T14:58:10.511Z</time></trkpt><trkpt lat="37.2363969" lon="13.6206347"><ele>9.0</ele><time>2026-05-03T14:58:11.512Z</time></trkpt><trkpt lat="37.2362939" lon="13.6205773"><ele>9.0</ele><time>2026-05-03T14:58:12.512Z</time></trkpt><trkpt lat="37.2362022" lon="13.6205239"><ele>8.6</ele><time>2026-05-03T14:58:13.512Z</time></trkpt><trkpt lat="37.2361246" lon="13.6204804"><ele>8.2</ele><time>2026-05-03T14:58:14.511Z</time></trkpt><trkpt lat="37.2360591" lon="13.6204392"><ele>7.799999999999999</ele><time>2026-05-03T14:58:15.511Z</time></trkpt><trkpt lat="37.2359739" lon="13.6203494"><ele>7.3999999999999995</ele><time>2026-05-03T14:58:17.511Z</time></trkpt><trkpt lat="37.2359508" lon="13.6202516"><ele>7.0</ele><time>2026-05-03T14:58:19.512Z</time></trkpt><trkpt lat="37.2359722" lon="13.6201276"><ele>6.3999999999999995</ele><time>2026-05-03T14:58:21.511Z</time></trkpt><trkpt lat="37.2360474" lon="13.6200011"><ele>5.799999999999999</ele><time>2026-05-03T14:58:23.512Z</time></trkpt><trkpt lat="37.2361067" lon="13.6199395"><ele>5.2</ele><time>2026-05-03T14:58:24.511Z</time></trkpt><trkpt lat="37.2361697" lon="13.6198721"><ele>4.6</ele><time>2026-05-03T14:58:25.512Z</time></trkpt><trkpt lat="37.2362382" lon="13.619797"><ele>4.0</ele><time>2026-05-03T14:58:26.511Z</time></trkpt><trkpt lat="37.2363132" lon="13.6197197"><ele>4.0</ele><time>2026-05-03T14:58:27.511Z</time></trkpt><trkpt lat="37.2363918" lon="13.6196389"><ele>4.0</ele><time>2026-05-03T14:58:28.512Z</time></trkpt><trkpt lat="37.2364713" lon="13.6195449"><ele>4.0</ele><time>2026-05-03T14:58:29.512Z</time></trkpt><trkpt lat="37.2365544" lon="13.6194506"><ele>4.0</ele><time>2026-05-03T14:58:30.511Z</time></trkpt><trkpt lat="37.2366434" lon="13.6193555"><ele>4.0</ele><time>2026-05-03T14:58:31.512Z</time></trkpt><trkpt lat="37.2367349" lon="13.619258"><ele>4.75</ele><time>2026-05-03T14:58:32.511Z</time></trkpt><trkpt lat="37.2368284" lon="13.6191601"><ele>5.5</ele><time>2026-05-03T14:58:33.511Z</time></trkpt><trkpt lat="37.2369261" lon="13.6190626"><ele>6.25</ele><time>2026-05-03T14:58:34.511Z</time></trkpt><trkpt lat="37.2370209" lon="13.618966"><ele>7.0</ele><time>2026-05-03T14:58:35.512Z</time></trkpt><trkpt lat="37.2371104" lon="13.6188729"><ele>7.0</ele><time>2026-05-03T14:58:36.511Z</time></trkpt><trkpt lat="37.2371964" lon="13.6187841"><ele>6.999999999999999</ele><time>2026-05-03T14:58:37.511Z</time></trkpt><trkpt lat="37.2372835" lon="13.6187019"><ele>6.999999999999999</ele><time>2026-05-03T14:58:38.511Z</time></trkpt><trkpt lat="37.2373698" lon="13.6186292"><ele>7.0</ele><time>2026-05-03T14:58:39.511Z</time></trkpt><trkpt lat="37.2374607" lon="13.6185573"><ele>7.0</ele><time>2026-05-03T14:58:40.511Z</time></trkpt><trkpt lat="37.2375507" lon="13.618486"><ele>7.3999999999999995</ele><time>2026-05-03T14:58:41.512Z</time></trkpt><trkpt lat="37.2376457" lon="13.6184237"><ele>7.799999999999999</ele><time>2026-05-03T14:58:42.512Z</time></trkpt><trkpt lat="37.2377405" lon="13.618369"><ele>8.2</ele><time>2026-05-03T14:58:43.512Z</time></trkpt><trkpt lat="37.2378274" lon="13.6183173"><ele>8.6</ele><time>2026-05-03T14:58:44.511Z</time></trkpt><trkpt lat="37.2379068" lon="13.6182777"><ele>9.0</ele><time>2026-05-03T14:58:45.511Z</time></trkpt><trkpt lat="37.237988" lon="13.6182498"><ele>9.0</ele><time>2026-05-03T14:58:46.511Z</time></trkpt><trkpt lat="37.2380714" lon="13.6182338"><ele>9.0</ele><time>2026-05-03T14:58:47.512Z</time></trkpt><trkpt lat="37.2381561" lon="13.6182283"><ele>9.0</ele><time>2026-05-03T14:58:48.511Z</time></trkpt><trkpt lat="37.2382348" lon="13.618232"><ele>9.0</ele><time>2026-05-03T14:58:49.511Z</time></trkpt><trkpt lat="37.2383028" lon="13.6182472"><ele>9.0</ele><time>2026-05-03T14:58:50.512Z</time></trkpt><trkpt lat="37.2383701" lon="13.6182794"><ele>9.0</ele><time>2026-05-03T14:58:51.512Z</time></trkpt><trkpt lat="37.2384377" lon="13.6183312"><ele>9.666666666666666</ele><time>2026-05-03T14:58:52.512Z</time></trkpt><trkpt lat="37.2385049" lon="13.6183785"><ele>10.333333333333332</ele><time>2026-05-03T14:58:53.512Z</time></trkpt><trkpt lat="37.2385748" lon="13.6184211"><ele>11.0</ele><time>2026-05-03T14:58:54.511Z</time></trkpt><trkpt lat="37.2386451" lon="13.6184639"><ele>11.666666666666666</ele><time>2026-05-03T14:58:55.511Z</time></trkpt><trkpt lat="37.238718" lon="13.6185047"><ele>12.333333333333332</ele><time>2026-05-03T14:58:56.511Z</time></trkpt><trkpt lat="37.2387965" lon="13.6185471"><ele>13.0</ele><time>2026-05-03T14:58:57.512Z</time></trkpt><trkpt lat="37.2388694" lon="13.6185883"><ele>12.999999999999998</ele><time>2026-05-03T14:58:58.512Z</time></trkpt><trkpt lat="37.2389395" lon="13.6186268"><ele>13.0</ele><time>2026-05-03T14:58:59.512Z</time></trkpt><trkpt lat="37.2390172" lon="13.6186691"><ele>13.0</ele><time>2026-05-03T14:59:00.512Z</time></trkpt><trkpt lat="37.2390965" lon="13.6187134"><ele>13.0</ele><time>2026-05-03T14:59:01.512Z</time></trkpt><trkpt lat="37.2391814" lon="13.6187612"><ele>12.999999999999998</ele><time>2026-05-03T14:59:02.511Z</time></trkpt><trkpt lat="37.2392638" lon="13.618805"><ele>13.0</ele><time>2026-05-03T14:59:03.511Z</time></trkpt><trkpt lat="37.23934" lon="13.618849"><ele>13.499999999999998</ele><time>2026-05-03T14:59:04.512Z</time></trkpt><trkpt lat="37.239414" lon="13.6188911"><ele>14.0</ele><time>2026-05-03T14:59:05.511Z</time></trkpt><trkpt lat="37.2394903" lon="13.6189306"><ele>14.5</ele><time>2026-05-03T14:59:06.511Z</time></trkpt><trkpt lat="37.2395727" lon="13.618975"><ele>15.0</ele><time>2026-05-03T14:59:07.512Z</time></trkpt><trkpt lat="37.239655" lon="13.6190187"><ele>15.499999999999998</ele><time>2026-05-03T14:59:08.512Z</time></trkpt><trkpt lat="37.2397331" lon="13.6190523"><ele>16.0</ele><time>2026-05-03T14:59:09.512Z</time></trkpt><trkpt lat="37.2398149" lon="13.6190982"><ele>15.999999999999998</ele><time>2026-05-03T14:59:10.512Z</time></trkpt><trkpt lat="37.2398936" lon="13.6191395"><ele>16.0</ele><time>2026-05-03T14:59:11.511Z</time></trkpt><trkpt lat="37.2399671" lon="13.6191851"><ele>16.0</ele><time>2026-05-03T14:59:12.512Z</time></trkpt><trkpt lat="37.2400413" lon="13.619229"><ele>16.0</ele><time>2026-05-03T14:59:13.511Z</time></trkpt><trkpt lat="37.2401201" lon="13.6192697"><ele>15.999999999999998</ele><time>2026-05-03T14:59:14.511Z</time></trkpt><trkpt lat="37.2401964" lon="13.6193108"><ele>16.0</ele><time>2026-05-03T14:59:15.512Z</time></trkpt><trkpt lat="37.2402733" lon="13.6193514"><ele>15.999999999999998</ele><time>2026-05-03T14:59:16.512Z</time></trkpt><trkpt lat="37.2403482" lon="13.6193902"><ele>16.0</ele><time>2026-05-03T14:59:17.511Z</time></trkpt><trkpt lat="37.2404211" lon="13.6194318"><ele>16.0</ele><time>2026-05-03T14:59:18.512Z</time></trkpt><trkpt lat="37.2404989" lon="13.6194761"><ele>16.0</ele><time>2026-05-03T14:59:19.512Z</time></trkpt><trkpt lat="37.2405735" lon="13.6195181"><ele>15.999999999999998</ele><time>2026-05-03T14:59:20.512Z</time></trkpt><trkpt lat="37.2406467" lon="13.6195572"><ele>16.0</ele><time>2026-05-03T14:59:21.512Z</time></trkpt><trkpt lat="37.2407184" lon="13.6195982"><ele>16.166666666666664</ele><time>2026-05-03T14:59:22.511Z</time></trkpt><trkpt lat="37.2407891" lon="13.6196383"><ele>16.333333333333332</ele><time>2026-05-03T14:59:23.511Z</time></trkpt><trkpt lat="37.2408633" lon="13.6196701"><ele>16.5</ele><time>2026-05-03T14:59:24.511Z</time></trkpt><trkpt lat="37.2409304" lon="13.6197079"><ele>16.666666666666668</ele><time>2026-05-03T14:59:25.511Z</time></trkpt><trkpt lat="37.2409897" lon="13.6197416"><ele>16.833333333333336</ele><time>2026-05-03T14:59:26.512Z</time></trkpt><trkpt lat="37.2410851" lon="13.6197968"><ele>17.0</ele><time>2026-05-03T14:59:28.512Z</time></trkpt><trkpt lat="37.2411631" lon="13.6198229"><ele>17.0</ele><time>2026-05-03T14:59:35.511Z</time></trkpt><trkpt lat="37.241199" lon="13.619739"><ele>17.0</ele><time>2026-05-03T14:59:38.511Z</time></trkpt><trkpt lat="37.2412233" lon="13.6196234"><ele>17.0</ele><time>2026-05-03T14:59:41.511Z</time></trkpt><trkpt lat="37.2412589" lon="13.6195429"><ele>17.0</ele><time>2026-05-03T14:59:43.512Z</time></trkpt><trkpt lat="37.2413224" lon="13.619523"><ele>17.0</ele><time>2026-05-03T14:59:46.512Z</time></trkpt><trkpt lat="37.2413904" lon="13.6195349"><ele>17.0</ele><time>2026-05-03T14:59:48.511Z</time></trkpt><trkpt lat="37.241469" lon="13.6195795"><ele>19.2</ele><time>2026-05-03T14:59:50.512Z</time></trkpt><trkpt lat="37.2415556" lon="13.6196243"><ele>21.4</ele><time>2026-05-03T14:59:52.512Z</time></trkpt><trkpt lat="37.2416442" lon="13.6196868"><ele>23.599999999999998</ele><time>2026-05-03T14:59:54.511Z</time></trkpt><trkpt lat="37.2417279" lon="13.619739"><ele>25.799999999999997</ele><time>2026-05-03T14:59:56.512Z</time></trkpt><trkpt lat="37.2418201" lon="13.6197974"><ele>28.0</ele><time>2026-05-03T14:59:58.512Z</time></trkpt><trkpt lat="37.2418994" lon="13.619842"><ele>28.000000000000004</ele><time>2026-05-03T15:00:00.512Z</time></trkpt><trkpt lat="37.2419538" lon="13.6199006"><ele>28.0</ele><time>2026-05-03T15:00:02.511Z</time></trkpt><trkpt lat="37.2419696" lon="13.619983"><ele>28.0</ele><time>2026-05-03T15:00:04.512Z</time></trkpt><trkpt lat="37.2420199" lon="13.6200574"><ele>28.0</ele><time>2026-05-03T15:00:07.512Z</time></trkpt><trkpt lat="37.2421163" lon="13.6200761"><ele>28.000000000000004</ele><time>2026-05-03T15:00:09.511Z</time></trkpt><trkpt lat="37.2421855" lon="13.6200833"><ele>28.0</ele><time>2026-05-03T15:00:10.512Z</time></trkpt><trkpt lat="37.2422604" lon="13.6200969"><ele>29.333333333333336</ele><time>2026-05-03T15:00:11.512Z</time></trkpt><trkpt lat="37.2423281" lon="13.6201173"><ele>30.666666666666668</ele><time>2026-05-03T15:00:12.511Z</time></trkpt><trkpt lat="37.2423894" lon="13.6201353"><ele>32.0</ele><time>2026-05-03T15:00:13.512Z</time></trkpt><trkpt lat="37.2424677" lon="13.6201461"><ele>33.333333333333336</ele><time>2026-05-03T15:00:15.512Z</time></trkpt><trkpt lat="37.2425283" lon="13.6200902"><ele>34.666666666666664</ele><time>2026-05-03T15:00:19.511Z</time></trkpt><trkpt lat="37.2425454" lon="13.6199863"><ele>36.0</ele><time>2026-05-03T15:00:21.511Z</time></trkpt><trkpt lat="37.2425667" lon="13.6198238"><ele>36.0</ele><time>2026-05-03T15:00:23.511Z</time></trkpt><trkpt lat="37.242573" lon="13.6197276"><ele>36.0</ele><time>2026-05-03T15:00:24.511Z</time></trkpt><trkpt lat="37.2425763" lon="13.619624"><ele>36.0</ele><time>2026-05-03T15:00:25.511Z</time></trkpt><trkpt lat="37.2425896" lon="13.6195093"><ele>36.0</ele><time>2026-05-03T15:00:26.512Z</time></trkpt><trkpt lat="37.2426023" lon="13.6193761"><ele>36.0</ele><time>2026-05-03T15:00:27.511Z</time></trkpt><trkpt lat="37.2426585" lon="13.619195"><ele>36.0</ele><time>2026-05-03T15:00:28.512Z</time></trkpt><trkpt lat="37.2426817" lon="13.6190466"><ele>36.0</ele><time>2026-05-03T15:00:29.512Z</time></trkpt><trkpt lat="37.2427025" lon="13.6189038"><ele>36.0</ele><time>2026-05-03T15:00:30.512Z</time></trkpt><trkpt lat="37.242722" lon="13.6187701"><ele>36.0</ele><time>2026-05-03T15:00:31.511Z</time></trkpt><trkpt lat="37.242739" lon="13.6186552"><ele>36.0</ele><time>2026-05-03T15:00:32.511Z</time></trkpt><trkpt lat="37.2427528" lon="13.6185487"><ele>35.833333333333336</ele><time>2026-05-03T15:00:33.512Z</time></trkpt><trkpt lat="37.2427581" lon="13.6184598"><ele>35.666666666666664</ele><time>2026-05-03T15:00:34.511Z</time></trkpt><trkpt lat="37.2427824" lon="13.6183629"><ele>35.5</ele><time>2026-05-03T15:00:36.512Z</time></trkpt><trkpt lat="37.2428613" lon="13.6183613"><ele>35.33333333333333</ele><time>2026-05-03T15:00:39.512Z</time></trkpt><trkpt lat="37.24297" lon="13.6184483"><ele>35.166666666666664</ele><time>2026-05-03T15:00:41.512Z</time></trkpt><trkpt lat="37.2430354" lon="13.6184945"><ele>35.0</ele><time>2026-05-03T15:00:42.512Z</time></trkpt><trkpt lat="37.2431061" lon="13.6185409"><ele>35.0</ele><time>2026-05-03T15:00:43.511Z</time></trkpt><trkpt lat="37.2431804" lon="13.6185946"><ele>35.0</ele><time>2026-05-03T15:00:44.511Z</time></trkpt><trkpt lat="37.2432527" lon="13.6186483"><ele>35.0</ele><time>2026-05-03T15:00:45.511Z</time></trkpt><trkpt lat="37.2433278" lon="13.6186988"><ele>35.0</ele><time>2026-05-03T15:00:46.511Z</time></trkpt><trkpt lat="37.2434008" lon="13.6187496"><ele>35.0</ele><time>2026-05-03T15:00:47.512Z</time></trkpt><trkpt lat="37.2434754" lon="13.618801"><ele>35.0</ele><time>2026-05-03T15:00:48.511Z</time></trkpt><trkpt lat="37.2435515" lon="13.6188527"><ele>35.0</ele><time>2026-05-03T15:00:49.512Z</time></trkpt><trkpt lat="37.243628" lon="13.6189045"><ele>35.0</ele><time>2026-05-03T15:00:50.512Z</time></trkpt><trkpt lat="37.2437054" lon="13.6189593"><ele>35.0</ele><time>2026-05-03T15:00:51.511Z</time></trkpt><trkpt lat="37.2437829" lon="13.6190122"><ele>35.0</ele><time>2026-05-03T15:00:52.512Z</time></trkpt><trkpt lat="37.2438613" lon="13.6190645"><ele>35.0</ele><time>2026-05-03T15:00:53.512Z</time></trkpt><trkpt lat="37.2439348" lon="13.6191185"><ele>35.0</ele><time>2026-05-03T15:00:54.512Z</time></trkpt><trkpt lat="37.2440073" lon="13.619172"><ele>35.0</ele><time>2026-05-03T15:00:55.512Z</time></trkpt><trkpt lat="37.2440784" lon="13.619221"><ele>35.0</ele><time>2026-05-03T15:00:56.511Z</time></trkpt><trkpt lat="37.2441444" lon="13.6192671"><ele>35.0</ele><time>2026-05-03T15:00:57.511Z</time></trkpt><trkpt lat="37.244207" lon="13.6193091"><ele>35.0</ele><time>2026-05-03T15:00:58.512Z</time></trkpt><trkpt lat="37.2442621" lon="13.6193509"><ele>35.0</ele><time>2026-05-03T15:00:59.511Z</time></trkpt><trkpt lat="37.2443616" lon="13.619423"><ele>35.0</ele><time>2026-05-03T15:01:01.512Z</time></trkpt><trkpt lat="37.2444682" lon="13.6194804"><ele>35.0</ele><time>2026-05-03T15:01:03.512Z</time></trkpt><trkpt lat="37.2445323" lon="13.6195182"><ele>35.0</ele><time>2026-05-03T15:01:04.511Z</time></trkpt><trkpt lat="37.2446034" lon="13.6195675"><ele>35.0</ele><time>2026-05-03T15:01:05.512Z</time></trkpt><trkpt lat="37.2446749" lon="13.6196271"><ele>35.0</ele><time>2026-05-03T15:01:06.512Z</time></trkpt><trkpt lat="37.2447463" lon="13.6196765"><ele>35.0</ele><time>2026-05-03T15:01:07.512Z</time></trkpt><trkpt lat="37.2448011" lon="13.619716"><ele>35.0</ele><time>2026-05-03T15:01:08.512Z</time></trkpt><trkpt lat="37.2448597" lon="13.6197547"><ele>35.0</ele><time>2026-05-03T15:01:10.512Z</time></trkpt><trkpt lat="37.2449336" lon="13.6197429"><ele>35.0</ele><time>2026-05-03T15:01:18.512Z</time></trkpt><trkpt lat="37.244989" lon="13.6196541"><ele>35.0</ele><time>2026-05-03T15:01:20.512Z</time></trkpt><trkpt lat="37.2450311" lon="13.6195563"><ele>35.0</ele><time>2026-05-03T15:01:21.511Z</time></trkpt><trkpt lat="37.2450796" lon="13.6194318"><ele>35.0</ele><time>2026-05-03T15:01:22.512Z</time></trkpt><trkpt lat="37.2451342" lon="13.6192918"><ele>35.0</ele><time>2026-05-03T15:01:23.511Z</time></trkpt><trkpt lat="37.245203" lon="13.6191329"><ele>35.0</ele><time>2026-05-03T15:01:24.511Z</time></trkpt><trkpt lat="37.2452733" lon="13.6189635"><ele>35.0</ele><time>2026-05-03T15:01:25.511Z</time></trkpt><trkpt lat="37.2453377" lon="13.618798"><ele>35.0</ele><time>2026-05-03T15:01:26.511Z</time></trkpt><trkpt lat="37.2454033" lon="13.6186429"><ele>35.0</ele><time>2026-05-03T15:01:27.511Z</time></trkpt><trkpt lat="37.2454679" lon="13.6184947"><ele>35.0</ele><time>2026-05-03T15:01:28.511Z</time></trkpt><trkpt lat="37.2455392" lon="13.6183599"><ele>35.0</ele><time>2026-05-03T15:01:29.512Z</time></trkpt><trkpt lat="37.2456234" lon="13.6182291"><ele>35.0</ele><time>2026-05-03T15:01:30.511Z</time></trkpt><trkpt lat="37.2457143" lon="13.6181086"><ele>35.0</ele><time>2026-05-03T15:01:31.511Z</time></trkpt><trkpt lat="37.245819" lon="13.6179951"><ele>35.5</ele><time>2026-05-03T15:01:32.512Z</time></trkpt><trkpt lat="37.2459321" lon="13.6178912"><ele>36.0</ele><time>2026-05-03T15:01:33.511Z</time></trkpt><trkpt lat="37.24605" lon="13.6178013"><ele>36.5</ele><time>2026-05-03T15:01:34.511Z</time></trkpt><trkpt lat="37.2461747" lon="13.6177195"><ele>37.0</ele><time>2026-05-03T15:01:35.511Z</time></trkpt><trkpt lat="37.2462968" lon="13.6176546"><ele>37.0</ele><time>2026-05-03T15:01:36.512Z</time></trkpt><trkpt lat="37.2464257" lon="13.6176015"><ele>37.0</ele><time>2026-05-03T15:01:37.511Z</time></trkpt><trkpt lat="37.2465642" lon="13.6175587"><ele>37.0</ele><time>2026-05-03T15:01:38.512Z</time></trkpt><trkpt lat="37.2467133" lon="13.6175203"><ele>37.0</ele><time>2026-05-03T15:01:39.512Z</time></trkpt><trkpt lat="37.2468762" lon="13.6174821"><ele>37.333333333333336</ele><time>2026-05-03T15:01:40.512Z</time></trkpt><trkpt lat="37.2470553" lon="13.6174398"><ele>37.666666666666664</ele><time>2026-05-03T15:01:41.511Z</time></trkpt><trkpt lat="37.2472478" lon="13.6173991"><ele>38.0</ele><time>2026-05-03T15:01:42.511Z</time></trkpt><trkpt lat="37.2474504" lon="13.6173609"><ele>39.0</ele><time>2026-05-03T15:01:43.512Z</time></trkpt><trkpt lat="37.2476564" lon="13.6173304"><ele>40.0</ele><time>2026-05-03T15:01:44.512Z</time></trkpt><trkpt lat="37.2478604" lon="13.6172949"><ele>41.0</ele><time>2026-05-03T15:01:45.512Z</time></trkpt><trkpt lat="37.2480588" lon="13.6172579"><ele>41.0</ele><time>2026-05-03T15:01:46.512Z</time></trkpt><trkpt lat="37.2482534" lon="13.6172217"><ele>41.0</ele><time>2026-05-03T15:01:47.512Z</time></trkpt><trkpt lat="37.2484392" lon="13.6171868"><ele>41.0</ele><time>2026-05-03T15:01:48.511Z</time></trkpt><trkpt lat="37.2486173" lon="13.6171531"><ele>41.0</ele><time>2026-05-03T15:01:49.511Z</time></trkpt><trkpt lat="37.2487818" lon="13.6171173"><ele>41.0</ele><time>2026-05-03T15:01:50.512Z</time></trkpt><trkpt lat="37.2489311" lon="13.6170831"><ele>41.0</ele><time>2026-05-03T15:01:51.511Z</time></trkpt><trkpt lat="37.249064" lon="13.6170625"><ele>41.0</ele><time>2026-05-03T15:01:52.512Z</time></trkpt><trkpt lat="37.2491862" lon="13.6170459"><ele>41.0</ele><time>2026-05-03T15:01:53.511Z</time></trkpt><trkpt lat="37.2493015" lon="13.6170469"><ele>41.0</ele><time>2026-05-03T15:01:54.511Z</time></trkpt><trkpt lat="37.2494183" lon="13.6170595"><ele>41.0</ele><time>2026-05-03T15:01:55.511Z</time></trkpt><trkpt lat="37.2495422" lon="13.6170909"><ele>41.0</ele><time>2026-05-03T15:01:56.512Z</time></trkpt><trkpt lat="37.2496832" lon="13.6171377"><ele>41.0</ele><time>2026-05-03T15:01:57.511Z</time></trkpt><trkpt lat="37.249837" lon="13.6172024"><ele>41.0</ele><time>2026-05-03T15:01:58.512Z</time></trkpt><trkpt lat="37.2500007" lon="13.6172726"><ele>40.0</ele><time>2026-05-03T15:01:59.511Z</time></trkpt><trkpt lat="37.2501655" lon="13.6173411"><ele>39.0</ele><time>2026-05-03T15:02:00.512Z</time></trkpt><trkpt lat="37.2503271" lon="13.6174105"><ele>38.0</ele><time>2026-05-03T15:02:01.512Z</time></trkpt><trkpt lat="37.2504867" lon="13.6174816"><ele>37.75</ele><time>2026-05-03T15:02:02.511Z</time></trkpt><trkpt lat="37.2506286" lon="13.6175479"><ele>37.5</ele><time>2026-05-03T15:02:03.512Z</time></trkpt><trkpt lat="37.2507615" lon="13.6176078"><ele>37.25</ele><time>2026-05-03T15:02:04.511Z</time></trkpt><trkpt lat="37.250884" lon="13.6176628"><ele>37.0</ele><time>2026-05-03T15:02:05.512Z</time></trkpt><trkpt lat="37.2509951" lon="13.6177239"><ele>37.0</ele><time>2026-05-03T15:02:06.512Z</time></trkpt><trkpt lat="37.2510952" lon="13.6177867"><ele>37.0</ele><time>2026-05-03T15:02:07.512Z</time></trkpt><trkpt lat="37.251185" lon="13.6178451"><ele>37.0</ele><time>2026-05-03T15:02:08.512Z</time></trkpt><trkpt lat="37.2512603" lon="13.6178929"><ele>37.0</ele><time>2026-05-03T15:02:09.511Z</time></trkpt><trkpt lat="37.2513168" lon="13.6179343"><ele>37.0</ele><time>2026-05-03T15:02:10.512Z</time></trkpt><trkpt lat="37.2514242" lon="13.6180182"><ele>38.75</ele><time>2026-05-03T15:02:12.512Z</time></trkpt><trkpt lat="37.2514905" lon="13.6180902"><ele>40.5</ele><time>2026-05-03T15:02:13.511Z</time></trkpt><trkpt lat="37.2515752" lon="13.618186"><ele>42.25</ele><time>2026-05-03T15:02:14.512Z</time></trkpt><trkpt lat="37.251675" lon="13.6182984"><ele>44.0</ele><time>2026-05-03T15:02:15.511Z</time></trkpt><trkpt lat="37.2517931" lon="13.6184377"><ele>44.0</ele><time>2026-05-03T15:02:16.512Z</time></trkpt><trkpt lat="37.251928" lon="13.618602"><ele>44.0</ele><time>2026-05-03T15:02:17.512Z</time></trkpt><trkpt lat="37.2520753" lon="13.6187693"><ele>44.0</ele><time>2026-05-03T15:02:18.512Z</time></trkpt><trkpt lat="37.2522377" lon="13.6189615"><ele>46.0</ele><time>2026-05-03T15:02:19.511Z</time></trkpt><trkpt lat="37.2524069" lon="13.6191618"><ele>48.0</ele><time>2026-05-03T15:02:20.511Z</time></trkpt><trkpt lat="37.2525691" lon="13.6193541"><ele>48.66666666666667</ele><time>2026-05-03T15:02:21.511Z</time></trkpt><trkpt lat="37.2527278" lon="13.6195348"><ele>49.333333333333336</ele><time>2026-05-03T15:02:22.511Z</time></trkpt><trkpt lat="37.2528768" lon="13.6197093"><ele>50.0</ele><time>2026-05-03T15:02:23.512Z</time></trkpt><trkpt lat="37.2530162" lon="13.6198745"><ele>50.333333333333336</ele><time>2026-05-03T15:02:24.511Z</time></trkpt><trkpt lat="37.2531457" lon="13.620024"><ele>50.66666666666667</ele><time>2026-05-03T15:02:25.512Z</time></trkpt><trkpt lat="37.2532665" lon="13.6201648"><ele>51.0</ele><time>2026-05-03T15:02:26.512Z</time></trkpt><trkpt lat="37.2533777" lon="13.6202941"><ele>50.75</ele><time>2026-05-03T15:02:27.512Z</time></trkpt><trkpt lat="37.2534812" lon="13.6204129"><ele>50.5</ele><time>2026-05-03T15:02:28.512Z</time></trkpt><trkpt lat="37.2535776" lon="13.6205294"><ele>50.25</ele><time>2026-05-03T15:02:29.512Z</time></trkpt><trkpt lat="37.2536673" lon="13.6206352"><ele>50.0</ele><time>2026-05-03T15:02:30.511Z</time></trkpt><trkpt lat="37.2537477" lon="13.6207377"><ele>50.0</ele><time>2026-05-03T15:02:31.511Z</time></trkpt><trkpt lat="37.2538261" lon="13.6208366"><ele>50.0</ele><time>2026-05-03T15:02:32.511Z</time></trkpt><trkpt lat="37.2539001" lon="13.6209321"><ele>50.0</ele><time>2026-05-03T15:02:33.512Z</time></trkpt><trkpt lat="37.2539663" lon="13.6210293"><ele>50.0</ele><time>2026-05-03T15:02:34.511Z</time></trkpt><trkpt lat="37.2540234" lon="13.6211341"><ele>50.0</ele><time>2026-05-03T15:02:35.511Z</time></trkpt><trkpt lat="37.2540576" lon="13.6212405"><ele>50.833333333333336</ele><time>2026-05-03T15:02:36.511Z</time></trkpt><trkpt lat="37.2540748" lon="13.6213508"><ele>51.66666666666667</ele><time>2026-05-03T15:02:37.512Z</time></trkpt><trkpt lat="37.2540722" lon="13.6214654"><ele>52.5</ele><time>2026-05-03T15:02:38.512Z</time></trkpt><trkpt lat="37.2540529" lon="13.6215759"><ele>53.33333333333333</ele><time>2026-05-03T15:02:39.512Z</time></trkpt><trkpt lat="37.2540346" lon="13.621683"><ele>54.166666666666664</ele><time>2026-05-03T15:02:40.511Z</time></trkpt><trkpt lat="37.2540254" lon="13.6217731"><ele>55.0</ele><time>2026-05-03T15:02:41.511Z</time></trkpt><trkpt lat="37.2540423" lon="13.6218551"><ele>55.0</ele><time>2026-05-03T15:02:42.511Z</time></trkpt><trkpt lat="37.2541355" lon="13.6219421"><ele>55.0</ele><time>2026-05-03T15:02:44.511Z</time></trkpt><trkpt lat="37.2542464" lon="13.6219217"><ele>55.0</ele><time>2026-05-03T15:02:46.512Z</time></trkpt><trkpt lat="37.2543197" lon="13.6218066"><ele>55.0</ele><time>2026-05-03T15:02:48.512Z</time></trkpt><trkpt lat="37.2543342" lon="13.6216963"><ele>55.0</ele><time>2026-05-03T15:02:50.511Z</time></trkpt><trkpt lat="37.2542965" lon="13.6215358"><ele>55.0</ele><time>2026-05-03T15:02:52.512Z</time></trkpt><trkpt lat="37.2542657" lon="13.6214286"><ele>55.0</ele><time>2026-05-03T15:02:53.512Z</time></trkpt><trkpt lat="37.2541627" lon="13.621359"><ele>55.0</ele><time>2026-05-03T15:02:54.511Z</time></trkpt><trkpt lat="37.2541582" lon="13.6212205"><ele>55.0</ele><time>2026-05-03T15:02:55.511Z</time></trkpt><trkpt lat="37.2541642" lon="13.6210734"><ele>55.0</ele><time>2026-05-03T15:02:56.512Z</time></trkpt><trkpt lat="37.254181" lon="13.6209081"><ele>55.0</ele><time>2026-05-03T15:02:57.512Z</time></trkpt><trkpt lat="37.2541978" lon="13.6207543"><ele>55.0</ele><time>2026-05-03T15:02:58.512Z</time></trkpt><trkpt lat="37.2542153" lon="13.6205985"><ele>55.0</ele><time>2026-05-03T15:02:59.511Z</time></trkpt><trkpt lat="37.2542399" lon="13.6204502"><ele>55.0</ele><time>2026-05-03T15:03:00.511Z</time></trkpt><trkpt lat="37.2542832" lon="13.6203184"><ele>54.4</ele><time>2026-05-03T15:03:01.511Z</time></trkpt><trkpt lat="37.2543359" lon="13.6202022"><ele>53.8</ele><time>2026-05-03T15:03:02.512Z</time></trkpt><trkpt lat="37.2543967" lon="13.6201025"><ele>53.2</ele><time>2026-05-03T15:03:03.512Z</time></trkpt><trkpt lat="37.2544701" lon="13.6200163"><ele>52.6</ele><time>2026-05-03T15:03:04.512Z</time></trkpt><trkpt lat="37.254559" lon="13.6199477"><ele>52.0</ele><time>2026-05-03T15:03:05.512Z</time></trkpt><trkpt lat="37.2546651" lon="13.6198813"><ele>52.0</ele><time>2026-05-03T15:03:06.512Z</time></trkpt><trkpt lat="37.254779" lon="13.619808"><ele>52.0</ele><time>2026-05-03T15:03:07.512Z</time></trkpt><trkpt lat="37.2548986" lon="13.619726"><ele>52.0</ele><time>2026-05-03T15:03:08.512Z</time></trkpt><trkpt lat="37.2550204" lon="13.6196406"><ele>52.0</ele><time>2026-05-03T15:03:09.511Z</time></trkpt><trkpt lat="37.2551529" lon="13.619549"><ele>51.666666666666664</ele><time>2026-05-03T15:03:10.512Z</time></trkpt><trkpt lat="37.255292" lon="13.6194552"><ele>51.33333333333333</ele><time>2026-05-03T15:03:11.511Z</time></trkpt><trkpt lat="37.2554379" lon="13.619357"><ele>51.0</ele><time>2026-05-03T15:03:12.511Z</time></trkpt><trkpt lat="37.2555841" lon="13.6192541"><ele>51.33333333333333</ele><time>2026-05-03T15:03:13.512Z</time></trkpt><trkpt lat="37.2557383" lon="13.619149"><ele>51.666666666666664</ele><time>2026-05-03T15:03:14.511Z</time></trkpt><trkpt lat="37.2558942" lon="13.6190464"><ele>52.0</ele><time>2026-05-03T15:03:15.512Z</time></trkpt><trkpt lat="37.2560475" lon="13.6189372"><ele>52.0</ele><time>2026-05-03T15:03:16.511Z</time></trkpt><trkpt lat="37.2561952" lon="13.6188308"><ele>52.0</ele><time>2026-05-03T15:03:17.511Z</time></trkpt><trkpt lat="37.2563463" lon="13.6187305"><ele>52.0</ele><time>2026-05-03T15:03:18.511Z</time></trkpt><trkpt lat="37.2564927" lon="13.6186242"><ele>52.0</ele><time>2026-05-03T15:03:19.511Z</time></trkpt><trkpt lat="37.2566264" lon="13.6185266"><ele>52.0</ele><time>2026-05-03T15:03:20.511Z</time></trkpt><trkpt lat="37.2567473" lon="13.6184333"><ele>52.0</ele><time>2026-05-03T15:03:21.512Z</time></trkpt><trkpt lat="37.2568705" lon="13.6183488"><ele>52.0</ele><time>2026-05-03T15:03:22.512Z</time></trkpt><trkpt lat="37.257" lon="13.6182616"><ele>52.0</ele><time>2026-05-03T15:03:23.512Z</time></trkpt><trkpt lat="37.2571373" lon="13.6181735"><ele>52.0</ele><time>2026-05-03T15:03:24.511Z</time></trkpt><trkpt lat="37.2572818" lon="13.618081"><ele>52.0</ele><time>2026-05-03T15:03:25.512Z</time></trkpt><trkpt lat="37.2574353" lon="13.6179925"><ele>52.0</ele><time>2026-05-03T15:03:26.511Z</time></trkpt><trkpt lat="37.2575971" lon="13.6179058"><ele>52.0</ele><time>2026-05-03T15:03:27.511Z</time></trkpt><trkpt lat="37.2577637" lon="13.6178166"><ele>52.0</ele><time>2026-05-03T15:03:28.511Z</time></trkpt><trkpt lat="37.2579353" lon="13.6177227"><ele>51.0</ele><time>2026-05-03T15:03:29.512Z</time></trkpt><trkpt lat="37.2581118" lon="13.6176281"><ele>50.0</ele><time>2026-05-03T15:03:30.511Z</time></trkpt><trkpt lat="37.2582755" lon="13.6175383"><ele>49.0</ele><time>2026-05-03T15:03:31.511Z</time></trkpt><trkpt lat="37.258439" lon="13.6174499"><ele>49.0</ele><time>2026-05-03T15:03:32.511Z</time></trkpt><trkpt lat="37.2585976" lon="13.6173607"><ele>49.0</ele><time>2026-05-03T15:03:33.512Z</time></trkpt><trkpt lat="37.2587534" lon="13.6172807"><ele>49.0</ele><time>2026-05-03T15:03:34.511Z</time></trkpt><trkpt lat="37.2588987" lon="13.6172007"><ele>49.0</ele><time>2026-05-03T15:03:35.512Z</time></trkpt><trkpt lat="37.2590398" lon="13.6171288"><ele>49.0</ele><time>2026-05-03T15:03:36.512Z</time></trkpt><trkpt lat="37.2591784" lon="13.6170593"><ele>49.0</ele><time>2026-05-03T15:03:37.512Z</time></trkpt><trkpt lat="37.2593091" lon="13.6169926"><ele>49.0</ele><time>2026-05-03T15:03:38.511Z</time></trkpt><trkpt lat="37.2594326" lon="13.6169297"><ele>49.0</ele><time>2026-05-03T15:03:39.511Z</time></trkpt><trkpt lat="37.2595423" lon="13.6168713"><ele>49.0</ele><time>2026-05-03T15:03:40.511Z</time></trkpt><trkpt lat="37.2596372" lon="13.6168134"><ele>49.0</ele><time>2026-05-03T15:03:41.512Z</time></trkpt><trkpt lat="37.2597234" lon="13.6167605"><ele>49.0</ele><time>2026-05-03T15:03:42.512Z</time></trkpt><trkpt lat="37.2597916" lon="13.6167172"><ele>49.0</ele><time>2026-05-03T15:03:43.512Z</time></trkpt><trkpt lat="37.2598761" lon="13.6166758"><ele>49.49999999999999</ele><time>2026-05-03T15:03:45.512Z</time></trkpt><trkpt lat="37.2599454" lon="13.6167533"><ele>50.0</ele><time>2026-05-03T15:03:48.512Z</time></trkpt><trkpt lat="37.2599919" lon="13.6168175"><ele>50.5</ele><time>2026-05-03T15:03:49.511Z</time></trkpt><trkpt lat="37.2600421" lon="13.6168989"><ele>51.0</ele><time>2026-05-03T15:03:50.511Z</time></trkpt><trkpt lat="37.2600983" lon="13.6169982"><ele>51.49999999999999</ele><time>2026-05-03T15:03:51.511Z</time></trkpt><trkpt lat="37.2601535" lon="13.6170981"><ele>52.0</ele><time>2026-05-03T15:03:52.512Z</time></trkpt><trkpt lat="37.2602007" lon="13.6171857"><ele>52.42857142857142</ele><time>2026-05-03T15:03:53.512Z</time></trkpt><trkpt lat="37.2602422" lon="13.6172696"><ele>52.85714285714286</ele><time>2026-05-03T15:03:54.511Z</time></trkpt><trkpt lat="37.2602765" lon="13.6173365"><ele>53.285714285714285</ele><time>2026-05-03T15:03:55.511Z</time></trkpt><trkpt lat="37.2602875" lon="13.6174367"><ele>53.71428571428571</ele><time>2026-05-03T15:03:57.512Z</time></trkpt><trkpt lat="37.2603493" lon="13.6174668"><ele>54.14285714285714</ele><time>2026-05-03T15:06:04.666Z</time></trkpt><trkpt lat="37.2603876" lon="13.6173986"><ele>54.57142857142857</ele><time>2026-05-03T15:06:10.408Z</time></trkpt><trkpt lat="37.2604387" lon="13.6173406"><ele>55.0</ele><time>2026-05-03T15:06:17.534Z</time></trkpt><trkpt lat="37.2603911" lon="13.6174332"><ele>54.99999999999999</ele><time>2026-05-03T15:06:31.511Z</time></trkpt><trkpt lat="37.2603008" lon="13.6174465"><ele>55.0</ele><time>2026-05-03T15:06:37.835Z</time></trkpt><trkpt lat="37.2603597" lon="13.6174961"><ele>55.0</ele><time>2026-05-03T15:06:51.512Z</time></trkpt><trkpt lat="37.260442" lon="13.6174294"><ele>55.0</ele><time>2026-05-03T15:06:53.511Z</time></trkpt><trkpt lat="37.2605132" lon="13.6173655"><ele>54.99999999999999</ele><time>2026-05-03T15:06:55.512Z</time></trkpt><trkpt lat="37.2605783" lon="13.6172993"><ele>55.0</ele><time>2026-05-03T15:07:09.517Z</time></trkpt><trkpt lat="37.2605729" lon="13.6174845"><ele>55.0</ele><time>2026-05-03T15:07:41.35Z</time></trkpt><trkpt lat="37.2605106" lon="13.617341"><ele>55.0</ele><time>2026-05-03T15:08:17.038Z</time></trkpt><trkpt lat="37.2604388" lon="13.6173204"><ele>55.0</ele><time>2026-05-03T15:08:38.526Z</time></trkpt><trkpt lat="37.260384" lon="13.6173604"><ele>55.0</ele><time>2026-05-03T15:08:41.534Z</time></trkpt><trkpt lat="37.2603303" lon="13.6174077"><ele>55.0</ele><time>2026-05-03T15:08:52.565Z</time></trkpt></trkseg></trk></gpx>